<?xml version='1.0' encoding='UTF-8'?><gpx version="1.1" creator="JPX - https://github.com/jenetics/jpx" xmlns="http://www.topografix.com/GPX/1/1"><trk><trkseg><trkpt lat="40.16750130341068" lon="15.146083167857537"><ele>3.0</ele><time>2026-04-26T15:42:59Z</time></trkpt><trkpt lat="40.16755572138547" lon="15.145981921989112"><ele>3.0</ele><time>2026-04-26T15:43:01Z</time></trkpt><trkpt lat="40.16759205687782" lon="15.145819091006455"><ele>3.0</ele><time>2026-04-26T15:43:03Z</time></trkpt><trkpt lat="40.16760977543211" lon="15.145736807162553"><ele>3.0</ele><time>2026-04-26T15:43:06Z</time></trkpt><trkpt lat="40.16766590052678" lon="15.145633939279437"><ele>3.0</ele><time>2026-04-26T15:43:09Z</time></trkpt><trkpt lat="40.16777536064719" lon="15.145595916351473"><ele>2.75</ele><time>2026-04-26T15:43:10Z</time></trkpt><trkpt lat="40.16788234840718" lon="15.145515688097754"><ele>2.5</ele><time>2026-04-26T15:43:11Z</time></trkpt><trkpt lat="40.16799196071149" lon="15.145433491744626"><ele>2.25</ele><time>2026-04-26T15:43:12Z</time></trkpt><trkpt lat="40.16812629005452" lon="15.145332760516538"><ele>2.0</ele><time>2026-04-26T15:43:13Z</time></trkpt><trkpt lat="40.16824645803236" lon="15.14524234022058"><ele>1.8</ele><time>2026-04-26T15:43:14Z</time></trkpt><trkpt lat="40.168351492090764" lon="15.145163260147449"><ele>1.6</ele><time>2026-04-26T15:43:15Z</time></trkpt><trkpt lat="40.168443209684774" lon="15.145094206031956"><ele>1.4000000000000001</ele><time>2026-04-26T15:43:16Z</time></trkpt><trkpt lat="40.16852549431423" lon="15.145032253988337"><ele>1.2000000000000002</ele><time>2026-04-26T15:43:17Z</time></trkpt><trkpt lat="40.16860681362675" lon="15.144971028732078"><ele>1.0</ele><time>2026-04-26T15:43:18Z</time></trkpt><trkpt lat="40.16867691525262" lon="15.14491824926447"><ele>1.0</ele><time>2026-04-26T15:43:19Z</time></trkpt><trkpt lat="40.16876902199527" lon="15.14484890216027"><ele>1.0</ele><time>2026-04-26T15:43:20Z</time></trkpt><trkpt lat="40.16887612345637" lon="15.144769042116927"><ele>1.0</ele><time>2026-04-26T15:43:21Z</time></trkpt><trkpt lat="40.16900975846359" lon="15.144669646058535"><ele>1.0</ele><time>2026-04-26T15:43:22Z</time></trkpt><trkpt lat="40.169162145753965" lon="15.144556302284471"><ele>1.3333333333333333</ele><time>2026-04-26T15:43:23Z</time></trkpt><trkpt lat="40.16931715466276" lon="15.1444410084133"><ele>1.6666666666666665</ele><time>2026-04-26T15:43:24Z</time></trkpt><trkpt lat="40.169453185970994" lon="15.144339829999526"><ele>2.0</ele><time>2026-04-26T15:43:25Z</time></trkpt><trkpt lat="40.1695797776947" lon="15.144245674082594"><ele>2.0</ele><time>2026-04-26T15:43:26Z</time></trkpt><trkpt lat="40.16970384055935" lon="15.144153665167224"><ele>2.0</ele><time>2026-04-26T15:43:27Z</time></trkpt><trkpt lat="40.16983725232037" lon="15.144054676570889"><ele>2.0</ele><time>2026-04-26T15:43:28Z</time></trkpt><trkpt lat="40.16997247392972" lon="15.143954346505764"><ele>2.333333333333333</ele><time>2026-04-26T15:43:29Z</time></trkpt><trkpt lat="40.17010457672575" lon="15.143856329233397"><ele>2.6666666666666665</ele><time>2026-04-26T15:43:30Z</time></trkpt><trkpt lat="40.170234333244146" lon="15.143760052837663"><ele>3.0</ele><time>2026-04-26T15:43:31Z</time></trkpt><trkpt lat="40.170365425993445" lon="15.143662784992378"><ele>3.0</ele><time>2026-04-26T15:43:32Z</time></trkpt><trkpt lat="40.170492759818735" lon="15.143568306157325"><ele>3.0</ele><time>2026-04-26T15:43:33Z</time></trkpt><trkpt lat="40.17061653844041" lon="15.143477182277834"><ele>3.0</ele><time>2026-04-26T15:43:34Z</time></trkpt><trkpt lat="40.170737827765755" lon="15.14338788805471"><ele>3.0</ele><time>2026-04-26T15:43:35Z</time></trkpt><trkpt lat="40.170854839386706" lon="15.1433003803757"><ele>2.5</ele><time>2026-04-26T15:43:36Z</time></trkpt><trkpt lat="40.170972660829115" lon="15.143213477050473"><ele>2.0</ele><time>2026-04-26T15:43:37Z</time></trkpt><trkpt lat="40.17109274486894" lon="15.143126832051578"><ele>1.5</ele><time>2026-04-26T15:43:38Z</time></trkpt><trkpt lat="40.171215271888165" lon="15.143034881321238"><ele>1.0</ele><time>2026-04-26T15:43:39Z</time></trkpt><trkpt lat="40.17134328425736" lon="15.142935745082344"><ele>1.0</ele><time>2026-04-26T15:43:40Z</time></trkpt><trkpt lat="40.17146673562636" lon="15.142832332742978"><ele>1.0</ele><time>2026-04-26T15:43:41Z</time></trkpt><trkpt lat="40.17157210274565" lon="15.14270856400595"><ele>1.0</ele><time>2026-04-26T15:43:42Z</time></trkpt><trkpt lat="40.17167686627188" lon="15.142596205008687"><ele>1.0</ele><time>2026-04-26T15:43:43Z</time></trkpt><trkpt lat="40.171781269821004" lon="15.142500301586548"><ele>1.25</ele><time>2026-04-26T15:43:44Z</time></trkpt><trkpt lat="40.17185781457067" lon="15.14237304368871"><ele>1.5</ele><time>2026-04-26T15:43:45Z</time></trkpt><trkpt lat="40.17193439373052" lon="15.142263480750003"><ele>1.75</ele><time>2026-04-26T15:43:46Z</time></trkpt><trkpt lat="40.17200886440947" lon="15.142144415891847"><ele>2.0</ele><time>2026-04-26T15:43:47Z</time></trkpt><trkpt lat="40.17207848083932" lon="15.14201685980346"><ele>2.0</ele><time>2026-04-26T15:43:48Z</time></trkpt><trkpt lat="40.172146797975046" lon="15.141882175389359"><ele>2.0</ele><time>2026-04-26T15:43:49Z</time></trkpt><trkpt lat="40.1722147870938" lon="15.141740166837888"><ele>2.0</ele><time>2026-04-26T15:43:50Z</time></trkpt><trkpt lat="40.17227770579551" lon="15.14159131817906"><ele>2.0</ele><time>2026-04-26T15:43:51Z</time></trkpt><trkpt lat="40.172328557949" lon="15.141436819103323"><ele>2.25</ele><time>2026-04-26T15:43:52Z</time></trkpt><trkpt lat="40.172374974506" lon="15.14127661008883"><ele>2.5</ele><time>2026-04-26T15:43:53Z</time></trkpt><trkpt lat="40.172416572952486" lon="15.141114347996075"><ele>2.75</ele><time>2026-04-26T15:43:54Z</time></trkpt><trkpt lat="40.17245552447637" lon="15.140948761235451"><ele>3.0</ele><time>2026-04-26T15:43:55Z</time></trkpt><trkpt lat="40.17249673512611" lon="15.140760364139567"><ele>3.0</ele><time>2026-04-26T15:43:56Z</time></trkpt><trkpt lat="40.172540632382606" lon="15.14056493671861"><ele>3.0</ele><time>2026-04-26T15:43:57Z</time></trkpt><trkpt lat="40.17258495724876" lon="15.140371320992946"><ele>3.0</ele><time>2026-04-26T15:43:58Z</time></trkpt><trkpt lat="40.172629364210806" lon="15.14018132927021"><ele>3.0</ele><time>2026-04-26T15:43:59Z</time></trkpt><trkpt lat="40.17267427027969" lon="15.139999158259894"><ele>3.0</ele><time>2026-04-26T15:44:00Z</time></trkpt><trkpt lat="40.172717495983086" lon="15.139822603283124"><ele>3.0</ele><time>2026-04-26T15:44:01Z</time></trkpt><trkpt lat="40.17277285173507" lon="15.139651296965479"><ele>3.0</ele><time>2026-04-26T15:44:02Z</time></trkpt><trkpt lat="40.17280150857373" lon="15.139461990147838"><ele>3.0</ele><time>2026-04-26T15:44:03Z</time></trkpt><trkpt lat="40.17284849163502" lon="15.139282375994892"><ele>3.0</ele><time>2026-04-26T15:44:04Z</time></trkpt><trkpt lat="40.17289143479496" lon="15.13910757327598"><ele>3.0</ele><time>2026-04-26T15:44:05Z</time></trkpt><trkpt lat="40.172931035871855" lon="15.138951008457902"><ele>3.0</ele><time>2026-04-26T15:44:06Z</time></trkpt><trkpt lat="40.17296138400847" lon="15.13881711057875"><ele>3.0</ele><time>2026-04-26T15:44:07Z</time></trkpt><trkpt lat="40.17299588536496" lon="15.138703958874709"><ele>3.0</ele><time>2026-04-26T15:44:08Z</time></trkpt><trkpt lat="40.17302326950857" lon="15.13857305140816"><ele>3.0</ele><time>2026-04-26T15:44:09Z</time></trkpt><trkpt lat="40.1730551565951" lon="15.138447545324153"><ele>3.0</ele><time>2026-04-26T15:44:10Z</time></trkpt><trkpt lat="40.17309930824109" lon="15.13831773359638"><ele>3.0</ele><time>2026-04-26T15:44:11Z</time></trkpt><trkpt lat="40.17311970057736" lon="15.138166267984909"><ele>3.0</ele><time>2026-04-26T15:44:12Z</time></trkpt><trkpt lat="40.173158534914464" lon="15.138010849056696"><ele>3.0</ele><time>2026-04-26T15:44:13Z</time></trkpt><trkpt lat="40.1731974891908" lon="15.137859415584497"><ele>3.0</ele><time>2026-04-26T15:44:14Z</time></trkpt><trkpt lat="40.173242196054034" lon="15.137711106495566"><ele>3.0</ele><time>2026-04-26T15:44:15Z</time></trkpt><trkpt lat="40.173279575310985" lon="15.137556826441399"><ele>2.5</ele><time>2026-04-26T15:44:16Z</time></trkpt><trkpt lat="40.173318115878" lon="15.137400917977393"><ele>2.0</ele><time>2026-04-26T15:44:17Z</time></trkpt><trkpt lat="40.173354922198484" lon="15.137244337025596"><ele>1.5</ele><time>2026-04-26T15:44:18Z</time></trkpt><trkpt lat="40.173390425129725" lon="15.137086053042038"><ele>1.0</ele><time>2026-04-26T15:44:19Z</time></trkpt><trkpt lat="40.17343081233151" lon="15.136942512957782"><ele>1.0</ele><time>2026-04-26T15:44:20Z</time></trkpt><trkpt lat="40.17346671253823" lon="15.136803770301759"><ele>1.0</ele><time>2026-04-26T15:44:21Z</time></trkpt><trkpt lat="40.17349722275462" lon="15.136661312357088"><ele>1.0</ele><time>2026-04-26T15:44:22Z</time></trkpt><trkpt lat="40.173529453048786" lon="15.136528137235011"><ele>1.0</ele><time>2026-04-26T15:44:23Z</time></trkpt><trkpt lat="40.173565748447295" lon="15.136400704855621"><ele>1.0</ele><time>2026-04-26T15:44:24Z</time></trkpt><trkpt lat="40.173598810976884" lon="15.136265049888694"><ele>1.0</ele><time>2026-04-26T15:44:25Z</time></trkpt><trkpt lat="40.17363626026525" lon="15.136114375261196"><ele>1.0</ele><time>2026-04-26T15:44:26Z</time></trkpt><trkpt lat="40.17367164240843" lon="15.135961542041903"><ele>1.0</ele><time>2026-04-26T15:44:27Z</time></trkpt><trkpt lat="40.173707723197246" lon="15.135811345519794"><ele>1.0</ele><time>2026-04-26T15:44:28Z</time></trkpt><trkpt lat="40.17374204132569" lon="15.135657558296161"><ele>1.25</ele><time>2026-04-26T15:44:29Z</time></trkpt><trkpt lat="40.17378192747356" lon="15.135495659157383"><ele>1.5</ele><time>2026-04-26T15:44:30Z</time></trkpt><trkpt lat="40.17382345853043" lon="15.135333888557897"><ele>1.75</ele><time>2026-04-26T15:44:31Z</time></trkpt><trkpt lat="40.1738638903101" lon="15.135168653828798"><ele>2.0</ele><time>2026-04-26T15:44:32Z</time></trkpt><trkpt lat="40.17390291310971" lon="15.135002028678615"><ele>2.0</ele><time>2026-04-26T15:44:33Z</time></trkpt><trkpt lat="40.173940936893736" lon="15.134843097115782"><ele>2.0</ele><time>2026-04-26T15:44:34Z</time></trkpt><trkpt lat="40.17397267294151" lon="15.13471287362344"><ele>2.0</ele><time>2026-04-26T15:44:35Z</time></trkpt><trkpt lat="40.17400152575042" lon="15.13459312302447"><ele>2.0</ele><time>2026-04-26T15:44:36Z</time></trkpt><trkpt lat="40.17402769118853" lon="15.134484925794071"><ele>2.0</ele><time>2026-04-26T15:44:37Z</time></trkpt><trkpt lat="40.17405470883703" lon="15.134369147030343"><ele>2.1666666666666665</ele><time>2026-04-26T15:44:38Z</time></trkpt><trkpt lat="40.17408282291759" lon="15.134248156709358"><ele>2.333333333333333</ele><time>2026-04-26T15:44:39Z</time></trkpt><trkpt lat="40.174110964347705" lon="15.134143405409468"><ele>2.5</ele><time>2026-04-26T15:44:40Z</time></trkpt><trkpt lat="40.1741388118003" lon="15.13403946984408"><ele>2.6666666666666665</ele><time>2026-04-26T15:44:41Z</time></trkpt><trkpt lat="40.174161506000914" lon="15.133928401321102"><ele>2.8333333333333335</ele><time>2026-04-26T15:44:42Z</time></trkpt><trkpt lat="40.17418692998763" lon="15.13381827387157"><ele>3.0</ele><time>2026-04-26T15:44:43Z</time></trkpt><trkpt lat="40.174210039616725" lon="15.13371151521524"><ele>3.0</ele><time>2026-04-26T15:44:44Z</time></trkpt><trkpt lat="40.174248684212095" lon="15.133613692142069"><ele>3.0</ele><time>2026-04-26T15:44:45Z</time></trkpt><trkpt lat="40.17427511933291" lon="15.133504360957922"><ele>3.0</ele><time>2026-04-26T15:44:46Z</time></trkpt><trkpt lat="40.174299529528156" lon="15.13340340449842"><ele>3.0</ele><time>2026-04-26T15:44:47Z</time></trkpt><trkpt lat="40.174323390448244" lon="15.133304720242597"><ele>3.0</ele><time>2026-04-26T15:44:48Z</time></trkpt><trkpt lat="40.174349691112496" lon="15.133203307732014"><ele>3.0</ele><time>2026-04-26T15:44:49Z</time></trkpt><trkpt lat="40.17436215416272" lon="15.133108382510093"><ele>2.9999999999999996</ele><time>2026-04-26T15:44:50Z</time></trkpt><trkpt lat="40.17438681663062" lon="15.133015437766302"><ele>3.0</ele><time>2026-04-26T15:44:51Z</time></trkpt><trkpt lat="40.174413378038416" lon="15.132917685143848"><ele>3.0</ele><time>2026-04-26T15:44:52Z</time></trkpt><trkpt lat="40.17444381823953" lon="15.132817326996854"><ele>3.0</ele><time>2026-04-26T15:44:53Z</time></trkpt><trkpt lat="40.17447387333392" lon="15.132724308732753"><ele>3.0</ele><time>2026-04-26T15:44:54Z</time></trkpt><trkpt lat="40.17450099580108" lon="15.132642691240862"><ele>2.9999999999999996</ele><time>2026-04-26T15:44:55Z</time></trkpt><trkpt lat="40.17452608087841" lon="15.132564078080161"><ele>3.0</ele><time>2026-04-26T15:44:56Z</time></trkpt><trkpt lat="40.17458198398174" lon="15.132434085992426"><ele>3.0</ele><time>2026-04-26T15:44:58Z</time></trkpt><trkpt lat="40.17463063308428" lon="15.132283036606585"><ele>3.0</ele><time>2026-04-26T15:45:00Z</time></trkpt><trkpt lat="40.17466196169581" lon="15.132201052512276"><ele>3.0</ele><time>2026-04-26T15:45:01Z</time></trkpt><trkpt lat="40.174694245987936" lon="15.13211639615287"><ele>3.0</ele><time>2026-04-26T15:45:02Z</time></trkpt><trkpt lat="40.17473000291874" lon="15.132030063352813"><ele>3.0</ele><time>2026-04-26T15:45:03Z</time></trkpt><trkpt lat="40.17476541193559" lon="15.131937019493499"><ele>3.0</ele><time>2026-04-26T15:45:04Z</time></trkpt><trkpt lat="40.174801404878494" lon="15.13183875153698"><ele>3.0</ele><time>2026-04-26T15:45:05Z</time></trkpt><trkpt lat="40.17483597481837" lon="15.13173217871203"><ele>3.0</ele><time>2026-04-26T15:45:06Z</time></trkpt><trkpt lat="40.17487624056577" lon="15.131618114011061"><ele>3.0</ele><time>2026-04-26T15:45:07Z</time></trkpt><trkpt lat="40.17491971242331" lon="15.131510731378842"><ele>3.0</ele><time>2026-04-26T15:45:08Z</time></trkpt><trkpt lat="40.1749565337587" lon="15.131413435611007"><ele>3.0</ele><time>2026-04-26T15:45:09Z</time></trkpt><trkpt lat="40.17499218531478" lon="15.131330372843225"><ele>3.0</ele><time>2026-04-26T15:45:10Z</time></trkpt><trkpt lat="40.17502439584873" lon="15.131242491553982"><ele>2.9999999999999996</ele><time>2026-04-26T15:45:11Z</time></trkpt><trkpt lat="40.17505563578317" lon="15.13115361535016"><ele>3.0</ele><time>2026-04-26T15:45:12Z</time></trkpt><trkpt lat="40.175086563499406" lon="15.131073804213075"><ele>3.0</ele><time>2026-04-26T15:45:13Z</time></trkpt><trkpt lat="40.17511564949447" lon="15.130994512565366"><ele>3.0</ele><time>2026-04-26T15:45:14Z</time></trkpt><trkpt lat="40.17515226648212" lon="15.130919116495418"><ele>3.0</ele><time>2026-04-26T15:45:15Z</time></trkpt><trkpt lat="40.175179701274715" lon="15.130832281696119"><ele>2.9999999999999996</ele><time>2026-04-26T15:45:16Z</time></trkpt><trkpt lat="40.1752067101072" lon="15.130737878935165"><ele>3.0</ele><time>2026-04-26T15:45:17Z</time></trkpt><trkpt lat="40.175246154130036" lon="15.130641422425882"><ele>3.2</ele><time>2026-04-26T15:45:18Z</time></trkpt><trkpt lat="40.17528322295908" lon="15.130543008850914"><ele>3.4</ele><time>2026-04-26T15:45:19Z</time></trkpt><trkpt lat="40.17532087529467" lon="15.130430858406358"><ele>3.6000000000000005</ele><time>2026-04-26T15:45:20Z</time></trkpt><trkpt lat="40.17536627781816" lon="15.130323281508641"><ele>3.8000000000000003</ele><time>2026-04-26T15:45:21Z</time></trkpt><trkpt lat="40.17540851597123" lon="15.130191841147644"><ele>4.0</ele><time>2026-04-26T15:45:22Z</time></trkpt><trkpt lat="40.17546012343545" lon="15.130048613951589"><ele>4.0</ele><time>2026-04-26T15:45:23Z</time></trkpt><trkpt lat="40.17553575477253" lon="15.12989286749214"><ele>4.0</ele><time>2026-04-26T15:45:24Z</time></trkpt><trkpt lat="40.17558797703941" lon="15.129752894709057"><ele>4.0</ele><time>2026-04-26T15:45:25Z</time></trkpt><trkpt lat="40.17562431845783" lon="15.129655487796818"><ele>4.0</ele><time>2026-04-26T15:45:26Z</time></trkpt><trkpt lat="40.1756645420021" lon="15.12950826270038"><ele>3.9999999999999996</ele><time>2026-04-26T15:45:28Z</time></trkpt><trkpt lat="40.17571688241559" lon="15.1293605882962"><ele>4.0</ele><time>2026-04-26T15:45:30Z</time></trkpt><trkpt lat="40.17575099297865" lon="15.129269295610627"><ele>4.0</ele><time>2026-04-26T15:45:31Z</time></trkpt><trkpt lat="40.1757965473069" lon="15.12918681431822"><ele>4.0</ele><time>2026-04-26T15:45:32Z</time></trkpt><trkpt lat="40.17583903546526" lon="15.1290826099197"><ele>3.9999999999999996</ele><time>2026-04-26T15:45:33Z</time></trkpt><trkpt lat="40.17587304102163" lon="15.1289925650596"><ele>4.0</ele><time>2026-04-26T15:45:34Z</time></trkpt><trkpt lat="40.17589447152438" lon="15.128907228719292"><ele>3.8000000000000003</ele><time>2026-04-26T15:45:35Z</time></trkpt><trkpt lat="40.175955363068525" lon="15.1287927426758"><ele>3.6000000000000005</ele><time>2026-04-26T15:45:37Z</time></trkpt><trkpt lat="40.175990231640974" lon="15.128713233870874"><ele>3.4</ele><time>2026-04-26T15:45:39Z</time></trkpt><trkpt lat="40.17601844845733" lon="15.128633100203434"><ele>3.2</ele><time>2026-04-26T15:45:41Z</time></trkpt><trkpt lat="40.17607702238714" lon="15.128474103009196"><ele>3.0</ele><time>2026-04-26T15:45:43Z</time></trkpt><trkpt lat="40.17611078618319" lon="15.128366483963031"><ele>3.0</ele><time>2026-04-26T15:45:44Z</time></trkpt><trkpt lat="40.176147850600415" lon="15.128262355947475"><ele>3.0</ele><time>2026-04-26T15:45:45Z</time></trkpt><trkpt lat="40.176192207256456" lon="15.128143784063656"><ele>3.0</ele><time>2026-04-26T15:45:46Z</time></trkpt><trkpt lat="40.17624121670497" lon="15.127992163745526"><ele>3.0</ele><time>2026-04-26T15:45:47Z</time></trkpt><trkpt lat="40.176298059442814" lon="15.127828919413968"><ele>3.25</ele><time>2026-04-26T15:45:48Z</time></trkpt><trkpt lat="40.176354553345014" lon="15.12767071233502"><ele>3.5</ele><time>2026-04-26T15:45:49Z</time></trkpt><trkpt lat="40.176413780242534" lon="15.127521328865672"><ele>3.75</ele><time>2026-04-26T15:45:50Z</time></trkpt><trkpt lat="40.17646606713512" lon="15.127378989409847"><ele>4.0</ele><time>2026-04-26T15:45:51Z</time></trkpt><trkpt lat="40.17651938110319" lon="15.127239300169446"><ele>4.5</ele><time>2026-04-26T15:45:52Z</time></trkpt><trkpt lat="40.176570426782995" lon="15.127104357356586"><ele>5.0</ele><time>2026-04-26T15:45:53Z</time></trkpt><trkpt lat="40.17662111977218" lon="15.12696652599767"><ele>5.5</ele><time>2026-04-26T15:45:54Z</time></trkpt><trkpt lat="40.17669684371849" lon="15.126804560054765"><ele>6.0</ele><time>2026-04-26T15:45:55Z</time></trkpt><trkpt lat="40.17676561209925" lon="15.126619826965314"><ele>5.5</ele><time>2026-04-26T15:45:56Z</time></trkpt><trkpt lat="40.17683411559867" lon="15.126434594368803"><ele>5.0</ele><time>2026-04-26T15:45:57Z</time></trkpt><trkpt lat="40.17689768143357" lon="15.126262787102132"><ele>4.5</ele><time>2026-04-26T15:45:58Z</time></trkpt><trkpt lat="40.17695292878823" lon="15.12611559763768"><ele>4.0</ele><time>2026-04-26T15:45:59Z</time></trkpt><trkpt lat="40.1769880599944" lon="15.125975118516639"><ele>4.0</ele><time>2026-04-26T15:46:00Z</time></trkpt><trkpt lat="40.1770307041858" lon="15.125864250369652"><ele>4.0</ele><time>2026-04-26T15:46:01Z</time></trkpt><trkpt lat="40.17706728801415" lon="15.125780926207614"><ele>4.0</ele><time>2026-04-26T15:46:02Z</time></trkpt><trkpt lat="40.177109834707586" lon="15.125649845894477"><ele>4.0</ele><time>2026-04-26T15:46:04Z</time></trkpt><trkpt lat="40.17715103871626" lon="15.125529080416426"><ele>4.0</ele><time>2026-04-26T15:46:06Z</time></trkpt><trkpt lat="40.177179444351765" lon="15.12543518457266"><ele>3.9999999999999996</ele><time>2026-04-26T15:46:07Z</time></trkpt><trkpt lat="40.17721965430997" lon="15.125325146204316"><ele>4.0</ele><time>2026-04-26T15:46:08Z</time></trkpt><trkpt lat="40.177262961979025" lon="15.125218756780962"><ele>4.0</ele><time>2026-04-26T15:46:09Z</time></trkpt><trkpt lat="40.17730753314048" lon="15.125112056660448"><ele>4.0</ele><time>2026-04-26T15:46:10Z</time></trkpt><trkpt lat="40.177355820451616" lon="15.125047643595703"><ele>3.9999999999999996</ele><time>2026-04-26T15:46:11Z</time></trkpt><trkpt lat="40.17739624836029" lon="15.124941148043776"><ele>4.0</ele><time>2026-04-26T15:46:13Z</time></trkpt><trkpt lat="40.17745107326333" lon="15.124796229511336"><ele>4.166666666666666</ele><time>2026-04-26T15:46:15Z</time></trkpt><trkpt lat="40.17748794332672" lon="15.124698605485037"><ele>4.333333333333333</ele><time>2026-04-26T15:46:16Z</time></trkpt><trkpt lat="40.17752424626974" lon="15.124602483131568"><ele>4.5</ele><time>2026-04-26T15:46:17Z</time></trkpt><trkpt lat="40.17754093781437" lon="15.124510325779424"><ele>4.666666666666667</ele><time>2026-04-26T15:46:18Z</time></trkpt><trkpt lat="40.17757210132255" lon="15.124437245006446"><ele>4.833333333333334</ele><time>2026-04-26T15:46:19Z</time></trkpt><trkpt lat="40.177602983063885" lon="15.124361668937336"><ele>5.0</ele><time>2026-04-26T15:46:20Z</time></trkpt><trkpt lat="40.17765385455581" lon="15.124225828337414"><ele>5.0</ele><time>2026-04-26T15:46:22Z</time></trkpt><trkpt lat="40.177711431994155" lon="15.124095218801477"><ele>5.0</ele><time>2026-04-26T15:46:24Z</time></trkpt><trkpt lat="40.17774032952363" lon="15.124015128507967"><ele>5.0</ele><time>2026-04-26T15:46:25Z</time></trkpt><trkpt lat="40.17777495825389" lon="15.123900597328403"><ele>5.0</ele><time>2026-04-26T15:46:26Z</time></trkpt><trkpt lat="40.177840282655765" lon="15.123764668861407"><ele>5.0</ele><time>2026-04-26T15:46:27Z</time></trkpt><trkpt lat="40.177874868172935" lon="15.123611959739465"><ele>5.2</ele><time>2026-04-26T15:46:28Z</time></trkpt><trkpt lat="40.17791486855664" lon="15.123497954158625"><ele>5.4</ele><time>2026-04-26T15:46:29Z</time></trkpt><trkpt lat="40.1779577268738" lon="15.123375151581909"><ele>5.6</ele><time>2026-04-26T15:46:30Z</time></trkpt><trkpt lat="40.17801663061596" lon="15.123262156096011"><ele>5.8</ele><time>2026-04-26T15:46:31Z</time></trkpt><trkpt lat="40.17808250336902" lon="15.1231645229668"><ele>6.0</ele><time>2026-04-26T15:46:32Z</time></trkpt><trkpt lat="40.17813318725361" lon="15.123100319121107"><ele>7.0</ele><time>2026-04-26T15:46:33Z</time></trkpt><trkpt lat="40.17820790664261" lon="15.123014380625513"><ele>8.0</ele><time>2026-04-26T15:46:35Z</time></trkpt><trkpt lat="40.17827374752172" lon="15.122969537867194"><ele>9.0</ele><time>2026-04-26T15:46:36Z</time></trkpt><trkpt lat="40.178338896864574" lon="15.122936154026151"><ele>10.0</ele><time>2026-04-26T15:46:37Z</time></trkpt><trkpt lat="40.17837700560875" lon="15.12281551829112"><ele>11.0</ele><time>2026-04-26T15:46:39Z</time></trkpt><trkpt lat="40.17838119991361" lon="15.122678355515694"><ele>12.0</ele><time>2026-04-26T15:46:41Z</time></trkpt><trkpt lat="40.178456236993235" lon="15.122583930802389"><ele>12.0</ele><time>2026-04-26T15:46:43Z</time></trkpt><trkpt lat="40.17854447808904" lon="15.122570861928548"><ele>12.0</ele><time>2026-04-26T15:46:45Z</time></trkpt><trkpt lat="40.178622132051686" lon="15.122539502155709"><ele>12.0</ele><time>2026-04-26T15:46:48Z</time></trkpt><trkpt lat="40.17870442085676" lon="15.122473008615705"><ele>12.0</ele><time>2026-04-26T15:46:51Z</time></trkpt><trkpt lat="40.17877681413134" lon="15.122403915076815"><ele>12.0</ele><time>2026-04-26T15:46:53Z</time></trkpt><trkpt lat="40.17882828418916" lon="15.122274478476834"><ele>14.0</ele><time>2026-04-26T15:46:55Z</time></trkpt><trkpt lat="40.17883525734248" lon="15.122191794303152"><ele>16.0</ele><time>2026-04-26T15:46:56Z</time></trkpt><trkpt lat="40.17883925561507" lon="15.122082234596816"><ele>18.0</ele><time>2026-04-26T15:46:57Z</time></trkpt><trkpt lat="40.178838595352794" lon="15.121959419277832"><ele>20.0</ele><time>2026-04-26T15:46:58Z</time></trkpt><trkpt lat="40.17883163677758" lon="15.121808062648622"><ele>22.0</ele><time>2026-04-26T15:46:59Z</time></trkpt><trkpt lat="40.17882223313763" lon="15.121638048383808"><ele>21.6</ele><time>2026-04-26T15:47:00Z</time></trkpt><trkpt lat="40.17881141728479" lon="15.121501386445543"><ele>21.200000000000003</ele><time>2026-04-26T15:47:01Z</time></trkpt><trkpt lat="40.17878218897348" lon="15.12138368516107"><ele>20.8</ele><time>2026-04-26T15:47:02Z</time></trkpt><trkpt lat="40.17874416782471" lon="15.121271823202449"><ele>20.4</ele><time>2026-04-26T15:47:03Z</time></trkpt><trkpt lat="40.1786937352623" lon="15.121165461151644"><ele>20.0</ele><time>2026-04-26T15:47:04Z</time></trkpt><trkpt lat="40.17863037633104" lon="15.12105183349079"><ele>20.0</ele><time>2026-04-26T15:47:05Z</time></trkpt><trkpt lat="40.178543847516465" lon="15.120920637900447"><ele>20.0</ele><time>2026-04-26T15:47:06Z</time></trkpt><trkpt lat="40.17844291771229" lon="15.120772108356071"><ele>20.0</ele><time>2026-04-26T15:47:07Z</time></trkpt><trkpt lat="40.178339686421516" lon="15.120618978510684"><ele>20.0</ele><time>2026-04-26T15:47:08Z</time></trkpt><trkpt lat="40.17824296653015" lon="15.120454439940916"><ele>20.75</ele><time>2026-04-26T15:47:09Z</time></trkpt><trkpt lat="40.17816081697675" lon="15.120298727902059"><ele>21.5</ele><time>2026-04-26T15:47:10Z</time></trkpt><trkpt lat="40.178097478904924" lon="15.120170038481069"><ele>22.25</ele><time>2026-04-26T15:47:11Z</time></trkpt><trkpt lat="40.17803641799015" lon="15.120053800560832"><ele>23.0</ele><time>2026-04-26T15:47:12Z</time></trkpt><trkpt lat="40.17798297170029" lon="15.119954261136147"><ele>23.5</ele><time>2026-04-26T15:47:13Z</time></trkpt><trkpt lat="40.17795957650254" lon="15.119866786270793"><ele>24.0</ele><time>2026-04-26T15:47:14Z</time></trkpt><trkpt lat="40.178005443866795" lon="15.11973716209772"><ele>24.5</ele><time>2026-04-26T15:47:16Z</time></trkpt><trkpt lat="40.17805664252205" lon="15.119687692608426"><ele>25.0</ele><time>2026-04-26T15:47:17Z</time></trkpt><trkpt lat="40.178126583911144" lon="15.119639470590213"><ele>25.499999999999996</ele><time>2026-04-26T15:47:18Z</time></trkpt><trkpt lat="40.178200006461296" lon="15.119587397909736"><ele>26.0</ele><time>2026-04-26T15:47:19Z</time></trkpt><trkpt lat="40.17827641816931" lon="15.119533539636693"><ele>26.0</ele><time>2026-04-26T15:47:20Z</time></trkpt><trkpt lat="40.17833771276744" lon="15.119449734961616"><ele>26.0</ele><time>2026-04-26T15:47:21Z</time></trkpt><trkpt lat="40.17837783178272" lon="15.119338124844612"><ele>26.0</ele><time>2026-04-26T15:47:22Z</time></trkpt><trkpt lat="40.17838908048168" lon="15.119202467199871"><ele>26.0</ele><time>2026-04-26T15:47:23Z</time></trkpt><trkpt lat="40.178374272100946" lon="15.119038239307363"><ele>26.0</ele><time>2026-04-26T15:47:24Z</time></trkpt><trkpt lat="40.17834486235963" lon="15.118855138439812"><ele>26.333333333333332</ele><time>2026-04-26T15:47:25Z</time></trkpt><trkpt lat="40.1783140957627" lon="15.118652161939806"><ele>26.666666666666664</ele><time>2026-04-26T15:47:26Z</time></trkpt><trkpt lat="40.17828444405724" lon="15.118443275213046"><ele>27.0</ele><time>2026-04-26T15:47:27Z</time></trkpt><trkpt lat="40.178252846527094" lon="15.118222411994683"><ele>25.333333333333332</ele><time>2026-04-26T15:47:28Z</time></trkpt><trkpt lat="40.178222861817524" lon="15.117994290072517"><ele>23.666666666666664</ele><time>2026-04-26T15:47:29Z</time></trkpt><trkpt lat="40.17819711238987" lon="15.117800697490122"><ele>22.0</ele><time>2026-04-26T15:47:30Z</time></trkpt><trkpt lat="40.17817160148177" lon="15.11762243956914"><ele>22.0</ele><time>2026-04-26T15:47:31Z</time></trkpt><trkpt lat="40.178141790439476" lon="15.117472058693417"><ele>22.0</ele><time>2026-04-26T15:47:32Z</time></trkpt><trkpt lat="40.17809548045619" lon="15.117343638168132"><ele>22.0</ele><time>2026-04-26T15:47:33Z</time></trkpt><trkpt lat="40.178024746449815" lon="15.11723823155888"><ele>22.0</ele><time>2026-04-26T15:47:34Z</time></trkpt><trkpt lat="40.17794413161828" lon="15.11715802432395"><ele>22.0</ele><time>2026-04-26T15:47:35Z</time></trkpt><trkpt lat="40.177869794671544" lon="15.117091030319191"><ele>22.166666666666664</ele><time>2026-04-26T15:47:36Z</time></trkpt><trkpt lat="40.17782972526844" lon="15.117006354846852"><ele>22.333333333333332</ele><time>2026-04-26T15:47:37Z</time></trkpt><trkpt lat="40.17781477074031" lon="15.11690471569177"><ele>22.5</ele><time>2026-04-26T15:47:38Z</time></trkpt><trkpt lat="40.17783453943831" lon="15.116804290951997"><ele>22.666666666666668</ele><time>2026-04-26T15:47:39Z</time></trkpt><trkpt lat="40.17788090662167" lon="15.116704376792988"><ele>22.833333333333336</ele><time>2026-04-26T15:47:40Z</time></trkpt><trkpt lat="40.17795136522583" lon="15.116589506096972"><ele>23.0</ele><time>2026-04-26T15:47:41Z</time></trkpt><trkpt lat="40.178030547956126" lon="15.116459143135033"><ele>23.0</ele><time>2026-04-26T15:47:42Z</time></trkpt><trkpt lat="40.17810560202986" lon="15.116333989440543"><ele>23.0</ele><time>2026-04-26T15:47:43Z</time></trkpt><trkpt lat="40.178133406823285" lon="15.11617835569172"><ele>23.0</ele><time>2026-04-26T15:47:44Z</time></trkpt><trkpt lat="40.17816710128492" lon="15.116013728300503"><ele>23.0</ele><time>2026-04-26T15:47:45Z</time></trkpt><trkpt lat="40.178199109046695" lon="15.115842057996447"><ele>28.75</ele><time>2026-04-26T15:47:46Z</time></trkpt><trkpt lat="40.178220740887134" lon="15.115678405818999"><ele>34.5</ele><time>2026-04-26T15:47:47Z</time></trkpt><trkpt lat="40.17822575203286" lon="15.115525753211703"><ele>40.25</ele><time>2026-04-26T15:47:48Z</time></trkpt><trkpt lat="40.17821334600701" lon="15.115382115066618"><ele>46.0</ele><time>2026-04-26T15:47:49Z</time></trkpt><trkpt lat="40.17819384008401" lon="15.115244830632909"><ele>41.0</ele><time>2026-04-26T15:47:50Z</time></trkpt><trkpt lat="40.17817734687534" lon="15.115114805411693"><ele>36.0</ele><time>2026-04-26T15:47:51Z</time></trkpt><trkpt lat="40.17816090074928" lon="15.114988648888174"><ele>31.0</ele><time>2026-04-26T15:47:52Z</time></trkpt><trkpt lat="40.178152333961656" lon="15.114864002500537"><ele>26.0</ele><time>2026-04-26T15:47:53Z</time></trkpt><trkpt lat="40.178162340500535" lon="15.114728937515645"><ele>21.0</ele><time>2026-04-26T15:47:54Z</time></trkpt><trkpt lat="40.17816098337273" lon="15.114582365157846"><ele>20.8</ele><time>2026-04-26T15:47:55Z</time></trkpt><trkpt lat="40.17814464267238" lon="15.114437635975904"><ele>20.6</ele><time>2026-04-26T15:47:56Z</time></trkpt><trkpt lat="40.17814962785244" lon="15.114305472055431"><ele>20.4</ele><time>2026-04-26T15:47:57Z</time></trkpt><trkpt lat="40.17815504496629" lon="15.114188348545722"><ele>20.2</ele><time>2026-04-26T15:47:58Z</time></trkpt><trkpt lat="40.17817163441342" lon="15.11407580039687"><ele>20.0</ele><time>2026-04-26T15:47:59Z</time></trkpt><trkpt lat="40.17819655136379" lon="15.113959236461884"><ele>20.2</ele><time>2026-04-26T15:48:00Z</time></trkpt><trkpt lat="40.17822270640008" lon="15.113826136823954"><ele>20.4</ele><time>2026-04-26T15:48:01Z</time></trkpt><trkpt lat="40.17821303920846" lon="15.113689684024449"><ele>20.6</ele><time>2026-04-26T15:48:02Z</time></trkpt><trkpt lat="40.178169740296404" lon="15.113555609627271"><ele>20.8</ele><time>2026-04-26T15:48:03Z</time></trkpt><trkpt lat="40.17809241542322" lon="15.113429797198808"><ele>21.0</ele><time>2026-04-26T15:48:04Z</time></trkpt><trkpt lat="40.178012569577604" lon="15.113297861127451"><ele>23.25</ele><time>2026-04-26T15:48:05Z</time></trkpt><trkpt lat="40.177925634408716" lon="15.11314893501436"><ele>25.5</ele><time>2026-04-26T15:48:06Z</time></trkpt><trkpt lat="40.1778437443127" lon="15.11301731031699"><ele>27.75</ele><time>2026-04-26T15:48:07Z</time></trkpt><trkpt lat="40.17778032346541" lon="15.112907694697476"><ele>30.0</ele><time>2026-04-26T15:48:08Z</time></trkpt><trkpt lat="40.177727832469905" lon="15.112800322369548"><ele>30.0</ele><time>2026-04-26T15:48:09Z</time></trkpt><trkpt lat="40.177685529047345" lon="15.112682386839637"><ele>30.0</ele><time>2026-04-26T15:48:10Z</time></trkpt><trkpt lat="40.17765657972594" lon="15.112549260434752"><ele>30.0</ele><time>2026-04-26T15:48:11Z</time></trkpt><trkpt lat="40.17763160231053" lon="15.112400366531686"><ele>30.0</ele><time>2026-04-26T15:48:12Z</time></trkpt><trkpt lat="40.17761018082067" lon="15.112249853716317"><ele>30.0</ele><time>2026-04-26T15:48:13Z</time></trkpt><trkpt lat="40.17760096782354" lon="15.112103478070118"><ele>31.4</ele><time>2026-04-26T15:48:14Z</time></trkpt><trkpt lat="40.17759398491664" lon="15.111966599943184"><ele>32.8</ele><time>2026-04-26T15:48:15Z</time></trkpt><trkpt lat="40.17758289654634" lon="15.111837246871943"><ele>34.2</ele><time>2026-04-26T15:48:16Z</time></trkpt><trkpt lat="40.17757182223802" lon="15.111716452314711"><ele>35.6</ele><time>2026-04-26T15:48:17Z</time></trkpt><trkpt lat="40.17755958856475" lon="15.111594898952601"><ele>37.0</ele><time>2026-04-26T15:48:18Z</time></trkpt><trkpt lat="40.17754357327221" lon="15.11147562192786"><ele>40.0</ele><time>2026-04-26T15:48:19Z</time></trkpt><trkpt lat="40.17752258442537" lon="15.11134907464447"><ele>43.0</ele><time>2026-04-26T15:48:20Z</time></trkpt><trkpt lat="40.17749690112704" lon="15.111225630245384"><ele>46.0</ele><time>2026-04-26T15:48:21Z</time></trkpt><trkpt lat="40.17744271951872" lon="15.111136479674231"><ele>49.0</ele><time>2026-04-26T15:48:22Z</time></trkpt><trkpt lat="40.17736638352842" lon="15.111077738723822"><ele>52.0</ele><time>2026-04-26T15:48:23Z</time></trkpt><trkpt lat="40.177273214405886" lon="15.111043883508486"><ele>49.4</ele><time>2026-04-26T15:48:24Z</time></trkpt><trkpt lat="40.17717755680825" lon="15.111022379029212"><ele>46.800000000000004</ele><time>2026-04-26T15:48:25Z</time></trkpt><trkpt lat="40.17710998602295" lon="15.11099255364029"><ele>44.2</ele><time>2026-04-26T15:48:26Z</time></trkpt><trkpt lat="40.17703133164103" lon="15.110884901486061"><ele>41.6</ele><time>2026-04-26T15:48:28Z</time></trkpt><trkpt lat="40.17701496285247" lon="15.110786701190316"><ele>39.0</ele><time>2026-04-26T15:48:29Z</time></trkpt><trkpt lat="40.17699560869699" lon="15.11065586605276"><ele>39.0</ele><time>2026-04-26T15:48:30Z</time></trkpt><trkpt lat="40.176972024458735" lon="15.110525210450303"><ele>39.0</ele><time>2026-04-26T15:48:31Z</time></trkpt><trkpt lat="40.17691762002489" lon="15.110395291788668"><ele>39.0</ele><time>2026-04-26T15:48:32Z</time></trkpt><trkpt lat="40.17685704178876" lon="15.11027064208261"><ele>39.0</ele><time>2026-04-26T15:48:33Z</time></trkpt><trkpt lat="40.17679520745539" lon="15.11014345406297"><ele>39.0</ele><time>2026-04-26T15:48:34Z</time></trkpt><trkpt lat="40.17673601128553" lon="15.110010055474566"><ele>42.5</ele><time>2026-04-26T15:48:35Z</time></trkpt><trkpt lat="40.176669923168554" lon="15.109888559251955"><ele>46.0</ele><time>2026-04-26T15:48:36Z</time></trkpt><trkpt lat="40.17659065655932" lon="15.109786537333221"><ele>49.5</ele><time>2026-04-26T15:48:37Z</time></trkpt><trkpt lat="40.17650058437218" lon="15.109714495851868"><ele>53.0</ele><time>2026-04-26T15:48:38Z</time></trkpt><trkpt lat="40.17638389690451" lon="15.109647115498397"><ele>46.0</ele><time>2026-04-26T15:48:39Z</time></trkpt><trkpt lat="40.17626216926916" lon="15.109594390410873"><ele>39.0</ele><time>2026-04-26T15:48:40Z</time></trkpt><trkpt lat="40.176139432843485" lon="15.10953526975021"><ele>32.0</ele><time>2026-04-26T15:48:41Z</time></trkpt><trkpt lat="40.17602537526407" lon="15.109454783833986"><ele>25.0</ele><time>2026-04-26T15:48:42Z</time></trkpt><trkpt lat="40.175927932556874" lon="15.109368569244943"><ele>25.0</ele><time>2026-04-26T15:48:43Z</time></trkpt><trkpt lat="40.17585060527558" lon="15.109276208242218"><ele>25.0</ele><time>2026-04-26T15:48:44Z</time></trkpt><trkpt lat="40.175787549152005" lon="15.109167704893684"><ele>25.0</ele><time>2026-04-26T15:48:45Z</time></trkpt><trkpt lat="40.1757525079986" lon="15.109037742415211"><ele>25.0</ele><time>2026-04-26T15:48:46Z</time></trkpt><trkpt lat="40.17573797528086" lon="15.108902965683239"><ele>25.0</ele><time>2026-04-26T15:48:47Z</time></trkpt><trkpt lat="40.17573241832055" lon="15.108763158964052"><ele>26.25</ele><time>2026-04-26T15:48:48Z</time></trkpt><trkpt lat="40.175723785925484" lon="15.108612710831622"><ele>27.5</ele><time>2026-04-26T15:48:49Z</time></trkpt><trkpt lat="40.17571326114365" lon="15.10846416751201"><ele>28.75</ele><time>2026-04-26T15:48:50Z</time></trkpt><trkpt lat="40.17571056288426" lon="15.108313122763894"><ele>30.0</ele><time>2026-04-26T15:48:51Z</time></trkpt><trkpt lat="40.17571855665743" lon="15.108174208214896"><ele>30.2</ele><time>2026-04-26T15:48:52Z</time></trkpt><trkpt lat="40.17572343848046" lon="15.108043828839648"><ele>30.4</ele><time>2026-04-26T15:48:53Z</time></trkpt><trkpt lat="40.175730211190476" lon="15.10791992451934"><ele>30.6</ele><time>2026-04-26T15:48:54Z</time></trkpt><trkpt lat="40.17574120506485" lon="15.10780222063927"><ele>30.8</ele><time>2026-04-26T15:48:55Z</time></trkpt><trkpt lat="40.175755154488364" lon="15.107681321220246"><ele>31.0</ele><time>2026-04-26T15:48:56Z</time></trkpt><trkpt lat="40.17576989387323" lon="15.107548328145871"><ele>31.0</ele><time>2026-04-26T15:48:57Z</time></trkpt><trkpt lat="40.17578948299355" lon="15.107419852734514"><ele>31.0</ele><time>2026-04-26T15:48:58Z</time></trkpt><trkpt lat="40.17581725403502" lon="15.107289812860298"><ele>31.0</ele><time>2026-04-26T15:48:59Z</time></trkpt><trkpt lat="40.17585244649234" lon="15.107173815402465"><ele>31.0</ele><time>2026-04-26T15:49:00Z</time></trkpt><trkpt lat="40.175912133747765" lon="15.107084642448717"><ele>31.0</ele><time>2026-04-26T15:49:01Z</time></trkpt><trkpt lat="40.175954144227504" lon="15.106981651634703"><ele>30.333333333333336</ele><time>2026-04-26T15:49:02Z</time></trkpt><trkpt lat="40.17602967687782" lon="15.10691311270842"><ele>29.666666666666668</ele><time>2026-04-26T15:49:03Z</time></trkpt><trkpt lat="40.17607839257978" lon="15.10681834095024"><ele>29.0</ele><time>2026-04-26T15:49:04Z</time></trkpt><trkpt lat="40.17613324607782" lon="15.106742046404472"><ele>28.333333333333336</ele><time>2026-04-26T15:49:05Z</time></trkpt><trkpt lat="40.17618710801772" lon="15.106667472761426"><ele>27.666666666666668</ele><time>2026-04-26T15:49:06Z</time></trkpt><trkpt lat="40.17623337942159" lon="15.106603566011836"><ele>27.0</ele><time>2026-04-26T15:49:07Z</time></trkpt><trkpt lat="40.17626928079268" lon="15.106533212822622"><ele>27.0</ele><time>2026-04-26T15:49:08Z</time></trkpt><trkpt lat="40.17629112675404" lon="15.106443442492955"><ele>27.0</ele><time>2026-04-26T15:49:09Z</time></trkpt><trkpt lat="40.17628627079211" lon="15.106333698686113"><ele>27.0</ele><time>2026-04-26T15:49:10Z</time></trkpt><trkpt lat="40.17624909071936" lon="15.106237138175755"><ele>27.0</ele><time>2026-04-26T15:49:11Z</time></trkpt><trkpt lat="40.176184701793915" lon="15.106153818570196"><ele>27.0</ele><time>2026-04-26T15:49:12Z</time></trkpt><trkpt lat="40.176099213236185" lon="15.106092733807602"><ele>27.0</ele><time>2026-04-26T15:49:13Z</time></trkpt><trkpt lat="40.17600833004757" lon="15.106042847270636"><ele>27.0</ele><time>2026-04-26T15:49:14Z</time></trkpt><trkpt lat="40.17592279947488" lon="15.105984299228549"><ele>27.000000000000004</ele><time>2026-04-26T15:49:15Z</time></trkpt><trkpt lat="40.17584867621136" lon="15.105900782480544"><ele>27.000000000000004</ele><time>2026-04-26T15:49:16Z</time></trkpt><trkpt lat="40.17578665148521" lon="15.105796470874909"><ele>27.0</ele><time>2026-04-26T15:49:17Z</time></trkpt><trkpt lat="40.17573364710053" lon="15.105670566692497"><ele>27.0</ele><time>2026-04-26T15:49:18Z</time></trkpt><trkpt lat="40.17569156186769" lon="15.105532431409273"><ele>25.400000000000002</ele><time>2026-04-26T15:49:19Z</time></trkpt><trkpt lat="40.175657119442974" lon="15.105386704554189"><ele>23.800000000000004</ele><time>2026-04-26T15:49:20Z</time></trkpt><trkpt lat="40.17561894098601" lon="15.10524221072477"><ele>22.2</ele><time>2026-04-26T15:49:21Z</time></trkpt><trkpt lat="40.17558185412027" lon="15.105103382791345"><ele>20.6</ele><time>2026-04-26T15:49:22Z</time></trkpt><trkpt lat="40.17554746375297" lon="15.104984824490291"><ele>19.0</ele><time>2026-04-26T15:49:23Z</time></trkpt><trkpt lat="40.17551894620438" lon="15.104892728686876"><ele>19.0</ele><time>2026-04-26T15:49:24Z</time></trkpt><trkpt lat="40.175489893355554" lon="15.104809134070152"><ele>19.0</ele><time>2026-04-26T15:49:25Z</time></trkpt><trkpt lat="40.175452905784326" lon="15.104721914178887"><ele>19.0</ele><time>2026-04-26T15:49:26Z</time></trkpt><trkpt lat="40.17541711916413" lon="15.1046384218529"><ele>19.0</ele><time>2026-04-26T15:49:27Z</time></trkpt><trkpt lat="40.17538702256756" lon="15.104558414457522"><ele>19.0</ele><time>2026-04-26T15:49:28Z</time></trkpt><trkpt lat="40.1753541365284" lon="15.104477711782113"><ele>19.0</ele><time>2026-04-26T15:49:29Z</time></trkpt><trkpt lat="40.175327178706056" lon="15.10439458116834"><ele>19.0</ele><time>2026-04-26T15:49:30Z</time></trkpt><trkpt lat="40.17530251681003" lon="15.104308762085587"><ele>19.0</ele><time>2026-04-26T15:49:31Z</time></trkpt><trkpt lat="40.17527954898702" lon="15.104221235886879"><ele>19.0</ele><time>2026-04-26T15:49:32Z</time></trkpt><trkpt lat="40.17526069549954" lon="15.104131270823627"><ele>19.0</ele><time>2026-04-26T15:49:33Z</time></trkpt><trkpt lat="40.175246222561206" lon="15.10404039869011"><ele>19.0</ele><time>2026-04-26T15:49:34Z</time></trkpt><trkpt lat="40.175232816276676" lon="15.103949037397735"><ele>19.0</ele><time>2026-04-26T15:49:35Z</time></trkpt><trkpt lat="40.17521206464101" lon="15.10385113972799"><ele>19.0</ele><time>2026-04-26T15:49:36Z</time></trkpt><trkpt lat="40.175178133802724" lon="15.103748792517136"><ele>19.0</ele><time>2026-04-26T15:49:37Z</time></trkpt><trkpt lat="40.17512948378489" lon="15.103641976135565"><ele>20.4</ele><time>2026-04-26T15:49:38Z</time></trkpt><trkpt lat="40.17508955720646" lon="15.103513868818263"><ele>21.799999999999997</ele><time>2026-04-26T15:49:39Z</time></trkpt><trkpt lat="40.17503744231664" lon="15.103397218853509"><ele>23.200000000000003</ele><time>2026-04-26T15:49:40Z</time></trkpt><trkpt lat="40.17498595774424" lon="15.103279109614135"><ele>24.6</ele><time>2026-04-26T15:49:41Z</time></trkpt><trkpt lat="40.17492745527533" lon="15.10315368925696"><ele>26.0</ele><time>2026-04-26T15:49:42Z</time></trkpt><trkpt lat="40.17487669423256" lon="15.103016690713625"><ele>21.0</ele><time>2026-04-26T15:49:43Z</time></trkpt><trkpt lat="40.17482605308348" lon="15.102876714608378"><ele>16.0</ele><time>2026-04-26T15:49:44Z</time></trkpt><trkpt lat="40.174769681859914" lon="15.102727195032484"><ele>11.0</ele><time>2026-04-26T15:49:45Z</time></trkpt><trkpt lat="40.17471409748261" lon="15.102573582710656"><ele>6.0</ele><time>2026-04-26T15:49:46Z</time></trkpt><trkpt lat="40.174669252648265" lon="15.102426544203327"><ele>7.166666666666666</ele><time>2026-04-26T15:49:47Z</time></trkpt><trkpt lat="40.17463020168483" lon="15.102293634171318"><ele>8.333333333333332</ele><time>2026-04-26T15:49:48Z</time></trkpt><trkpt lat="40.174596731396775" lon="15.10218366142322"><ele>9.5</ele><time>2026-04-26T15:49:49Z</time></trkpt><trkpt lat="40.17456229533907" lon="15.102084505806568"><ele>10.666666666666666</ele><time>2026-04-26T15:49:50Z</time></trkpt><trkpt lat="40.17450927728869" lon="15.102013934077993"><ele>11.833333333333332</ele><time>2026-04-26T15:49:51Z</time></trkpt><trkpt lat="40.17444370478799" lon="15.101953406482918"><ele>13.0</ele><time>2026-04-26T15:49:52Z</time></trkpt><trkpt lat="40.17437756203154" lon="15.10188164732759"><ele>12.999999999999998</ele><time>2026-04-26T15:49:53Z</time></trkpt><trkpt lat="40.174323116170406" lon="15.10179221973781"><ele>13.0</ele><time>2026-04-26T15:49:54Z</time></trkpt><trkpt lat="40.17428843409504" lon="15.101694855887315"><ele>13.0</ele><time>2026-04-26T15:49:55Z</time></trkpt><trkpt lat="40.17427498313042" lon="15.101589934609509"><ele>13.0</ele><time>2026-04-26T15:49:56Z</time></trkpt><trkpt lat="40.174287613584525" lon="15.10147646749281"><ele>12.999999999999998</ele><time>2026-04-26T15:49:57Z</time></trkpt><trkpt lat="40.1743176783903" lon="15.10135703444061"><ele>13.0</ele><time>2026-04-26T15:49:58Z</time></trkpt><trkpt lat="40.174325457736984" lon="15.101231772053884"><ele>11.6</ele><time>2026-04-26T15:49:59Z</time></trkpt><trkpt lat="40.17429334989115" lon="15.101107881350845"><ele>10.200000000000001</ele><time>2026-04-26T15:50:00Z</time></trkpt><trkpt lat="40.174235839788615" lon="15.10101024872704"><ele>8.8</ele><time>2026-04-26T15:50:01Z</time></trkpt><trkpt lat="40.17416044353283" lon="15.100927011653168"><ele>7.4</ele><time>2026-04-26T15:50:02Z</time></trkpt><trkpt lat="40.1740709158895" lon="15.10086822771574"><ele>6.0</ele><time>2026-04-26T15:50:03Z</time></trkpt><trkpt lat="40.17397609024762" lon="15.100817146175363"><ele>7.25</ele><time>2026-04-26T15:50:04Z</time></trkpt><trkpt lat="40.17387654441788" lon="15.100735444209315"><ele>8.5</ele><time>2026-04-26T15:50:05Z</time></trkpt><trkpt lat="40.17378902728991" lon="15.100581775818874"><ele>9.75</ele><time>2026-04-26T15:50:06Z</time></trkpt><trkpt lat="40.17366565297333" lon="15.100435661635446"><ele>11.0</ele><time>2026-04-26T15:50:07Z</time></trkpt><trkpt lat="40.17357015677928" lon="15.100301218999284"><ele>11.0</ele><time>2026-04-26T15:50:08Z</time></trkpt><trkpt lat="40.17349105745852" lon="15.100186087847703"><ele>11.0</ele><time>2026-04-26T15:50:09Z</time></trkpt><trkpt lat="40.17342644983977" lon="15.100067033570431"><ele>11.0</ele><time>2026-04-26T15:50:10Z</time></trkpt><trkpt lat="40.173378932030154" lon="15.09993302536814"><ele>11.0</ele><time>2026-04-26T15:50:11Z</time></trkpt><trkpt lat="40.173353350357786" lon="15.0997855431906"><ele>11.5</ele><time>2026-04-26T15:50:12Z</time></trkpt><trkpt lat="40.173339930277514" lon="15.099617631849831"><ele>12.0</ele><time>2026-04-26T15:50:13Z</time></trkpt><trkpt lat="40.17333600004396" lon="15.099415289002645"><ele>12.5</ele><time>2026-04-26T15:50:14Z</time></trkpt><trkpt lat="40.17332713851038" lon="15.099201354031706"><ele>13.0</ele><time>2026-04-26T15:50:15Z</time></trkpt><trkpt lat="40.17332258473266" lon="15.0990135356456"><ele>13.0</ele><time>2026-04-26T15:50:16Z</time></trkpt><trkpt lat="40.173318627206285" lon="15.0988449938672"><ele>13.0</ele><time>2026-04-26T15:50:17Z</time></trkpt><trkpt lat="40.17331588415111" lon="15.098684849575005"><ele>13.0</ele><time>2026-04-26T15:50:18Z</time></trkpt><trkpt lat="40.173312877417985" lon="15.098533967432624"><ele>13.0</ele><time>2026-04-26T15:50:19Z</time></trkpt><trkpt lat="40.17331229063973" lon="15.098406276867737"><ele>13.0</ele><time>2026-04-26T15:50:20Z</time></trkpt><trkpt lat="40.17331120145656" lon="15.098288312282499"><ele>13.0</ele><time>2026-04-26T15:50:21Z</time></trkpt><trkpt lat="40.173312056881514" lon="15.098165827363111"><ele>13.0</ele><time>2026-04-26T15:50:22Z</time></trkpt><trkpt lat="40.1733187012909" lon="15.098039123046052"><ele>13.0</ele><time>2026-04-26T15:50:23Z</time></trkpt><trkpt lat="40.173342019649596" lon="15.09789877126275"><ele>13.0</ele><time>2026-04-26T15:50:24Z</time></trkpt><trkpt lat="40.173385648775096" lon="15.097762234543595"><ele>12.8</ele><time>2026-04-26T15:50:25Z</time></trkpt><trkpt lat="40.1734365315087" lon="15.097630914278474"><ele>12.600000000000001</ele><time>2026-04-26T15:50:26Z</time></trkpt><trkpt lat="40.1734850913064" lon="15.097501384818749"><ele>12.399999999999999</ele><time>2026-04-26T15:50:27Z</time></trkpt><trkpt lat="40.173510542479704" lon="15.09736247394902"><ele>12.2</ele><time>2026-04-26T15:50:28Z</time></trkpt><trkpt lat="40.17352244090309" lon="15.097217624151758"><ele>12.0</ele><time>2026-04-26T15:50:29Z</time></trkpt><trkpt lat="40.17354432362349" lon="15.097076598093231"><ele>11.4</ele><time>2026-04-26T15:50:30Z</time></trkpt><trkpt lat="40.17357753927764" lon="15.096936379143665"><ele>10.799999999999999</ele><time>2026-04-26T15:50:31Z</time></trkpt><trkpt lat="40.17361002331251" lon="15.096798778477245"><ele>10.2</ele><time>2026-04-26T15:50:32Z</time></trkpt><trkpt lat="40.17364096248998" lon="15.096661092157243"><ele>9.6</ele><time>2026-04-26T15:50:33Z</time></trkpt><trkpt lat="40.173661553551575" lon="15.096523491215763"><ele>9.0</ele><time>2026-04-26T15:50:34Z</time></trkpt><trkpt lat="40.1736628050241" lon="15.096379704982471"><ele>8.5</ele><time>2026-04-26T15:50:35Z</time></trkpt><trkpt lat="40.173648842925594" lon="15.096228030783884"><ele>8.0</ele><time>2026-04-26T15:50:36Z</time></trkpt><trkpt lat="40.17362607806223" lon="15.096080042966541"><ele>7.5</ele><time>2026-04-26T15:50:37Z</time></trkpt><trkpt lat="40.173611161255685" lon="15.095929788305671"><ele>7.0</ele><time>2026-04-26T15:50:38Z</time></trkpt><trkpt lat="40.17360468126115" lon="15.095781172997171"><ele>6.199999999999999</ele><time>2026-04-26T15:50:39Z</time></trkpt><trkpt lat="40.17361546912742" lon="15.095644021969921"><ele>5.3999999999999995</ele><time>2026-04-26T15:50:40Z</time></trkpt><trkpt lat="40.173648525142056" lon="15.09551305804933"><ele>4.6</ele><time>2026-04-26T15:50:41Z</time></trkpt><trkpt lat="40.17366782513492" lon="15.095386091568564"><ele>3.8</ele><time>2026-04-26T15:50:42Z</time></trkpt><trkpt lat="40.17367902968784" lon="15.095260720720802"><ele>3.0</ele><time>2026-04-26T15:50:43Z</time></trkpt><trkpt lat="40.173718723029744" lon="15.095169918143705"><ele>3.0</ele><time>2026-04-26T15:50:44Z</time></trkpt><trkpt lat="40.17378810374637" lon="15.095086018787397"><ele>3.0</ele><time>2026-04-26T15:50:45Z</time></trkpt><trkpt lat="40.17386501406639" lon="15.095024537617663"><ele>3.0</ele><time>2026-04-26T15:50:46Z</time></trkpt><trkpt lat="40.17395183179803" lon="15.09495441933078"><ele>3.0</ele><time>2026-04-26T15:50:47Z</time></trkpt><trkpt lat="40.17402447988663" lon="15.094854682692466"><ele>3.0</ele><time>2026-04-26T15:50:48Z</time></trkpt><trkpt lat="40.17408381671783" lon="15.094755396467987"><ele>5.25</ele><time>2026-04-26T15:50:49Z</time></trkpt><trkpt lat="40.17412392059898" lon="15.09463518678042"><ele>7.5</ele><time>2026-04-26T15:50:50Z</time></trkpt><trkpt lat="40.174155143996344" lon="15.094486551871915"><ele>9.75</ele><time>2026-04-26T15:50:51Z</time></trkpt><trkpt lat="40.174176841405426" lon="15.094315580817039"><ele>12.0</ele><time>2026-04-26T15:50:52Z</time></trkpt><trkpt lat="40.17420485926813" lon="15.094152467303784"><ele>11.5</ele><time>2026-04-26T15:50:53Z</time></trkpt><trkpt lat="40.17423448806918" lon="15.094005702637583"><ele>11.0</ele><time>2026-04-26T15:50:54Z</time></trkpt><trkpt lat="40.17428735799782" lon="15.093879995106635"><ele>10.5</ele><time>2026-04-26T15:50:55Z</time></trkpt><trkpt lat="40.17431833747424" lon="15.093738751915081"><ele>10.0</ele><time>2026-04-26T15:50:56Z</time></trkpt><trkpt lat="40.17436145837001" lon="15.093600172020883"><ele>10.0</ele><time>2026-04-26T15:50:57Z</time></trkpt><trkpt lat="40.17438976330396" lon="15.093448403120439"><ele>10.0</ele><time>2026-04-26T15:50:58Z</time></trkpt><trkpt lat="40.174414391033025" lon="15.093293440107148"><ele>10.0</ele><time>2026-04-26T15:50:59Z</time></trkpt><trkpt lat="40.17443392716688" lon="15.09313775750293"><ele>10.0</ele><time>2026-04-26T15:51:00Z</time></trkpt><trkpt lat="40.17445167679684" lon="15.092995926854652"><ele>9.25</ele><time>2026-04-26T15:51:01Z</time></trkpt><trkpt lat="40.174458434268075" lon="15.092849128145186"><ele>8.5</ele><time>2026-04-26T15:51:02Z</time></trkpt><trkpt lat="40.174446788363284" lon="15.092694645240604"><ele>7.75</ele><time>2026-04-26T15:51:03Z</time></trkpt><trkpt lat="40.17442904559459" lon="15.092533255982815"><ele>7.0</ele><time>2026-04-26T15:51:04Z</time></trkpt><trkpt lat="40.17440395862157" lon="15.092359863244567"><ele>7.0</ele><time>2026-04-26T15:51:05Z</time></trkpt><trkpt lat="40.17438172894507" lon="15.0921794892012"><ele>7.0</ele><time>2026-04-26T15:51:06Z</time></trkpt><trkpt lat="40.17436657348102" lon="15.092001510240848"><ele>7.0</ele><time>2026-04-26T15:51:07Z</time></trkpt><trkpt lat="40.174370705501836" lon="15.091830010750364"><ele>7.0</ele><time>2026-04-26T15:51:08Z</time></trkpt><trkpt lat="40.174372225631714" lon="15.091662619867837"><ele>7.5</ele><time>2026-04-26T15:51:09Z</time></trkpt><trkpt lat="40.17437163933415" lon="15.0914941654467"><ele>8.0</ele><time>2026-04-26T15:51:10Z</time></trkpt><trkpt lat="40.17436542344322" lon="15.091326033971251"><ele>8.5</ele><time>2026-04-26T15:51:11Z</time></trkpt><trkpt lat="40.174354633071935" lon="15.09116419590415"><ele>9.0</ele><time>2026-04-26T15:51:12Z</time></trkpt><trkpt lat="40.17434879873985" lon="15.091020144521826"><ele>9.0</ele><time>2026-04-26T15:51:13Z</time></trkpt><trkpt lat="40.1743463484969" lon="15.090891003151121"><ele>9.0</ele><time>2026-04-26T15:51:14Z</time></trkpt><trkpt lat="40.17434350211893" lon="15.090763323694441"><ele>9.0</ele><time>2026-04-26T15:51:15Z</time></trkpt><trkpt lat="40.17434072696694" lon="15.090647082356943"><ele>9.0</ele><time>2026-04-26T15:51:16Z</time></trkpt><trkpt lat="40.17433833044654" lon="15.090546740721411"><ele>9.0</ele><time>2026-04-26T15:51:17Z</time></trkpt><trkpt lat="40.17433801099831" lon="15.090458268955636"><ele>9.0</ele><time>2026-04-26T15:51:18Z</time></trkpt><trkpt lat="40.17433555412089" lon="15.090314809987193"><ele>8.6</ele><time>2026-04-26T15:51:20Z</time></trkpt><trkpt lat="40.17435096097832" lon="15.090138999087278"><ele>8.2</ele><time>2026-04-26T15:51:22Z</time></trkpt><trkpt lat="40.174357375713875" lon="15.09003104461826"><ele>7.799999999999999</ele><time>2026-04-26T15:51:23Z</time></trkpt><trkpt lat="40.1743647458303" lon="15.089925926676448"><ele>7.3999999999999995</ele><time>2026-04-26T15:51:24Z</time></trkpt><trkpt lat="40.17435741038518" lon="15.08981409631946"><ele>7.0</ele><time>2026-04-26T15:51:25Z</time></trkpt><trkpt lat="40.174351018583394" lon="15.089705656724467"><ele>6.833333333333334</ele><time>2026-04-26T15:51:26Z</time></trkpt><trkpt lat="40.17434771074892" lon="15.089596137524829"><ele>6.666666666666667</ele><time>2026-04-26T15:51:27Z</time></trkpt><trkpt lat="40.174340663361264" lon="15.089486768674432"><ele>6.5</ele><time>2026-04-26T15:51:28Z</time></trkpt><trkpt lat="40.17433755966056" lon="15.089376664763737"><ele>6.333333333333334</ele><time>2026-04-26T15:51:29Z</time></trkpt><trkpt lat="40.17433765964829" lon="15.089260511603399"><ele>6.166666666666667</ele><time>2026-04-26T15:51:30Z</time></trkpt><trkpt lat="40.17434108743191" lon="15.089127580093871"><ele>6.0</ele><time>2026-04-26T15:51:31Z</time></trkpt><trkpt lat="40.17434510455932" lon="15.088965817461174"><ele>6.4</ele><time>2026-04-26T15:51:32Z</time></trkpt><trkpt lat="40.174350530750296" lon="15.088810638452996"><ele>6.8</ele><time>2026-04-26T15:51:33Z</time></trkpt><trkpt lat="40.174358410799385" lon="15.088663198111878"><ele>7.200000000000001</ele><time>2026-04-26T15:51:34Z</time></trkpt><trkpt lat="40.17436805748794" lon="15.08852943798404"><ele>7.6000000000000005</ele><time>2026-04-26T15:51:35Z</time></trkpt><trkpt lat="40.17437864218394" lon="15.088413412024178"><ele>8.0</ele><time>2026-04-26T15:51:36Z</time></trkpt><trkpt lat="40.17438622780497" lon="15.088313531110549"><ele>8.333333333333332</ele><time>2026-04-26T15:51:37Z</time></trkpt><trkpt lat="40.174394341290395" lon="15.088218420659082"><ele>8.666666666666666</ele><time>2026-04-26T15:51:38Z</time></trkpt><trkpt lat="40.174401083891816" lon="15.088123362400134"><ele>9.0</ele><time>2026-04-26T15:51:39Z</time></trkpt><trkpt lat="40.174411326251814" lon="15.087990749417797"><ele>9.333333333333334</ele><time>2026-04-26T15:51:41Z</time></trkpt><trkpt lat="40.17440092392712" lon="15.087841559406796"><ele>9.666666666666668</ele><time>2026-04-26T15:51:43Z</time></trkpt><trkpt lat="40.17437106142061" lon="15.087746512876521"><ele>10.0</ele><time>2026-04-26T15:51:44Z</time></trkpt><trkpt lat="40.17433015869184" lon="15.087630846986439"><ele>10.0</ele><time>2026-04-26T15:51:45Z</time></trkpt><trkpt lat="40.174298498001384" lon="15.087512005273652"><ele>10.0</ele><time>2026-04-26T15:51:46Z</time></trkpt><trkpt lat="40.17426466653562" lon="15.087380150708825"><ele>10.0</ele><time>2026-04-26T15:51:47Z</time></trkpt><trkpt lat="40.174225480487436" lon="15.087238052104347"><ele>10.0</ele><time>2026-04-26T15:51:48Z</time></trkpt><trkpt lat="40.17419126009562" lon="15.087091216385131"><ele>10.0</ele><time>2026-04-26T15:51:49Z</time></trkpt><trkpt lat="40.17416831562941" lon="15.086947441709784"><ele>11.4</ele><time>2026-04-26T15:51:50Z</time></trkpt><trkpt lat="40.17414716823372" lon="15.086810618294185"><ele>12.8</ele><time>2026-04-26T15:51:51Z</time></trkpt><trkpt lat="40.174134189626656" lon="15.086670004323599"><ele>14.2</ele><time>2026-04-26T15:51:52Z</time></trkpt><trkpt lat="40.17411764848976" lon="15.086525210537388"><ele>15.6</ele><time>2026-04-26T15:51:53Z</time></trkpt><trkpt lat="40.17409838653712" lon="15.086378435294012"><ele>17.0</ele><time>2026-04-26T15:51:54Z</time></trkpt><trkpt lat="40.174084638687766" lon="15.086242657324254"><ele>18.0</ele><time>2026-04-26T15:51:55Z</time></trkpt><trkpt lat="40.17406717882428" lon="15.086108864016424"><ele>19.0</ele><time>2026-04-26T15:51:56Z</time></trkpt><trkpt lat="40.174051849811036" lon="15.085974714054245"><ele>20.0</ele><time>2026-04-26T15:51:57Z</time></trkpt><trkpt lat="40.17403729532511" lon="15.085850931183796"><ele>21.0</ele><time>2026-04-26T15:51:58Z</time></trkpt><trkpt lat="40.17402335077498" lon="15.085735947339028"><ele>22.0</ele><time>2026-04-26T15:51:59Z</time></trkpt><trkpt lat="40.17400851200821" lon="15.085626015936736"><ele>19.6</ele><time>2026-04-26T15:52:00Z</time></trkpt><trkpt lat="40.17398872228603" lon="15.085512949412758"><ele>17.200000000000003</ele><time>2026-04-26T15:52:01Z</time></trkpt><trkpt lat="40.17396524953629" lon="15.085407143153395"><ele>14.8</ele><time>2026-04-26T15:52:02Z</time></trkpt><trkpt lat="40.17392458953332" lon="15.085293863136059"><ele>12.4</ele><time>2026-04-26T15:52:03Z</time></trkpt><trkpt lat="40.17387953331883" lon="15.085178384290645"><ele>10.0</ele><time>2026-04-26T15:52:04Z</time></trkpt><trkpt lat="40.17382216882885" lon="15.085067143074642"><ele>10.0</ele><time>2026-04-26T15:52:05Z</time></trkpt><trkpt lat="40.173752428199904" lon="15.084947302232784"><ele>10.0</ele><time>2026-04-26T15:52:06Z</time></trkpt><trkpt lat="40.173671985338935" lon="15.08482923361977"><ele>10.0</ele><time>2026-04-26T15:52:07Z</time></trkpt><trkpt lat="40.17359376526746" lon="15.084726127701327"><ele>10.0</ele><time>2026-04-26T15:52:08Z</time></trkpt><trkpt lat="40.173523089484696" lon="15.084629427415592"><ele>10.0</ele><time>2026-04-26T15:52:09Z</time></trkpt><trkpt lat="40.17346174041398" lon="15.084542274963212"><ele>9.5</ele><time>2026-04-26T15:52:10Z</time></trkpt><trkpt lat="40.17340281255482" lon="15.084447369555104"><ele>9.0</ele><time>2026-04-26T15:52:11Z</time></trkpt><trkpt lat="40.173340246386935" lon="15.084358205873528"><ele>8.5</ele><time>2026-04-26T15:52:12Z</time></trkpt><trkpt lat="40.173279208602125" lon="15.08426726062568"><ele>8.0</ele><time>2026-04-26T15:52:13Z</time></trkpt><trkpt lat="40.17325780230243" lon="15.084168513270916"><ele>7.500000000000001</ele><time>2026-04-26T15:52:14Z</time></trkpt><trkpt lat="40.17325459394264" lon="15.084077799881852"><ele>7.0</ele><time>2026-04-26T15:52:15Z</time></trkpt><trkpt lat="40.173283235131606" lon="15.083991360663488"><ele>7.0</ele><time>2026-04-26T15:52:16Z</time></trkpt><trkpt lat="40.173334328347366" lon="15.083919914150586"><ele>6.999999999999999</ele><time>2026-04-26T15:52:17Z</time></trkpt><trkpt lat="40.173416518873225" lon="15.083856361418444"><ele>6.999999999999999</ele><time>2026-04-26T15:52:18Z</time></trkpt><trkpt lat="40.17350380281343" lon="15.083805192975948"><ele>7.0</ele><time>2026-04-26T15:52:19Z</time></trkpt><trkpt lat="40.17359663262527" lon="15.083729067367617"><ele>7.0</ele><time>2026-04-26T15:52:20Z</time></trkpt><trkpt lat="40.17368517578089" lon="15.083618276968506"><ele>7.0</ele><time>2026-04-26T15:52:21Z</time></trkpt><trkpt lat="40.17374076337352" lon="15.083511097861656"><ele>6.999999999999999</ele><time>2026-04-26T15:52:22Z</time></trkpt><trkpt lat="40.173800854415354" lon="15.083427201252123"><ele>6.999999999999999</ele><time>2026-04-26T15:52:23Z</time></trkpt><trkpt lat="40.1738563875647" lon="15.083343793388122"><ele>7.0</ele><time>2026-04-26T15:52:24Z</time></trkpt><trkpt lat="40.17394738822162" lon="15.083305167369922"><ele>7.0</ele><time>2026-04-26T15:52:25Z</time></trkpt><trkpt lat="40.17404021886865" lon="15.083341641871073"><ele>9.0</ele><time>2026-04-26T15:52:26Z</time></trkpt><trkpt lat="40.17412887311663" lon="15.083387244665168"><ele>11.0</ele><time>2026-04-26T15:52:27Z</time></trkpt><trkpt lat="40.17423458633525" lon="15.083434547158266"><ele>13.0</ele><time>2026-04-26T15:52:28Z</time></trkpt><trkpt lat="40.17435008761195" lon="15.083466117844846"><ele>15.0</ele><time>2026-04-26T15:52:29Z</time></trkpt><trkpt lat="40.17445779531381" lon="15.083504213651599"><ele>17.0</ele><time>2026-04-26T15:52:30Z</time></trkpt><trkpt lat="40.17457307119776" lon="15.08350278506328"><ele>17.0</ele><time>2026-04-26T15:52:31Z</time></trkpt><trkpt lat="40.174689299514235" lon="15.083474448861285"><ele>17.0</ele><time>2026-04-26T15:52:32Z</time></trkpt><trkpt lat="40.17478815105048" lon="15.083441268792964"><ele>17.0</ele><time>2026-04-26T15:52:33Z</time></trkpt><trkpt lat="40.17487641483167" lon="15.083407806369463"><ele>17.0</ele><time>2026-04-26T15:52:34Z</time></trkpt><trkpt lat="40.174963240531774" lon="15.083365579427467"><ele>17.0</ele><time>2026-04-26T15:52:35Z</time></trkpt><trkpt lat="40.175045257324314" lon="15.083292598747276"><ele>15.25</ele><time>2026-04-26T15:52:36Z</time></trkpt><trkpt lat="40.17513034299412" lon="15.083171626242565"><ele>13.5</ele><time>2026-04-26T15:52:37Z</time></trkpt><trkpt lat="40.1752167130084" lon="15.083026555673811"><ele>11.75</ele><time>2026-04-26T15:52:38Z</time></trkpt><trkpt lat="40.17530320823776" lon="15.082916582389187"><ele>10.0</ele><time>2026-04-26T15:52:39Z</time></trkpt><trkpt lat="40.17539686423546" lon="15.082810605239876"><ele>10.0</ele><time>2026-04-26T15:52:40Z</time></trkpt><trkpt lat="40.175502337170585" lon="15.08271079022491"><ele>10.0</ele><time>2026-04-26T15:52:41Z</time></trkpt><trkpt lat="40.17562723835882" lon="15.082621156837059"><ele>10.0</ele><time>2026-04-26T15:52:42Z</time></trkpt><trkpt lat="40.17575877377653" lon="15.082543584950882"><ele>10.0</ele><time>2026-04-26T15:52:43Z</time></trkpt><trkpt lat="40.17588403103371" lon="15.082472513129769"><ele>10.25</ele><time>2026-04-26T15:52:44Z</time></trkpt><trkpt lat="40.176007026499946" lon="15.082385672820378"><ele>10.5</ele><time>2026-04-26T15:52:45Z</time></trkpt><trkpt lat="40.176133133578006" lon="15.082302328607456"><ele>10.75</ele><time>2026-04-26T15:52:46Z</time></trkpt><trkpt lat="40.17625236996471" lon="15.082216447286864"><ele>11.0</ele><time>2026-04-26T15:52:47Z</time></trkpt><trkpt lat="40.17637949355614" lon="15.082142318792469"><ele>11.0</ele><time>2026-04-26T15:52:48Z</time></trkpt><trkpt lat="40.1765093617606" lon="15.08207188227213"><ele>11.0</ele><time>2026-04-26T15:52:49Z</time></trkpt><trkpt lat="40.17664094387969" lon="15.082004960015094"><ele>11.0</ele><time>2026-04-26T15:52:50Z</time></trkpt><trkpt lat="40.17676596819602" lon="15.081945268095684"><ele>11.0</ele><time>2026-04-26T15:52:51Z</time></trkpt><trkpt lat="40.1768702412223" lon="15.081876039087962"><ele>11.200000000000001</ele><time>2026-04-26T15:52:52Z</time></trkpt><trkpt lat="40.17696748233284" lon="15.081826728277269"><ele>11.4</ele><time>2026-04-26T15:52:53Z</time></trkpt><trkpt lat="40.17706094735792" lon="15.081776972722569"><ele>11.6</ele><time>2026-04-26T15:52:54Z</time></trkpt><trkpt lat="40.17712056246043" lon="15.081671576872473"><ele>11.8</ele><time>2026-04-26T15:52:55Z</time></trkpt><trkpt lat="40.17716616312312" lon="15.08158407550506"><ele>12.0</ele><time>2026-04-26T15:52:56Z</time></trkpt><trkpt lat="40.177182294762005" lon="15.081485965328667"><ele>12.0</ele><time>2026-04-26T15:52:57Z</time></trkpt><trkpt lat="40.17717657226658" lon="15.081380988325561"><ele>12.0</ele><time>2026-04-26T15:52:58Z</time></trkpt><trkpt lat="40.177154266310026" lon="15.081266000920083"><ele>12.0</ele><time>2026-04-26T15:52:59Z</time></trkpt><trkpt lat="40.17711539548551" lon="15.081127260689982"><ele>12.0</ele><time>2026-04-26T15:53:00Z</time></trkpt><trkpt lat="40.17706701299657" lon="15.080967326547263"><ele>12.0</ele><time>2026-04-26T15:53:01Z</time></trkpt><trkpt lat="40.17701781462945" lon="15.08079986549368"><ele>12.75</ele><time>2026-04-26T15:53:02Z</time></trkpt><trkpt lat="40.17696985256688" lon="15.08064102705591"><ele>13.5</ele><time>2026-04-26T15:53:03Z</time></trkpt><trkpt lat="40.176926427385986" lon="15.080488256682289"><ele>14.25</ele><time>2026-04-26T15:53:04Z</time></trkpt><trkpt lat="40.17688715071616" lon="15.080345079107179"><ele>15.0</ele><time>2026-04-26T15:53:05Z</time></trkpt><trkpt lat="40.176850151290594" lon="15.080217759335248"><ele>15.0</ele><time>2026-04-26T15:53:06Z</time></trkpt><trkpt lat="40.176814599043965" lon="15.080101762667894"><ele>15.0</ele><time>2026-04-26T15:53:07Z</time></trkpt><trkpt lat="40.17678235000273" lon="15.079992744550639"><ele>15.0</ele><time>2026-04-26T15:53:08Z</time></trkpt><trkpt lat="40.17675213448207" lon="15.07989396916756"><ele>15.0</ele><time>2026-04-26T15:53:09Z</time></trkpt><trkpt lat="40.17671980890047" lon="15.07979589738152"><ele>15.0</ele><time>2026-04-26T15:53:10Z</time></trkpt><trkpt lat="40.17667900305683" lon="15.079692537116525"><ele>15.0</ele><time>2026-04-26T15:53:11Z</time></trkpt><trkpt lat="40.1766232980437" lon="15.079599209007378"><ele>18.2</ele><time>2026-04-26T15:53:12Z</time></trkpt><trkpt lat="40.176543995789835" lon="15.079531502906002"><ele>21.4</ele><time>2026-04-26T15:53:13Z</time></trkpt><trkpt lat="40.176453564623465" lon="15.079504266965504"><ele>24.6</ele><time>2026-04-26T15:53:14Z</time></trkpt><trkpt lat="40.17635523914578" lon="15.07951486108939"><ele>27.8</ele><time>2026-04-26T15:53:15Z</time></trkpt><trkpt lat="40.17624894163497" lon="15.07955665113777"><ele>31.0</ele><time>2026-04-26T15:53:16Z</time></trkpt><trkpt lat="40.176135218700196" lon="15.07961502629343"><ele>32.75</ele><time>2026-04-26T15:53:17Z</time></trkpt><trkpt lat="40.1760020528209" lon="15.079630296286089"><ele>34.5</ele><time>2026-04-26T15:53:18Z</time></trkpt><trkpt lat="40.175864062999324" lon="15.07960559486587"><ele>36.25</ele><time>2026-04-26T15:53:19Z</time></trkpt><trkpt lat="40.175731910254335" lon="15.079544649173013"><ele>38.0</ele><time>2026-04-26T15:53:20Z</time></trkpt><trkpt lat="40.17560726220584" lon="15.079534247571974"><ele>38.4</ele><time>2026-04-26T15:53:21Z</time></trkpt><trkpt lat="40.175506957779525" lon="15.079491227035072"><ele>38.8</ele><time>2026-04-26T15:53:22Z</time></trkpt><trkpt lat="40.175411815615234" lon="15.079476162295453"><ele>39.2</ele><time>2026-04-26T15:53:23Z</time></trkpt><trkpt lat="40.17533195938217" lon="15.079399588575228"><ele>39.6</ele><time>2026-04-26T15:53:24Z</time></trkpt><trkpt lat="40.17526015865845" lon="15.079313806646429"><ele>40.0</ele><time>2026-04-26T15:53:25Z</time></trkpt><trkpt lat="40.17519309709201" lon="15.079246860524188"><ele>40.0</ele><time>2026-04-26T15:53:26Z</time></trkpt><trkpt lat="40.17512839760551" lon="15.079214648468367"><ele>40.0</ele><time>2026-04-26T15:53:27Z</time></trkpt><trkpt lat="40.175055466364114" lon="15.079222116359524"><ele>40.0</ele><time>2026-04-26T15:53:28Z</time></trkpt><trkpt lat="40.17498581048394" lon="15.079275029170667"><ele>40.0</ele><time>2026-04-26T15:53:29Z</time></trkpt><trkpt lat="40.17493079540865" lon="15.079360610770214"><ele>40.0</ele><time>2026-04-26T15:53:30Z</time></trkpt><trkpt lat="40.17489431755274" lon="15.079468107967774"><ele>40.0</ele><time>2026-04-26T15:53:31Z</time></trkpt><trkpt lat="40.17487890054102" lon="15.079587665607306"><ele>40.0</ele><time>2026-04-26T15:53:32Z</time></trkpt><trkpt lat="40.17489061785065" lon="15.079737126641847"><ele>40.0</ele><time>2026-04-26T15:53:33Z</time></trkpt><trkpt lat="40.17489424083731" lon="15.07987589864681"><ele>40.0</ele><time>2026-04-26T15:53:34Z</time></trkpt><trkpt lat="40.17486605312782" lon="15.079984345860742"><ele>40.0</ele><time>2026-04-26T15:53:35Z</time></trkpt><trkpt lat="40.17479349227989" lon="15.080034057259292"><ele>40.0</ele><time>2026-04-26T15:53:36Z</time></trkpt><trkpt lat="40.17470588811243" lon="15.080102037789498"><ele>41.75</ele><time>2026-04-26T15:53:37Z</time></trkpt><trkpt lat="40.174610418210854" lon="15.080201734171698"><ele>43.5</ele><time>2026-04-26T15:53:38Z</time></trkpt><trkpt lat="40.17451950072017" lon="15.080345493119133"><ele>45.25</ele><time>2026-04-26T15:53:39Z</time></trkpt><trkpt lat="40.174432663182664" lon="15.080522893309741"><ele>47.0</ele><time>2026-04-26T15:53:40Z</time></trkpt><trkpt lat="40.17431823703633" lon="15.080662615128785"><ele>44.6</ele><time>2026-04-26T15:53:41Z</time></trkpt><trkpt lat="40.17420700397888" lon="15.080768741058499"><ele>42.2</ele><time>2026-04-26T15:53:42Z</time></trkpt><trkpt lat="40.17413092469166" lon="15.080837126745314"><ele>39.8</ele><time>2026-04-26T15:53:43Z</time></trkpt><trkpt lat="40.17405657294914" lon="15.080865947096395"><ele>37.4</ele><time>2026-04-26T15:53:44Z</time></trkpt><trkpt lat="40.1739382107622" lon="15.08087380970566"><ele>35.0</ele><time>2026-04-26T15:53:46Z</time></trkpt><trkpt lat="40.17389171927539" lon="15.080768009092031"><ele>40.25</ele><time>2026-04-26T15:53:47Z</time></trkpt><trkpt lat="40.17383206357957" lon="15.080669764840742"><ele>45.5</ele><time>2026-04-26T15:53:48Z</time></trkpt><trkpt lat="40.17374784932472" lon="15.080582827634208"><ele>50.75</ele><time>2026-04-26T15:53:49Z</time></trkpt><trkpt lat="40.1736537768286" lon="15.080485406257482"><ele>56.0</ele><time>2026-04-26T15:53:50Z</time></trkpt><trkpt lat="40.17354812415622" lon="15.080372449807731"><ele>56.0</ele><time>2026-04-26T15:53:51Z</time></trkpt><trkpt lat="40.17344110636328" lon="15.08025743215057"><ele>56.0</ele><time>2026-04-26T15:53:52Z</time></trkpt><trkpt lat="40.17333936813285" lon="15.08016241512297"><ele>56.0</ele><time>2026-04-26T15:53:53Z</time></trkpt><trkpt lat="40.173256299412806" lon="15.080095264856961"><ele>56.0</ele><time>2026-04-26T15:53:54Z</time></trkpt><trkpt lat="40.1731734291319" lon="15.080053046863657"><ele>59.0</ele><time>2026-04-26T15:53:55Z</time></trkpt><trkpt lat="40.173088984315406" lon="15.080049638909081"><ele>61.99999999999999</ele><time>2026-04-26T15:53:56Z</time></trkpt><trkpt lat="40.173009458609066" lon="15.080091283553957"><ele>65.0</ele><time>2026-04-26T15:53:57Z</time></trkpt><trkpt lat="40.17294967228471" lon="15.080169366472779"><ele>68.0</ele><time>2026-04-26T15:53:58Z</time></trkpt><trkpt lat="40.17289993717705" lon="15.080270627967428"><ele>71.0</ele><time>2026-04-26T15:53:59Z</time></trkpt><trkpt lat="40.17286203486895" lon="15.080406023404505"><ele>71.0</ele><time>2026-04-26T15:54:00Z</time></trkpt><trkpt lat="40.17280842311949" lon="15.080548108721688"><ele>71.0</ele><time>2026-04-26T15:54:01Z</time></trkpt><trkpt lat="40.17271570420155" lon="15.080663925560007"><ele>71.0</ele><time>2026-04-26T15:54:02Z</time></trkpt><trkpt lat="40.17260379717673" lon="15.080737700821691"><ele>71.0</ele><time>2026-04-26T15:54:03Z</time></trkpt><trkpt lat="40.172488857626526" lon="15.080753765469082"><ele>71.0</ele><time>2026-04-26T15:54:04Z</time></trkpt><trkpt lat="40.17237665036514" lon="15.08076373291023"><ele>71.0</ele><time>2026-04-26T15:54:05Z</time></trkpt><trkpt lat="40.17225899892981" lon="15.080763014635572"><ele>71.0</ele><time>2026-04-26T15:54:06Z</time></trkpt><trkpt lat="40.1721418649313" lon="15.080755878173484"><ele>71.0</ele><time>2026-04-26T15:54:07Z</time></trkpt><trkpt lat="40.17204389661219" lon="15.080745230983188"><ele>71.0</ele><time>2026-04-26T15:54:08Z</time></trkpt><trkpt lat="40.171952211469524" lon="15.080730199070256"><ele>69.39999999999999</ele><time>2026-04-26T15:54:09Z</time></trkpt><trkpt lat="40.17186630512543" lon="15.080701943822492"><ele>67.8</ele><time>2026-04-26T15:54:10Z</time></trkpt><trkpt lat="40.171796066265664" lon="15.08064231828437"><ele>66.19999999999999</ele><time>2026-04-26T15:54:11Z</time></trkpt><trkpt lat="40.17173569195647" lon="15.080557296097595"><ele>64.6</ele><time>2026-04-26T15:54:12Z</time></trkpt><trkpt lat="40.171679570878304" lon="15.08045820107622"><ele>63.0</ele><time>2026-04-26T15:54:13Z</time></trkpt><trkpt lat="40.17166055286941" lon="15.080331939659489"><ele>63.0</ele><time>2026-04-26T15:54:14Z</time></trkpt><trkpt lat="40.17167239172259" lon="15.080200281834646"><ele>63.0</ele><time>2026-04-26T15:54:15Z</time></trkpt><trkpt lat="40.17169752131887" lon="15.080076028773755"><ele>63.0</ele><time>2026-04-26T15:54:16Z</time></trkpt><trkpt lat="40.171695667929825" lon="15.079946573890517"><ele>63.0</ele><time>2026-04-26T15:54:17Z</time></trkpt><trkpt lat="40.17166781175862" lon="15.079796458648174"><ele>63.0</ele><time>2026-04-26T15:54:18Z</time></trkpt><trkpt lat="40.171629752661545" lon="15.079634749004581"><ele>67.0</ele><time>2026-04-26T15:54:19Z</time></trkpt><trkpt lat="40.17157430393878" lon="15.079477518027971"><ele>71.0</ele><time>2026-04-26T15:54:20Z</time></trkpt><trkpt lat="40.17151106809513" lon="15.07934265193618"><ele>75.0</ele><time>2026-04-26T15:54:21Z</time></trkpt><trkpt lat="40.1714371762983" lon="15.079219099465483"><ele>79.0</ele><time>2026-04-26T15:54:22Z</time></trkpt><trkpt lat="40.171350257694826" lon="15.079105399487503"><ele>77.25</ele><time>2026-04-26T15:54:23Z</time></trkpt><trkpt lat="40.171242159613605" lon="15.079002062047953"><ele>75.5</ele><time>2026-04-26T15:54:24Z</time></trkpt><trkpt lat="40.1711218071704" lon="15.07892058192691"><ele>73.75</ele><time>2026-04-26T15:54:25Z</time></trkpt><trkpt lat="40.17102061548258" lon="15.078833081072384"><ele>72.0</ele><time>2026-04-26T15:54:26Z</time></trkpt><trkpt lat="40.17093270202419" lon="15.078740021601572"><ele>72.0</ele><time>2026-04-26T15:54:27Z</time></trkpt><trkpt lat="40.1708551489673" lon="15.078648614632455"><ele>72.0</ele><time>2026-04-26T15:54:28Z</time></trkpt><trkpt lat="40.17078531109486" lon="15.07855110866495"><ele>72.0</ele><time>2026-04-26T15:54:29Z</time></trkpt><trkpt lat="40.17071908765381" lon="15.078439214991093"><ele>72.0</ele><time>2026-04-26T15:54:30Z</time></trkpt><trkpt lat="40.17065269082099" lon="15.078299435469484"><ele>72.0</ele><time>2026-04-26T15:54:31Z</time></trkpt><trkpt lat="40.17058429773597" lon="15.07814717945825"><ele>68.25</ele><time>2026-04-26T15:54:32Z</time></trkpt><trkpt lat="40.17052153194628" lon="15.07799233588857"><ele>64.5</ele><time>2026-04-26T15:54:33Z</time></trkpt><trkpt lat="40.17046074795547" lon="15.077839459523501"><ele>60.75</ele><time>2026-04-26T15:54:34Z</time></trkpt><trkpt lat="40.170395042912524" lon="15.077696610009694"><ele>57.0</ele><time>2026-04-26T15:54:35Z</time></trkpt><trkpt lat="40.170321256845135" lon="15.077568539794239"><ele>57.0</ele><time>2026-04-26T15:54:36Z</time></trkpt><trkpt lat="40.170236445711936" lon="15.077450874052218"><ele>57.0</ele><time>2026-04-26T15:54:37Z</time></trkpt><trkpt lat="40.170158925118095" lon="15.077333324162312"><ele>57.0</ele><time>2026-04-26T15:54:38Z</time></trkpt><trkpt lat="40.170093736336696" lon="15.077216922346453"><ele>57.0</ele><time>2026-04-26T15:54:39Z</time></trkpt><trkpt lat="40.170036322014596" lon="15.077104753067378"><ele>56.0</ele><time>2026-04-26T15:54:40Z</time></trkpt><trkpt lat="40.16997546756394" lon="15.076973164912001"><ele>55.0</ele><time>2026-04-26T15:54:41Z</time></trkpt><trkpt lat="40.16991450142685" lon="15.076799753513319"><ele>54.0</ele><time>2026-04-26T15:54:42Z</time></trkpt><trkpt lat="40.16987776256951" lon="15.076592036008874"><ele>53.0</ele><time>2026-04-26T15:54:43Z</time></trkpt><trkpt lat="40.16981608928836" lon="15.07638817096458"><ele>53.0</ele><time>2026-04-26T15:54:44Z</time></trkpt><trkpt lat="40.16975086810477" lon="15.076163144950186"><ele>53.0</ele><time>2026-04-26T15:54:45Z</time></trkpt><trkpt lat="40.1696563634948" lon="15.07593994841636"><ele>53.0</ele><time>2026-04-26T15:54:46Z</time></trkpt><trkpt lat="40.16955778332394" lon="15.075698777140063"><ele>56.66666666666667</ele><time>2026-04-26T15:54:47Z</time></trkpt><trkpt lat="40.169475045860615" lon="15.075477537975841"><ele>60.33333333333333</ele><time>2026-04-26T15:54:48Z</time></trkpt><trkpt lat="40.16940466729298" lon="15.075273774136939"><ele>64.0</ele><time>2026-04-26T15:54:49Z</time></trkpt><trkpt lat="40.16935382652715" lon="15.075094559589358"><ele>64.0</ele><time>2026-04-26T15:54:50Z</time></trkpt><trkpt lat="40.16931228942057" lon="15.07495354689483"><ele>64.0</ele><time>2026-04-26T15:54:51Z</time></trkpt><trkpt lat="40.16927162659547" lon="15.074831545376925"><ele>64.0</ele><time>2026-04-26T15:54:52Z</time></trkpt><trkpt lat="40.16924052400752" lon="15.07471799209711"><ele>64.0</ele><time>2026-04-26T15:54:53Z</time></trkpt><trkpt lat="40.16920603791598" lon="15.074625699300746"><ele>64.0</ele><time>2026-04-26T15:54:54Z</time></trkpt><trkpt lat="40.16916145755826" lon="15.07455057407587"><ele>65.33333333333333</ele><time>2026-04-26T15:54:55Z</time></trkpt><trkpt lat="40.16912181709213" lon="15.07446133948666"><ele>66.66666666666666</ele><time>2026-04-26T15:54:56Z</time></trkpt><trkpt lat="40.1690986565989" lon="15.074350447469763"><ele>68.0</ele><time>2026-04-26T15:54:57Z</time></trkpt><trkpt lat="40.16909852913342" lon="15.074241433477882"><ele>69.33333333333333</ele><time>2026-04-26T15:54:58Z</time></trkpt><trkpt lat="40.16911515239077" lon="15.074138082638758"><ele>70.66666666666667</ele><time>2026-04-26T15:54:59Z</time></trkpt><trkpt lat="40.16914482595133" lon="15.074040239941464"><ele>72.0</ele><time>2026-04-26T15:55:00Z</time></trkpt><trkpt lat="40.169171787280895" lon="15.073941933591522"><ele>73.0</ele><time>2026-04-26T15:55:01Z</time></trkpt><trkpt lat="40.16918407088794" lon="15.07383534764497"><ele>74.0</ele><time>2026-04-26T15:55:02Z</time></trkpt><trkpt lat="40.1691788058042" lon="15.073717090837969"><ele>75.0</ele><time>2026-04-26T15:55:03Z</time></trkpt><trkpt lat="40.16914414961281" lon="15.073581672279854"><ele>76.0</ele><time>2026-04-26T15:55:04Z</time></trkpt><trkpt lat="40.169073064618786" lon="15.073431020091435"><ele>77.0</ele><time>2026-04-26T15:55:05Z</time></trkpt><trkpt lat="40.168979723089386" lon="15.073263173996617"><ele>71.66666666666667</ele><time>2026-04-26T15:55:06Z</time></trkpt><trkpt lat="40.16887582358048" lon="15.073094871040219"><ele>66.33333333333333</ele><time>2026-04-26T15:55:07Z</time></trkpt><trkpt lat="40.16877559424014" lon="15.072919744443361"><ele>61.0</ele><time>2026-04-26T15:55:08Z</time></trkpt><trkpt lat="40.168699707105134" lon="15.072749879657053"><ele>61.0</ele><time>2026-04-26T15:55:09Z</time></trkpt><trkpt lat="40.16869028139124" lon="15.072594733830808"><ele>61.0</ele><time>2026-04-26T15:55:10Z</time></trkpt><trkpt lat="40.168717697519305" lon="15.072458409064948"><ele>61.0</ele><time>2026-04-26T15:55:11Z</time></trkpt><trkpt lat="40.16876031759699" lon="15.072322254790798"><ele>61.0</ele><time>2026-04-26T15:55:12Z</time></trkpt><trkpt lat="40.168855379113914" lon="15.072198980017797"><ele>59.33333333333333</ele><time>2026-04-26T15:55:13Z</time></trkpt><trkpt lat="40.168950235956686" lon="15.07205484151581"><ele>57.66666666666667</ele><time>2026-04-26T15:55:14Z</time></trkpt><trkpt lat="40.16905997712417" lon="15.071907136617472"><ele>56.0</ele><time>2026-04-26T15:55:15Z</time></trkpt><trkpt lat="40.169173292222375" lon="15.071742360280187"><ele>62.0</ele><time>2026-04-26T15:55:16Z</time></trkpt><trkpt lat="40.16927632201425" lon="15.071585394712248"><ele>68.0</ele><time>2026-04-26T15:55:17Z</time></trkpt><trkpt lat="40.16935035091039" lon="15.071443541751169"><ele>74.0</ele><time>2026-04-26T15:55:18Z</time></trkpt><trkpt lat="40.16939576542531" lon="15.071287446591699"><ele>80.0</ele><time>2026-04-26T15:55:19Z</time></trkpt><trkpt lat="40.169401359033166" lon="15.071130141108746"><ele>80.0</ele><time>2026-04-26T15:55:20Z</time></trkpt><trkpt lat="40.16937143650056" lon="15.070958446561475"><ele>80.0</ele><time>2026-04-26T15:55:21Z</time></trkpt><trkpt lat="40.16931032078571" lon="15.070797786015087"><ele>80.0</ele><time>2026-04-26T15:55:22Z</time></trkpt><trkpt lat="40.16920568286581" lon="15.070665562915346"><ele>80.0</ele><time>2026-04-26T15:55:23Z</time></trkpt><trkpt lat="40.16907188399911" lon="15.070566139179803"><ele>76.8</ele><time>2026-04-26T15:55:24Z</time></trkpt><trkpt lat="40.168954310657355" lon="15.070492957124145"><ele>73.6</ele><time>2026-04-26T15:55:25Z</time></trkpt><trkpt lat="40.16886691577811" lon="15.070400715853992"><ele>70.4</ele><time>2026-04-26T15:55:26Z</time></trkpt><trkpt lat="40.16880907594811" lon="15.070294536650469"><ele>67.2</ele><time>2026-04-26T15:55:27Z</time></trkpt><trkpt lat="40.16878379030117" lon="15.070188755391012"><ele>64.0</ele><time>2026-04-26T15:55:28Z</time></trkpt><trkpt lat="40.16880676420888" lon="15.070078713428657"><ele>64.0</ele><time>2026-04-26T15:55:29Z</time></trkpt><trkpt lat="40.1688225016361" lon="15.06995554333232"><ele>64.0</ele><time>2026-04-26T15:55:30Z</time></trkpt><trkpt lat="40.1688667021343" lon="15.069828066065424"><ele>64.0</ele><time>2026-04-26T15:55:31Z</time></trkpt><trkpt lat="40.16890761623864" lon="15.069690986269803"><ele>64.0</ele><time>2026-04-26T15:55:32Z</time></trkpt><trkpt lat="40.1689693161215" lon="15.069558041021363"><ele>64.0</ele><time>2026-04-26T15:55:33Z</time></trkpt><trkpt lat="40.16900264995992" lon="15.069412279638312"><ele>70.25</ele><time>2026-04-26T15:55:34Z</time></trkpt><trkpt lat="40.16906580777542" lon="15.069285927356203"><ele>76.5</ele><time>2026-04-26T15:55:35Z</time></trkpt><trkpt lat="40.169111411701444" lon="15.069156025777732"><ele>82.75</ele><time>2026-04-26T15:55:36Z</time></trkpt><trkpt lat="40.1691364393898" lon="15.069010654005242"><ele>89.0</ele><time>2026-04-26T15:55:37Z</time></trkpt><trkpt lat="40.16913870248731" lon="15.068857408781733"><ele>90.0</ele><time>2026-04-26T15:55:38Z</time></trkpt><trkpt lat="40.16911394604077" lon="15.068696174829105"><ele>91.0</ele><time>2026-04-26T15:55:39Z</time></trkpt><trkpt lat="40.16907529154347" lon="15.06855278991231"><ele>92.0</ele><time>2026-04-26T15:55:40Z</time></trkpt><trkpt lat="40.169027633116855" lon="15.068419354063888"><ele>93.0</ele><time>2026-04-26T15:55:41Z</time></trkpt><trkpt lat="40.1689547511164" lon="15.068298160837436"><ele>93.5</ele><time>2026-04-26T15:55:42Z</time></trkpt><trkpt lat="40.168855965433615" lon="15.068186232124527"><ele>94.0</ele><time>2026-04-26T15:55:43Z</time></trkpt><trkpt lat="40.16873157188005" lon="15.068093864355548"><ele>94.5</ele><time>2026-04-26T15:55:44Z</time></trkpt><trkpt lat="40.168586830077" lon="15.06801223190363"><ele>95.0</ele><time>2026-04-26T15:55:45Z</time></trkpt><trkpt lat="40.168438532285336" lon="15.06792348909662"><ele>95.0</ele><time>2026-04-26T15:55:46Z</time></trkpt><trkpt lat="40.16828755469911" lon="15.067820332433183"><ele>95.0</ele><time>2026-04-26T15:55:47Z</time></trkpt><trkpt lat="40.16812657775569" lon="15.06771088981556"><ele>95.0</ele><time>2026-04-26T15:55:48Z</time></trkpt><trkpt lat="40.16795806608257" lon="15.06758864442956"><ele>95.33333333333334</ele><time>2026-04-26T15:55:49Z</time></trkpt><trkpt lat="40.16779364035533" lon="15.067457381724482"><ele>95.66666666666667</ele><time>2026-04-26T15:55:50Z</time></trkpt><trkpt lat="40.16766180865014" lon="15.067334903117901"><ele>96.0</ele><time>2026-04-26T15:55:51Z</time></trkpt><trkpt lat="40.16754857997565" lon="15.067228320807752"><ele>96.0</ele><time>2026-04-26T15:55:52Z</time></trkpt><trkpt lat="40.16744463921051" lon="15.067134393007972"><ele>96.0</ele><time>2026-04-26T15:55:53Z</time></trkpt><trkpt lat="40.16735043613424" lon="15.067042363134787"><ele>96.0</ele><time>2026-04-26T15:55:54Z</time></trkpt><trkpt lat="40.16727992048102" lon="15.066955822907556"><ele>96.0</ele><time>2026-04-26T15:55:55Z</time></trkpt><trkpt lat="40.16722783162506" lon="15.066873676353262"><ele>96.0</ele><time>2026-04-26T15:55:56Z</time></trkpt><trkpt lat="40.167211935910224" lon="15.066761659999651"><ele>93.8</ele><time>2026-04-26T15:55:57Z</time></trkpt><trkpt lat="40.16719134143088" lon="15.066652451354038"><ele>91.6</ele><time>2026-04-26T15:55:58Z</time></trkpt><trkpt lat="40.16721071733328" lon="15.066533135460178"><ele>89.4</ele><time>2026-04-26T15:55:59Z</time></trkpt><trkpt lat="40.16724537062988" lon="15.066406435486288"><ele>87.2</ele><time>2026-04-26T15:56:00Z</time></trkpt><trkpt lat="40.167299019486954" lon="15.066265141767248"><ele>85.0</ele><time>2026-04-26T15:56:01Z</time></trkpt><trkpt lat="40.167390400668616" lon="15.066129994163694"><ele>85.0</ele><time>2026-04-26T15:56:02Z</time></trkpt><trkpt lat="40.167484488310066" lon="15.065985629861723"><ele>85.0</ele><time>2026-04-26T15:56:03Z</time></trkpt><trkpt lat="40.16758560784035" lon="15.065844013981053"><ele>85.0</ele><time>2026-04-26T15:56:04Z</time></trkpt><trkpt lat="40.16770912996743" lon="15.065699861129303"><ele>82.75</ele><time>2026-04-26T15:56:05Z</time></trkpt><trkpt lat="40.16782419895259" lon="15.06556697317328"><ele>80.5</ele><time>2026-04-26T15:56:06Z</time></trkpt><trkpt lat="40.16791029173759" lon="15.065449166036935"><ele>78.25</ele><time>2026-04-26T15:56:07Z</time></trkpt><trkpt lat="40.16798722841002" lon="15.065340607215976"><ele>76.0</ele><time>2026-04-26T15:56:08Z</time></trkpt><trkpt lat="40.16806602088006" lon="15.065252477765783"><ele>76.0</ele><time>2026-04-26T15:56:09Z</time></trkpt><trkpt lat="40.16817389321439" lon="15.06522206170829"><ele>76.0</ele><time>2026-04-26T15:56:10Z</time></trkpt><trkpt lat="40.1682938714577" lon="15.065223867018778"><ele>76.0</ele><time>2026-04-26T15:56:11Z</time></trkpt><trkpt lat="40.168414777425106" lon="15.065280260358755"><ele>76.0</ele><time>2026-04-26T15:56:12Z</time></trkpt><trkpt lat="40.168559393502015" lon="15.065322299891367"><ele>78.66666666666666</ele><time>2026-04-26T15:56:13Z</time></trkpt><trkpt lat="40.1687190299566" lon="15.065387894463997"><ele>81.33333333333333</ele><time>2026-04-26T15:56:14Z</time></trkpt><trkpt lat="40.1688714295614" lon="15.065459339881908"><ele>84.0</ele><time>2026-04-26T15:56:15Z</time></trkpt><trkpt lat="40.169030610542116" lon="15.065477682611343"><ele>84.2</ele><time>2026-04-26T15:56:16Z</time></trkpt><trkpt lat="40.16916821278894" lon="15.06551429613229"><ele>84.4</ele><time>2026-04-26T15:56:17Z</time></trkpt><trkpt lat="40.169281333763664" lon="15.065550208894797"><ele>84.6</ele><time>2026-04-26T15:56:18Z</time></trkpt><trkpt lat="40.16938048813935" lon="15.065577529745639"><ele>84.8</ele><time>2026-04-26T15:56:19Z</time></trkpt><trkpt lat="40.16947109269481" lon="15.065588207147476"><ele>85.0</ele><time>2026-04-26T15:56:20Z</time></trkpt><trkpt lat="40.16955535615439" lon="15.065557027976531"><ele>85.0</ele><time>2026-04-26T15:56:21Z</time></trkpt><trkpt lat="40.169638262623614" lon="15.065491645040286"><ele>85.0</ele><time>2026-04-26T15:56:22Z</time></trkpt><trkpt lat="40.16970079334558" lon="15.06539585287715"><ele>85.0</ele><time>2026-04-26T15:56:23Z</time></trkpt><trkpt lat="40.169747788829994" lon="15.065267053053285"><ele>85.0</ele><time>2026-04-26T15:56:24Z</time></trkpt><trkpt lat="40.16978471560871" lon="15.065139938569324"><ele>85.0</ele><time>2026-04-26T15:56:25Z</time></trkpt><trkpt lat="40.16981161318135" lon="15.065013358359131"><ele>83.6</ele><time>2026-04-26T15:56:26Z</time></trkpt><trkpt lat="40.16982923926739" lon="15.064905441304447"><ele>82.2</ele><time>2026-04-26T15:56:27Z</time></trkpt><trkpt lat="40.16982237258189" lon="15.064802294032543"><ele>80.8</ele><time>2026-04-26T15:56:28Z</time></trkpt><trkpt lat="40.16978354147599" lon="15.064678269460826"><ele>79.4</ele><time>2026-04-26T15:56:29Z</time></trkpt><trkpt lat="40.16971855276579" lon="15.064564182656554"><ele>78.0</ele><time>2026-04-26T15:56:30Z</time></trkpt><trkpt lat="40.16965363830516" lon="15.06445798341507"><ele>78.0</ele><time>2026-04-26T15:56:31Z</time></trkpt><trkpt lat="40.169628002470496" lon="15.064357360123797"><ele>78.0</ele><time>2026-04-26T15:56:32Z</time></trkpt><trkpt lat="40.169626351315564" lon="15.064254143454797"><ele>78.0</ele><time>2026-04-26T15:56:33Z</time></trkpt><trkpt lat="40.169649755465706" lon="15.064150836100579"><ele>78.0</ele><time>2026-04-26T15:56:34Z</time></trkpt><trkpt lat="40.16969656911757" lon="15.064062898338596"><ele>78.0</ele><time>2026-04-26T15:56:35Z</time></trkpt><trkpt lat="40.16978047444017" lon="15.064026131613343"><ele>78.0</ele><time>2026-04-26T15:56:36Z</time></trkpt><trkpt lat="40.16985757503605" lon="15.06396278854655"><ele>79.0</ele><time>2026-04-26T15:56:37Z</time></trkpt><trkpt lat="40.16996696009777" lon="15.063889384190034"><ele>80.0</ele><time>2026-04-26T15:56:38Z</time></trkpt><trkpt lat="40.17009455463654" lon="15.063806660077285"><ele>81.0</ele><time>2026-04-26T15:56:39Z</time></trkpt><trkpt lat="40.17022282144261" lon="15.063724710657818"><ele>82.0</ele><time>2026-04-26T15:56:40Z</time></trkpt><trkpt lat="40.17035134142505" lon="15.063642707853258"><ele>82.0</ele><time>2026-04-26T15:56:41Z</time></trkpt><trkpt lat="40.17046589980491" lon="15.063545108204126"><ele>82.0</ele><time>2026-04-26T15:56:42Z</time></trkpt><trkpt lat="40.17058457964055" lon="15.063456175609472"><ele>82.0</ele><time>2026-04-26T15:56:43Z</time></trkpt><trkpt lat="40.17068889883617" lon="15.063376405754994"><ele>82.0</ele><time>2026-04-26T15:56:44Z</time></trkpt><trkpt lat="40.17078571466247" lon="15.063304776780155"><ele>82.8</ele><time>2026-04-26T15:56:45Z</time></trkpt><trkpt lat="40.170874412332395" lon="15.063233554916874"><ele>83.6</ele><time>2026-04-26T15:56:46Z</time></trkpt><trkpt lat="40.17095578298809" lon="15.063153865249896"><ele>84.39999999999999</ele><time>2026-04-26T15:56:47Z</time></trkpt><trkpt lat="40.171021930207104" lon="15.06305649875045"><ele>85.19999999999999</ele><time>2026-04-26T15:56:48Z</time></trkpt><trkpt lat="40.17106483514494" lon="15.062933726128486"><ele>86.0</ele><time>2026-04-26T15:56:49Z</time></trkpt><trkpt lat="40.17108315190027" lon="15.06279262126852"><ele>86.0</ele><time>2026-04-26T15:56:50Z</time></trkpt><trkpt lat="40.17107137823671" lon="15.062640912942252"><ele>86.0</ele><time>2026-04-26T15:56:51Z</time></trkpt><trkpt lat="40.171043218229485" lon="15.06248975004629"><ele>86.0</ele><time>2026-04-26T15:56:52Z</time></trkpt><trkpt lat="40.17100867404087" lon="15.0623335829108"><ele>86.0</ele><time>2026-04-26T15:56:53Z</time></trkpt><trkpt lat="40.17098372426776" lon="15.062186391576214"><ele>85.6</ele><time>2026-04-26T15:56:54Z</time></trkpt><trkpt lat="40.17097491658176" lon="15.062051507427384"><ele>85.19999999999999</ele><time>2026-04-26T15:56:55Z</time></trkpt><trkpt lat="40.170982901801494" lon="15.061912253074372"><ele>84.80000000000001</ele><time>2026-04-26T15:56:56Z</time></trkpt><trkpt lat="40.17099508387645" lon="15.061776449313765"><ele>84.4</ele><time>2026-04-26T15:56:57Z</time></trkpt><trkpt lat="40.17099357219895" lon="15.061643985123672"><ele>84.0</ele><time>2026-04-26T15:56:58Z</time></trkpt><trkpt lat="40.170977742517366" lon="15.061514530445612"><ele>85.80000000000001</ele><time>2026-04-26T15:56:59Z</time></trkpt><trkpt lat="40.17093651894899" lon="15.061392710345235"><ele>87.60000000000001</ele><time>2026-04-26T15:57:00Z</time></trkpt><trkpt lat="40.1708718250629" lon="15.061286347339754"><ele>89.4</ele><time>2026-04-26T15:57:01Z</time></trkpt><trkpt lat="40.17079316560873" lon="15.061202399532077"><ele>91.2</ele><time>2026-04-26T15:57:02Z</time></trkpt><trkpt lat="40.17070891628579" lon="15.061113635554527"><ele>93.0</ele><time>2026-04-26T15:57:03Z</time></trkpt><trkpt lat="40.170618826017574" lon="15.061019196472207"><ele>88.75</ele><time>2026-04-26T15:57:04Z</time></trkpt><trkpt lat="40.17050642508407" lon="15.060924967908647"><ele>84.5</ele><time>2026-04-26T15:57:05Z</time></trkpt><trkpt lat="40.170377837915034" lon="15.060824968536418"><ele>80.25</ele><time>2026-04-26T15:57:06Z</time></trkpt><trkpt lat="40.17024551642196" lon="15.060705086156185"><ele>76.0</ele><time>2026-04-26T15:57:07Z</time></trkpt><trkpt lat="40.170129714955664" lon="15.060597852181303"><ele>76.0</ele><time>2026-04-26T15:57:08Z</time></trkpt><trkpt lat="40.170022690421014" lon="15.060497822778894"><ele>76.0</ele><time>2026-04-26T15:57:09Z</time></trkpt><trkpt lat="40.169923973258925" lon="15.060391743878446"><ele>76.0</ele><time>2026-04-26T15:57:10Z</time></trkpt><trkpt lat="40.169836408709486" lon="15.06027561314891"><ele>76.0</ele><time>2026-04-26T15:57:11Z</time></trkpt><trkpt lat="40.16976189669252" lon="15.06015598559502"><ele>72.0</ele><time>2026-04-26T15:57:12Z</time></trkpt><trkpt lat="40.169699761309104" lon="15.060035910782538"><ele>68.0</ele><time>2026-04-26T15:57:13Z</time></trkpt><trkpt lat="40.169642220827626" lon="15.059916154817714"><ele>63.99999999999999</ele><time>2026-04-26T15:57:14Z</time></trkpt><trkpt lat="40.16958838216223" lon="15.059805097230791"><ele>60.0</ele><time>2026-04-26T15:57:15Z</time></trkpt><trkpt lat="40.169555782760945" lon="15.059704741465685"><ele>56.0</ele><time>2026-04-26T15:57:16Z</time></trkpt><trkpt lat="40.16954250230242" lon="15.05960297052815"><ele>54.599999999999994</ele><time>2026-04-26T15:57:17Z</time></trkpt><trkpt lat="40.16954675100264" lon="15.05951668710551"><ele>53.199999999999996</ele><time>2026-04-26T15:57:18Z</time></trkpt><trkpt lat="40.16963499918822" lon="15.05940759003252"><ele>51.8</ele><time>2026-04-26T15:57:20Z</time></trkpt><trkpt lat="40.16972249800014" lon="15.059384079197057"><ele>50.400000000000006</ele><time>2026-04-26T15:57:21Z</time></trkpt><trkpt lat="40.1698392941461" lon="15.059329483005907"><ele>49.0</ele><time>2026-04-26T15:57:22Z</time></trkpt><trkpt lat="40.16996753074249" lon="15.059307678368683"><ele>50.0</ele><time>2026-04-26T15:57:23Z</time></trkpt><trkpt lat="40.17007915538658" lon="15.059286063720963"><ele>51.0</ele><time>2026-04-26T15:57:24Z</time></trkpt><trkpt lat="40.17015293303732" lon="15.059240927654352"><ele>52.00000000000001</ele><time>2026-04-26T15:57:25Z</time></trkpt><trkpt lat="40.170207980855295" lon="15.059164850831182"><ele>53.0</ele><time>2026-04-26T15:57:26Z</time></trkpt><trkpt lat="40.17024342829534" lon="15.05904805532115"><ele>54.0</ele><time>2026-04-26T15:57:27Z</time></trkpt><trkpt lat="40.170256177715196" lon="15.058886978276359"><ele>54.0</ele><time>2026-04-26T15:57:28Z</time></trkpt><trkpt lat="40.17026536172496" lon="15.058701211052343"><ele>54.00000000000001</ele><time>2026-04-26T15:57:29Z</time></trkpt><trkpt lat="40.17027483540485" lon="15.058572311483394"><ele>54.00000000000001</ele><time>2026-04-26T15:57:30Z</time></trkpt><trkpt lat="40.170310303273496" lon="15.058404899326144"><ele>54.0</ele><time>2026-04-26T15:57:32Z</time></trkpt><trkpt lat="40.170362640363855" lon="15.058342303470788"><ele>54.0</ele><time>2026-04-26T15:57:33Z</time></trkpt><trkpt lat="40.17042937800849" lon="15.058309309725061"><ele>54.0</ele><time>2026-04-26T15:57:34Z</time></trkpt><trkpt lat="40.17051434559044" lon="15.058303211960391"><ele>54.0</ele><time>2026-04-26T15:57:35Z</time></trkpt><trkpt lat="40.17060938277138" lon="15.058303885363474"><ele>54.0</ele><time>2026-04-26T15:57:36Z</time></trkpt><trkpt lat="40.170688399852395" lon="15.058281201012571"><ele>54.0</ele><time>2026-04-26T15:57:37Z</time></trkpt><trkpt lat="40.170750318423195" lon="15.058216065100298"><ele>54.0</ele><time>2026-04-26T15:57:38Z</time></trkpt><trkpt lat="40.17078828233828" lon="15.058122584678024"><ele>54.0</ele><time>2026-04-26T15:57:39Z</time></trkpt><trkpt lat="40.17081038832685" lon="15.058000335678255"><ele>54.0</ele><time>2026-04-26T15:57:40Z</time></trkpt><trkpt lat="40.1708070801804" lon="15.05786820926464"><ele>54.0</ele><time>2026-04-26T15:57:41Z</time></trkpt><trkpt lat="40.17077517675916" lon="15.057752066087371"><ele>54.0</ele><time>2026-04-26T15:57:42Z</time></trkpt><trkpt lat="40.17073897157887" lon="15.057654511953402"><ele>54.0</ele><time>2026-04-26T15:57:43Z</time></trkpt><trkpt lat="40.170726823486305" lon="15.05756198759504"><ele>54.0</ele><time>2026-04-26T15:57:44Z</time></trkpt><trkpt lat="40.17074001963254" lon="15.057455593527271"><ele>54.0</ele><time>2026-04-26T15:57:45Z</time></trkpt><trkpt lat="40.17077581249105" lon="15.057309355976166"><ele>54.0</ele><time>2026-04-26T15:57:46Z</time></trkpt><trkpt lat="40.1708310251128" lon="15.057140004032997"><ele>54.0</ele><time>2026-04-26T15:57:47Z</time></trkpt><trkpt lat="40.17091042184589" lon="15.056968748418932"><ele>54.0</ele><time>2026-04-26T15:57:48Z</time></trkpt><trkpt lat="40.170967545050566" lon="15.056820964697465"><ele>54.0</ele><time>2026-04-26T15:57:49Z</time></trkpt><trkpt lat="40.171028461587426" lon="15.056685387344515"><ele>49.25</ele><time>2026-04-26T15:57:50Z</time></trkpt><trkpt lat="40.17110555640656" lon="15.056568997793642"><ele>44.5</ele><time>2026-04-26T15:57:51Z</time></trkpt><trkpt lat="40.17120544952997" lon="15.056464641369434"><ele>39.75</ele><time>2026-04-26T15:57:52Z</time></trkpt><trkpt lat="40.1713060711151" lon="15.056329971697933"><ele>35.0</ele><time>2026-04-26T15:57:53Z</time></trkpt><trkpt lat="40.17139778358441" lon="15.056191998280914"><ele>35.0</ele><time>2026-04-26T15:57:54Z</time></trkpt><trkpt lat="40.17148670701022" lon="15.056073376275615"><ele>35.0</ele><time>2026-04-26T15:57:55Z</time></trkpt><trkpt lat="40.17157517986068" lon="15.055965466228297"><ele>35.0</ele><time>2026-04-26T15:57:56Z</time></trkpt><trkpt lat="40.17165953798546" lon="15.055853300486067"><ele>35.0</ele><time>2026-04-26T15:57:57Z</time></trkpt><trkpt lat="40.17173059892818" lon="15.05572545265955"><ele>40.0</ele><time>2026-04-26T15:57:58Z</time></trkpt><trkpt lat="40.17176981324009" lon="15.055562862766367"><ele>45.0</ele><time>2026-04-26T15:57:59Z</time></trkpt><trkpt lat="40.17181326467055" lon="15.05541498618206"><ele>50.0</ele><time>2026-04-26T15:58:00Z</time></trkpt><trkpt lat="40.171844802469415" lon="15.055279236573856"><ele>55.0</ele><time>2026-04-26T15:58:01Z</time></trkpt><trkpt lat="40.17185149741464" lon="15.055151776690458"><ele>55.0</ele><time>2026-04-26T15:58:02Z</time></trkpt><trkpt lat="40.17183223408141" lon="15.05502995055229"><ele>55.0</ele><time>2026-04-26T15:58:03Z</time></trkpt><trkpt lat="40.17179858798489" lon="15.054895537889047"><ele>55.0</ele><time>2026-04-26T15:58:04Z</time></trkpt><trkpt lat="40.17176308261328" lon="15.054752603014544"><ele>55.0</ele><time>2026-04-26T15:58:05Z</time></trkpt><trkpt lat="40.17176148001729" lon="15.054591985216216"><ele>55.0</ele><time>2026-04-26T15:58:06Z</time></trkpt><trkpt lat="40.17173543892226" lon="15.054435785318208"><ele>54.0</ele><time>2026-04-26T15:58:07Z</time></trkpt><trkpt lat="40.171715234394654" lon="15.054278380986998"><ele>53.0</ele><time>2026-04-26T15:58:08Z</time></trkpt><trkpt lat="40.171699470237684" lon="15.05412778371424"><ele>52.0</ele><time>2026-04-26T15:58:09Z</time></trkpt><trkpt lat="40.17169102721091" lon="15.053978801355793"><ele>51.0</ele><time>2026-04-26T15:58:10Z</time></trkpt><trkpt lat="40.17170128639928" lon="15.053823759769527"><ele>50.5</ele><time>2026-04-26T15:58:11Z</time></trkpt><trkpt lat="40.171712398943" lon="15.053660409223971"><ele>50.0</ele><time>2026-04-26T15:58:12Z</time></trkpt><trkpt lat="40.17169075284494" lon="15.053489054668471"><ele>49.5</ele><time>2026-04-26T15:58:13Z</time></trkpt><trkpt lat="40.17166096461963" lon="15.053333200787712"><ele>49.0</ele><time>2026-04-26T15:58:14Z</time></trkpt><trkpt lat="40.171655205199194" lon="15.053188003191792"><ele>49.0</ele><time>2026-04-26T15:58:15Z</time></trkpt><trkpt lat="40.17165864864278" lon="15.053036779677488"><ele>49.0</ele><time>2026-04-26T15:58:16Z</time></trkpt><trkpt lat="40.171663363228454" lon="15.052872357933527"><ele>49.0</ele><time>2026-04-26T15:58:17Z</time></trkpt><trkpt lat="40.171670449038366" lon="15.05269993122423"><ele>49.0</ele><time>2026-04-26T15:58:18Z</time></trkpt><trkpt lat="40.17167809496597" lon="15.0525360495493"><ele>47.5</ele><time>2026-04-26T15:58:19Z</time></trkpt><trkpt lat="40.17168254144911" lon="15.052385153288549"><ele>46.0</ele><time>2026-04-26T15:58:20Z</time></trkpt><trkpt lat="40.17169917815562" lon="15.052240170954708"><ele>44.5</ele><time>2026-04-26T15:58:21Z</time></trkpt><trkpt lat="40.17173498116084" lon="15.052098400549562"><ele>43.0</ele><time>2026-04-26T15:58:22Z</time></trkpt><trkpt lat="40.17179323117183" lon="15.05197366140996"><ele>43.0</ele><time>2026-04-26T15:58:23Z</time></trkpt><trkpt lat="40.17184882250558" lon="15.05184990495604"><ele>43.0</ele><time>2026-04-26T15:58:24Z</time></trkpt><trkpt lat="40.171884652916965" lon="15.051715691853273"><ele>43.0</ele><time>2026-04-26T15:58:25Z</time></trkpt><trkpt lat="40.17189164517559" lon="15.051576064371412"><ele>43.0</ele><time>2026-04-26T15:58:26Z</time></trkpt><trkpt lat="40.171873775976245" lon="15.05142782184552"><ele>43.0</ele><time>2026-04-26T15:58:27Z</time></trkpt><trkpt lat="40.17183050220369" lon="15.051276740302562"><ele>43.0</ele><time>2026-04-26T15:58:28Z</time></trkpt><trkpt lat="40.17178457182053" lon="15.051120625506764"><ele>43.0</ele><time>2026-04-26T15:58:29Z</time></trkpt><trkpt lat="40.17175464280897" lon="15.050948765218795"><ele>43.0</ele><time>2026-04-26T15:58:30Z</time></trkpt><trkpt lat="40.171734987217114" lon="15.05076600322807"><ele>43.0</ele><time>2026-04-26T15:58:31Z</time></trkpt><trkpt lat="40.17170083127858" lon="15.050584463357954"><ele>46.0</ele><time>2026-04-26T15:58:32Z</time></trkpt><trkpt lat="40.171648129717816" lon="15.050399275749955"><ele>49.0</ele><time>2026-04-26T15:58:33Z</time></trkpt><trkpt lat="40.1715907038969" lon="15.050207689867515"><ele>52.0</ele><time>2026-04-26T15:58:34Z</time></trkpt><trkpt lat="40.17153476156077" lon="15.050026425907708"><ele>43.5</ele><time>2026-04-26T15:58:35Z</time></trkpt><trkpt lat="40.171478388542255" lon="15.049855022252116"><ele>35.0</ele><time>2026-04-26T15:58:36Z</time></trkpt><trkpt lat="40.17142681520616" lon="15.049694469375625"><ele>26.5</ele><time>2026-04-26T15:58:37Z</time></trkpt><trkpt lat="40.17137648426203" lon="15.049539526436488"><ele>18.0</ele><time>2026-04-26T15:58:38Z</time></trkpt><trkpt lat="40.171330457084174" lon="15.049388068865255"><ele>18.0</ele><time>2026-04-26T15:58:39Z</time></trkpt><trkpt lat="40.17128638045762" lon="15.049243072097562"><ele>18.0</ele><time>2026-04-26T15:58:40Z</time></trkpt><trkpt lat="40.17124916406976" lon="15.049098479184812"><ele>18.0</ele><time>2026-04-26T15:58:41Z</time></trkpt><trkpt lat="40.17121409695813" lon="15.04894750473916"><ele>18.0</ele><time>2026-04-26T15:58:42Z</time></trkpt><trkpt lat="40.171195477928826" lon="15.048777444599361"><ele>19.75</ele><time>2026-04-26T15:58:43Z</time></trkpt><trkpt lat="40.17118899579005" lon="15.048593021137997"><ele>21.5</ele><time>2026-04-26T15:58:44Z</time></trkpt><trkpt lat="40.17118553482868" lon="15.048411237591512"><ele>23.25</ele><time>2026-04-26T15:58:45Z</time></trkpt><trkpt lat="40.17117171199125" lon="15.048244174188477"><ele>25.0</ele><time>2026-04-26T15:58:46Z</time></trkpt><trkpt lat="40.171130902016706" lon="15.04809839417533"><ele>29.25</ele><time>2026-04-26T15:58:47Z</time></trkpt><trkpt lat="40.17105596959683" lon="15.047975442415517"><ele>33.5</ele><time>2026-04-26T15:58:48Z</time></trkpt><trkpt lat="40.170950009327385" lon="15.0478441910912"><ele>37.75</ele><time>2026-04-26T15:58:49Z</time></trkpt><trkpt lat="40.17084315125016" lon="15.04769723726713"><ele>42.0</ele><time>2026-04-26T15:58:50Z</time></trkpt><trkpt lat="40.170746727965806" lon="15.047528739636714"><ele>35.5</ele><time>2026-04-26T15:58:51Z</time></trkpt><trkpt lat="40.170676991515435" lon="15.047384421661864"><ele>29.0</ele><time>2026-04-26T15:58:52Z</time></trkpt><trkpt lat="40.17061175357823" lon="15.047248128894454"><ele>22.5</ele><time>2026-04-26T15:58:53Z</time></trkpt><trkpt lat="40.170543770740146" lon="15.047106684556995"><ele>16.0</ele><time>2026-04-26T15:58:54Z</time></trkpt><trkpt lat="40.17048143889411" lon="15.046972727870099"><ele>16.0</ele><time>2026-04-26T15:58:55Z</time></trkpt><trkpt lat="40.1704208836637" lon="15.046842036065037"><ele>16.0</ele><time>2026-04-26T15:58:56Z</time></trkpt><trkpt lat="40.170360489247294" lon="15.046715855474584"><ele>16.0</ele><time>2026-04-26T15:58:57Z</time></trkpt><trkpt lat="40.17029905816453" lon="15.046600009986257"><ele>16.0</ele><time>2026-04-26T15:58:58Z</time></trkpt><trkpt lat="40.17023760074515" lon="15.046484824954538"><ele>16.0</ele><time>2026-04-26T15:58:59Z</time></trkpt><trkpt lat="40.17018121921036" lon="15.046373150792657"><ele>16.400000000000002</ele><time>2026-04-26T15:59:00Z</time></trkpt><trkpt lat="40.17013137754368" lon="15.046261010529724"><ele>16.8</ele><time>2026-04-26T15:59:01Z</time></trkpt><trkpt lat="40.170099251215795" lon="15.046117459273773"><ele>17.200000000000003</ele><time>2026-04-26T15:59:02Z</time></trkpt><trkpt lat="40.17008687177087" lon="15.045966445569489"><ele>17.6</ele><time>2026-04-26T15:59:03Z</time></trkpt><trkpt lat="40.170079421732446" lon="15.045826772943617"><ele>18.0</ele><time>2026-04-26T15:59:04Z</time></trkpt><trkpt lat="40.1700772194096" lon="15.04569331126412"><ele>16.75</ele><time>2026-04-26T15:59:05Z</time></trkpt><trkpt lat="40.17010280649331" lon="15.04554798745845"><ele>15.5</ele><time>2026-04-26T15:59:06Z</time></trkpt><trkpt lat="40.170159255432075" lon="15.045386223405133"><ele>14.25</ele><time>2026-04-26T15:59:07Z</time></trkpt><trkpt lat="40.170228727114186" lon="15.045206558357982"><ele>13.0</ele><time>2026-04-26T15:59:08Z</time></trkpt><trkpt lat="40.170288085913896" lon="15.045039230955311"><ele>11.75</ele><time>2026-04-26T15:59:09Z</time></trkpt><trkpt lat="40.17034154522638" lon="15.044889823378853"><ele>10.5</ele><time>2026-04-26T15:59:10Z</time></trkpt><trkpt lat="40.17040251034083" lon="15.044764524915019"><ele>9.25</ele><time>2026-04-26T15:59:11Z</time></trkpt><trkpt lat="40.170501558835944" lon="15.044676873728559"><ele>8.0</ele><time>2026-04-26T15:59:12Z</time></trkpt><trkpt lat="40.17061479150395" lon="15.044606995991469"><ele>9.75</ele><time>2026-04-26T15:59:13Z</time></trkpt><trkpt lat="40.170746180740686" lon="15.04451277460438"><ele>11.5</ele><time>2026-04-26T15:59:14Z</time></trkpt><trkpt lat="40.17088150207123" lon="15.044444817917302"><ele>13.25</ele><time>2026-04-26T15:59:15Z</time></trkpt><trkpt lat="40.17100077902725" lon="15.044375553641688"><ele>15.0</ele><time>2026-04-26T15:59:16Z</time></trkpt><trkpt lat="40.1711150704269" lon="15.044312790700275"><ele>15.0</ele><time>2026-04-26T15:59:17Z</time></trkpt><trkpt lat="40.17122093667853" lon="15.044262272040886"><ele>15.0</ele><time>2026-04-26T15:59:18Z</time></trkpt><trkpt lat="40.17131384329534" lon="15.044208806880174"><ele>15.0</ele><time>2026-04-26T15:59:19Z</time></trkpt><trkpt lat="40.171406337108586" lon="15.04415699365106"><ele>15.0</ele><time>2026-04-26T15:59:20Z</time></trkpt><trkpt lat="40.17148447504908" lon="15.04409892469338"><ele>15.0</ele><time>2026-04-26T15:59:21Z</time></trkpt><trkpt lat="40.17153090805361" lon="15.044015482536544"><ele>14.2</ele><time>2026-04-26T15:59:22Z</time></trkpt><trkpt lat="40.171568891357886" lon="15.043921496175663"><ele>13.4</ele><time>2026-04-26T15:59:23Z</time></trkpt><trkpt lat="40.171568142187" lon="15.04379281351381"><ele>12.600000000000001</ele><time>2026-04-26T15:59:24Z</time></trkpt><trkpt lat="40.171513350129445" lon="15.043650499318723"><ele>11.8</ele><time>2026-04-26T15:59:25Z</time></trkpt><trkpt lat="40.17144620344574" lon="15.043483013727327"><ele>11.0</ele><time>2026-04-26T15:59:26Z</time></trkpt><trkpt lat="40.171359349940055" lon="15.04330221967977"><ele>10.75</ele><time>2026-04-26T15:59:27Z</time></trkpt><trkpt lat="40.17128634846506" lon="15.043123683633326"><ele>10.5</ele><time>2026-04-26T15:59:28Z</time></trkpt><trkpt lat="40.17123904331536" lon="15.042943784381947"><ele>10.25</ele><time>2026-04-26T15:59:29Z</time></trkpt><trkpt lat="40.171206300894596" lon="15.042769261479284"><ele>10.0</ele><time>2026-04-26T15:59:30Z</time></trkpt><trkpt lat="40.17118414992604" lon="15.042605792608976"><ele>9.75</ele><time>2026-04-26T15:59:31Z</time></trkpt><trkpt lat="40.17118528379535" lon="15.042452767108458"><ele>9.5</ele><time>2026-04-26T15:59:32Z</time></trkpt><trkpt lat="40.1712108062861" lon="15.042297509832276"><ele>9.25</ele><time>2026-04-26T15:59:33Z</time></trkpt><trkpt lat="40.171260790739865" lon="15.042140559757113"><ele>9.0</ele><time>2026-04-26T15:59:34Z</time></trkpt><trkpt lat="40.171322343635616" lon="15.041984172398816"><ele>9.0</ele><time>2026-04-26T15:59:35Z</time></trkpt><trkpt lat="40.17137676327414" lon="15.041815360208114"><ele>9.0</ele><time>2026-04-26T15:59:36Z</time></trkpt><trkpt lat="40.17142686634899" lon="15.041644109790186"><ele>9.0</ele><time>2026-04-26T15:59:37Z</time></trkpt><trkpt lat="40.17149056122436" lon="15.041476973821856"><ele>9.0</ele><time>2026-04-26T15:59:38Z</time></trkpt><trkpt lat="40.171564286434055" lon="15.041295938070519"><ele>9.666666666666666</ele><time>2026-04-26T15:59:39Z</time></trkpt><trkpt lat="40.17163226471254" lon="15.041097568530477"><ele>10.333333333333332</ele><time>2026-04-26T15:59:40Z</time></trkpt><trkpt lat="40.17168514140855" lon="15.040890106894462"><ele>11.0</ele><time>2026-04-26T15:59:41Z</time></trkpt><trkpt lat="40.17174942577447" lon="15.040705137399188"><ele>11.0</ele><time>2026-04-26T15:59:42Z</time></trkpt><trkpt lat="40.17181042910391" lon="15.040530822946975"><ele>11.0</ele><time>2026-04-26T15:59:43Z</time></trkpt><trkpt lat="40.17186705537218" lon="15.040365094901771"><ele>11.0</ele><time>2026-04-26T15:59:44Z</time></trkpt><trkpt lat="40.17192332911087" lon="15.040204432762648"><ele>11.0</ele><time>2026-04-26T15:59:45Z</time></trkpt><trkpt lat="40.171983368739575" lon="15.040044373626824"><ele>9.333333333333332</ele><time>2026-04-26T15:59:46Z</time></trkpt><trkpt lat="40.172047454497005" lon="15.039877373299321"><ele>7.666666666666666</ele><time>2026-04-26T15:59:47Z</time></trkpt><trkpt lat="40.172121711085154" lon="15.039698199716046"><ele>6.0</ele><time>2026-04-26T15:59:48Z</time></trkpt><trkpt lat="40.17220421424017" lon="15.039508574329428"><ele>6.0</ele><time>2026-04-26T15:59:49Z</time></trkpt><trkpt lat="40.172289857433036" lon="15.039321727787726"><ele>6.0</ele><time>2026-04-26T15:59:50Z</time></trkpt><trkpt lat="40.17237516117317" lon="15.039127466838844"><ele>6.0</ele><time>2026-04-26T15:59:51Z</time></trkpt><trkpt lat="40.17246200496011" lon="15.038929502181915"><ele>7.666666666666666</ele><time>2026-04-26T15:59:52Z</time></trkpt><trkpt lat="40.17254697561518" lon="15.038719727204345"><ele>9.333333333333332</ele><time>2026-04-26T15:59:53Z</time></trkpt><trkpt lat="40.172640380901946" lon="15.038501620682439"><ele>11.0</ele><time>2026-04-26T15:59:54Z</time></trkpt><trkpt lat="40.172732415597864" lon="15.038295631226015"><ele>11.0</ele><time>2026-04-26T15:59:55Z</time></trkpt><trkpt lat="40.17282339902606" lon="15.038094451030354"><ele>11.0</ele><time>2026-04-26T15:59:56Z</time></trkpt><trkpt lat="40.17290650066282" lon="15.037912489427965"><ele>11.0</ele><time>2026-04-26T15:59:57Z</time></trkpt><trkpt lat="40.17297304163367" lon="15.037764532340335"><ele>11.0</ele><time>2026-04-26T15:59:58Z</time></trkpt><trkpt lat="40.17303276307628" lon="15.037618285106355"><ele>11.0</ele><time>2026-04-26T15:59:59Z</time></trkpt><trkpt lat="40.173091920079926" lon="15.03747285743727"><ele>11.0</ele><time>2026-04-26T16:00:00Z</time></trkpt><trkpt lat="40.173160137421704" lon="15.03731855489524"><ele>11.0</ele><time>2026-04-26T16:00:01Z</time></trkpt><trkpt lat="40.173235514423766" lon="15.037154824031735"><ele>13.666666666666666</ele><time>2026-04-26T16:00:02Z</time></trkpt><trkpt lat="40.17331204425477" lon="15.036987790955802"><ele>16.333333333333332</ele><time>2026-04-26T16:00:03Z</time></trkpt><trkpt lat="40.17339185895866" lon="15.03681693725048"><ele>19.0</ele><time>2026-04-26T16:00:04Z</time></trkpt><trkpt lat="40.173480129667766" lon="15.036653651280757"><ele>17.666666666666664</ele><time>2026-04-26T16:00:05Z</time></trkpt><trkpt lat="40.17359223454244" lon="15.036508204232288"><ele>16.333333333333332</ele><time>2026-04-26T16:00:06Z</time></trkpt><trkpt lat="40.17370825192549" lon="15.036353262724885"><ele>15.0</ele><time>2026-04-26T16:00:07Z</time></trkpt><trkpt lat="40.17381402172825" lon="15.0361744875492"><ele>15.0</ele><time>2026-04-26T16:00:08Z</time></trkpt><trkpt lat="40.173932109155245" lon="15.036030607171917"><ele>15.0</ele><time>2026-04-26T16:00:09Z</time></trkpt><trkpt lat="40.17403712609313" lon="15.035905278473697"><ele>15.0</ele><time>2026-04-26T16:00:10Z</time></trkpt><trkpt lat="40.174136452659994" lon="15.035784018694622"><ele>15.0</ele><time>2026-04-26T16:00:11Z</time></trkpt><trkpt lat="40.17423609020495" lon="15.035658113806505"><ele>14.75</ele><time>2026-04-26T16:00:12Z</time></trkpt><trkpt lat="40.17433391822147" lon="15.035533674224107"><ele>14.5</ele><time>2026-04-26T16:00:13Z</time></trkpt><trkpt lat="40.17443019645098" lon="15.035414288496684"><ele>14.25</ele><time>2026-04-26T16:00:14Z</time></trkpt><trkpt lat="40.17452304501611" lon="15.035291051783437"><ele>14.0</ele><time>2026-04-26T16:00:15Z</time></trkpt><trkpt lat="40.174616527831915" lon="15.035173531556664"><ele>14.0</ele><time>2026-04-26T16:00:16Z</time></trkpt><trkpt lat="40.174710454677765" lon="15.03505294276983"><ele>14.0</ele><time>2026-04-26T16:00:17Z</time></trkpt><trkpt lat="40.17480398482323" lon="15.034929289284895"><ele>14.0</ele><time>2026-04-26T16:00:18Z</time></trkpt><trkpt lat="40.17490297810892" lon="15.034799380626326"><ele>14.0</ele><time>2026-04-26T16:00:19Z</time></trkpt><trkpt lat="40.175013740363454" lon="15.034666360507714"><ele>14.0</ele><time>2026-04-26T16:00:20Z</time></trkpt><trkpt lat="40.17512603419518" lon="15.034514581127045"><ele>14.0</ele><time>2026-04-26T16:00:21Z</time></trkpt><trkpt lat="40.1752491941109" lon="15.034352991673614"><ele>14.0</ele><time>2026-04-26T16:00:22Z</time></trkpt><trkpt lat="40.17537559489776" lon="15.034194324469787"><ele>15.0</ele><time>2026-04-26T16:00:23Z</time></trkpt><trkpt lat="40.17550651595885" lon="15.03402719773673"><ele>16.0</ele><time>2026-04-26T16:00:24Z</time></trkpt><trkpt lat="40.175638656464145" lon="15.033858438087808"><ele>17.0</ele><time>2026-04-26T16:00:25Z</time></trkpt><trkpt lat="40.175770677473075" lon="15.033688491296799"><ele>17.0</ele><time>2026-04-26T16:00:26Z</time></trkpt><trkpt lat="40.17590122654491" lon="15.033522781547452"><ele>17.0</ele><time>2026-04-26T16:00:27Z</time></trkpt><trkpt lat="40.17602678645846" lon="15.033360358330938"><ele>17.0</ele><time>2026-04-26T16:00:28Z</time></trkpt><trkpt lat="40.17614042540073" lon="15.033219616102242"><ele>16.0</ele><time>2026-04-26T16:00:29Z</time></trkpt><trkpt lat="40.17624411340042" lon="15.033088573231488"><ele>15.0</ele><time>2026-04-26T16:00:30Z</time></trkpt><trkpt lat="40.17634108405236" lon="15.03296318326607"><ele>14.0</ele><time>2026-04-26T16:00:31Z</time></trkpt><trkpt lat="40.17643860501385" lon="15.032837385673052"><ele>13.0</ele><time>2026-04-26T16:00:32Z</time></trkpt><trkpt lat="40.17653728308319" lon="15.03270302367722"><ele>13.0</ele><time>2026-04-26T16:00:33Z</time></trkpt><trkpt lat="40.176638603180095" lon="15.03256761496757"><ele>13.0</ele><time>2026-04-26T16:00:34Z</time></trkpt><trkpt lat="40.17674162462678" lon="15.032438099356654"><ele>13.0</ele><time>2026-04-26T16:00:35Z</time></trkpt><trkpt lat="40.176845031089925" lon="15.032301646424335"><ele>13.0</ele><time>2026-04-26T16:00:36Z</time></trkpt><trkpt lat="40.176951475225806" lon="15.032167844410084"><ele>13.25</ele><time>2026-04-26T16:00:37Z</time></trkpt><trkpt lat="40.17705620331136" lon="15.03203015683117"><ele>13.5</ele><time>2026-04-26T16:00:38Z</time></trkpt><trkpt lat="40.17716032184866" lon="15.031896567456348"><ele>13.75</ele><time>2026-04-26T16:00:39Z</time></trkpt><trkpt lat="40.17726454824649" lon="15.031762433598562"><ele>14.0</ele><time>2026-04-26T16:00:40Z</time></trkpt><trkpt lat="40.17736740652952" lon="15.031628614859423"><ele>14.0</ele><time>2026-04-26T16:00:41Z</time></trkpt><trkpt lat="40.177481852184165" lon="15.031510414010414"><ele>14.0</ele><time>2026-04-26T16:00:42Z</time></trkpt><trkpt lat="40.177584820373276" lon="15.031379039712263"><ele>14.0</ele><time>2026-04-26T16:00:43Z</time></trkpt><trkpt lat="40.17768563270382" lon="15.031248258540627"><ele>14.0</ele><time>2026-04-26T16:00:44Z</time></trkpt><trkpt lat="40.177785217360224" lon="15.031118492262406"><ele>14.0</ele><time>2026-04-26T16:00:45Z</time></trkpt><trkpt lat="40.17788255186289" lon="15.030991631179152"><ele>14.0</ele><time>2026-04-26T16:00:46Z</time></trkpt><trkpt lat="40.17796630890227" lon="15.030851690988968"><ele>14.0</ele><time>2026-04-26T16:00:47Z</time></trkpt><trkpt lat="40.178064675453214" lon="15.030735412581572"><ele>14.0</ele><time>2026-04-26T16:00:48Z</time></trkpt><trkpt lat="40.17816535920467" lon="15.030622014392739"><ele>15.0</ele><time>2026-04-26T16:00:49Z</time></trkpt><trkpt lat="40.17825761862422" lon="15.030496433536936"><ele>16.0</ele><time>2026-04-26T16:00:50Z</time></trkpt><trkpt lat="40.17835929084288" lon="15.030382678072776"><ele>17.0</ele><time>2026-04-26T16:00:51Z</time></trkpt><trkpt lat="40.178467373940094" lon="15.030274395067847"><ele>18.0</ele><time>2026-04-26T16:00:52Z</time></trkpt><trkpt lat="40.17859321511017" lon="15.030165070088533"><ele>18.0</ele><time>2026-04-26T16:00:53Z</time></trkpt><trkpt lat="40.17873579971939" lon="15.030059991120348"><ele>18.0</ele><time>2026-04-26T16:00:54Z</time></trkpt><trkpt lat="40.17889841711397" lon="15.029982032013164"><ele>18.0</ele><time>2026-04-26T16:00:55Z</time></trkpt><trkpt lat="40.17905768997713" lon="15.029890302482258"><ele>17.333333333333332</ele><time>2026-04-26T16:00:56Z</time></trkpt><trkpt lat="40.17919876721059" lon="15.029788010773043"><ele>16.666666666666664</ele><time>2026-04-26T16:00:57Z</time></trkpt><trkpt lat="40.17933813506071" lon="15.029714483952754"><ele>16.0</ele><time>2026-04-26T16:00:58Z</time></trkpt><trkpt lat="40.17947313830964" lon="15.029641351107845"><ele>16.0</ele><time>2026-04-26T16:00:59Z</time></trkpt><trkpt lat="40.17960895302382" lon="15.029569558306326"><ele>16.0</ele><time>2026-04-26T16:01:00Z</time></trkpt><trkpt lat="40.17974569741458" lon="15.029496628923155"><ele>16.0</ele><time>2026-04-26T16:01:01Z</time></trkpt><trkpt lat="40.17988454526608" lon="15.029415842648314"><ele>16.0</ele><time>2026-04-26T16:01:02Z</time></trkpt><trkpt lat="40.180028588171496" lon="15.029325696357139"><ele>15.0</ele><time>2026-04-26T16:01:03Z</time></trkpt><trkpt lat="40.180177769376535" lon="15.029235508299495"><ele>14.0</ele><time>2026-04-26T16:01:04Z</time></trkpt><trkpt lat="40.18032689898552" lon="15.0291458934701"><ele>13.0</ele><time>2026-04-26T16:01:05Z</time></trkpt><trkpt lat="40.18046963063761" lon="15.02905359533888"><ele>13.0</ele><time>2026-04-26T16:01:06Z</time></trkpt><trkpt lat="40.18060353263019" lon="15.028955796469262"><ele>13.0</ele><time>2026-04-26T16:01:07Z</time></trkpt><trkpt lat="40.18073596011435" lon="15.02885498610873"><ele>13.0</ele><time>2026-04-26T16:01:08Z</time></trkpt><trkpt lat="40.18087140188988" lon="15.02874704672893"><ele>14.666666666666666</ele><time>2026-04-26T16:01:09Z</time></trkpt><trkpt lat="40.181004842999094" lon="15.02862953557623"><ele>16.333333333333332</ele><time>2026-04-26T16:01:10Z</time></trkpt><trkpt lat="40.181142795479474" lon="15.028518725441298"><ele>18.0</ele><time>2026-04-26T16:01:11Z</time></trkpt><trkpt lat="40.181285704574165" lon="15.028406459581763"><ele>16.666666666666668</ele><time>2026-04-26T16:01:12Z</time></trkpt><trkpt lat="40.181431818900556" lon="15.02829105953529"><ele>15.333333333333334</ele><time>2026-04-26T16:01:13Z</time></trkpt><trkpt lat="40.181572350277335" lon="15.028181142131546"><ele>14.0</ele><time>2026-04-26T16:01:14Z</time></trkpt><trkpt lat="40.1817134827746" lon="15.028072924773609"><ele>14.0</ele><time>2026-04-26T16:01:15Z</time></trkpt><trkpt lat="40.18185510396934" lon="15.027969476474754"><ele>14.0</ele><time>2026-04-26T16:01:16Z</time></trkpt><trkpt lat="40.18200285289912" lon="15.027881038018197"><ele>14.0</ele><time>2026-04-26T16:01:17Z</time></trkpt><trkpt lat="40.182151135022195" lon="15.027803904653574"><ele>14.0</ele><time>2026-04-26T16:01:18Z</time></trkpt><trkpt lat="40.18229706613054" lon="15.027733884593898"><ele>14.0</ele><time>2026-04-26T16:01:19Z</time></trkpt><trkpt lat="40.1824458487001" lon="15.02766929072115"><ele>14.0</ele><time>2026-04-26T16:01:20Z</time></trkpt><trkpt lat="40.18259617131812" lon="15.027602731045175"><ele>14.666666666666668</ele><time>2026-04-26T16:01:21Z</time></trkpt><trkpt lat="40.18274872907602" lon="15.027535051442275"><ele>15.333333333333332</ele><time>2026-04-26T16:01:22Z</time></trkpt><trkpt lat="40.18290508299074" lon="15.027465127556301"><ele>16.0</ele><time>2026-04-26T16:01:23Z</time></trkpt><trkpt lat="40.18306766592205" lon="15.027398086519936"><ele>15.0</ele><time>2026-04-26T16:01:24Z</time></trkpt><trkpt lat="40.18322916824396" lon="15.027320200085432"><ele>14.0</ele><time>2026-04-26T16:01:25Z</time></trkpt><trkpt lat="40.18339151137834" lon="15.027241312088812"><ele>13.0</ele><time>2026-04-26T16:01:26Z</time></trkpt><trkpt lat="40.183557066751916" lon="15.02716748628963"><ele>13.0</ele><time>2026-04-26T16:01:27Z</time></trkpt><trkpt lat="40.183724709234276" lon="15.027093702251038"><ele>13.0</ele><time>2026-04-26T16:01:28Z</time></trkpt><trkpt lat="40.18389356278431" lon="15.027016561120043"><ele>13.0</ele><time>2026-04-26T16:01:29Z</time></trkpt><trkpt lat="40.18406166836202" lon="15.026940082498255"><ele>14.0</ele><time>2026-04-26T16:01:30Z</time></trkpt><trkpt lat="40.184226683220274" lon="15.026865743489457"><ele>15.0</ele><time>2026-04-26T16:01:31Z</time></trkpt><trkpt lat="40.18438576333891" lon="15.026790018575975"><ele>16.0</ele><time>2026-04-26T16:01:32Z</time></trkpt><trkpt lat="40.18454261797317" lon="15.0267165349817"><ele>16.0</ele><time>2026-04-26T16:01:33Z</time></trkpt><trkpt lat="40.18470089947289" lon="15.02664822955053"><ele>16.0</ele><time>2026-04-26T16:01:34Z</time></trkpt><trkpt lat="40.184856004180155" lon="15.026579177333144"><ele>16.0</ele><time>2026-04-26T16:01:35Z</time></trkpt><trkpt lat="40.18501066871181" lon="15.026510164795548"><ele>13.666666666666666</ele><time>2026-04-26T16:01:36Z</time></trkpt><trkpt lat="40.18517674147193" lon="15.026435418581015"><ele>11.333333333333332</ele><time>2026-04-26T16:01:37Z</time></trkpt><trkpt lat="40.185350149382124" lon="15.026351458247778"><ele>9.0</ele><time>2026-04-26T16:01:38Z</time></trkpt><trkpt lat="40.185522336968624" lon="15.026240158960999"><ele>11.0</ele><time>2026-04-26T16:01:39Z</time></trkpt><trkpt lat="40.185694297254614" lon="15.026111327994947"><ele>13.0</ele><time>2026-04-26T16:01:40Z</time></trkpt><trkpt lat="40.18585322080798" lon="15.025988478544882"><ele>15.0</ele><time>2026-04-26T16:01:41Z</time></trkpt><trkpt lat="40.186002387413744" lon="15.02587526546872"><ele>13.5</ele><time>2026-04-26T16:01:42Z</time></trkpt><trkpt lat="40.18613179876371" lon="15.025777809218"><ele>12.0</ele><time>2026-04-26T16:01:43Z</time></trkpt><trkpt lat="40.18625272767183" lon="15.025687279108046"><ele>10.5</ele><time>2026-04-26T16:01:44Z</time></trkpt><trkpt lat="40.186371097824626" lon="15.025604479321983"><ele>9.0</ele><time>2026-04-26T16:01:45Z</time></trkpt><trkpt lat="40.18648585863391" lon="15.025515635123881"><ele>10.0</ele><time>2026-04-26T16:01:46Z</time></trkpt><trkpt lat="40.18660264361898" lon="15.025422306791626"><ele>11.0</ele><time>2026-04-26T16:01:47Z</time></trkpt><trkpt lat="40.18671588542855" lon="15.025330729290122"><ele>12.0</ele><time>2026-04-26T16:01:48Z</time></trkpt><trkpt lat="40.18682998257271" lon="15.02524208428821"><ele>13.0</ele><time>2026-04-26T16:01:49Z</time></trkpt><trkpt lat="40.186943459062704" lon="15.025150080923323"><ele>13.0</ele><time>2026-04-26T16:01:50Z</time></trkpt><trkpt lat="40.18705665663312" lon="15.025055047468522"><ele>13.0</ele><time>2026-04-26T16:01:51Z</time></trkpt><trkpt lat="40.187179171536044" lon="15.024978603760907"><ele>13.0</ele><time>2026-04-26T16:01:52Z</time></trkpt><trkpt lat="40.18729388906234" lon="15.024872445705538"><ele>13.0</ele><time>2026-04-26T16:01:53Z</time></trkpt><trkpt lat="40.187417612349414" lon="15.024790364408357"><ele>13.0</ele><time>2026-04-26T16:01:54Z</time></trkpt><trkpt lat="40.187545632402895" lon="15.024695945794004"><ele>13.0</ele><time>2026-04-26T16:01:55Z</time></trkpt><trkpt lat="40.18767062307982" lon="15.024604029707477"><ele>13.0</ele><time>2026-04-26T16:01:56Z</time></trkpt><trkpt lat="40.187795140814586" lon="15.024513062576789"><ele>13.0</ele><time>2026-04-26T16:01:57Z</time></trkpt><trkpt lat="40.18791922994832" lon="15.02442288369845"><ele>13.0</ele><time>2026-04-26T16:01:58Z</time></trkpt><trkpt lat="40.18804851485517" lon="15.024323806046924"><ele>13.0</ele><time>2026-04-26T16:01:59Z</time></trkpt><trkpt lat="40.18818189311921" lon="15.024216678614236"><ele>13.0</ele><time>2026-04-26T16:02:00Z</time></trkpt><trkpt lat="40.188315193794" lon="15.02411349691834"><ele>12.75</ele><time>2026-04-26T16:02:01Z</time></trkpt><trkpt lat="40.18844322014208" lon="15.024013605279874"><ele>12.5</ele><time>2026-04-26T16:02:02Z</time></trkpt><trkpt lat="40.1885654529901" lon="15.023910071966313"><ele>12.25</ele><time>2026-04-26T16:02:03Z</time></trkpt><trkpt lat="40.188690656951444" lon="15.023820524997937"><ele>12.0</ele><time>2026-04-26T16:02:04Z</time></trkpt><trkpt lat="40.18882891175969" lon="15.023732685380526"><ele>12.0</ele><time>2026-04-26T16:02:05Z</time></trkpt><trkpt lat="40.18897225872439" lon="15.023641940226232"><ele>12.0</ele><time>2026-04-26T16:02:06Z</time></trkpt><trkpt lat="40.18911776587579" lon="15.023550404056584"><ele>12.0</ele><time>2026-04-26T16:02:07Z</time></trkpt><trkpt lat="40.18926547011698" lon="15.023465935646374"><ele>12.666666666666668</ele><time>2026-04-26T16:02:08Z</time></trkpt><trkpt lat="40.18941250655809" lon="15.02338413944649"><ele>13.333333333333334</ele><time>2026-04-26T16:02:09Z</time></trkpt><trkpt lat="40.18956007940363" lon="15.023293960183409"><ele>14.0</ele><time>2026-04-26T16:02:10Z</time></trkpt><trkpt lat="40.18970459929418" lon="15.023218253527782"><ele>14.666666666666668</ele><time>2026-04-26T16:02:11Z</time></trkpt><trkpt lat="40.18984712388672" lon="15.023137394609371"><ele>15.333333333333332</ele><time>2026-04-26T16:02:12Z</time></trkpt><trkpt lat="40.18999579147059" lon="15.023057995332646"><ele>16.0</ele><time>2026-04-26T16:02:13Z</time></trkpt><trkpt lat="40.19014951255596" lon="15.022974596551778"><ele>16.0</ele><time>2026-04-26T16:02:14Z</time></trkpt><trkpt lat="40.19030714518357" lon="15.022889941243108"><ele>16.0</ele><time>2026-04-26T16:02:15Z</time></trkpt><trkpt lat="40.19045717732567" lon="15.022812922943876"><ele>16.0</ele><time>2026-04-26T16:02:16Z</time></trkpt><trkpt lat="40.19060252595317" lon="15.022733570246919"><ele>15.5</ele><time>2026-04-26T16:02:17Z</time></trkpt><trkpt lat="40.19074027475505" lon="15.022650647938864"><ele>15.0</ele><time>2026-04-26T16:02:18Z</time></trkpt><trkpt lat="40.19087378675052" lon="15.022569685894606"><ele>14.5</ele><time>2026-04-26T16:02:19Z</time></trkpt><trkpt lat="40.190999280059685" lon="15.022497239603984"><ele>14.0</ele><time>2026-04-26T16:02:20Z</time></trkpt><trkpt lat="40.19112051910154" lon="15.022441725185926"><ele>14.0</ele><time>2026-04-26T16:02:21Z</time></trkpt><trkpt lat="40.191245706185256" lon="15.02241367023744"><ele>14.0</ele><time>2026-04-26T16:02:22Z</time></trkpt><trkpt lat="40.1913745199035" lon="15.0224437372829"><ele>14.0</ele><time>2026-04-26T16:02:23Z</time></trkpt><trkpt lat="40.19149971568111" lon="15.022479628410313"><ele>14.0</ele><time>2026-04-26T16:02:24Z</time></trkpt><trkpt lat="40.19163294553343" lon="15.022523045646299"><ele>17.5</ele><time>2026-04-26T16:02:25Z</time></trkpt><trkpt lat="40.191776300649735" lon="15.022554908857623"><ele>21.0</ele><time>2026-04-26T16:02:26Z</time></trkpt><trkpt lat="40.1919148839706" lon="15.022606073428465"><ele>24.5</ele><time>2026-04-26T16:02:27Z</time></trkpt><trkpt lat="40.19203984016669" lon="15.022651829610085"><ele>28.0</ele><time>2026-04-26T16:02:28Z</time></trkpt><trkpt lat="40.19215572807973" lon="15.022682045843258"><ele>28.0</ele><time>2026-04-26T16:02:29Z</time></trkpt><trkpt lat="40.19227772165329" lon="15.022678242244668"><ele>28.0</ele><time>2026-04-26T16:02:30Z</time></trkpt><trkpt lat="40.19239492990511" lon="15.022630539732832"><ele>28.0</ele><time>2026-04-26T16:02:31Z</time></trkpt><trkpt lat="40.1925164597887" lon="15.022542144006227"><ele>28.0</ele><time>2026-04-26T16:02:32Z</time></trkpt><trkpt lat="40.192629060754506" lon="15.022429568859952"><ele>26.0</ele><time>2026-04-26T16:02:33Z</time></trkpt><trkpt lat="40.19274436360882" lon="15.022319386609345"><ele>24.0</ele><time>2026-04-26T16:02:34Z</time></trkpt><trkpt lat="40.19286664491496" lon="15.022213172099049"><ele>22.0</ele><time>2026-04-26T16:02:35Z</time></trkpt><trkpt lat="40.1929917366868" lon="15.02210047190898"><ele>20.0</ele><time>2026-04-26T16:02:36Z</time></trkpt><trkpt lat="40.19311224193097" lon="15.021988818600388"><ele>20.5</ele><time>2026-04-26T16:02:37Z</time></trkpt><trkpt lat="40.19323412390454" lon="15.021884591445502"><ele>21.0</ele><time>2026-04-26T16:02:38Z</time></trkpt><trkpt lat="40.19335397126389" lon="15.021772434328682"><ele>21.5</ele><time>2026-04-26T16:02:39Z</time></trkpt><trkpt lat="40.19347000840891" lon="15.021659142476931"><ele>22.0</ele><time>2026-04-26T16:02:40Z</time></trkpt><trkpt lat="40.19358005344432" lon="15.02155879111943"><ele>22.0</ele><time>2026-04-26T16:02:41Z</time></trkpt><trkpt lat="40.193683877147315" lon="15.021460741780418"><ele>22.0</ele><time>2026-04-26T16:02:42Z</time></trkpt><trkpt lat="40.19378157800246" lon="15.021352919181258"><ele>22.0</ele><time>2026-04-26T16:02:43Z</time></trkpt><trkpt lat="40.193871546145466" lon="15.021235560124252"><ele>22.0</ele><time>2026-04-26T16:02:44Z</time></trkpt><trkpt lat="40.19396970808809" lon="15.021130731054894"><ele>24.0</ele><time>2026-04-26T16:02:45Z</time></trkpt><trkpt lat="40.194054967142726" lon="15.021038434282763"><ele>26.0</ele><time>2026-04-26T16:02:46Z</time></trkpt><trkpt lat="40.194151893674984" lon="15.02098155058577"><ele>28.0</ele><time>2026-04-26T16:02:47Z</time></trkpt><trkpt lat="40.194263186928175" lon="15.020916464461273"><ele>30.0</ele><time>2026-04-26T16:02:48Z</time></trkpt><trkpt lat="40.194385396603266" lon="15.020859109366397"><ele>30.0</ele><time>2026-04-26T16:02:49Z</time></trkpt><trkpt lat="40.19451354444422" lon="15.020822624491508"><ele>30.0</ele><time>2026-04-26T16:02:50Z</time></trkpt><trkpt lat="40.194639733308215" lon="15.020791896175437"><ele>30.0</ele><time>2026-04-26T16:02:51Z</time></trkpt><trkpt lat="40.194753479717924" lon="15.020722459995305"><ele>30.0</ele><time>2026-04-26T16:02:52Z</time></trkpt><trkpt lat="40.194862976430144" lon="15.020624572888153"><ele>29.0</ele><time>2026-04-26T16:02:53Z</time></trkpt><trkpt lat="40.19498581905696" lon="15.020511956637476"><ele>28.0</ele><time>2026-04-26T16:02:54Z</time></trkpt><trkpt lat="40.19511669359479" lon="15.020396313691432"><ele>27.0</ele><time>2026-04-26T16:02:55Z</time></trkpt><trkpt lat="40.195242286629984" lon="15.020284639618765"><ele>27.0</ele><time>2026-04-26T16:02:56Z</time></trkpt><trkpt lat="40.19538957517242" lon="15.020216174831672"><ele>27.0</ele><time>2026-04-26T16:02:57Z</time></trkpt><trkpt lat="40.19551979761627" lon="15.020125091254753"><ele>27.0</ele><time>2026-04-26T16:02:58Z</time></trkpt><trkpt lat="40.19564743275204" lon="15.020060225685073"><ele>27.0</ele><time>2026-04-26T16:02:59Z</time></trkpt><trkpt lat="40.19577218515952" lon="15.019987913658895"><ele>25.75</ele><time>2026-04-26T16:03:00Z</time></trkpt><trkpt lat="40.195903273749636" lon="15.019914158761527"><ele>24.5</ele><time>2026-04-26T16:03:01Z</time></trkpt><trkpt lat="40.196041263184014" lon="15.019838646308525"><ele>23.25</ele><time>2026-04-26T16:03:02Z</time></trkpt><trkpt lat="40.19617897989414" lon="15.019740900519198"><ele>22.0</ele><time>2026-04-26T16:03:03Z</time></trkpt><trkpt lat="40.1963218855299" lon="15.01962306518889"><ele>22.0</ele><time>2026-04-26T16:03:04Z</time></trkpt><trkpt lat="40.1964627981574" lon="15.01949833916193"><ele>22.0</ele><time>2026-04-26T16:03:05Z</time></trkpt><trkpt lat="40.19658772486737" lon="15.019389116608243"><ele>22.0</ele><time>2026-04-26T16:03:06Z</time></trkpt><trkpt lat="40.1967017027602" lon="15.019288113737154"><ele>22.0</ele><time>2026-04-26T16:03:07Z</time></trkpt><trkpt lat="40.19680991842354" lon="15.019190348055234"><ele>22.0</ele><time>2026-04-26T16:03:08Z</time></trkpt><trkpt lat="40.196919669538794" lon="15.019103929139327"><ele>22.0</ele><time>2026-04-26T16:03:09Z</time></trkpt><trkpt lat="40.19704126480458" lon="15.01903430058083"><ele>22.0</ele><time>2026-04-26T16:03:10Z</time></trkpt><trkpt lat="40.19718189522972" lon="15.018982393268935"><ele>22.0</ele><time>2026-04-26T16:03:11Z</time></trkpt><trkpt lat="40.19733046010826" lon="15.018944635079077"><ele>22.0</ele><time>2026-04-26T16:03:12Z</time></trkpt><trkpt lat="40.19748646313304" lon="15.018887675222167"><ele>22.0</ele><time>2026-04-26T16:03:13Z</time></trkpt><trkpt lat="40.197643545758694" lon="15.018815511472084"><ele>23.666666666666664</ele><time>2026-04-26T16:03:14Z</time></trkpt><trkpt lat="40.19780521064139" lon="15.018726004150603"><ele>25.333333333333332</ele><time>2026-04-26T16:03:15Z</time></trkpt><trkpt lat="40.19797297580041" lon="15.018632247244387"><ele>27.0</ele><time>2026-04-26T16:03:16Z</time></trkpt><trkpt lat="40.19814656395513" lon="15.018533219050191"><ele>26.666666666666664</ele><time>2026-04-26T16:03:17Z</time></trkpt><trkpt lat="40.19832900272339" lon="15.018451357234103"><ele>26.333333333333332</ele><time>2026-04-26T16:03:18Z</time></trkpt><trkpt lat="40.198493239398616" lon="15.018337044786046"><ele>26.0</ele><time>2026-04-26T16:03:19Z</time></trkpt><trkpt lat="40.198666833008595" lon="15.018263964549275"><ele>26.0</ele><time>2026-04-26T16:03:20Z</time></trkpt><trkpt lat="40.19882845019629" lon="15.018172860493731"><ele>26.0</ele><time>2026-04-26T16:03:21Z</time></trkpt><trkpt lat="40.19898887437648" lon="15.018084584751147"><ele>26.0</ele><time>2026-04-26T16:03:22Z</time></trkpt><trkpt lat="40.199146385373716" lon="15.017997327922286"><ele>28.666666666666664</ele><time>2026-04-26T16:03:23Z</time></trkpt><trkpt lat="40.19929537989875" lon="15.017908154968515"><ele>31.333333333333336</ele><time>2026-04-26T16:03:24Z</time></trkpt><trkpt lat="40.19944161432061" lon="15.017812410386195"><ele>34.0</ele><time>2026-04-26T16:03:25Z</time></trkpt><trkpt lat="40.19958385692338" lon="15.017721661696038"><ele>34.0</ele><time>2026-04-26T16:03:26Z</time></trkpt><trkpt lat="40.19971800320646" lon="15.017636493935349"><ele>34.0</ele><time>2026-04-26T16:03:27Z</time></trkpt><trkpt lat="40.19983036214912" lon="15.017550375122632"><ele>34.0</ele><time>2026-04-26T16:03:28Z</time></trkpt><trkpt lat="40.19993609276209" lon="15.01748707251417"><ele>34.0</ele><time>2026-04-26T16:03:29Z</time></trkpt><trkpt lat="40.20004439724471" lon="15.017419437069638"><ele>33.4</ele><time>2026-04-26T16:03:30Z</time></trkpt><trkpt lat="40.20014778642179" lon="15.017350170370616"><ele>32.8</ele><time>2026-04-26T16:03:31Z</time></trkpt><trkpt lat="40.200248958839296" lon="15.017283712197898"><ele>32.2</ele><time>2026-04-26T16:03:32Z</time></trkpt><trkpt lat="40.20035089757266" lon="15.017232412217641"><ele>31.6</ele><time>2026-04-26T16:03:33Z</time></trkpt><trkpt lat="40.2004364777021" lon="15.017172464629668"><ele>31.0</ele><time>2026-04-26T16:03:34Z</time></trkpt><trkpt lat="40.200538455967944" lon="15.017129433850206"><ele>31.0</ele><time>2026-04-26T16:03:35Z</time></trkpt><trkpt lat="40.20065483204933" lon="15.017112087868474"><ele>31.0</ele><time>2026-04-26T16:03:36Z</time></trkpt><trkpt lat="40.200769828117615" lon="15.01712751315225"><ele>31.0</ele><time>2026-04-26T16:03:37Z</time></trkpt><trkpt lat="40.20086654275926" lon="15.017178762810094"><ele>31.0</ele><time>2026-04-26T16:03:38Z</time></trkpt><trkpt lat="40.20095084513496" lon="15.017264239551833"><ele>31.0</ele><time>2026-04-26T16:03:39Z</time></trkpt><trkpt lat="40.20103790699819" lon="15.017376216357112"><ele>31.6</ele><time>2026-04-26T16:03:40Z</time></trkpt><trkpt lat="40.20112855390939" lon="15.01745994663421"><ele>32.2</ele><time>2026-04-26T16:03:41Z</time></trkpt><trkpt lat="40.20122132732384" lon="15.017502373476022"><ele>32.8</ele><time>2026-04-26T16:03:42Z</time></trkpt><trkpt lat="40.20131138652338" lon="15.017497206367773"><ele>33.4</ele><time>2026-04-26T16:03:43Z</time></trkpt><trkpt lat="40.20140067830038" lon="15.01745600953819"><ele>34.0</ele><time>2026-04-26T16:03:44Z</time></trkpt><trkpt lat="40.20149373089846" lon="15.017377628052376"><ele>37.6</ele><time>2026-04-26T16:03:45Z</time></trkpt><trkpt lat="40.201585899860135" lon="15.017269783190615"><ele>41.2</ele><time>2026-04-26T16:03:46Z</time></trkpt><trkpt lat="40.201680776168544" lon="15.017185734178652"><ele>44.800000000000004</ele><time>2026-04-26T16:03:47Z</time></trkpt><trkpt lat="40.2017650900659" lon="15.017103374494166"><ele>48.4</ele><time>2026-04-26T16:03:48Z</time></trkpt><trkpt lat="40.20182112190459" lon="15.017021132131356"><ele>52.0</ele><time>2026-04-26T16:03:49Z</time></trkpt><trkpt lat="40.201848181138054" lon="15.016935985122673"><ele>51.99999999999999</ele><time>2026-04-26T16:03:50Z</time></trkpt><trkpt lat="40.20184890408317" lon="15.016847078977529"><ele>52.0</ele><time>2026-04-26T16:03:51Z</time></trkpt><trkpt lat="40.20182112720907" lon="15.01674830385491"><ele>52.0</ele><time>2026-04-26T16:03:52Z</time></trkpt><trkpt lat="40.20177499584787" lon="15.016644961171526"><ele>52.0</ele><time>2026-04-26T16:03:53Z</time></trkpt><trkpt lat="40.201735110494575" lon="15.016536116129647"><ele>51.99999999999999</ele><time>2026-04-26T16:03:54Z</time></trkpt><trkpt lat="40.20168558829287" lon="15.016422800418097"><ele>52.0</ele><time>2026-04-26T16:03:55Z</time></trkpt><trkpt lat="40.201650004004016" lon="15.016305492554796"><ele>51.400000000000006</ele><time>2026-04-26T16:03:56Z</time></trkpt><trkpt lat="40.20162406252034" lon="15.016195057460044"><ele>50.800000000000004</ele><time>2026-04-26T16:03:57Z</time></trkpt><trkpt lat="40.20161476826377" lon="15.016086022223034"><ele>50.2</ele><time>2026-04-26T16:03:58Z</time></trkpt><trkpt lat="40.20162584487933" lon="15.015962942072006"><ele>49.6</ele><time>2026-04-26T16:03:59Z</time></trkpt><trkpt lat="40.20166215089844" lon="15.01584287566766"><ele>49.0</ele><time>2026-04-26T16:04:00Z</time></trkpt><trkpt lat="40.20171551080453" lon="15.015723438127146"><ele>47.25</ele><time>2026-04-26T16:04:01Z</time></trkpt><trkpt lat="40.201779628338485" lon="15.015602787589117"><ele>45.5</ele><time>2026-04-26T16:04:02Z</time></trkpt><trkpt lat="40.2018377567687" lon="15.015458429514412"><ele>43.75</ele><time>2026-04-26T16:04:03Z</time></trkpt><trkpt lat="40.20188924267466" lon="15.015296073233372"><ele>42.0</ele><time>2026-04-26T16:04:04Z</time></trkpt><trkpt lat="40.20194867196549" lon="15.015119988295627"><ele>39.0</ele><time>2026-04-26T16:04:05Z</time></trkpt><trkpt lat="40.20202641140868" lon="15.01495532122895"><ele>36.0</ele><time>2026-04-26T16:04:06Z</time></trkpt><trkpt lat="40.20211991004411" lon="15.014801449634659"><ele>33.0</ele><time>2026-04-26T16:04:07Z</time></trkpt><trkpt lat="40.20222321763304" lon="15.014645969091182"><ele>33.0</ele><time>2026-04-26T16:04:08Z</time></trkpt><trkpt lat="40.20232574309278" lon="15.01448639614515"><ele>33.0</ele><time>2026-04-26T16:04:09Z</time></trkpt><trkpt lat="40.2024213817823" lon="15.014341336944904"><ele>33.0</ele><time>2026-04-26T16:04:10Z</time></trkpt><trkpt lat="40.20249667803375" lon="15.01419842103274"><ele>33.0</ele><time>2026-04-26T16:04:11Z</time></trkpt><trkpt lat="40.20252914544714" lon="15.014036266396834"><ele>31.5</ele><time>2026-04-26T16:04:12Z</time></trkpt><trkpt lat="40.20253199242675" lon="15.013848134016262"><ele>30.0</ele><time>2026-04-26T16:04:13Z</time></trkpt><trkpt lat="40.20255313312388" lon="15.013658432715152"><ele>28.5</ele><time>2026-04-26T16:04:14Z</time></trkpt><trkpt lat="40.20263083504219" lon="15.013488517367959"><ele>27.0</ele><time>2026-04-26T16:04:15Z</time></trkpt><trkpt lat="40.20269273842961" lon="15.013309218113232"><ele>27.0</ele><time>2026-04-26T16:04:16Z</time></trkpt><trkpt lat="40.20279480949778" lon="15.0131647502034"><ele>27.0</ele><time>2026-04-26T16:04:17Z</time></trkpt><trkpt lat="40.202901678699774" lon="15.013023781186119"><ele>27.0</ele><time>2026-04-26T16:04:18Z</time></trkpt><trkpt lat="40.20300465167626" lon="15.01286059696272"><ele>27.0</ele><time>2026-04-26T16:04:19Z</time></trkpt><trkpt lat="40.20310170884027" lon="15.012681369695576"><ele>27.0</ele><time>2026-04-26T16:04:20Z</time></trkpt><trkpt lat="40.20317265849076" lon="15.01251897875148"><ele>27.0</ele><time>2026-04-26T16:04:21Z</time></trkpt><trkpt lat="40.20322729556167" lon="15.012379160698291"><ele>27.0</ele><time>2026-04-26T16:04:22Z</time></trkpt><trkpt lat="40.20327632571935" lon="15.012263527276117"><ele>30.200000000000003</ele><time>2026-04-26T16:04:23Z</time></trkpt><trkpt lat="40.20332174390773" lon="15.012157716405108"><ele>33.400000000000006</ele><time>2026-04-26T16:04:24Z</time></trkpt><trkpt lat="40.20339127288785" lon="15.012074030242927"><ele>36.599999999999994</ele><time>2026-04-26T16:04:25Z</time></trkpt><trkpt lat="40.20348769496821" lon="15.012029989858519"><ele>39.8</ele><time>2026-04-26T16:04:26Z</time></trkpt><trkpt lat="40.203586660447655" lon="15.012051194034376"><ele>43.0</ele><time>2026-04-26T16:04:27Z</time></trkpt><trkpt lat="40.20366735521231" lon="15.012111196748915"><ele>43.0</ele><time>2026-04-26T16:04:28Z</time></trkpt><trkpt lat="40.20372423259972" lon="15.012188698844033"><ele>43.0</ele><time>2026-04-26T16:04:29Z</time></trkpt><trkpt lat="40.20378463540057" lon="15.012254441871114"><ele>43.0</ele><time>2026-04-26T16:04:30Z</time></trkpt><trkpt lat="40.203862664182616" lon="15.012272770383179"><ele>43.0</ele><time>2026-04-26T16:04:31Z</time></trkpt><trkpt lat="40.20394418063664" lon="15.012247431119375"><ele>43.0</ele><time>2026-04-26T16:04:32Z</time></trkpt><trkpt lat="40.20402541157263" lon="15.012189829266658"><ele>43.0</ele><time>2026-04-26T16:04:33Z</time></trkpt><trkpt lat="40.20408020147804" lon="15.012087531350517"><ele>44.5</ele><time>2026-04-26T16:04:34Z</time></trkpt><trkpt lat="40.20411918826316" lon="15.011936240475745"><ele>46.0</ele><time>2026-04-26T16:04:35Z</time></trkpt><trkpt lat="40.20413776155524" lon="15.011759559929729"><ele>47.5</ele><time>2026-04-26T16:04:36Z</time></trkpt><trkpt lat="40.204155937126494" lon="15.011588680368176"><ele>49.0</ele><time>2026-04-26T16:04:37Z</time></trkpt><trkpt lat="40.20419595457403" lon="15.01145204429342"><ele>49.0</ele><time>2026-04-26T16:04:38Z</time></trkpt><trkpt lat="40.204269501829344" lon="15.011361112007393"><ele>49.0</ele><time>2026-04-26T16:04:39Z</time></trkpt><trkpt lat="40.20434424538822" lon="15.011267954287058"><ele>49.0</ele><time>2026-04-26T16:04:40Z</time></trkpt><trkpt lat="40.20443192398838" lon="15.011179392201795"><ele>49.0</ele><time>2026-04-26T16:04:41Z</time></trkpt><trkpt lat="40.20453913473371" lon="15.01107470303237"><ele>49.0</ele><time>2026-04-26T16:04:42Z</time></trkpt><trkpt lat="40.20465761158696" lon="15.010959573482623"><ele>49.0</ele><time>2026-04-26T16:04:43Z</time></trkpt><trkpt lat="40.204771273479174" lon="15.01084912259498"><ele>49.0</ele><time>2026-04-26T16:04:44Z</time></trkpt><trkpt lat="40.204875368138964" lon="15.010746085599182"><ele>49.0</ele><time>2026-04-26T16:04:45Z</time></trkpt><trkpt lat="40.2049611432711" lon="15.01063928448387"><ele>49.0</ele><time>2026-04-26T16:04:46Z</time></trkpt><trkpt lat="40.20506620759017" lon="15.010595561416931"><ele>49.0</ele><time>2026-04-26T16:04:47Z</time></trkpt><trkpt lat="40.20516594034367" lon="15.010525596616096"><ele>49.0</ele><time>2026-04-26T16:04:48Z</time></trkpt><trkpt lat="40.20528786922646" lon="15.010500604629275"><ele>49.0</ele><time>2026-04-26T16:04:49Z</time></trkpt><trkpt lat="40.20541036644579" lon="15.010468005799844"><ele>49.0</ele><time>2026-04-26T16:04:50Z</time></trkpt><trkpt lat="40.20552548660758" lon="15.010399188649854"><ele>49.0</ele><time>2026-04-26T16:04:51Z</time></trkpt><trkpt lat="40.20565146008779" lon="15.010340558217958"><ele>49.0</ele><time>2026-04-26T16:04:52Z</time></trkpt><trkpt lat="40.20576304856624" lon="15.010223164832171"><ele>49.0</ele><time>2026-04-26T16:04:53Z</time></trkpt><trkpt lat="40.20585948149091" lon="15.010059265013142"><ele>49.0</ele><time>2026-04-26T16:04:54Z</time></trkpt><trkpt lat="40.20595355559924" lon="15.009890803740111"><ele>52.0</ele><time>2026-04-26T16:04:55Z</time></trkpt><trkpt lat="40.206043881335475" lon="15.00974738955743"><ele>55.0</ele><time>2026-04-26T16:04:56Z</time></trkpt><trkpt lat="40.20612887905679" lon="15.009633060028579"><ele>58.0</ele><time>2026-04-26T16:04:57Z</time></trkpt><trkpt lat="40.20622538225818" lon="15.009563881940613"><ele>61.0</ele><time>2026-04-26T16:04:58Z</time></trkpt><trkpt lat="40.20634525901596" lon="15.009501018831394"><ele>61.0</ele><time>2026-04-26T16:04:59Z</time></trkpt><trkpt lat="40.20647878273868" lon="15.009416241269493"><ele>61.0</ele><time>2026-04-26T16:05:00Z</time></trkpt><trkpt lat="40.206604000406216" lon="15.009292008816617"><ele>61.0</ele><time>2026-04-26T16:05:01Z</time></trkpt><trkpt lat="40.206729946887656" lon="15.009160450913779"><ele>58.33333333333333</ele><time>2026-04-26T16:05:02Z</time></trkpt><trkpt lat="40.20685597493279" lon="15.009039364074855"><ele>55.66666666666667</ele><time>2026-04-26T16:05:03Z</time></trkpt><trkpt lat="40.20699465065899" lon="15.008934962565428"><ele>53.0</ele><time>2026-04-26T16:05:04Z</time></trkpt><trkpt lat="40.207142407589124" lon="15.008846394237919"><ele>53.0</ele><time>2026-04-26T16:05:05Z</time></trkpt><trkpt lat="40.20729445801168" lon="15.008794078960992"><ele>53.0</ele><time>2026-04-26T16:05:06Z</time></trkpt><trkpt lat="40.20744329480379" lon="15.008750024472956"><ele>53.0</ele><time>2026-04-26T16:05:07Z</time></trkpt><trkpt lat="40.20758217953028" lon="15.00870962442531"><ele>57.75</ele><time>2026-04-26T16:05:08Z</time></trkpt><trkpt lat="40.2077118402214" lon="15.008676439370975"><ele>62.5</ele><time>2026-04-26T16:05:09Z</time></trkpt><trkpt lat="40.2078329871381" lon="15.008627075778072"><ele>67.25</ele><time>2026-04-26T16:05:10Z</time></trkpt><trkpt lat="40.20792644359885" lon="15.008515919922026"><ele>72.0</ele><time>2026-04-26T16:05:11Z</time></trkpt><trkpt lat="40.20801301216967" lon="15.008396880362756"><ele>75.66666666666667</ele><time>2026-04-26T16:05:12Z</time></trkpt><trkpt lat="40.208112885766376" lon="15.008251560776596"><ele>79.33333333333334</ele><time>2026-04-26T16:05:13Z</time></trkpt><trkpt lat="40.20819991874786" lon="15.008073185288124"><ele>83.0</ele><time>2026-04-26T16:05:14Z</time></trkpt><trkpt lat="40.20828022109509" lon="15.00787787452349"><ele>83.0</ele><time>2026-04-26T16:05:15Z</time></trkpt><trkpt lat="40.20836555962141" lon="15.007701190127383"><ele>83.0</ele><time>2026-04-26T16:05:16Z</time></trkpt><trkpt lat="40.20844282418527" lon="15.007527037190535"><ele>83.0</ele><time>2026-04-26T16:05:17Z</time></trkpt><trkpt lat="40.20851482824929" lon="15.007355142414482"><ele>77.0</ele><time>2026-04-26T16:05:18Z</time></trkpt><trkpt lat="40.208585734105945" lon="15.007187927080652"><ele>71.0</ele><time>2026-04-26T16:05:19Z</time></trkpt><trkpt lat="40.20865675956025" lon="15.007014950297798"><ele>65.0</ele><time>2026-04-26T16:05:20Z</time></trkpt><trkpt lat="40.208725696940625" lon="15.006839382787923"><ele>59.0</ele><time>2026-04-26T16:05:21Z</time></trkpt><trkpt lat="40.208788153772694" lon="15.006657550574971"><ele>53.0</ele><time>2026-04-26T16:05:22Z</time></trkpt><trkpt lat="40.208855559421565" lon="15.0064627266953"><ele>47.0</ele><time>2026-04-26T16:05:23Z</time></trkpt><trkpt lat="40.20893907248045" lon="15.00628011401456"><ele>41.0</ele><time>2026-04-26T16:05:24Z</time></trkpt><trkpt lat="40.208983504145586" lon="15.006086610060008"><ele>49.0</ele><time>2026-04-26T16:05:25Z</time></trkpt><trkpt lat="40.20902986514757" lon="15.005901973805507"><ele>57.0</ele><time>2026-04-26T16:05:26Z</time></trkpt><trkpt lat="40.20909654076862" lon="15.005726101663976"><ele>65.0</ele><time>2026-04-26T16:05:27Z</time></trkpt><trkpt lat="40.209139321304306" lon="15.005531407689267"><ele>65.0</ele><time>2026-04-26T16:05:28Z</time></trkpt><trkpt lat="40.20921483454696" lon="15.005344640919411"><ele>65.0</ele><time>2026-04-26T16:05:29Z</time></trkpt><trkpt lat="40.20930010355224" lon="15.005154734874218"><ele>65.0</ele><time>2026-04-26T16:05:30Z</time></trkpt><trkpt lat="40.20939105349353" lon="15.004970140371647"><ele>57.66666666666667</ele><time>2026-04-26T16:05:31Z</time></trkpt><trkpt lat="40.20947864029357" lon="15.004791716564803"><ele>50.333333333333336</ele><time>2026-04-26T16:05:32Z</time></trkpt><trkpt lat="40.20955628829334" lon="15.004630642435194"><ele>43.0</ele><time>2026-04-26T16:05:33Z</time></trkpt><trkpt lat="40.209632331749404" lon="15.004468395624588"><ele>43.0</ele><time>2026-04-26T16:05:34Z</time></trkpt><trkpt lat="40.20970273198953" lon="15.004305047767547"><ele>43.0</ele><time>2026-04-26T16:05:35Z</time></trkpt><trkpt lat="40.20977165335346" lon="15.0041429327792"><ele>43.0</ele><time>2026-04-26T16:05:36Z</time></trkpt><trkpt lat="40.209853121843345" lon="15.003994797852672"><ele>43.0</ele><time>2026-04-26T16:05:37Z</time></trkpt><trkpt lat="40.20992056414113" lon="15.003836539589418"><ele>40.5</ele><time>2026-04-26T16:05:38Z</time></trkpt><trkpt lat="40.209992731395104" lon="15.003684123677974"><ele>38.0</ele><time>2026-04-26T16:05:39Z</time></trkpt><trkpt lat="40.21006203865211" lon="15.003519979776177"><ele>35.5</ele><time>2026-04-26T16:05:40Z</time></trkpt><trkpt lat="40.21017867002437" lon="15.003379250857403"><ele>33.0</ele><time>2026-04-26T16:05:41Z</time></trkpt><trkpt lat="40.21030200511817" lon="15.00322638852823"><ele>33.0</ele><time>2026-04-26T16:05:42Z</time></trkpt><trkpt lat="40.21043089261761" lon="15.003067520444192"><ele>33.0</ele><time>2026-04-26T16:05:43Z</time></trkpt><trkpt lat="40.2105539012729" lon="15.002914520393583"><ele>33.0</ele><time>2026-04-26T16:05:44Z</time></trkpt><trkpt lat="40.21067338046503" lon="15.002765412174135"><ele>30.666666666666664</ele><time>2026-04-26T16:05:45Z</time></trkpt><trkpt lat="40.21077927627574" lon="15.002603673276292"><ele>28.333333333333332</ele><time>2026-04-26T16:05:46Z</time></trkpt><trkpt lat="40.210891462506886" lon="15.002467819388372"><ele>26.0</ele><time>2026-04-26T16:05:47Z</time></trkpt><trkpt lat="40.21101050440914" lon="15.002352324945226"><ele>26.0</ele><time>2026-04-26T16:05:48Z</time></trkpt><trkpt lat="40.211129096734524" lon="15.002232592093115"><ele>26.0</ele><time>2026-04-26T16:05:49Z</time></trkpt><trkpt lat="40.21126132069527" lon="15.002128351520915"><ele>26.0</ele><time>2026-04-26T16:05:50Z</time></trkpt><trkpt lat="40.21139701784071" lon="15.002038854583374"><ele>30.0</ele><time>2026-04-26T16:05:51Z</time></trkpt><trkpt lat="40.21154148117089" lon="15.001971097679375"><ele>34.0</ele><time>2026-04-26T16:05:52Z</time></trkpt><trkpt lat="40.21169476990428" lon="15.001927345678265"><ele>38.0</ele><time>2026-04-26T16:05:53Z</time></trkpt><trkpt lat="40.21185539271355" lon="15.001880323522638"><ele>38.0</ele><time>2026-04-26T16:05:54Z</time></trkpt><trkpt lat="40.21201034624157" lon="15.001826585888459"><ele>38.0</ele><time>2026-04-26T16:05:55Z</time></trkpt><trkpt lat="40.212161720855356" lon="15.00176826714085"><ele>38.0</ele><time>2026-04-26T16:05:56Z</time></trkpt><trkpt lat="40.2123077956074" lon="15.001702337939218"><ele>33.33333333333333</ele><time>2026-04-26T16:05:57Z</time></trkpt><trkpt lat="40.21244810989946" lon="15.001616464222915"><ele>28.666666666666664</ele><time>2026-04-26T16:05:58Z</time></trkpt><trkpt lat="40.21258768361355" lon="15.001524468234727"><ele>24.0</ele><time>2026-04-26T16:05:59Z</time></trkpt><trkpt lat="40.21272368119836" lon="15.001433456328643"><ele>24.0</ele><time>2026-04-26T16:06:00Z</time></trkpt><trkpt lat="40.212853552672414" lon="15.00134735404332"><ele>24.0</ele><time>2026-04-26T16:06:01Z</time></trkpt><trkpt lat="40.2129780719961" lon="15.001247680053947"><ele>24.0</ele><time>2026-04-26T16:06:02Z</time></trkpt><trkpt lat="40.21310947464131" lon="15.001178113650898"><ele>24.0</ele><time>2026-04-26T16:06:03Z</time></trkpt><trkpt lat="40.2132483519184" lon="15.001107990192805"><ele>28.0</ele><time>2026-04-26T16:06:04Z</time></trkpt><trkpt lat="40.21339212073289" lon="15.001038108275585"><ele>32.0</ele><time>2026-04-26T16:06:05Z</time></trkpt><trkpt lat="40.21353840773047" lon="15.000975719350457"><ele>36.0</ele><time>2026-04-26T16:06:06Z</time></trkpt><trkpt lat="40.21368008408177" lon="15.00092058822311"><ele>36.0</ele><time>2026-04-26T16:06:07Z</time></trkpt><trkpt lat="40.2138179565325" lon="15.000867027661846"><ele>36.0</ele><time>2026-04-26T16:06:08Z</time></trkpt><trkpt lat="40.21394835173581" lon="15.000814557924265"><ele>36.0</ele><time>2026-04-26T16:06:09Z</time></trkpt><trkpt lat="40.214074686887635" lon="15.000771024757832"><ele>36.0</ele><time>2026-04-26T16:06:10Z</time></trkpt><trkpt lat="40.214195091877606" lon="15.000708214765513"><ele>32.333333333333336</ele><time>2026-04-26T16:06:11Z</time></trkpt><trkpt lat="40.21433478635977" lon="15.000638119613319"><ele>28.666666666666668</ele><time>2026-04-26T16:06:12Z</time></trkpt><trkpt lat="40.21445993923323" lon="15.000494221040531"><ele>25.0</ele><time>2026-04-26T16:06:13Z</time></trkpt><trkpt lat="40.2145994032288" lon="15.000348580508108"><ele>25.0</ele><time>2026-04-26T16:06:14Z</time></trkpt><trkpt lat="40.21474540072616" lon="15.000187801358173"><ele>25.0</ele><time>2026-04-26T16:06:15Z</time></trkpt><trkpt lat="40.21489445218703" lon="15.000028906260285"><ele>25.0</ele><time>2026-04-26T16:06:16Z</time></trkpt><trkpt lat="40.21499522609612" lon="14.999847042434686"><ele>27.0</ele><time>2026-04-26T16:06:17Z</time></trkpt><trkpt lat="40.21509316444498" lon="14.999690269963253"><ele>29.0</ele><time>2026-04-26T16:06:18Z</time></trkpt><trkpt lat="40.21519200467136" lon="14.999551471379858"><ele>31.0</ele><time>2026-04-26T16:06:19Z</time></trkpt><trkpt lat="40.21530774380391" lon="14.999448780248041"><ele>33.0</ele><time>2026-04-26T16:06:20Z</time></trkpt><trkpt lat="40.21541856175499" lon="14.999348583277948"><ele>33.0</ele><time>2026-04-26T16:06:21Z</time></trkpt><trkpt lat="40.2155428091741" lon="14.999308740237609"><ele>33.0</ele><time>2026-04-26T16:06:22Z</time></trkpt><trkpt lat="40.215653257601176" lon="14.999301630547734"><ele>33.0</ele><time>2026-04-26T16:06:23Z</time></trkpt><trkpt lat="40.215738168833504" lon="14.999319369685791"><ele>33.0</ele><time>2026-04-26T16:06:24Z</time></trkpt><trkpt lat="40.21579508273476" lon="14.99940933344471"><ele>33.0</ele><time>2026-04-26T16:06:25Z</time></trkpt><trkpt lat="40.21588467616388" lon="14.999494129511204"><ele>32.25</ele><time>2026-04-26T16:06:26Z</time></trkpt><trkpt lat="40.216000809863495" lon="14.999582189602203"><ele>31.5</ele><time>2026-04-26T16:06:27Z</time></trkpt><trkpt lat="40.21609908184701" lon="14.999730170990945"><ele>30.75</ele><time>2026-04-26T16:06:28Z</time></trkpt><trkpt lat="40.216188484596536" lon="14.99986271161211"><ele>30.0</ele><time>2026-04-26T16:06:29Z</time></trkpt><trkpt lat="40.21627069564704" lon="14.999986310302736"><ele>30.0</ele><time>2026-04-26T16:06:30Z</time></trkpt><trkpt lat="40.21635367980002" lon="15.000094647375423"><ele>30.0</ele><time>2026-04-26T16:06:31Z</time></trkpt><trkpt lat="40.21641294485278" lon="15.000215572458835"><ele>30.0</ele><time>2026-04-26T16:06:32Z</time></trkpt><trkpt lat="40.21649690930822" lon="15.000297912381864"><ele>30.0</ele><time>2026-04-26T16:06:33Z</time></trkpt><trkpt lat="40.216582036414145" lon="15.00037976503928"><ele>30.0</ele><time>2026-04-26T16:06:34Z</time></trkpt><trkpt lat="40.21668450311394" lon="15.000442121692236"><ele>27.5</ele><time>2026-04-26T16:06:35Z</time></trkpt><trkpt lat="40.21680220275319" lon="15.000494413820133"><ele>25.0</ele><time>2026-04-26T16:06:36Z</time></trkpt><trkpt lat="40.21690714147287" lon="15.000534892917612"><ele>22.5</ele><time>2026-04-26T16:06:37Z</time></trkpt><trkpt lat="40.21701709273696" lon="15.000560831143"><ele>20.0</ele><time>2026-04-26T16:06:38Z</time></trkpt><trkpt lat="40.217127300742085" lon="15.000545443985072"><ele>20.0</ele><time>2026-04-26T16:06:39Z</time></trkpt><trkpt lat="40.21723481118916" lon="15.000487827945516"><ele>20.0</ele><time>2026-04-26T16:06:40Z</time></trkpt><trkpt lat="40.21733306242016" lon="15.000388416433772"><ele>20.0</ele><time>2026-04-26T16:06:41Z</time></trkpt><trkpt lat="40.217433248129716" lon="15.000266362439792"><ele>20.0</ele><time>2026-04-26T16:06:42Z</time></trkpt><trkpt lat="40.21752294142562" lon="15.000153892797481"><ele>19.75</ele><time>2026-04-26T16:06:43Z</time></trkpt><trkpt lat="40.21760659301665" lon="15.000054505949898"><ele>19.5</ele><time>2026-04-26T16:06:44Z</time></trkpt><trkpt lat="40.21769501539034" lon="14.999956661575984"><ele>19.25</ele><time>2026-04-26T16:06:45Z</time></trkpt><trkpt lat="40.21779094667846" lon="14.999859291810433"><ele>19.0</ele><time>2026-04-26T16:06:46Z</time></trkpt><trkpt lat="40.217892890383595" lon="14.999752095898483"><ele>19.0</ele><time>2026-04-26T16:06:47Z</time></trkpt><trkpt lat="40.217997599134854" lon="14.999636056670134"><ele>19.0</ele><time>2026-04-26T16:06:48Z</time></trkpt><trkpt lat="40.21809970529881" lon="14.999524168649659"><ele>19.0</ele><time>2026-04-26T16:06:49Z</time></trkpt><trkpt lat="40.21819236142711" lon="14.999422263966961"><ele>19.0</ele><time>2026-04-26T16:06:50Z</time></trkpt><trkpt lat="40.21827328099805" lon="14.999331093071698"><ele>18.4</ele><time>2026-04-26T16:06:51Z</time></trkpt><trkpt lat="40.21835208623484" lon="14.999248134554183"><ele>17.799999999999997</ele><time>2026-04-26T16:06:52Z</time></trkpt><trkpt lat="40.21844090865247" lon="14.999154145028415"><ele>17.200000000000003</ele><time>2026-04-26T16:06:53Z</time></trkpt><trkpt lat="40.21852810852639" lon="14.999057716711011"><ele>16.6</ele><time>2026-04-26T16:06:54Z</time></trkpt><trkpt lat="40.21861033755037" lon="14.99896390394131"><ele>16.0</ele><time>2026-04-26T16:06:55Z</time></trkpt><trkpt lat="40.21868337020251" lon="14.998880195544876"><ele>16.0</ele><time>2026-04-26T16:06:56Z</time></trkpt><trkpt lat="40.218748797963286" lon="14.998802430062316"><ele>16.0</ele><time>2026-04-26T16:06:57Z</time></trkpt><trkpt lat="40.218810988240335" lon="14.9987167206312"><ele>16.0</ele><time>2026-04-26T16:06:58Z</time></trkpt><trkpt lat="40.21885281755948" lon="14.998615894785935"><ele>16.0</ele><time>2026-04-26T16:06:59Z</time></trkpt><trkpt lat="40.21887226650025" lon="14.998496516448052"><ele>16.0</ele><time>2026-04-26T16:07:00Z</time></trkpt><trkpt lat="40.218864510761605" lon="14.99836953923224"><ele>16.5</ele><time>2026-04-26T16:07:01Z</time></trkpt><trkpt lat="40.21883131806096" lon="14.998232101042351"><ele>17.0</ele><time>2026-04-26T16:07:02Z</time></trkpt><trkpt lat="40.21876880213381" lon="14.998081341199143"><ele>17.5</ele><time>2026-04-26T16:07:03Z</time></trkpt><trkpt lat="40.21869023713343" lon="14.99791984350883"><ele>18.0</ele><time>2026-04-26T16:07:04Z</time></trkpt><trkpt lat="40.21862965188964" lon="14.997772023168375"><ele>18.0</ele><time>2026-04-26T16:07:05Z</time></trkpt><trkpt lat="40.21856638257439" lon="14.997617821020288"><ele>18.0</ele><time>2026-04-26T16:07:06Z</time></trkpt><trkpt lat="40.21850400896233" lon="14.997472496415485"><ele>18.0</ele><time>2026-04-26T16:07:07Z</time></trkpt><trkpt lat="40.21844468132369" lon="14.997341095379982"><ele>18.0</ele><time>2026-04-26T16:07:08Z</time></trkpt><trkpt lat="40.218394293397964" lon="14.997220482644844"><ele>18.4</ele><time>2026-04-26T16:07:09Z</time></trkpt><trkpt lat="40.21834478763236" lon="14.997094311209967"><ele>18.8</ele><time>2026-04-26T16:07:10Z</time></trkpt><trkpt lat="40.218289458083355" lon="14.996964991882365"><ele>19.2</ele><time>2026-04-26T16:07:11Z</time></trkpt><trkpt lat="40.2182354420099" lon="14.99683240811894"><ele>19.6</ele><time>2026-04-26T16:07:12Z</time></trkpt><trkpt lat="40.2181927915559" lon="14.996700966217421"><ele>20.0</ele><time>2026-04-26T16:07:13Z</time></trkpt><trkpt lat="40.21816027988153" lon="14.996574677920668"><ele>18.0</ele><time>2026-04-26T16:07:14Z</time></trkpt><trkpt lat="40.21813975385817" lon="14.99643027703429"><ele>16.0</ele><time>2026-04-26T16:07:15Z</time></trkpt><trkpt lat="40.218127108134205" lon="14.996275268963705"><ele>14.0</ele><time>2026-04-26T16:07:16Z</time></trkpt><trkpt lat="40.218120305308496" lon="14.996115991558744"><ele>12.0</ele><time>2026-04-26T16:07:17Z</time></trkpt><trkpt lat="40.21811422016901" lon="14.9959792959513"><ele>12.0</ele><time>2026-04-26T16:07:18Z</time></trkpt><trkpt lat="40.218107909008715" lon="14.995856758864615"><ele>12.0</ele><time>2026-04-26T16:07:19Z</time></trkpt><trkpt lat="40.21810597239427" lon="14.995723542966797"><ele>12.0</ele><time>2026-04-26T16:07:20Z</time></trkpt><trkpt lat="40.21811720447815" lon="14.995586348710715"><ele>12.0</ele><time>2026-04-26T16:07:21Z</time></trkpt><trkpt lat="40.218137512347255" lon="14.995460489583948"><ele>12.0</ele><time>2026-04-26T16:07:22Z</time></trkpt><trkpt lat="40.2181590721754" lon="14.995342128936958"><ele>11.833333333333334</ele><time>2026-04-26T16:07:23Z</time></trkpt><trkpt lat="40.2181655068759" lon="14.99522888337539"><ele>11.666666666666666</ele><time>2026-04-26T16:07:24Z</time></trkpt><trkpt lat="40.21815833856244" lon="14.995119275761793"><ele>11.5</ele><time>2026-04-26T16:07:25Z</time></trkpt><trkpt lat="40.218136745661276" lon="14.995008571558937"><ele>11.333333333333332</ele><time>2026-04-26T16:07:26Z</time></trkpt><trkpt lat="40.21810542139399" lon="14.99489555202514"><ele>11.166666666666666</ele><time>2026-04-26T16:07:27Z</time></trkpt><trkpt lat="40.21807818341617" lon="14.994776472961103"><ele>11.0</ele><time>2026-04-26T16:07:28Z</time></trkpt><trkpt lat="40.218056785701066" lon="14.994650463513578"><ele>10.8</ele><time>2026-04-26T16:07:29Z</time></trkpt><trkpt lat="40.21805249923998" lon="14.994514666812139"><ele>10.600000000000001</ele><time>2026-04-26T16:07:30Z</time></trkpt><trkpt lat="40.21807425271983" lon="14.994381088676484"><ele>10.4</ele><time>2026-04-26T16:07:31Z</time></trkpt><trkpt lat="40.218108285207435" lon="14.994245816981708"><ele>10.2</ele><time>2026-04-26T16:07:32Z</time></trkpt><trkpt lat="40.21816259897807" lon="14.994111676674054"><ele>10.0</ele><time>2026-04-26T16:07:33Z</time></trkpt><trkpt lat="40.21823312582355" lon="14.993969933021788"><ele>12.5</ele><time>2026-04-26T16:07:34Z</time></trkpt><trkpt lat="40.2183153839197" lon="14.993808245252682"><ele>15.0</ele><time>2026-04-26T16:07:35Z</time></trkpt><trkpt lat="40.21839053264043" lon="14.9936614971085"><ele>17.5</ele><time>2026-04-26T16:07:36Z</time></trkpt><trkpt lat="40.218459927673386" lon="14.9935170740579"><ele>20.0</ele><time>2026-04-26T16:07:37Z</time></trkpt><trkpt lat="40.218524828538904" lon="14.993365025863302"><ele>18.5</ele><time>2026-04-26T16:07:38Z</time></trkpt><trkpt lat="40.21857767933043" lon="14.993205550229765"><ele>17.0</ele><time>2026-04-26T16:07:39Z</time></trkpt><trkpt lat="40.21861352143132" lon="14.993030305279582"><ele>15.5</ele><time>2026-04-26T16:07:40Z</time></trkpt><trkpt lat="40.21865891165867" lon="14.992867283872018"><ele>14.0</ele><time>2026-04-26T16:07:41Z</time></trkpt><trkpt lat="40.21869921636773" lon="14.992716783340368"><ele>14.0</ele><time>2026-04-26T16:07:42Z</time></trkpt><trkpt lat="40.21874086165053" lon="14.992580443226108"><ele>13.999999999999998</ele><time>2026-04-26T16:07:43Z</time></trkpt><trkpt lat="40.218781136933835" lon="14.992448486721171"><ele>13.999999999999998</ele><time>2026-04-26T16:07:44Z</time></trkpt><trkpt lat="40.21882461241246" lon="14.992314274248498"><ele>14.0</ele><time>2026-04-26T16:07:45Z</time></trkpt><trkpt lat="40.21887345924331" lon="14.992180255068119"><ele>14.0</ele><time>2026-04-26T16:07:46Z</time></trkpt><trkpt lat="40.218918723914356" lon="14.992046802201237"><ele>12.6</ele><time>2026-04-26T16:07:47Z</time></trkpt><trkpt lat="40.218960599977436" lon="14.991921541080758"><ele>11.2</ele><time>2026-04-26T16:07:48Z</time></trkpt><trkpt lat="40.21899631504519" lon="14.991795662991901"><ele>9.799999999999999</ele><time>2026-04-26T16:07:49Z</time></trkpt><trkpt lat="40.219022570150486" lon="14.991664305798524"><ele>8.399999999999999</ele><time>2026-04-26T16:07:50Z</time></trkpt><trkpt lat="40.21905430701005" lon="14.991538116005382"><ele>7.0</ele><time>2026-04-26T16:07:51Z</time></trkpt><trkpt lat="40.21908360411716" lon="14.99142322876648"><ele>10.5</ele><time>2026-04-26T16:07:52Z</time></trkpt><trkpt lat="40.21912000008881" lon="14.991311270850195"><ele>14.0</ele><time>2026-04-26T16:07:53Z</time></trkpt><trkpt lat="40.21917060864479" lon="14.991183175837213"><ele>17.5</ele><time>2026-04-26T16:07:54Z</time></trkpt><trkpt lat="40.21923037818348" lon="14.99104158630979"><ele>21.0</ele><time>2026-04-26T16:07:55Z</time></trkpt><trkpt lat="40.219293651216944" lon="14.990883061576918"><ele>18.0</ele><time>2026-04-26T16:07:56Z</time></trkpt><trkpt lat="40.21936636969197" lon="14.990710483652407"><ele>15.0</ele><time>2026-04-26T16:07:57Z</time></trkpt><trkpt lat="40.21944268840709" lon="14.990521664942209"><ele>12.0</ele><time>2026-04-26T16:07:58Z</time></trkpt><trkpt lat="40.219518655190065" lon="14.990315115736609"><ele>12.0</ele><time>2026-04-26T16:07:59Z</time></trkpt><trkpt lat="40.219590105743414" lon="14.99009062016839"><ele>12.0</ele><time>2026-04-26T16:08:00Z</time></trkpt><trkpt lat="40.21965498619445" lon="14.989847457090296"><ele>12.0</ele><time>2026-04-26T16:08:01Z</time></trkpt><trkpt lat="40.21971782181111" lon="14.98960708579689"><ele>10.333333333333334</ele><time>2026-04-26T16:08:02Z</time></trkpt><trkpt lat="40.21977689591645" lon="14.989394821977939"><ele>8.666666666666668</ele><time>2026-04-26T16:08:03Z</time></trkpt><trkpt lat="40.21985069093981" lon="14.989193412176363"><ele>7.0</ele><time>2026-04-26T16:08:04Z</time></trkpt><trkpt lat="40.219938930258046" lon="14.989001930721232"><ele>16.333333333333332</ele><time>2026-04-26T16:08:05Z</time></trkpt><trkpt lat="40.220025055396555" lon="14.988822006116274"><ele>25.666666666666664</ele><time>2026-04-26T16:08:06Z</time></trkpt><trkpt lat="40.22010891748153" lon="14.988650183888806"><ele>35.0</ele><time>2026-04-26T16:08:07Z</time></trkpt><trkpt lat="40.22019778526292" lon="14.98848461432405"><ele>28.666666666666664</ele><time>2026-04-26T16:08:08Z</time></trkpt><trkpt lat="40.220294093467615" lon="14.988314134145746"><ele>22.333333333333332</ele><time>2026-04-26T16:08:09Z</time></trkpt><trkpt lat="40.220385253012715" lon="14.988132192789235"><ele>16.0</ele><time>2026-04-26T16:08:10Z</time></trkpt><trkpt lat="40.22046282940501" lon="14.987932702847523"><ele>16.0</ele><time>2026-04-26T16:08:11Z</time></trkpt><trkpt lat="40.22052918800851" lon="14.987708941819317"><ele>16.0</ele><time>2026-04-26T16:08:12Z</time></trkpt><trkpt lat="40.22058962202721" lon="14.987469349312294"><ele>16.0</ele><time>2026-04-26T16:08:13Z</time></trkpt><trkpt lat="40.22065381989393" lon="14.98723359920868"><ele>22.0</ele><time>2026-04-26T16:08:14Z</time></trkpt><trkpt lat="40.2207240945818" lon="14.987001129269233"><ele>28.0</ele><time>2026-04-26T16:08:15Z</time></trkpt><trkpt lat="40.22078686418479" lon="14.986778155635495"><ele>34.0</ele><time>2026-04-26T16:08:16Z</time></trkpt><trkpt lat="40.220844276128744" lon="14.98658363377162"><ele>34.0</ele><time>2026-04-26T16:08:17Z</time></trkpt><trkpt lat="40.220892021854866" lon="14.98643276196365"><ele>34.0</ele><time>2026-04-26T16:08:18Z</time></trkpt><trkpt lat="40.22093901767591" lon="14.986300996172458"><ele>34.0</ele><time>2026-04-26T16:08:19Z</time></trkpt><trkpt lat="40.220998225889275" lon="14.986215248239779"><ele>34.0</ele><time>2026-04-26T16:08:20Z</time></trkpt><trkpt lat="40.22107145092039" lon="14.986160093488852"><ele>34.0</ele><time>2026-04-26T16:08:21Z</time></trkpt><trkpt lat="40.221167941713055" lon="14.986145327828467"><ele>34.0</ele><time>2026-04-26T16:08:22Z</time></trkpt><trkpt lat="40.22127348746616" lon="14.986173181173154"><ele>34.0</ele><time>2026-04-26T16:08:23Z</time></trkpt><trkpt lat="40.22137878691603" lon="14.9862639849875"><ele>34.0</ele><time>2026-04-26T16:08:24Z</time></trkpt><trkpt lat="40.221491602273815" lon="14.986322490038875"><ele>34.0</ele><time>2026-04-26T16:08:25Z</time></trkpt><trkpt lat="40.221603416263584" lon="14.986389658252014"><ele>36.0</ele><time>2026-04-26T16:08:26Z</time></trkpt><trkpt lat="40.22171534654078" lon="14.986477083834773"><ele>38.0</ele><time>2026-04-26T16:08:27Z</time></trkpt><trkpt lat="40.22184066708199" lon="14.986502489757568"><ele>40.0</ele><time>2026-04-26T16:08:28Z</time></trkpt><trkpt lat="40.22194508432869" lon="14.986560722257202"><ele>42.0</ele><time>2026-04-26T16:08:29Z</time></trkpt><trkpt lat="40.222048427882946" lon="14.986598516877615"><ele>42.0</ele><time>2026-04-26T16:08:30Z</time></trkpt><trkpt lat="40.22215200323473" lon="14.986622464473749"><ele>42.0</ele><time>2026-04-26T16:08:31Z</time></trkpt><trkpt lat="40.222255910472036" lon="14.986640378478919"><ele>42.0</ele><time>2026-04-26T16:08:32Z</time></trkpt><trkpt lat="40.22237256973845" lon="14.986616316566389"><ele>42.0</ele><time>2026-04-26T16:08:33Z</time></trkpt><trkpt lat="40.22248322412748" lon="14.986586335478924"><ele>42.0</ele><time>2026-04-26T16:08:34Z</time></trkpt><trkpt lat="40.222595563626385" lon="14.986526641757473"><ele>41.5</ele><time>2026-04-26T16:08:35Z</time></trkpt><trkpt lat="40.22269956335991" lon="14.986447304183717"><ele>41.0</ele><time>2026-04-26T16:08:36Z</time></trkpt><trkpt lat="40.222806698757886" lon="14.986359033365765"><ele>40.5</ele><time>2026-04-26T16:08:37Z</time></trkpt><trkpt lat="40.222926635344" lon="14.986301292034828"><ele>40.0</ele><time>2026-04-26T16:08:38Z</time></trkpt><trkpt lat="40.223043485047974" lon="14.98624859829093"><ele>42.5</ele><time>2026-04-26T16:08:39Z</time></trkpt><trkpt lat="40.22316056440033" lon="14.986208318089048"><ele>45.0</ele><time>2026-04-26T16:08:40Z</time></trkpt><trkpt lat="40.22326971383765" lon="14.986153631958587"><ele>47.5</ele><time>2026-04-26T16:08:41Z</time></trkpt><trkpt lat="40.223382215068334" lon="14.986136479002646"><ele>50.0</ele><time>2026-04-26T16:08:42Z</time></trkpt><trkpt lat="40.223496718964746" lon="14.98614346480516"><ele>50.0</ele><time>2026-04-26T16:08:43Z</time></trkpt><trkpt lat="40.223609892679285" lon="14.986151268549474"><ele>50.0</ele><time>2026-04-26T16:08:44Z</time></trkpt><trkpt lat="40.22372589002453" lon="14.986158944563751"><ele>50.0</ele><time>2026-04-26T16:08:45Z</time></trkpt><trkpt lat="40.22382625441757" lon="14.986216426013302"><ele>50.0</ele><time>2026-04-26T16:08:46Z</time></trkpt><trkpt lat="40.22390193878992" lon="14.986314754086509"><ele>50.0</ele><time>2026-04-26T16:08:47Z</time></trkpt><trkpt lat="40.22397164081754" lon="14.98641206923716"><ele>46.75</ele><time>2026-04-26T16:08:48Z</time></trkpt><trkpt lat="40.224051613348706" lon="14.986509872848124"><ele>43.5</ele><time>2026-04-26T16:08:49Z</time></trkpt><trkpt lat="40.22414592847265" lon="14.986596005369362"><ele>40.25</ele><time>2026-04-26T16:08:50Z</time></trkpt><trkpt lat="40.224259841147045" lon="14.986654058473434"><ele>37.0</ele><time>2026-04-26T16:08:51Z</time></trkpt><trkpt lat="40.224389381544626" lon="14.986664670225387"><ele>37.0</ele><time>2026-04-26T16:08:52Z</time></trkpt><trkpt lat="40.224528785255465" lon="14.986606144663604"><ele>37.0</ele><time>2026-04-26T16:08:53Z</time></trkpt><trkpt lat="40.22467685515021" lon="14.986553406827884"><ele>37.0</ele><time>2026-04-26T16:08:54Z</time></trkpt><trkpt lat="40.22483505613686" lon="14.986531667242232"><ele>37.0</ele><time>2026-04-26T16:08:55Z</time></trkpt><trkpt lat="40.22499553965923" lon="14.986496628294496"><ele>37.0</ele><time>2026-04-26T16:08:56Z</time></trkpt><trkpt lat="40.22517441403663" lon="14.98651842573462"><ele>37.0</ele><time>2026-04-26T16:08:57Z</time></trkpt><trkpt lat="40.225353635053885" lon="14.98654036476437"><ele>37.0</ele><time>2026-04-26T16:08:58Z</time></trkpt><trkpt lat="40.22551678376886" lon="14.986573031293798"><ele>37.0</ele><time>2026-04-26T16:08:59Z</time></trkpt><trkpt lat="40.22567600794019" lon="14.986599235051944"><ele>37.0</ele><time>2026-04-26T16:09:00Z</time></trkpt><trkpt lat="40.22584670832784" lon="14.986627140902128"><ele>34.333333333333336</ele><time>2026-04-26T16:09:01Z</time></trkpt><trkpt lat="40.226028054377394" lon="14.98665312088133"><ele>31.666666666666664</ele><time>2026-04-26T16:09:02Z</time></trkpt><trkpt lat="40.22621087717186" lon="14.986678190836876"><ele>29.0</ele><time>2026-04-26T16:09:03Z</time></trkpt><trkpt lat="40.226389487184335" lon="14.986673190526224"><ele>38.0</ele><time>2026-04-26T16:09:04Z</time></trkpt><trkpt lat="40.22655541742475" lon="14.986694882359227"><ele>47.0</ele><time>2026-04-26T16:09:05Z</time></trkpt><trkpt lat="40.226713416176565" lon="14.986712528315001"><ele>56.0</ele><time>2026-04-26T16:09:06Z</time></trkpt><trkpt lat="40.226862643911126" lon="14.9867283322971"><ele>56.0</ele><time>2026-04-26T16:09:07Z</time></trkpt><trkpt lat="40.22700688043659" lon="14.98672967656959"><ele>56.0</ele><time>2026-04-26T16:09:08Z</time></trkpt><trkpt lat="40.227141818947395" lon="14.986722064674387"><ele>56.0</ele><time>2026-04-26T16:09:09Z</time></trkpt><trkpt lat="40.22726433840851" lon="14.986700853368461"><ele>56.0</ele><time>2026-04-26T16:09:10Z</time></trkpt><trkpt lat="40.227381864575385" lon="14.986660856562906"><ele>50.4</ele><time>2026-04-26T16:09:11Z</time></trkpt><trkpt lat="40.22747850174705" lon="14.986597205070819"><ele>44.8</ele><time>2026-04-26T16:09:12Z</time></trkpt><trkpt lat="40.22754462874535" lon="14.986514600371798"><ele>39.199999999999996</ele><time>2026-04-26T16:09:13Z</time></trkpt><trkpt lat="40.22759038551914" lon="14.986405486072693"><ele>33.599999999999994</ele><time>2026-04-26T16:09:14Z</time></trkpt><trkpt lat="40.227622750844525" lon="14.986259616339874"><ele>28.0</ele><time>2026-04-26T16:09:15Z</time></trkpt><trkpt lat="40.22765329509394" lon="14.986089162079507"><ele>28.0</ele><time>2026-04-26T16:09:16Z</time></trkpt><trkpt lat="40.227687685669366" lon="14.985914957426607"><ele>28.0</ele><time>2026-04-26T16:09:17Z</time></trkpt><trkpt lat="40.2277281149599" lon="14.985746110622177"><ele>28.0</ele><time>2026-04-26T16:09:18Z</time></trkpt><trkpt lat="40.22776356978461" lon="14.985591171328249"><ele>28.0</ele><time>2026-04-26T16:09:19Z</time></trkpt><trkpt lat="40.227792338419825" lon="14.985443746666071"><ele>26.0</ele><time>2026-04-26T16:09:20Z</time></trkpt><trkpt lat="40.22781880633088" lon="14.985322503013187"><ele>23.999999999999996</ele><time>2026-04-26T16:09:21Z</time></trkpt><trkpt lat="40.22784518916688" lon="14.985204695676627"><ele>22.0</ele><time>2026-04-26T16:09:22Z</time></trkpt><trkpt lat="40.227874482031694" lon="14.985081448589378"><ele>20.0</ele><time>2026-04-26T16:09:23Z</time></trkpt><trkpt lat="40.22790550778527" lon="14.98496353226625"><ele>18.0</ele><time>2026-04-26T16:09:24Z</time></trkpt><trkpt lat="40.22793833127986" lon="14.984868108092975"><ele>18.0</ele><time>2026-04-26T16:09:25Z</time></trkpt><trkpt lat="40.22798217608364" lon="14.98479219204777"><ele>18.0</ele><time>2026-04-26T16:09:26Z</time></trkpt><trkpt lat="40.22802816856112" lon="14.984730696424107"><ele>18.0</ele><time>2026-04-26T16:09:27Z</time></trkpt><trkpt lat="40.22803158077247" lon="14.984586365755355"><ele>18.0</ele><time>2026-04-26T16:09:29Z</time></trkpt><trkpt lat="40.22797288431043" lon="14.984501395774757"><ele>18.0</ele><time>2026-04-26T16:09:30Z</time></trkpt><trkpt lat="40.22789087710355" lon="14.984406159878063"><ele>18.0</ele><time>2026-04-26T16:09:31Z</time></trkpt><trkpt lat="40.22780909993391" lon="14.984284116537053"><ele>21.333333333333336</ele><time>2026-04-26T16:09:32Z</time></trkpt><trkpt lat="40.22770831322832" lon="14.984152368115312"><ele>24.666666666666668</ele><time>2026-04-26T16:09:33Z</time></trkpt><trkpt lat="40.22758899293553" lon="14.984014949431065"><ele>28.0</ele><time>2026-04-26T16:09:34Z</time></trkpt><trkpt lat="40.22746643597731" lon="14.983892779574237"><ele>28.0</ele><time>2026-04-26T16:09:35Z</time></trkpt><trkpt lat="40.22735983082154" lon="14.983774636085764"><ele>28.0</ele><time>2026-04-26T16:09:36Z</time></trkpt><trkpt lat="40.227253537708954" lon="14.983654646905592"><ele>28.0</ele><time>2026-04-26T16:09:37Z</time></trkpt><trkpt lat="40.227145885192165" lon="14.983548799264097"><ele>28.0</ele><time>2026-04-26T16:09:38Z</time></trkpt><trkpt lat="40.227033320534545" lon="14.983452542303274"><ele>28.5</ele><time>2026-04-26T16:09:39Z</time></trkpt><trkpt lat="40.2269334851685" lon="14.983371108115227"><ele>29.0</ele><time>2026-04-26T16:09:40Z</time></trkpt><trkpt lat="40.2268439966997" lon="14.983309246819122"><ele>29.5</ele><time>2026-04-26T16:09:41Z</time></trkpt><trkpt lat="40.22673790553401" lon="14.983253655717574"><ele>30.0</ele><time>2026-04-26T16:09:42Z</time></trkpt><trkpt lat="40.226618780195565" lon="14.98321146856802"><ele>30.0</ele><time>2026-04-26T16:09:43Z</time></trkpt><trkpt lat="40.22648327393786" lon="14.983186949398705"><ele>30.0</ele><time>2026-04-26T16:09:44Z</time></trkpt><trkpt lat="40.22633439146697" lon="14.98316514611448"><ele>30.0</ele><time>2026-04-26T16:09:45Z</time></trkpt><trkpt lat="40.22617699780481" lon="14.983135844579268"><ele>30.0</ele><time>2026-04-26T16:09:46Z</time></trkpt><trkpt lat="40.226029175606214" lon="14.983106376742784"><ele>30.0</ele><time>2026-04-26T16:09:47Z</time></trkpt><trkpt lat="40.22590273892856" lon="14.983081570491434"><ele>30.0</ele><time>2026-04-26T16:09:48Z</time></trkpt><trkpt lat="40.22578651945781" lon="14.98306162066562"><ele>30.0</ele><time>2026-04-26T16:09:49Z</time></trkpt><trkpt lat="40.225667060896676" lon="14.983047547477655"><ele>30.0</ele><time>2026-04-26T16:09:50Z</time></trkpt><trkpt lat="40.22554655620351" lon="14.983030284005082"><ele>28.25</ele><time>2026-04-26T16:09:51Z</time></trkpt><trkpt lat="40.225420342787956" lon="14.983008361928322"><ele>26.5</ele><time>2026-04-26T16:09:52Z</time></trkpt><trkpt lat="40.22529741938162" lon="14.98297736383254"><ele>24.75</ele><time>2026-04-26T16:09:53Z</time></trkpt><trkpt lat="40.22518845121304" lon="14.982953883430469"><ele>23.0</ele><time>2026-04-26T16:09:54Z</time></trkpt><trkpt lat="40.22508828469795" lon="14.98292709285866"><ele>23.0</ele><time>2026-04-26T16:09:55Z</time></trkpt><trkpt lat="40.22498814499939" lon="14.982878978390199"><ele>23.0</ele><time>2026-04-26T16:09:56Z</time></trkpt><trkpt lat="40.22489229576056" lon="14.982796705728829"><ele>23.0</ele><time>2026-04-26T16:09:57Z</time></trkpt><trkpt lat="40.22480346731676" lon="14.982681135695252"><ele>23.0</ele><time>2026-04-26T16:09:58Z</time></trkpt><trkpt lat="40.224716351548615" lon="14.982537729304513"><ele>22.75</ele><time>2026-04-26T16:09:59Z</time></trkpt><trkpt lat="40.22463911579034" lon="14.982379112358588"><ele>22.5</ele><time>2026-04-26T16:10:00Z</time></trkpt><trkpt lat="40.22458273191926" lon="14.982226664808074"><ele>22.25</ele><time>2026-04-26T16:10:01Z</time></trkpt><trkpt lat="40.22454295084034" lon="14.982075839350507"><ele>22.0</ele><time>2026-04-26T16:10:02Z</time></trkpt><trkpt lat="40.224517341723036" lon="14.98191813494975"><ele>22.0</ele><time>2026-04-26T16:10:03Z</time></trkpt><trkpt lat="40.22450981134032" lon="14.981754750652193"><ele>22.0</ele><time>2026-04-26T16:10:04Z</time></trkpt><trkpt lat="40.22450941757878" lon="14.9815823104688"><ele>22.0</ele><time>2026-04-26T16:10:05Z</time></trkpt><trkpt lat="40.22452128121508" lon="14.981409127377146"><ele>22.0</ele><time>2026-04-26T16:10:06Z</time></trkpt><trkpt lat="40.22454208640878" lon="14.981233267259507"><ele>24.0</ele><time>2026-04-26T16:10:07Z</time></trkpt><trkpt lat="40.22457162383415" lon="14.981062831231533"><ele>26.0</ele><time>2026-04-26T16:10:08Z</time></trkpt><trkpt lat="40.22459908066062" lon="14.980897302858377"><ele>28.0</ele><time>2026-04-26T16:10:09Z</time></trkpt><trkpt lat="40.22464924787621" lon="14.980736532543709"><ele>30.0</ele><time>2026-04-26T16:10:10Z</time></trkpt><trkpt lat="40.224671471754824" lon="14.980565369562607"><ele>30.5</ele><time>2026-04-26T16:10:11Z</time></trkpt><trkpt lat="40.2247171036713" lon="14.980394492532712"><ele>31.0</ele><time>2026-04-26T16:10:12Z</time></trkpt><trkpt lat="40.22476535746856" lon="14.980221062546185"><ele>31.5</ele><time>2026-04-26T16:10:13Z</time></trkpt><trkpt lat="40.224805960755276" lon="14.980042363110236"><ele>32.0</ele><time>2026-04-26T16:10:14Z</time></trkpt><trkpt lat="40.22484819071475" lon="14.979864781795223"><ele>38.75</ele><time>2026-04-26T16:10:15Z</time></trkpt><trkpt lat="40.22489068012299" lon="14.979699336206966"><ele>45.5</ele><time>2026-04-26T16:10:16Z</time></trkpt><trkpt lat="40.22492863300508" lon="14.979529715883956"><ele>52.25</ele><time>2026-04-26T16:10:17Z</time></trkpt><trkpt lat="40.22496036102579" lon="14.979363142314162"><ele>59.0</ele><time>2026-04-26T16:10:18Z</time></trkpt><trkpt lat="40.224986391322794" lon="14.979189090634383"><ele>57.75</ele><time>2026-04-26T16:10:19Z</time></trkpt><trkpt lat="40.22501679866959" lon="14.97902245363062"><ele>56.5</ele><time>2026-04-26T16:10:20Z</time></trkpt><trkpt lat="40.225030072780775" lon="14.978858809871287"><ele>55.25</ele><time>2026-04-26T16:10:21Z</time></trkpt><trkpt lat="40.2250384987785" lon="14.978699961777627"><ele>54.0</ele><time>2026-04-26T16:10:22Z</time></trkpt><trkpt lat="40.2250523578183" lon="14.978542453087764"><ele>54.0</ele><time>2026-04-26T16:10:23Z</time></trkpt><trkpt lat="40.22506941665514" lon="14.978380788764893"><ele>54.0</ele><time>2026-04-26T16:10:24Z</time></trkpt><trkpt lat="40.22508209847597" lon="14.978214678828246"><ele>54.0</ele><time>2026-04-26T16:10:25Z</time></trkpt><trkpt lat="40.225097338156935" lon="14.978045404093518"><ele>54.0</ele><time>2026-04-26T16:10:26Z</time></trkpt><trkpt lat="40.22511370050947" lon="14.977870263315848"><ele>54.25</ele><time>2026-04-26T16:10:27Z</time></trkpt><trkpt lat="40.22512749342732" lon="14.977698138127419"><ele>54.5</ele><time>2026-04-26T16:10:28Z</time></trkpt><trkpt lat="40.22514216879982" lon="14.97752812867542"><ele>54.75</ele><time>2026-04-26T16:10:29Z</time></trkpt><trkpt lat="40.225157941261635" lon="14.977363100188184"><ele>55.0</ele><time>2026-04-26T16:10:30Z</time></trkpt><trkpt lat="40.22517904506555" lon="14.977205880888096"><ele>55.25</ele><time>2026-04-26T16:10:31Z</time></trkpt><trkpt lat="40.225204304076044" lon="14.97705458458231"><ele>55.5</ele><time>2026-04-26T16:10:32Z</time></trkpt><trkpt lat="40.225232190679264" lon="14.97690791060874"><ele>55.75</ele><time>2026-04-26T16:10:33Z</time></trkpt><trkpt lat="40.22526429320678" lon="14.976767670986993"><ele>56.0</ele><time>2026-04-26T16:10:34Z</time></trkpt><trkpt lat="40.22530052248072" lon="14.976632462343884"><ele>56.0</ele><time>2026-04-26T16:10:35Z</time></trkpt><trkpt lat="40.22533563958844" lon="14.976501226743025"><ele>55.99999999999999</ele><time>2026-04-26T16:10:36Z</time></trkpt><trkpt lat="40.22537202525389" lon="14.976383067188689"><ele>55.99999999999999</ele><time>2026-04-26T16:10:37Z</time></trkpt><trkpt lat="40.225408750585" lon="14.97626944002436"><ele>56.0</ele><time>2026-04-26T16:10:38Z</time></trkpt><trkpt lat="40.22544714110448" lon="14.976156991624109"><ele>56.0</ele><time>2026-04-26T16:10:39Z</time></trkpt><trkpt lat="40.22548774370998" lon="14.976047472004883"><ele>56.0</ele><time>2026-04-26T16:10:40Z</time></trkpt><trkpt lat="40.22553559608685" lon="14.975943944573837"><ele>55.99999999999999</ele><time>2026-04-26T16:10:41Z</time></trkpt><trkpt lat="40.22558594787529" lon="14.975839446049548"><ele>55.99999999999999</ele><time>2026-04-26T16:10:42Z</time></trkpt><trkpt lat="40.22563802639224" lon="14.97573491118877"><ele>56.0</ele><time>2026-04-26T16:10:43Z</time></trkpt><trkpt lat="40.22568840621584" lon="14.97562558079045"><ele>56.0</ele><time>2026-04-26T16:10:44Z</time></trkpt><trkpt lat="40.22572766458815" lon="14.975506734681078"><ele>59.333333333333336</ele><time>2026-04-26T16:10:45Z</time></trkpt><trkpt lat="40.225748776350805" lon="14.975386702823796"><ele>62.66666666666667</ele><time>2026-04-26T16:10:46Z</time></trkpt><trkpt lat="40.22575285235355" lon="14.975262626814867"><ele>66.0</ele><time>2026-04-26T16:10:47Z</time></trkpt><trkpt lat="40.22573415278957" lon="14.975157371606551"><ele>69.33333333333333</ele><time>2026-04-26T16:10:48Z</time></trkpt><trkpt lat="40.225689666418745" lon="14.975061308229341"><ele>72.66666666666666</ele><time>2026-04-26T16:10:49Z</time></trkpt><trkpt lat="40.225617565629044" lon="14.974991238383145"><ele>76.0</ele><time>2026-04-26T16:10:50Z</time></trkpt><trkpt lat="40.22553499662561" lon="14.974950851943065"><ele>76.0</ele><time>2026-04-26T16:10:51Z</time></trkpt><trkpt lat="40.22543841111556" lon="14.97495356336206"><ele>76.0</ele><time>2026-04-26T16:10:52Z</time></trkpt><trkpt lat="40.2253208648084" lon="14.974967914068035"><ele>76.0</ele><time>2026-04-26T16:10:53Z</time></trkpt><trkpt lat="40.225183371505274" lon="14.974963416025671"><ele>76.0</ele><time>2026-04-26T16:10:54Z</time></trkpt><trkpt lat="40.225031196279154" lon="14.974948550204074"><ele>76.0</ele><time>2026-04-26T16:10:55Z</time></trkpt><trkpt lat="40.22487993065403" lon="14.974936958270913"><ele>76.0</ele><time>2026-04-26T16:10:56Z</time></trkpt><trkpt lat="40.22475410784484" lon="14.974914048087713"><ele>76.0</ele><time>2026-04-26T16:10:57Z</time></trkpt><trkpt lat="40.224627819539016" lon="14.974894178293646"><ele>76.0</ele><time>2026-04-26T16:10:58Z</time></trkpt><trkpt lat="40.224504447311034" lon="14.974863159872664"><ele>75.8</ele><time>2026-04-26T16:10:59Z</time></trkpt><trkpt lat="40.22439450562132" lon="14.974814372868934"><ele>75.6</ele><time>2026-04-26T16:11:00Z</time></trkpt><trkpt lat="40.22429302711305" lon="14.97474915311599"><ele>75.4</ele><time>2026-04-26T16:11:01Z</time></trkpt><trkpt lat="40.22421374702883" lon="14.974675188570895"><ele>75.2</ele><time>2026-04-26T16:11:02Z</time></trkpt><trkpt lat="40.22414365010538" lon="14.974607181006562"><ele>75.0</ele><time>2026-04-26T16:11:03Z</time></trkpt><trkpt lat="40.22407269624344" lon="14.974574935320067"><ele>75.0</ele><time>2026-04-26T16:11:04Z</time></trkpt><trkpt lat="40.22399993942212" lon="14.974576121249447"><ele>75.0</ele><time>2026-04-26T16:11:05Z</time></trkpt><trkpt lat="40.22392218794763" lon="14.974611837532647"><ele>75.0</ele><time>2026-04-26T16:11:06Z</time></trkpt><trkpt lat="40.22382488637395" lon="14.974682800705994"><ele>75.0</ele><time>2026-04-26T16:11:07Z</time></trkpt><trkpt lat="40.22372989929692" lon="14.974791979570774"><ele>75.0</ele><time>2026-04-26T16:11:08Z</time></trkpt><trkpt lat="40.22361906680572" lon="14.974912312780912"><ele>74.0</ele><time>2026-04-26T16:11:09Z</time></trkpt><trkpt lat="40.22349153271264" lon="14.975038383469018"><ele>73.0</ele><time>2026-04-26T16:11:10Z</time></trkpt><trkpt lat="40.22335474314075" lon="14.975172150733052"><ele>72.0</ele><time>2026-04-26T16:11:11Z</time></trkpt><trkpt lat="40.22321578856766" lon="14.975314068513452"><ele>79.33333333333333</ele><time>2026-04-26T16:11:12Z</time></trkpt><trkpt lat="40.22306952613341" lon="14.975458050883331"><ele>86.66666666666666</ele><time>2026-04-26T16:11:13Z</time></trkpt><trkpt lat="40.22293706603583" lon="14.975590996354944"><ele>94.0</ele><time>2026-04-26T16:11:14Z</time></trkpt><trkpt lat="40.22279665019617" lon="14.975670604527505"><ele>94.0</ele><time>2026-04-26T16:11:15Z</time></trkpt><trkpt lat="40.22266040720903" lon="14.975739711353516"><ele>94.0</ele><time>2026-04-26T16:11:16Z</time></trkpt><trkpt lat="40.222525783681185" lon="14.975809260592435"><ele>94.0</ele><time>2026-04-26T16:11:17Z</time></trkpt><trkpt lat="40.22238477521545" lon="14.975918084227526"><ele>93.33333333333333</ele><time>2026-04-26T16:11:18Z</time></trkpt><trkpt lat="40.222248156762326" lon="14.976058327183775"><ele>92.66666666666667</ele><time>2026-04-26T16:11:19Z</time></trkpt><trkpt lat="40.22214679961697" lon="14.976216914521052"><ele>92.0</ele><time>2026-04-26T16:11:20Z</time></trkpt><trkpt lat="40.222072495756414" lon="14.976364119703655"><ele>92.0</ele><time>2026-04-26T16:11:21Z</time></trkpt><trkpt lat="40.221983941952224" lon="14.97646149559837"><ele>92.0</ele><time>2026-04-26T16:11:22Z</time></trkpt><trkpt lat="40.22188693101245" lon="14.976512001383707"><ele>92.0</ele><time>2026-04-26T16:11:23Z</time></trkpt><trkpt lat="40.22177922921578" lon="14.97651271454432"><ele>92.0</ele><time>2026-04-26T16:11:24Z</time></trkpt><trkpt lat="40.221674153160514" lon="14.976468871458676"><ele>92.0</ele><time>2026-04-26T16:11:25Z</time></trkpt><trkpt lat="40.22157290738048" lon="14.97639277849842"><ele>86.75</ele><time>2026-04-26T16:11:26Z</time></trkpt><trkpt lat="40.221453027793984" lon="14.976367910091195"><ele>81.5</ele><time>2026-04-26T16:11:27Z</time></trkpt><trkpt lat="40.221319522034975" lon="14.976390579831993"><ele>76.25</ele><time>2026-04-26T16:11:28Z</time></trkpt><trkpt lat="40.221192375534635" lon="14.976464600843261"><ele>71.0</ele><time>2026-04-26T16:11:29Z</time></trkpt><trkpt lat="40.221081226910236" lon="14.976518400061114"><ele>71.0</ele><time>2026-04-26T16:11:30Z</time></trkpt><trkpt lat="40.220991976633286" lon="14.97656937401926"><ele>71.0</ele><time>2026-04-26T16:11:31Z</time></trkpt><trkpt lat="40.2209141577097" lon="14.976592575097492"><ele>71.0</ele><time>2026-04-26T16:11:32Z</time></trkpt><trkpt lat="40.22080098361569" lon="14.976586251312584"><ele>71.0</ele><time>2026-04-26T16:11:34Z</time></trkpt><trkpt lat="40.22074061671537" lon="14.976513943744296"><ele>71.0</ele><time>2026-04-26T16:11:36Z</time></trkpt><trkpt lat="40.220779401505105" lon="14.976388515654332"><ele>71.0</ele><time>2026-04-26T16:11:38Z</time></trkpt><trkpt lat="40.22084003148935" lon="14.976365626504284"><ele>71.0</ele><time>2026-04-26T16:11:39Z</time></trkpt><trkpt lat="40.220981853462646" lon="14.976392754370474"><ele>71.0</ele><time>2026-04-26T16:11:41Z</time></trkpt><trkpt lat="40.22106621072912" lon="14.976351822183307"><ele>71.0</ele><time>2026-04-26T16:11:42Z</time></trkpt><trkpt lat="40.221150329527404" lon="14.976287453242731"><ele>71.0</ele><time>2026-04-26T16:11:43Z</time></trkpt><trkpt lat="40.22122655317807" lon="14.976210243525637"><ele>71.0</ele><time>2026-04-26T16:11:44Z</time></trkpt><trkpt lat="40.22129742338902" lon="14.976137898543833"><ele>71.0</ele><time>2026-04-26T16:11:45Z</time></trkpt><trkpt lat="40.221372276091856" lon="14.976089975805744"><ele>71.0</ele><time>2026-04-26T16:11:46Z</time></trkpt><trkpt lat="40.2214631232357" lon="14.976088327361197"><ele>71.0</ele><time>2026-04-26T16:11:47Z</time></trkpt><trkpt lat="40.22155733220433" lon="14.976067619482805"><ele>71.0</ele><time>2026-04-26T16:11:48Z</time></trkpt><trkpt lat="40.22163219402348" lon="14.976054842338192"><ele>71.0</ele><time>2026-04-26T16:11:49Z</time></trkpt><trkpt lat="40.221714146713744" lon="14.976019021148046"><ele>75.19999999999999</ele><time>2026-04-26T16:11:50Z</time></trkpt><trkpt lat="40.22180232845632" lon="14.97594886688081"><ele>79.39999999999999</ele><time>2026-04-26T16:11:51Z</time></trkpt><trkpt lat="40.22188720345256" lon="14.975854545832188"><ele>83.6</ele><time>2026-04-26T16:11:52Z</time></trkpt><trkpt lat="40.22195842268968" lon="14.975769534624582"><ele>87.8</ele><time>2026-04-26T16:11:53Z</time></trkpt><trkpt lat="40.22201437900199" lon="14.975708212959418"><ele>92.0</ele><time>2026-04-26T16:11:54Z</time></trkpt><trkpt lat="40.22208056007882" lon="14.975629035966941"><ele>95.5</ele><time>2026-04-26T16:11:56Z</time></trkpt><trkpt lat="40.22212285164153" lon="14.975535709861344"><ele>99.0</ele><time>2026-04-26T16:11:58Z</time></trkpt><trkpt lat="40.22211623972925" lon="14.975419667747762"><ele>102.5</ele><time>2026-04-26T16:12:00Z</time></trkpt><trkpt lat="40.222007014798315" lon="14.975356144072256"><ele>106.0</ele><time>2026-04-26T16:12:02Z</time></trkpt><trkpt lat="40.221942324850865" lon="14.975384201730257"><ele>109.49999999999999</ele><time>2026-04-26T16:12:03Z</time></trkpt><trkpt lat="40.22188897049484" lon="14.97544204425784"><ele>113.0</ele><time>2026-04-26T16:12:04Z</time></trkpt><trkpt lat="40.22185029519314" lon="14.975525798100552"><ele>113.0</ele><time>2026-04-26T16:12:05Z</time></trkpt><trkpt lat="40.22179520623322" lon="14.975603434521721"><ele>113.00000000000001</ele><time>2026-04-26T16:12:06Z</time></trkpt><trkpt lat="40.22171038237054" lon="14.975652074500644"><ele>113.00000000000001</ele><time>2026-04-26T16:12:07Z</time></trkpt><trkpt lat="40.22160628590678" lon="14.975683188698103"><ele>113.0</ele><time>2026-04-26T16:12:08Z</time></trkpt><trkpt lat="40.22149317341302" lon="14.975684147145676"><ele>113.0</ele><time>2026-04-26T16:12:09Z</time></trkpt><trkpt lat="40.22140921765194" lon="14.975675115347975"><ele>108.49999999999999</ele><time>2026-04-26T16:12:10Z</time></trkpt><trkpt lat="40.221343259187194" lon="14.97565631432057"><ele>104.0</ele><time>2026-04-26T16:12:11Z</time></trkpt><trkpt lat="40.22123437723116" lon="14.975564446989475"><ele>99.5</ele><time>2026-04-26T16:12:13Z</time></trkpt><trkpt lat="40.22120731294312" lon="14.97548064556165"><ele>95.0</ele><time>2026-04-26T16:12:14Z</time></trkpt><trkpt lat="40.22122670312357" lon="14.975378094191024"><ele>90.5</ele><time>2026-04-26T16:12:15Z</time></trkpt><trkpt lat="40.22127760533261" lon="14.975287846695796"><ele>86.0</ele><time>2026-04-26T16:12:16Z</time></trkpt><trkpt lat="40.221336973892306" lon="14.97520971333818"><ele>86.0</ele><time>2026-04-26T16:12:17Z</time></trkpt><trkpt lat="40.22139430764027" lon="14.97512598264382"><ele>86.0</ele><time>2026-04-26T16:12:18Z</time></trkpt><trkpt lat="40.22142850039494" lon="14.97503167260671"><ele>86.0</ele><time>2026-04-26T16:12:19Z</time></trkpt><trkpt lat="40.22143096740969" lon="14.974900331504752"><ele>86.0</ele><time>2026-04-26T16:12:20Z</time></trkpt><trkpt lat="40.221403157579125" lon="14.974735453103072"><ele>86.0</ele><time>2026-04-26T16:12:21Z</time></trkpt><trkpt lat="40.221361635746426" lon="14.974582124835482"><ele>86.19999999999999</ele><time>2026-04-26T16:12:22Z</time></trkpt><trkpt lat="40.22133217630671" lon="14.974442509294503"><ele>86.39999999999999</ele><time>2026-04-26T16:12:23Z</time></trkpt><trkpt lat="40.22130892738824" lon="14.974333931518526"><ele>86.6</ele><time>2026-04-26T16:12:24Z</time></trkpt><trkpt lat="40.221295147131904" lon="14.974241591844201"><ele>86.8</ele><time>2026-04-26T16:12:25Z</time></trkpt><trkpt lat="40.221301198738885" lon="14.974091489237606"><ele>87.0</ele><time>2026-04-26T16:12:27Z</time></trkpt><trkpt lat="40.22131513741014" lon="14.973940137874791"><ele>84.0</ele><time>2026-04-26T16:12:29Z</time></trkpt><trkpt lat="40.22133862981518" lon="14.973839548775825"><ele>81.0</ele><time>2026-04-26T16:12:30Z</time></trkpt><trkpt lat="40.22136703860076" lon="14.973730695316387"><ele>78.0</ele><time>2026-04-26T16:12:31Z</time></trkpt><trkpt lat="40.22139321454163" lon="14.973630397370494"><ele>75.0</ele><time>2026-04-26T16:12:32Z</time></trkpt><trkpt lat="40.221406996352385" lon="14.973516177741692"><ele>72.0</ele><time>2026-04-26T16:12:33Z</time></trkpt><trkpt lat="40.221444066711584" lon="14.973407351195133"><ele>69.0</ele><time>2026-04-26T16:12:34Z</time></trkpt><trkpt lat="40.22147931559788" lon="14.973287092085432"><ele>82.5</ele><time>2026-04-26T16:12:35Z</time></trkpt><trkpt lat="40.22153489566541" lon="14.973139866938352"><ele>96.0</ele><time>2026-04-26T16:12:36Z</time></trkpt><trkpt lat="40.22160820357356" lon="14.972963518574408"><ele>109.5</ele><time>2026-04-26T16:12:37Z</time></trkpt><trkpt lat="40.22168614699985" lon="14.972768029584199"><ele>123.0</ele><time>2026-04-26T16:12:38Z</time></trkpt><trkpt lat="40.22176696975697" lon="14.972567506435935"><ele>111.0</ele><time>2026-04-26T16:12:39Z</time></trkpt><trkpt lat="40.221871213425956" lon="14.972361534221942"><ele>99.0</ele><time>2026-04-26T16:12:40Z</time></trkpt><trkpt lat="40.221970926595205" lon="14.972136462318245"><ele>87.0</ele><time>2026-04-26T16:12:41Z</time></trkpt><trkpt lat="40.22207540112127" lon="14.97190064326814"><ele>77.66666666666667</ele><time>2026-04-26T16:12:42Z</time></trkpt><trkpt lat="40.22217826501411" lon="14.971672921358783"><ele>68.33333333333334</ele><time>2026-04-26T16:12:43Z</time></trkpt><trkpt lat="40.22226590133775" lon="14.971459192757186"><ele>59.0</ele><time>2026-04-26T16:12:44Z</time></trkpt><trkpt lat="40.22233161241144" lon="14.971246306948602"><ele>77.33333333333334</ele><time>2026-04-26T16:12:45Z</time></trkpt><trkpt lat="40.22238220990445" lon="14.971042872020424"><ele>95.66666666666667</ele><time>2026-04-26T16:12:46Z</time></trkpt><trkpt lat="40.222441557803116" lon="14.97085890191494"><ele>114.0</ele><time>2026-04-26T16:12:47Z</time></trkpt><trkpt lat="40.22251381610155" lon="14.970679149467994"><ele>114.0</ele><time>2026-04-26T16:12:48Z</time></trkpt><trkpt lat="40.2225957032181" lon="14.97049579727915"><ele>114.0</ele><time>2026-04-26T16:12:49Z</time></trkpt><trkpt lat="40.222675763408795" lon="14.970326289286483"><ele>114.0</ele><time>2026-04-26T16:12:50Z</time></trkpt><trkpt lat="40.2227538856597" lon="14.970166303473597"><ele>103.66666666666667</ele><time>2026-04-26T16:12:51Z</time></trkpt><trkpt lat="40.22284734896426" lon="14.970004104028847"><ele>93.33333333333334</ele><time>2026-04-26T16:12:52Z</time></trkpt><trkpt lat="40.22295562842506" lon="14.969841248975381"><ele>83.0</ele><time>2026-04-26T16:12:53Z</time></trkpt><trkpt lat="40.22307219969436" lon="14.969676279630438"><ele>93.33333333333334</ele><time>2026-04-26T16:12:54Z</time></trkpt><trkpt lat="40.22319543767277" lon="14.969502592640698"><ele>103.66666666666667</ele><time>2026-04-26T16:12:55Z</time></trkpt><trkpt lat="40.223309455606525" lon="14.969319888302602"><ele>114.0</ele><time>2026-04-26T16:12:56Z</time></trkpt><trkpt lat="40.2234370498362" lon="14.96918131772019"><ele>114.0</ele><time>2026-04-26T16:12:57Z</time></trkpt><trkpt lat="40.22358977312277" lon="14.969086272201602"><ele>114.0</ele><time>2026-04-26T16:12:58Z</time></trkpt><trkpt lat="40.223729222735514" lon="14.968985175675213"><ele>114.0</ele><time>2026-04-26T16:12:59Z</time></trkpt><trkpt lat="40.223862447964606" lon="14.968895687057108"><ele>124.0</ele><time>2026-04-26T16:13:00Z</time></trkpt><trkpt lat="40.223999864800554" lon="14.968825728619942"><ele>134.0</ele><time>2026-04-26T16:13:01Z</time></trkpt><trkpt lat="40.22413655341987" lon="14.96878667462342"><ele>144.0</ele><time>2026-04-26T16:13:02Z</time></trkpt><trkpt lat="40.224270928347394" lon="14.968778291259119"><ele>154.0</ele><time>2026-04-26T16:13:03Z</time></trkpt><trkpt lat="40.22440566117582" lon="14.968785834506798"><ele>154.0</ele><time>2026-04-26T16:13:04Z</time></trkpt><trkpt lat="40.224541734285715" lon="14.968760280718977"><ele>154.0</ele><time>2026-04-26T16:13:05Z</time></trkpt><trkpt lat="40.22468026740315" lon="14.968685163222734"><ele>154.0</ele><time>2026-04-26T16:13:06Z</time></trkpt><trkpt lat="40.224816573750864" lon="14.968546040704885"><ele>157.66666666666669</ele><time>2026-04-26T16:13:07Z</time></trkpt><trkpt lat="40.224956117308594" lon="14.968402535646318"><ele>161.33333333333334</ele><time>2026-04-26T16:13:08Z</time></trkpt><trkpt lat="40.22507823426134" lon="14.968276323498124"><ele>165.0</ele><time>2026-04-26T16:13:09Z</time></trkpt><trkpt lat="40.22516386677802" lon="14.968127200895749"><ele>154.0</ele><time>2026-04-26T16:13:10Z</time></trkpt><trkpt lat="40.225224881981674" lon="14.967957367917476"><ele>143.0</ele><time>2026-04-26T16:13:11Z</time></trkpt><trkpt lat="40.22529713242881" lon="14.96779820250307"><ele>132.0</ele><time>2026-04-26T16:13:12Z</time></trkpt><trkpt lat="40.22540137433361" lon="14.967660515632028"><ele>121.0</ele><time>2026-04-26T16:13:13Z</time></trkpt><trkpt lat="40.225530342062164" lon="14.967511620046256"><ele>125.66666666666667</ele><time>2026-04-26T16:13:14Z</time></trkpt><trkpt lat="40.225675691591704" lon="14.967342576262988"><ele>130.33333333333334</ele><time>2026-04-26T16:13:15Z</time></trkpt><trkpt lat="40.225797374062665" lon="14.96716244321633"><ele>135.0</ele><time>2026-04-26T16:13:16Z</time></trkpt><trkpt lat="40.225898034606175" lon="14.966996284986697"><ele>135.0</ele><time>2026-04-26T16:13:17Z</time></trkpt><trkpt lat="40.226011274123174" lon="14.966852525419416"><ele>135.0</ele><time>2026-04-26T16:13:18Z</time></trkpt><trkpt lat="40.226140448211964" lon="14.96672143755926"><ele>135.0</ele><time>2026-04-26T16:13:19Z</time></trkpt><trkpt lat="40.22626804552525" lon="14.96660519633867"><ele>134.0</ele><time>2026-04-26T16:13:20Z</time></trkpt><trkpt lat="40.226387703236306" lon="14.966495432691488"><ele>133.0</ele><time>2026-04-26T16:13:21Z</time></trkpt><trkpt lat="40.226498030329275" lon="14.966352133196885"><ele>132.0</ele><time>2026-04-26T16:13:22Z</time></trkpt><trkpt lat="40.226603667380516" lon="14.966199778848674"><ele>132.0</ele><time>2026-04-26T16:13:23Z</time></trkpt><trkpt lat="40.22671619854113" lon="14.966046139899019"><ele>132.0</ele><time>2026-04-26T16:13:24Z</time></trkpt><trkpt lat="40.22681412031785" lon="14.965882463823284"><ele>132.0</ele><time>2026-04-26T16:13:25Z</time></trkpt><trkpt lat="40.226908191837396" lon="14.965724647693712"><ele>135.0</ele><time>2026-04-26T16:13:26Z</time></trkpt><trkpt lat="40.227001351313504" lon="14.965573597813103"><ele>138.0</ele><time>2026-04-26T16:13:27Z</time></trkpt><trkpt lat="40.22709996733804" lon="14.965438528784524"><ele>141.0</ele><time>2026-04-26T16:13:28Z</time></trkpt><trkpt lat="40.22720989788598" lon="14.965311520596353"><ele>144.0</ele><time>2026-04-26T16:13:29Z</time></trkpt><trkpt lat="40.22733941452016" lon="14.965197667563114"><ele>144.0</ele><time>2026-04-26T16:13:30Z</time></trkpt><trkpt lat="40.22748960769207" lon="14.965081478755279"><ele>144.0</ele><time>2026-04-26T16:13:31Z</time></trkpt><trkpt lat="40.22765554802679" lon="14.964954021528264"><ele>144.0</ele><time>2026-04-26T16:13:32Z</time></trkpt><trkpt lat="40.227813740820885" lon="14.964831724447302"><ele>136.33333333333334</ele><time>2026-04-26T16:13:33Z</time></trkpt><trkpt lat="40.22796125110139" lon="14.964714871315646"><ele>128.66666666666669</ele><time>2026-04-26T16:13:34Z</time></trkpt><trkpt lat="40.22809921491595" lon="14.964575922929752"><ele>121.0</ele><time>2026-04-26T16:13:35Z</time></trkpt><trkpt lat="40.22821403289392" lon="14.964410314031182"><ele>121.0</ele><time>2026-04-26T16:13:36Z</time></trkpt><trkpt lat="40.228307474834644" lon="14.964232612811262"><ele>121.0</ele><time>2026-04-26T16:13:37Z</time></trkpt><trkpt lat="40.22839654990656" lon="14.964076843031725"><ele>121.0</ele><time>2026-04-26T16:13:38Z</time></trkpt><trkpt lat="40.228512354184254" lon="14.963950660189349"><ele>108.0</ele><time>2026-04-26T16:13:39Z</time></trkpt><trkpt lat="40.22865474409524" lon="14.963821549450415"><ele>95.0</ele><time>2026-04-26T16:13:40Z</time></trkpt><trkpt lat="40.22878686369245" lon="14.96370410132675"><ele>82.0</ele><time>2026-04-26T16:13:41Z</time></trkpt><trkpt lat="40.228923405037825" lon="14.963594558847326"><ele>80.33333333333333</ele><time>2026-04-26T16:13:42Z</time></trkpt><trkpt lat="40.22907797035706" lon="14.96351252302695"><ele>78.66666666666667</ele><time>2026-04-26T16:13:43Z</time></trkpt><trkpt lat="40.22924523145558" lon="14.963413398218774"><ele>77.0</ele><time>2026-04-26T16:13:44Z</time></trkpt><trkpt lat="40.22940522734677" lon="14.963278885375393"><ele>77.0</ele><time>2026-04-26T16:13:45Z</time></trkpt><trkpt lat="40.22955011327612" lon="14.963142860879184"><ele>77.0</ele><time>2026-04-26T16:13:46Z</time></trkpt><trkpt lat="40.229708654638884" lon="14.963018930880342"><ele>77.0</ele><time>2026-04-26T16:13:47Z</time></trkpt><trkpt lat="40.22988300687542" lon="14.96291224000352"><ele>88.0</ele><time>2026-04-26T16:13:48Z</time></trkpt><trkpt lat="40.230047253976196" lon="14.96281614985651"><ele>99.0</ele><time>2026-04-26T16:13:49Z</time></trkpt><trkpt lat="40.23021009180408" lon="14.962739360538635"><ele>110.0</ele><time>2026-04-26T16:13:50Z</time></trkpt><trkpt lat="40.230378421249085" lon="14.962681157186026"><ele>110.0</ele><time>2026-04-26T16:13:51Z</time></trkpt><trkpt lat="40.2305427869308" lon="14.962624212906613"><ele>110.0</ele><time>2026-04-26T16:13:52Z</time></trkpt><trkpt lat="40.23069943587183" lon="14.962548603429624"><ele>110.0</ele><time>2026-04-26T16:13:53Z</time></trkpt><trkpt lat="40.2308504369952" lon="14.962497568757723"><ele>99.33333333333333</ele><time>2026-04-26T16:13:54Z</time></trkpt><trkpt lat="40.230998780123585" lon="14.962461873419114"><ele>88.66666666666666</ele><time>2026-04-26T16:13:55Z</time></trkpt><trkpt lat="40.23113604139591" lon="14.962363659165662"><ele>78.0</ele><time>2026-04-26T16:13:56Z</time></trkpt><trkpt lat="40.23123938033313" lon="14.962182888311528"><ele>78.0</ele><time>2026-04-26T16:13:57Z</time></trkpt><trkpt lat="40.23137251354088" lon="14.962012483194307"><ele>78.0</ele><time>2026-04-26T16:13:58Z</time></trkpt><trkpt lat="40.23148904092083" lon="14.961839818405522"><ele>78.0</ele><time>2026-04-26T16:13:59Z</time></trkpt><trkpt lat="40.23159252838992" lon="14.961672354118457"><ele>74.33333333333333</ele><time>2026-04-26T16:14:00Z</time></trkpt><trkpt lat="40.231734397191225" lon="14.961578150547197"><ele>70.66666666666666</ele><time>2026-04-26T16:14:01Z</time></trkpt><trkpt lat="40.231860546167695" lon="14.961472178520493"><ele>67.0</ele><time>2026-04-26T16:14:02Z</time></trkpt><trkpt lat="40.23200043306623" lon="14.961394591872777"><ele>67.0</ele><time>2026-04-26T16:14:03Z</time></trkpt><trkpt lat="40.23216534053089" lon="14.961338795383687"><ele>67.0</ele><time>2026-04-26T16:14:04Z</time></trkpt><trkpt lat="40.23232503846128" lon="14.961277354374893"><ele>67.0</ele><time>2026-04-26T16:14:05Z</time></trkpt><trkpt lat="40.23247417154412" lon="14.961229666397458"><ele>71.0</ele><time>2026-04-26T16:14:06Z</time></trkpt><trkpt lat="40.23261321098663" lon="14.961194730172554"><ele>75.0</ele><time>2026-04-26T16:14:07Z</time></trkpt><trkpt lat="40.23276164656664" lon="14.961178602843228"><ele>79.0</ele><time>2026-04-26T16:14:08Z</time></trkpt><trkpt lat="40.23291908591505" lon="14.96119783600252"><ele>83.0</ele><time>2026-04-26T16:14:09Z</time></trkpt><trkpt lat="40.233083633443776" lon="14.961242705519199"><ele>80.0</ele><time>2026-04-26T16:14:10Z</time></trkpt><trkpt lat="40.2332532197999" lon="14.961272819872184"><ele>77.0</ele><time>2026-04-26T16:14:11Z</time></trkpt><trkpt lat="40.23343616205397" lon="14.961260160818032"><ele>74.0</ele><time>2026-04-26T16:14:12Z</time></trkpt><trkpt lat="40.233613075595585" lon="14.961222132129457"><ele>74.0</ele><time>2026-04-26T16:14:13Z</time></trkpt><trkpt lat="40.23377670412198" lon="14.96119261537866"><ele>74.0</ele><time>2026-04-26T16:14:14Z</time></trkpt><trkpt lat="40.23393158260075" lon="14.961201719882379"><ele>74.0</ele><time>2026-04-26T16:14:15Z</time></trkpt><trkpt lat="40.23407295320205" lon="14.961259483488176"><ele>74.25</ele><time>2026-04-26T16:14:16Z</time></trkpt><trkpt lat="40.23419291816007" lon="14.961339975765164"><ele>74.5</ele><time>2026-04-26T16:14:17Z</time></trkpt><trkpt lat="40.23430694786211" lon="14.961453529279112"><ele>74.75</ele><time>2026-04-26T16:14:18Z</time></trkpt><trkpt lat="40.23439878667906" lon="14.961591461364335"><ele>75.0</ele><time>2026-04-26T16:14:19Z</time></trkpt><trkpt lat="40.234478589891346" lon="14.961747940328852"><ele>75.0</ele><time>2026-04-26T16:14:20Z</time></trkpt><trkpt lat="40.23456098164694" lon="14.961924292302006"><ele>75.0</ele><time>2026-04-26T16:14:21Z</time></trkpt><trkpt lat="40.234623177630745" lon="14.962105899077109"><ele>75.0</ele><time>2026-04-26T16:14:22Z</time></trkpt><trkpt lat="40.234672720338914" lon="14.962275168751528"><ele>75.0</ele><time>2026-04-26T16:14:23Z</time></trkpt><trkpt lat="40.234711434770624" lon="14.962439633349351"><ele>72.25</ele><time>2026-04-26T16:14:24Z</time></trkpt><trkpt lat="40.234747801207604" lon="14.96258862778746"><ele>69.5</ele><time>2026-04-26T16:14:25Z</time></trkpt><trkpt lat="40.234771927623115" lon="14.962741996432795"><ele>66.75</ele><time>2026-04-26T16:14:26Z</time></trkpt><trkpt lat="40.23475646184961" lon="14.962905914312676"><ele>64.0</ele><time>2026-04-26T16:14:27Z</time></trkpt><trkpt lat="40.23474821774304" lon="14.963098157907952"><ele>64.0</ele><time>2026-04-26T16:14:28Z</time></trkpt><trkpt lat="40.23471131365926" lon="14.963306065559864"><ele>64.0</ele><time>2026-04-26T16:14:29Z</time></trkpt><trkpt lat="40.23467218726464" lon="14.963499554793822"><ele>64.0</ele><time>2026-04-26T16:14:30Z</time></trkpt><trkpt lat="40.23460881236701" lon="14.96367970683373"><ele>59.5</ele><time>2026-04-26T16:14:31Z</time></trkpt><trkpt lat="40.234568708083735" lon="14.963846170991319"><ele>55.0</ele><time>2026-04-26T16:14:32Z</time></trkpt><trkpt lat="40.23451116984676" lon="14.963986988799496"><ele>50.5</ele><time>2026-04-26T16:14:33Z</time></trkpt><trkpt lat="40.23444121587019" lon="14.964120307703057"><ele>46.0</ele><time>2026-04-26T16:14:34Z</time></trkpt><trkpt lat="40.23435196720973" lon="14.964236436571655"><ele>46.4</ele><time>2026-04-26T16:14:35Z</time></trkpt><trkpt lat="40.234231019378456" lon="14.964283582656758"><ele>46.8</ele><time>2026-04-26T16:14:36Z</time></trkpt><trkpt lat="40.23412205731243" lon="14.964356565696521"><ele>47.199999999999996</ele><time>2026-04-26T16:14:37Z</time></trkpt><trkpt lat="40.234015554212185" lon="14.964388601335608"><ele>47.599999999999994</ele><time>2026-04-26T16:14:38Z</time></trkpt><trkpt lat="40.23394082427156" lon="14.964425459481024"><ele>48.0</ele><time>2026-04-26T16:14:39Z</time></trkpt><trkpt lat="40.23388795478281" lon="14.96449027658834"><ele>48.0</ele><time>2026-04-26T16:14:40Z</time></trkpt><trkpt lat="40.233863306473474" lon="14.964576062412853"><ele>48.0</ele><time>2026-04-26T16:14:41Z</time></trkpt><trkpt lat="40.23386973262736" lon="14.964676931661552"><ele>48.0</ele><time>2026-04-26T16:14:42Z</time></trkpt><trkpt lat="40.23390932178545" lon="14.964775482093259"><ele>48.0</ele><time>2026-04-26T16:14:43Z</time></trkpt><trkpt lat="40.233957462064225" lon="14.964881747992205"><ele>48.0</ele><time>2026-04-26T16:14:44Z</time></trkpt><trkpt lat="40.233997238924104" lon="14.965000714402956"><ele>48.0</ele><time>2026-04-26T16:14:45Z</time></trkpt><trkpt lat="40.23404282127715" lon="14.965100403301173"><ele>53.0</ele><time>2026-04-26T16:14:46Z</time></trkpt><trkpt lat="40.234040222712345" lon="14.965252306000197"><ele>58.0</ele><time>2026-04-26T16:14:47Z</time></trkpt><trkpt lat="40.23419734513298" lon="14.965186802672742"><ele>63.0</ele><time>2026-04-26T16:14:48Z</time></trkpt><trkpt lat="40.23431388626496" lon="14.965188267186893"><ele>68.0</ele><time>2026-04-26T16:14:49Z</time></trkpt><trkpt lat="40.2344485192909" lon="14.965170968064651"><ele>68.0</ele><time>2026-04-26T16:14:50Z</time></trkpt><trkpt lat="40.23457664986315" lon="14.965138765724856"><ele>68.0</ele><time>2026-04-26T16:14:51Z</time></trkpt><trkpt lat="40.23468928393341" lon="14.96506747731499"><ele>68.0</ele><time>2026-04-26T16:14:52Z</time></trkpt><trkpt lat="40.2348145088377" lon="14.964973090874512"><ele>68.0</ele><time>2026-04-26T16:14:53Z</time></trkpt><trkpt lat="40.23493279425385" lon="14.964881364122197"><ele>61.75</ele><time>2026-04-26T16:14:54Z</time></trkpt><trkpt lat="40.23504459213709" lon="14.964793626347342"><ele>55.5</ele><time>2026-04-26T16:14:55Z</time></trkpt><trkpt lat="40.23515665945058" lon="14.964701512766226"><ele>49.25</ele><time>2026-04-26T16:14:56Z</time></trkpt><trkpt lat="40.23526251059561" lon="14.964603633286755"><ele>43.0</ele><time>2026-04-26T16:14:57Z</time></trkpt><trkpt lat="40.23535946293007" lon="14.964509385098927"><ele>43.0</ele><time>2026-04-26T16:14:58Z</time></trkpt><trkpt lat="40.235453908796536" lon="14.964408625203655"><ele>43.0</ele><time>2026-04-26T16:14:59Z</time></trkpt><trkpt lat="40.23554848841223" lon="14.96430408085345"><ele>43.0</ele><time>2026-04-26T16:15:00Z</time></trkpt><trkpt lat="40.23564700813183" lon="14.96420039571372"><ele>43.0</ele><time>2026-04-26T16:15:01Z</time></trkpt><trkpt lat="40.23574823407657" lon="14.964090545982105"><ele>41.5</ele><time>2026-04-26T16:15:02Z</time></trkpt><trkpt lat="40.2358523774512" lon="14.963978368315903"><ele>40.0</ele><time>2026-04-26T16:15:03Z</time></trkpt><trkpt lat="40.235948845904886" lon="14.96387509522442"><ele>38.5</ele><time>2026-04-26T16:15:04Z</time></trkpt><trkpt lat="40.23603448256741" lon="14.96378131805947"><ele>37.0</ele><time>2026-04-26T16:15:05Z</time></trkpt><trkpt lat="40.23611430846404" lon="14.963706920990912"><ele>37.0</ele><time>2026-04-26T16:15:06Z</time></trkpt><trkpt lat="40.23618500315827" lon="14.963628043295815"><ele>37.0</ele><time>2026-04-26T16:15:07Z</time></trkpt><trkpt lat="40.23625728065179" lon="14.963559521913183"><ele>37.0</ele><time>2026-04-26T16:15:08Z</time></trkpt><trkpt lat="40.23633348900896" lon="14.963505373094486"><ele>37.0</ele><time>2026-04-26T16:15:09Z</time></trkpt><trkpt lat="40.23642289515058" lon="14.963482136055765"><ele>37.0</ele><time>2026-04-26T16:15:10Z</time></trkpt><trkpt lat="40.23649511154525" lon="14.96350603193379"><ele>37.0</ele><time>2026-04-26T16:15:11Z</time></trkpt><trkpt lat="40.23654192702471" lon="14.96357825332421"><ele>36.6</ele><time>2026-04-26T16:15:12Z</time></trkpt><trkpt lat="40.23658921029281" lon="14.963684326479783"><ele>36.2</ele><time>2026-04-26T16:15:13Z</time></trkpt><trkpt lat="40.23664654301101" lon="14.963811025793879"><ele>35.8</ele><time>2026-04-26T16:15:14Z</time></trkpt><trkpt lat="40.23669888718172" lon="14.963951474776747"><ele>35.4</ele><time>2026-04-26T16:15:15Z</time></trkpt><trkpt lat="40.236747659259606" lon="14.964069150133733"><ele>35.0</ele><time>2026-04-26T16:15:16Z</time></trkpt><trkpt lat="40.23679259481242" lon="14.964174326065436"><ele>35.0</ele><time>2026-04-26T16:15:17Z</time></trkpt><trkpt lat="40.236840681991836" lon="14.964270584319117"><ele>35.0</ele><time>2026-04-26T16:15:18Z</time></trkpt><trkpt lat="40.236872875243456" lon="14.96438052931421"><ele>35.0</ele><time>2026-04-26T16:15:19Z</time></trkpt><trkpt lat="40.23691507282444" lon="14.964488137564944"><ele>35.0</ele><time>2026-04-26T16:15:20Z</time></trkpt><trkpt lat="40.23696714175655" lon="14.964618551124651"><ele>35.0</ele><time>2026-04-26T16:15:21Z</time></trkpt><trkpt lat="40.237017978732915" lon="14.964743670880926"><ele>35.0</ele><time>2026-04-26T16:15:22Z</time></trkpt><trkpt lat="40.23706410783579" lon="14.964854564082167"><ele>35.0</ele><time>2026-04-26T16:15:23Z</time></trkpt><trkpt lat="40.23711418514401" lon="14.964959347342555"><ele>35.0</ele><time>2026-04-26T16:15:24Z</time></trkpt><trkpt lat="40.237153254230726" lon="14.965060238826258"><ele>35.0</ele><time>2026-04-26T16:15:25Z</time></trkpt><trkpt lat="40.2371892552555" lon="14.965156592835916"><ele>35.0</ele><time>2026-04-26T16:15:26Z</time></trkpt><trkpt lat="40.23723552440909" lon="14.965229783416955"><ele>35.0</ele><time>2026-04-26T16:15:27Z</time></trkpt><trkpt lat="40.23729477352567" lon="14.965278548319104"><ele>36.0</ele><time>2026-04-26T16:15:28Z</time></trkpt><trkpt lat="40.23741402655537" lon="14.965293107174597"><ele>37.0</ele><time>2026-04-26T16:15:30Z</time></trkpt><trkpt lat="40.23748627310433" lon="14.965300390287673"><ele>38.0</ele><time>2026-04-26T16:15:31Z</time></trkpt><trkpt lat="40.237573112783146" lon="14.965203458725005"><ele>39.0</ele><time>2026-04-26T16:15:32Z</time></trkpt><trkpt lat="40.23765475562788" lon="14.965134153376304"><ele>40.0</ele><time>2026-04-26T16:15:33Z</time></trkpt><trkpt lat="40.237738112371375" lon="14.965059451601052"><ele>39.5</ele><time>2026-04-26T16:15:34Z</time></trkpt><trkpt lat="40.2378337316312" lon="14.96497037890613"><ele>39.0</ele><time>2026-04-26T16:15:35Z</time></trkpt><trkpt lat="40.237945415470314" lon="14.964868911813477"><ele>38.5</ele><time>2026-04-26T16:15:36Z</time></trkpt><trkpt lat="40.23805264284261" lon="14.964750435689595"><ele>38.0</ele><time>2026-04-26T16:15:37Z</time></trkpt><trkpt lat="40.23815365508282" lon="14.964628421181528"><ele>38.0</ele><time>2026-04-26T16:15:38Z</time></trkpt><trkpt lat="40.23825075837195" lon="14.96449750089972"><ele>38.0</ele><time>2026-04-26T16:15:39Z</time></trkpt><trkpt lat="40.23834170646979" lon="14.964378053495013"><ele>38.0</ele><time>2026-04-26T16:15:40Z</time></trkpt><trkpt lat="40.23843749783616" lon="14.96426786599814"><ele>38.0</ele><time>2026-04-26T16:15:41Z</time></trkpt><trkpt lat="40.238541452526555" lon="14.9641705364868"><ele>34.5</ele><time>2026-04-26T16:15:42Z</time></trkpt><trkpt lat="40.238655082837894" lon="14.964105389992328"><ele>31.0</ele><time>2026-04-26T16:15:43Z</time></trkpt><trkpt lat="40.238767249754304" lon="14.96408571586893"><ele>27.5</ele><time>2026-04-26T16:15:44Z</time></trkpt><trkpt lat="40.23887055909863" lon="14.964126808363677"><ele>24.0</ele><time>2026-04-26T16:15:45Z</time></trkpt><trkpt lat="40.23897275875064" lon="14.964177697613142"><ele>28.5</ele><time>2026-04-26T16:15:46Z</time></trkpt><trkpt lat="40.23909220492332" lon="14.964223520982971"><ele>33.0</ele><time>2026-04-26T16:15:47Z</time></trkpt><trkpt lat="40.23921318460069" lon="14.96430996874138"><ele>37.5</ele><time>2026-04-26T16:15:48Z</time></trkpt><trkpt lat="40.23934757199976" lon="14.964404268333718"><ele>42.0</ele><time>2026-04-26T16:15:49Z</time></trkpt><trkpt lat="40.239492398015" lon="14.96450425862581"><ele>42.0</ele><time>2026-04-26T16:15:50Z</time></trkpt><trkpt lat="40.23962055177587" lon="14.96459712930825"><ele>42.0</ele><time>2026-04-26T16:15:51Z</time></trkpt><trkpt lat="40.23972119995228" lon="14.96467019743207"><ele>42.0</ele><time>2026-04-26T16:15:52Z</time></trkpt><trkpt lat="40.239818306667715" lon="14.964718989754793"><ele>42.0</ele><time>2026-04-26T16:15:53Z</time></trkpt><trkpt lat="40.23990761242683" lon="14.964747014483553"><ele>38.800000000000004</ele><time>2026-04-26T16:15:54Z</time></trkpt><trkpt lat="40.24001169026958" lon="14.96466571296952"><ele>35.6</ele><time>2026-04-26T16:15:55Z</time></trkpt><trkpt lat="40.24009670671557" lon="14.964610193004152"><ele>32.400000000000006</ele><time>2026-04-26T16:15:56Z</time></trkpt><trkpt lat="40.24017417777057" lon="14.964550536036707"><ele>29.200000000000003</ele><time>2026-04-26T16:15:57Z</time></trkpt><trkpt lat="40.24025441695827" lon="14.964468302976856"><ele>26.0</ele><time>2026-04-26T16:15:58Z</time></trkpt><trkpt lat="40.24034222343769" lon="14.96437237365939"><ele>26.0</ele><time>2026-04-26T16:15:59Z</time></trkpt><trkpt lat="40.24043536815203" lon="14.964271807756692"><ele>26.0</ele><time>2026-04-26T16:16:00Z</time></trkpt><trkpt lat="40.24054203982394" lon="14.964156041110298"><ele>26.0</ele><time>2026-04-26T16:16:01Z</time></trkpt><trkpt lat="40.24066159854038" lon="14.96401991563661"><ele>26.0</ele><time>2026-04-26T16:16:02Z</time></trkpt><trkpt lat="40.24078172229799" lon="14.963877474616806"><ele>21.666666666666664</ele><time>2026-04-26T16:16:03Z</time></trkpt><trkpt lat="40.24090747247404" lon="14.963727646145573"><ele>17.333333333333332</ele><time>2026-04-26T16:16:04Z</time></trkpt><trkpt lat="40.24103413010427" lon="14.963581878683003"><ele>13.0</ele><time>2026-04-26T16:16:05Z</time></trkpt><trkpt lat="40.2411537230039" lon="14.963440106993108"><ele>13.0</ele><time>2026-04-26T16:16:06Z</time></trkpt><trkpt lat="40.24127194717826" lon="14.963304429797676"><ele>13.0</ele><time>2026-04-26T16:16:07Z</time></trkpt><trkpt lat="40.24138961288029" lon="14.96317203110423"><ele>13.0</ele><time>2026-04-26T16:16:08Z</time></trkpt><trkpt lat="40.24150924878464" lon="14.963042123710066"><ele>13.0</ele><time>2026-04-26T16:16:09Z</time></trkpt><trkpt lat="40.241633160930625" lon="14.96290917870473"><ele>13.0</ele><time>2026-04-26T16:16:10Z</time></trkpt><trkpt lat="40.24175228242859" lon="14.962769771463247"><ele>13.0</ele><time>2026-04-26T16:16:11Z</time></trkpt><trkpt lat="40.241867940241185" lon="14.962640795707806"><ele>12.5</ele><time>2026-04-26T16:16:12Z</time></trkpt><trkpt lat="40.241979765419345" lon="14.962516585045602"><ele>12.0</ele><time>2026-04-26T16:16:13Z</time></trkpt><trkpt lat="40.24208484260956" lon="14.962399055656789"><ele>11.5</ele><time>2026-04-26T16:16:14Z</time></trkpt><trkpt lat="40.2421899241191" lon="14.962281755009087"><ele>11.0</ele><time>2026-04-26T16:16:15Z</time></trkpt><trkpt lat="40.24229460175646" lon="14.962163862786184"><ele>11.0</ele><time>2026-04-26T16:16:16Z</time></trkpt><trkpt lat="40.242398727127245" lon="14.962048823631545"><ele>11.0</ele><time>2026-04-26T16:16:17Z</time></trkpt><trkpt lat="40.24250463099063" lon="14.96192883339729"><ele>11.0</ele><time>2026-04-26T16:16:18Z</time></trkpt><trkpt lat="40.24261086702077" lon="14.961804325280175"><ele>11.0</ele><time>2026-04-26T16:16:19Z</time></trkpt><trkpt lat="40.24271828091235" lon="14.96168516961152"><ele>11.75</ele><time>2026-04-26T16:16:20Z</time></trkpt><trkpt lat="40.24282999408734" lon="14.961570632881234"><ele>12.5</ele><time>2026-04-26T16:16:21Z</time></trkpt><trkpt lat="40.242937887058666" lon="14.961452126190283"><ele>13.25</ele><time>2026-04-26T16:16:22Z</time></trkpt><trkpt lat="40.24304364377977" lon="14.961334867012683"><ele>14.0</ele><time>2026-04-26T16:16:23Z</time></trkpt><trkpt lat="40.24314065547055" lon="14.961224905181295"><ele>14.25</ele><time>2026-04-26T16:16:24Z</time></trkpt><trkpt lat="40.24322835442755" lon="14.961122839777024"><ele>14.5</ele><time>2026-04-26T16:16:25Z</time></trkpt><trkpt lat="40.243317394543254" lon="14.961020240947763"><ele>14.75</ele><time>2026-04-26T16:16:26Z</time></trkpt><trkpt lat="40.243400304494365" lon="14.960914434185286"><ele>15.0</ele><time>2026-04-26T16:16:27Z</time></trkpt><trkpt lat="40.24348879572076" lon="14.960813450431086"><ele>15.5</ele><time>2026-04-26T16:16:28Z</time></trkpt><trkpt lat="40.24357489156994" lon="14.960707415316495"><ele>16.0</ele><time>2026-04-26T16:16:29Z</time></trkpt><trkpt lat="40.24367559135909" lon="14.960593818143003"><ele>16.5</ele><time>2026-04-26T16:16:30Z</time></trkpt><trkpt lat="40.243787329976904" lon="14.960466870718369"><ele>17.0</ele><time>2026-04-26T16:16:31Z</time></trkpt><trkpt lat="40.24391111362696" lon="14.960318160443096"><ele>17.0</ele><time>2026-04-26T16:16:32Z</time></trkpt><trkpt lat="40.244044716398726" lon="14.960166432013422"><ele>17.0</ele><time>2026-04-26T16:16:33Z</time></trkpt><trkpt lat="40.24420190123254" lon="14.960024061045038"><ele>17.0</ele><time>2026-04-26T16:16:34Z</time></trkpt><trkpt lat="40.24436273496416" lon="14.95985970144208"><ele>17.0</ele><time>2026-04-26T16:16:35Z</time></trkpt><trkpt lat="40.24453086225888" lon="14.95969290379146"><ele>17.0</ele><time>2026-04-26T16:16:36Z</time></trkpt><trkpt lat="40.24468291610801" lon="14.959540841783394"><ele>17.0</ele><time>2026-04-26T16:16:37Z</time></trkpt><trkpt lat="40.24482442964688" lon="14.95939909744307"><ele>17.0</ele><time>2026-04-26T16:16:38Z</time></trkpt><trkpt lat="40.24495666832858" lon="14.959266251974473"><ele>17.0</ele><time>2026-04-26T16:16:39Z</time></trkpt><trkpt lat="40.24508191266285" lon="14.959140432919225"><ele>17.0</ele><time>2026-04-26T16:16:40Z</time></trkpt><trkpt lat="40.245200974003" lon="14.959020825263407"><ele>17.5</ele><time>2026-04-26T16:16:41Z</time></trkpt><trkpt lat="40.24531218073783" lon="14.958909108230685"><ele>18.0</ele><time>2026-04-26T16:16:42Z</time></trkpt><trkpt lat="40.2454170697483" lon="14.958803737718162"><ele>18.5</ele><time>2026-04-26T16:16:43Z</time></trkpt><trkpt lat="40.245519735266285" lon="14.958700198443841"><ele>19.0</ele><time>2026-04-26T16:16:44Z</time></trkpt><trkpt lat="40.24562773327476" lon="14.958591399667416"><ele>19.5</ele><time>2026-04-26T16:16:45Z</time></trkpt><trkpt lat="40.2457386846234" lon="14.958479625662687"><ele>20.0</ele><time>2026-04-26T16:16:46Z</time></trkpt><trkpt lat="40.245851133462914" lon="14.958366343063284"><ele>20.5</ele><time>2026-04-26T16:16:47Z</time></trkpt><trkpt lat="40.24596554887347" lon="14.958251079314714"><ele>21.0</ele><time>2026-04-26T16:16:48Z</time></trkpt><trkpt lat="40.246082901489636" lon="14.958133889535791"><ele>21.0</ele><time>2026-04-26T16:16:49Z</time></trkpt><trkpt lat="40.24620872993748" lon="14.958008525781041"><ele>21.0</ele><time>2026-04-26T16:16:50Z</time></trkpt><trkpt lat="40.246329544114964" lon="14.957890110712487"><ele>21.0</ele><time>2026-04-26T16:16:51Z</time></trkpt><trkpt lat="40.24643783783607" lon="14.957742669134047"><ele>21.5</ele><time>2026-04-26T16:16:52Z</time></trkpt><trkpt lat="40.24655979501605" lon="14.957623042977364"><ele>22.0</ele><time>2026-04-26T16:16:53Z</time></trkpt><trkpt lat="40.24667532168868" lon="14.957508770570268"><ele>22.5</ele><time>2026-04-26T16:16:54Z</time></trkpt><trkpt lat="40.246788217376526" lon="14.957393548426449"><ele>23.0</ele><time>2026-04-26T16:16:55Z</time></trkpt><trkpt lat="40.24691512442008" lon="14.957304294124627"><ele>23.0</ele><time>2026-04-26T16:16:56Z</time></trkpt><trkpt lat="40.247025298250975" lon="14.957193557528877"><ele>23.0</ele><time>2026-04-26T16:16:57Z</time></trkpt><trkpt lat="40.2471365612929" lon="14.957083409519717"><ele>23.0</ele><time>2026-04-26T16:16:58Z</time></trkpt><trkpt lat="40.24725099700252" lon="14.956970318994612"><ele>23.0</ele><time>2026-04-26T16:16:59Z</time></trkpt><trkpt lat="40.247371458892836" lon="14.956851273123998"><ele>22.666666666666668</ele><time>2026-04-26T16:17:00Z</time></trkpt><trkpt lat="40.247495173083735" lon="14.956729013199629"><ele>22.333333333333332</ele><time>2026-04-26T16:17:01Z</time></trkpt><trkpt lat="40.24761879040009" lon="14.956606848995945"><ele>22.0</ele><time>2026-04-26T16:17:02Z</time></trkpt><trkpt lat="40.24774692547221" lon="14.95648296732528"><ele>22.0</ele><time>2026-04-26T16:17:03Z</time></trkpt><trkpt lat="40.24788392327195" lon="14.956353111033009"><ele>22.0</ele><time>2026-04-26T16:17:04Z</time></trkpt><trkpt lat="40.24802967661675" lon="14.956209722604713"><ele>22.0</ele><time>2026-04-26T16:17:05Z</time></trkpt><trkpt lat="40.248194075381036" lon="14.956096734807765"><ele>22.0</ele><time>2026-04-26T16:17:06Z</time></trkpt><trkpt lat="40.24836685042277" lon="14.955988659977235"><ele>22.0</ele><time>2026-04-26T16:17:07Z</time></trkpt><trkpt lat="40.24854633000885" lon="14.955885340267745"><ele>22.0</ele><time>2026-04-26T16:17:08Z</time></trkpt><trkpt lat="40.24872410117673" lon="14.955787594292717"><ele>22.0</ele><time>2026-04-26T16:17:09Z</time></trkpt><trkpt lat="40.24888520822176" lon="14.955689542212843"><ele>22.0</ele><time>2026-04-26T16:17:10Z</time></trkpt><trkpt lat="40.249038220949714" lon="14.955600710702404"><ele>22.0</ele><time>2026-04-26T16:17:11Z</time></trkpt><trkpt lat="40.249189821184885" lon="14.95551620187164"><ele>21.666666666666664</ele><time>2026-04-26T16:17:12Z</time></trkpt><trkpt lat="40.24934209678962" lon="14.955435059541582"><ele>21.333333333333332</ele><time>2026-04-26T16:17:13Z</time></trkpt><trkpt lat="40.24949238929915" lon="14.955350887532234"><ele>21.0</ele><time>2026-04-26T16:17:14Z</time></trkpt><trkpt lat="40.249643463706136" lon="14.955268191589578"><ele>20.333333333333332</ele><time>2026-04-26T16:17:15Z</time></trkpt><trkpt lat="40.24979367312567" lon="14.955181638844618"><ele>19.666666666666664</ele><time>2026-04-26T16:17:16Z</time></trkpt><trkpt lat="40.249951307345505" lon="14.955092828482371"><ele>19.0</ele><time>2026-04-26T16:17:17Z</time></trkpt><trkpt lat="40.25011881549305" lon="14.955001281849114"><ele>20.666666666666664</ele><time>2026-04-26T16:17:18Z</time></trkpt><trkpt lat="40.25029067739304" lon="14.954907278273732"><ele>22.333333333333332</ele><time>2026-04-26T16:17:19Z</time></trkpt><trkpt lat="40.25045778784024" lon="14.95481428845391"><ele>24.0</ele><time>2026-04-26T16:17:20Z</time></trkpt><trkpt lat="40.25062288367893" lon="14.95471985948046"><ele>23.333333333333332</ele><time>2026-04-26T16:17:21Z</time></trkpt><trkpt lat="40.25078588825443" lon="14.954625759327152"><ele>22.666666666666664</ele><time>2026-04-26T16:17:22Z</time></trkpt><trkpt lat="40.25093796206028" lon="14.954541448519057"><ele>22.0</ele><time>2026-04-26T16:17:23Z</time></trkpt><trkpt lat="40.25108313034637" lon="14.954462114851454"><ele>22.0</ele><time>2026-04-26T16:17:24Z</time></trkpt><trkpt lat="40.2512252818862" lon="14.954383947180881"><ele>22.0</ele><time>2026-04-26T16:17:25Z</time></trkpt><trkpt lat="40.25137538119257" lon="14.95430030102897"><ele>22.0</ele><time>2026-04-26T16:17:26Z</time></trkpt><trkpt lat="40.25154066514031" lon="14.954203037978978"><ele>23.0</ele><time>2026-04-26T16:17:27Z</time></trkpt><trkpt lat="40.25171651010076" lon="14.954089783289923"><ele>24.0</ele><time>2026-04-26T16:17:28Z</time></trkpt><trkpt lat="40.251894507323854" lon="14.953952179289425"><ele>25.0</ele><time>2026-04-26T16:17:29Z</time></trkpt><trkpt lat="40.25205390771609" lon="14.95381744067689"><ele>25.0</ele><time>2026-04-26T16:17:30Z</time></trkpt><trkpt lat="40.25219900738925" lon="14.95369108236283"><ele>25.0</ele><time>2026-04-26T16:17:31Z</time></trkpt><trkpt lat="40.25233636898553" lon="14.953573158109856"><ele>25.0</ele><time>2026-04-26T16:17:32Z</time></trkpt><trkpt lat="40.25245814748369" lon="14.95347068546748"><ele>25.0</ele><time>2026-04-26T16:17:33Z</time></trkpt><trkpt lat="40.25256807770018" lon="14.953372309595828"><ele>25.0</ele><time>2026-04-26T16:17:34Z</time></trkpt><trkpt lat="40.25268955511758" lon="14.953262587051901"><ele>25.0</ele><time>2026-04-26T16:17:35Z</time></trkpt><trkpt lat="40.25281376431162" lon="14.953146169507054"><ele>25.0</ele><time>2026-04-26T16:17:36Z</time></trkpt><trkpt lat="40.25294608063558" lon="14.953031102217906"><ele>25.0</ele><time>2026-04-26T16:17:37Z</time></trkpt><trkpt lat="40.253083852326505" lon="14.952918159914043"><ele>25.0</ele><time>2026-04-26T16:17:38Z</time></trkpt><trkpt lat="40.253213029758236" lon="14.952806355659671"><ele>25.0</ele><time>2026-04-26T16:17:39Z</time></trkpt><trkpt lat="40.25333487497927" lon="14.952693927330415"><ele>26.0</ele><time>2026-04-26T16:17:40Z</time></trkpt><trkpt lat="40.25345575076698" lon="14.952565610621571"><ele>27.0</ele><time>2026-04-26T16:17:41Z</time></trkpt><trkpt lat="40.25357354386908" lon="14.952417812633625"><ele>28.0</ele><time>2026-04-26T16:17:42Z</time></trkpt><trkpt lat="40.2536936489289" lon="14.952263866143895"><ele>28.333333333333336</ele><time>2026-04-26T16:17:43Z</time></trkpt><trkpt lat="40.25381288053398" lon="14.952115892260178"><ele>28.666666666666664</ele><time>2026-04-26T16:17:44Z</time></trkpt><trkpt lat="40.2539302156073" lon="14.95196722391505"><ele>29.0</ele><time>2026-04-26T16:17:45Z</time></trkpt><trkpt lat="40.254043112367725" lon="14.951820643042058"><ele>28.666666666666664</ele><time>2026-04-26T16:17:46Z</time></trkpt><trkpt lat="40.25415928422723" lon="14.951687219811658"><ele>28.333333333333336</ele><time>2026-04-26T16:17:47Z</time></trkpt><trkpt lat="40.25428156909356" lon="14.951550912862126"><ele>28.0</ele><time>2026-04-26T16:17:48Z</time></trkpt><trkpt lat="40.25441239864845" lon="14.951426121037924"><ele>28.0</ele><time>2026-04-26T16:17:49Z</time></trkpt><trkpt lat="40.25455030357385" lon="14.951312511394427"><ele>28.0</ele><time>2026-04-26T16:17:50Z</time></trkpt><trkpt lat="40.254702812533615" lon="14.951203859763691"><ele>28.0</ele><time>2026-04-26T16:17:51Z</time></trkpt><trkpt lat="40.254872267526906" lon="14.951117048530348"><ele>27.333333333333336</ele><time>2026-04-26T16:17:52Z</time></trkpt><trkpt lat="40.25501593706046" lon="14.950993277696247"><ele>26.666666666666664</ele><time>2026-04-26T16:17:53Z</time></trkpt><trkpt lat="40.25515798172754" lon="14.950899638665412"><ele>26.0</ele><time>2026-04-26T16:17:54Z</time></trkpt><trkpt lat="40.25529196730184" lon="14.950808710906129"><ele>27.333333333333332</ele><time>2026-04-26T16:17:55Z</time></trkpt><trkpt lat="40.25542732011734" lon="14.950717222312456"><ele>28.666666666666664</ele><time>2026-04-26T16:17:56Z</time></trkpt><trkpt lat="40.25556376335412" lon="14.950625637114957"><ele>30.0</ele><time>2026-04-26T16:17:57Z</time></trkpt><trkpt lat="40.255704826994275" lon="14.950537384484331"><ele>30.0</ele><time>2026-04-26T16:17:58Z</time></trkpt><trkpt lat="40.25585061126452" lon="14.950463631301773"><ele>30.0</ele><time>2026-04-26T16:17:59Z</time></trkpt><trkpt lat="40.25600352865262" lon="14.950410859999112"><ele>30.0</ele><time>2026-04-26T16:18:00Z</time></trkpt><trkpt lat="40.256163011602915" lon="14.950376814409944"><ele>30.0</ele><time>2026-04-26T16:18:01Z</time></trkpt><trkpt lat="40.256324582518936" lon="14.950357427054296"><ele>30.0</ele><time>2026-04-26T16:18:02Z</time></trkpt><trkpt lat="40.2564841751589" lon="14.950340331488805"><ele>30.0</ele><time>2026-04-26T16:18:03Z</time></trkpt><trkpt lat="40.256644436335705" lon="14.95032420727748"><ele>31.333333333333336</ele><time>2026-04-26T16:18:04Z</time></trkpt><trkpt lat="40.256803470842534" lon="14.95029724163022"><ele>32.66666666666667</ele><time>2026-04-26T16:18:05Z</time></trkpt><trkpt lat="40.25696301547126" lon="14.950251201844917"><ele>34.0</ele><time>2026-04-26T16:18:06Z</time></trkpt><trkpt lat="40.257123090354874" lon="14.95017723116739"><ele>33.66666666666667</ele><time>2026-04-26T16:18:07Z</time></trkpt><trkpt lat="40.25728601621511" lon="14.950078175582192"><ele>33.333333333333336</ele><time>2026-04-26T16:18:08Z</time></trkpt><trkpt lat="40.25744351384336" lon="14.949965598602159"><ele>33.0</ele><time>2026-04-26T16:18:09Z</time></trkpt><trkpt lat="40.2575870270756" lon="14.94983655177584"><ele>33.666666666666664</ele><time>2026-04-26T16:18:10Z</time></trkpt><trkpt lat="40.25772585319514" lon="14.949707633814354"><ele>34.33333333333333</ele><time>2026-04-26T16:18:11Z</time></trkpt><trkpt lat="40.257867463983864" lon="14.949575447369948"><ele>35.0</ele><time>2026-04-26T16:18:12Z</time></trkpt><trkpt lat="40.25801245681409" lon="14.9494443863444"><ele>35.0</ele><time>2026-04-26T16:18:13Z</time></trkpt><trkpt lat="40.2581586476366" lon="14.949313593452155"><ele>35.0</ele><time>2026-04-26T16:18:14Z</time></trkpt><trkpt lat="40.25830145440954" lon="14.94918357001371"><ele>35.0</ele><time>2026-04-26T16:18:15Z</time></trkpt><trkpt lat="40.25844624637603" lon="14.949052660411414"><ele>35.666666666666664</ele><time>2026-04-26T16:18:16Z</time></trkpt><trkpt lat="40.2585901907427" lon="14.948916743148821"><ele>36.333333333333336</ele><time>2026-04-26T16:18:17Z</time></trkpt><trkpt lat="40.25873774293979" lon="14.948780983276976"><ele>37.0</ele><time>2026-04-26T16:18:18Z</time></trkpt><trkpt lat="40.25888507739815" lon="14.948645233992664"><ele>37.333333333333336</ele><time>2026-04-26T16:18:19Z</time></trkpt><trkpt lat="40.25902996982127" lon="14.948508344907118"><ele>37.666666666666664</ele><time>2026-04-26T16:18:20Z</time></trkpt><trkpt lat="40.25917672040271" lon="14.948371090626752"><ele>38.0</ele><time>2026-04-26T16:18:21Z</time></trkpt><trkpt lat="40.259322865465975" lon="14.948239032983453"><ele>38.0</ele><time>2026-04-26T16:18:22Z</time></trkpt><trkpt lat="40.25946916473053" lon="14.948106747328643"><ele>38.0</ele><time>2026-04-26T16:18:23Z</time></trkpt><trkpt lat="40.25961739628577" lon="14.947970237205565"><ele>38.0</ele><time>2026-04-26T16:18:24Z</time></trkpt><trkpt lat="40.259756422462715" lon="14.947841854184754"><ele>37.666666666666664</ele><time>2026-04-26T16:18:25Z</time></trkpt><trkpt lat="40.25989433516394" lon="14.947713924833769"><ele>37.333333333333336</ele><time>2026-04-26T16:18:26Z</time></trkpt><trkpt lat="40.260035437821976" lon="14.947586445105589"><ele>37.0</ele><time>2026-04-26T16:18:27Z</time></trkpt><trkpt lat="40.26016580244362" lon="14.94746713377796"><ele>37.0</ele><time>2026-04-26T16:18:28Z</time></trkpt><trkpt lat="40.2602910433351" lon="14.947355011259782"><ele>37.0</ele><time>2026-04-26T16:18:29Z</time></trkpt><trkpt lat="40.260407605293985" lon="14.947246448875184"><ele>37.0</ele><time>2026-04-26T16:18:30Z</time></trkpt><trkpt lat="40.26051981696049" lon="14.947141942340748"><ele>37.0</ele><time>2026-04-26T16:18:31Z</time></trkpt><trkpt lat="40.26063174368158" lon="14.947037572410357"><ele>37.0</ele><time>2026-04-26T16:18:32Z</time></trkpt><trkpt lat="40.26075268910455" lon="14.946921480029719"><ele>37.0</ele><time>2026-04-26T16:18:33Z</time></trkpt><trkpt lat="40.2608837891544" lon="14.946799166191381"><ele>37.0</ele><time>2026-04-26T16:18:34Z</time></trkpt><trkpt lat="40.261021083263614" lon="14.946672103209245"><ele>38.0</ele><time>2026-04-26T16:18:35Z</time></trkpt><trkpt lat="40.26116392546088" lon="14.946536671102162"><ele>39.0</ele><time>2026-04-26T16:18:36Z</time></trkpt><trkpt lat="40.2613073776192" lon="14.946401883285938"><ele>40.0</ele><time>2026-04-26T16:18:37Z</time></trkpt><trkpt lat="40.26144831176103" lon="14.946273668693642"><ele>40.66666666666667</ele><time>2026-04-26T16:18:38Z</time></trkpt><trkpt lat="40.26158227017284" lon="14.946147911832352"><ele>41.333333333333336</ele><time>2026-04-26T16:18:39Z</time></trkpt><trkpt lat="40.26171763672367" lon="14.946026953134165"><ele>42.0</ele><time>2026-04-26T16:18:40Z</time></trkpt><trkpt lat="40.26184777222151" lon="14.945907037622812"><ele>42.0</ele><time>2026-04-26T16:18:41Z</time></trkpt><trkpt lat="40.261978910686295" lon="14.945793923376538"><ele>42.0</ele><time>2026-04-26T16:18:42Z</time></trkpt><trkpt lat="40.26210390041845" lon="14.945685847874568"><ele>42.0</ele><time>2026-04-26T16:18:43Z</time></trkpt><trkpt lat="40.262221403827766" lon="14.945590162282482"><ele>42.0</ele><time>2026-04-26T16:18:44Z</time></trkpt><trkpt lat="40.26233780058693" lon="14.945505370443419"><ele>42.0</ele><time>2026-04-26T16:18:45Z</time></trkpt><trkpt lat="40.2624544791402" lon="14.945424773309451"><ele>42.0</ele><time>2026-04-26T16:18:46Z</time></trkpt><trkpt lat="40.262572619533096" lon="14.945364572040107"><ele>42.0</ele><time>2026-04-26T16:18:47Z</time></trkpt><trkpt lat="40.26269404756167" lon="14.9453226414768"><ele>42.0</ele><time>2026-04-26T16:18:48Z</time></trkpt><trkpt lat="40.262820623664474" lon="14.945292456668852"><ele>42.0</ele><time>2026-04-26T16:18:49Z</time></trkpt><trkpt lat="40.26294899315097" lon="14.945267229660388"><ele>42.0</ele><time>2026-04-26T16:18:50Z</time></trkpt><trkpt lat="40.26308408548809" lon="14.945246394452555"><ele>42.0</ele><time>2026-04-26T16:18:51Z</time></trkpt><trkpt lat="40.26322123891557" lon="14.945222354326669"><ele>42.0</ele><time>2026-04-26T16:18:52Z</time></trkpt><trkpt lat="40.26336192697738" lon="14.945195533954386"><ele>42.0</ele><time>2026-04-26T16:18:53Z</time></trkpt><trkpt lat="40.26350381415959" lon="14.945171725395284"><ele>42.0</ele><time>2026-04-26T16:18:54Z</time></trkpt><trkpt lat="40.26365356254522" lon="14.94516479605703"><ele>42.0</ele><time>2026-04-26T16:18:55Z</time></trkpt><trkpt lat="40.26380244478892" lon="14.945121354469048"><ele>42.0</ele><time>2026-04-26T16:18:56Z</time></trkpt><trkpt lat="40.263950330559716" lon="14.945112117935588"><ele>41.0</ele><time>2026-04-26T16:18:57Z</time></trkpt><trkpt lat="40.264113112831865" lon="14.945088070764205"><ele>40.0</ele><time>2026-04-26T16:18:58Z</time></trkpt><trkpt lat="40.26426563278141" lon="14.945061637033465"><ele>39.0</ele><time>2026-04-26T16:18:59Z</time></trkpt><trkpt lat="40.26442243044166" lon="14.945037801879108"><ele>39.0</ele><time>2026-04-26T16:19:00Z</time></trkpt><trkpt lat="40.26457847502496" lon="14.94500850374071"><ele>39.0</ele><time>2026-04-26T16:19:01Z</time></trkpt><trkpt lat="40.264735498790166" lon="14.944983238530925"><ele>39.0</ele><time>2026-04-26T16:19:02Z</time></trkpt><trkpt lat="40.26489166901472" lon="14.944961766661585"><ele>38.333333333333336</ele><time>2026-04-26T16:19:03Z</time></trkpt><trkpt lat="40.26504896736731" lon="14.944937346863833"><ele>37.66666666666667</ele><time>2026-04-26T16:19:04Z</time></trkpt><trkpt lat="40.26521052744492" lon="14.94491101183251"><ele>37.0</ele><time>2026-04-26T16:19:05Z</time></trkpt><trkpt lat="40.26536938180462" lon="14.944879533263443"><ele>37.0</ele><time>2026-04-26T16:19:06Z</time></trkpt><trkpt lat="40.26551788966266" lon="14.944848935205314"><ele>37.0</ele><time>2026-04-26T16:19:07Z</time></trkpt><trkpt lat="40.26567054517082" lon="14.94482591788882"><ele>37.0</ele><time>2026-04-26T16:19:08Z</time></trkpt><trkpt lat="40.2658246783339" lon="14.944799887384036"><ele>36.66666666666667</ele><time>2026-04-26T16:19:09Z</time></trkpt><trkpt lat="40.265981599170566" lon="14.944777008123745"><ele>36.333333333333336</ele><time>2026-04-26T16:19:10Z</time></trkpt><trkpt lat="40.26614400532053" lon="14.944750664825378"><ele>36.0</ele><time>2026-04-26T16:19:11Z</time></trkpt><trkpt lat="40.26630146456487" lon="14.944724509243889"><ele>36.25</ele><time>2026-04-26T16:19:12Z</time></trkpt><trkpt lat="40.26644934228666" lon="14.944701998487087"><ele>36.5</ele><time>2026-04-26T16:19:13Z</time></trkpt><trkpt lat="40.26659138355812" lon="14.94467815518262"><ele>36.75</ele><time>2026-04-26T16:19:14Z</time></trkpt><trkpt lat="40.266727813226865" lon="14.9446522314796"><ele>37.0</ele><time>2026-04-26T16:19:15Z</time></trkpt><trkpt lat="40.2668580166316" lon="14.944630630013288"><ele>37.0</ele><time>2026-04-26T16:19:16Z</time></trkpt><trkpt lat="40.26698202698868" lon="14.944612016011769"><ele>37.0</ele><time>2026-04-26T16:19:17Z</time></trkpt><trkpt lat="40.267087359420536" lon="14.944594020663406"><ele>37.0</ele><time>2026-04-26T16:19:18Z</time></trkpt><trkpt lat="40.2671674217236" lon="14.944583615626762"><ele>37.0</ele><time>2026-04-26T16:19:19Z</time></trkpt><trkpt lat="40.26724506665411" lon="14.944573435488808"><ele>37.0</ele><time>2026-04-26T16:19:20Z</time></trkpt><trkpt lat="40.26731896878414" lon="14.944557792939467"><ele>37.16666666666667</ele><time>2026-04-26T16:19:21Z</time></trkpt><trkpt lat="40.26738727763116" lon="14.944542446134427"><ele>37.333333333333336</ele><time>2026-04-26T16:19:22Z</time></trkpt><trkpt lat="40.26745440536968" lon="14.944536477958188"><ele>37.5</ele><time>2026-04-26T16:19:23Z</time></trkpt><trkpt lat="40.267581939396564" lon="14.944525108037428"><ele>37.666666666666664</ele><time>2026-04-26T16:19:25Z</time></trkpt><trkpt lat="40.26765498186676" lon="14.944508948046382"><ele>37.83333333333333</ele><time>2026-04-26T16:19:26Z</time></trkpt><trkpt lat="40.267741005254" lon="14.944489372426846"><ele>38.0</ele><time>2026-04-26T16:19:27Z</time></trkpt><trkpt lat="40.2678096494281" lon="14.944476788770316"><ele>38.0</ele><time>2026-04-26T16:19:28Z</time></trkpt><trkpt lat="40.26791767104764" lon="14.944465373674664"><ele>38.0</ele><time>2026-04-26T16:19:30Z</time></trkpt><trkpt lat="40.26801881020798" lon="14.944445884449634"><ele>38.0</ele><time>2026-04-26T16:19:32Z</time></trkpt><trkpt lat="40.26812715459651" lon="14.944419920844005"><ele>38.0</ele><time>2026-04-26T16:19:34Z</time></trkpt><trkpt lat="40.26818934335326" lon="14.944401911176593"><ele>38.0</ele><time>2026-04-26T16:19:35Z</time></trkpt><trkpt lat="40.26825558552311" lon="14.944387825926988"><ele>38.0</ele><time>2026-04-26T16:19:36Z</time></trkpt><trkpt lat="40.26832494772792" lon="14.944370713108519"><ele>38.0</ele><time>2026-04-26T16:19:37Z</time></trkpt><trkpt lat="40.26839743137241" lon="14.944342217536388"><ele>38.0</ele><time>2026-04-26T16:19:38Z</time></trkpt><trkpt lat="40.268461071723635" lon="14.944315099445754"><ele>38.0</ele><time>2026-04-26T16:19:39Z</time></trkpt><trkpt lat="40.26853463873146" lon="14.94428412246181"><ele>38.0</ele><time>2026-04-26T16:19:41Z</time></trkpt><trkpt lat="40.268621184023324" lon="14.944279032676606"><ele>38.0</ele><time>2026-04-26T16:19:44Z</time></trkpt><trkpt lat="40.26874521228088" lon="14.944282120428875"><ele>38.0</ele><time>2026-04-26T16:19:46Z</time></trkpt><trkpt lat="40.2688130816091" lon="14.944274490038325"><ele>38.0</ele><time>2026-04-26T16:19:47Z</time></trkpt><trkpt lat="40.2688927660014" lon="14.944249100228463"><ele>38.0</ele><time>2026-04-26T16:19:48Z</time></trkpt><trkpt lat="40.268985696112054" lon="14.944225575518553"><ele>38.0</ele><time>2026-04-26T16:19:49Z</time></trkpt><trkpt lat="40.26909176128273" lon="14.944203761080859"><ele>38.0</ele><time>2026-04-26T16:19:50Z</time></trkpt><trkpt lat="40.269223823485575" lon="14.944175728885204"><ele>36.33333333333333</ele><time>2026-04-26T16:19:51Z</time></trkpt><trkpt lat="40.269378808310705" lon="14.94416728139897"><ele>34.666666666666664</ele><time>2026-04-26T16:19:52Z</time></trkpt><trkpt lat="40.26954567368322" lon="14.944135176053647"><ele>33.0</ele><time>2026-04-26T16:19:53Z</time></trkpt><trkpt lat="40.26972077531724" lon="14.944101486037303"><ele>33.0</ele><time>2026-04-26T16:19:54Z</time></trkpt><trkpt lat="40.26990701874065" lon="14.944065652316068"><ele>33.0</ele><time>2026-04-26T16:19:55Z</time></trkpt><trkpt lat="40.27011019254973" lon="14.944026561134821"><ele>33.0</ele><time>2026-04-26T16:19:56Z</time></trkpt><trkpt lat="40.27031404183743" lon="14.943986996165773"><ele>33.0</ele><time>2026-04-26T16:19:57Z</time></trkpt><trkpt lat="40.270538265906154" lon="14.94394340786711"><ele>33.0</ele><time>2026-04-26T16:19:58Z</time></trkpt><trkpt lat="40.27074218159002" lon="14.943903669671332"><ele>33.0</ele><time>2026-04-26T16:19:59Z</time></trkpt><trkpt lat="40.27093574139144" lon="14.943866039280769"><ele>36.666666666666664</ele><time>2026-04-26T16:20:00Z</time></trkpt><trkpt lat="40.271113463708645" lon="14.943832147352111"><ele>40.33333333333333</ele><time>2026-04-26T16:20:01Z</time></trkpt><trkpt lat="40.27128539156356" lon="14.943779821162677"><ele>44.0</ele><time>2026-04-26T16:20:02Z</time></trkpt><trkpt lat="40.27144404847875" lon="14.943763860179464"><ele>45.0</ele><time>2026-04-26T16:20:03Z</time></trkpt><trkpt lat="40.271600471643666" lon="14.943767336101821"><ele>46.0</ele><time>2026-04-26T16:20:04Z</time></trkpt><trkpt lat="40.27174496304177" lon="14.943832626467481"><ele>47.0</ele><time>2026-04-26T16:20:05Z</time></trkpt><trkpt lat="40.2719035008274" lon="14.943922117490246"><ele>47.0</ele><time>2026-04-26T16:20:06Z</time></trkpt><trkpt lat="40.27207805700609" lon="14.944010388759342"><ele>47.0</ele><time>2026-04-26T16:20:07Z</time></trkpt><trkpt lat="40.272242679334234" lon="14.944105758671359"><ele>47.0</ele><time>2026-04-26T16:20:08Z</time></trkpt><trkpt lat="40.27239967637912" lon="14.944182454204826"><ele>52.25</ele><time>2026-04-26T16:20:09Z</time></trkpt><trkpt lat="40.27254748863723" lon="14.944234522254332"><ele>57.5</ele><time>2026-04-26T16:20:10Z</time></trkpt><trkpt lat="40.27269405800577" lon="14.944274354163653"><ele>62.75</ele><time>2026-04-26T16:20:11Z</time></trkpt><trkpt lat="40.27283528130024" lon="14.94430289983284"><ele>68.0</ele><time>2026-04-26T16:20:12Z</time></trkpt><trkpt lat="40.27297686577042" lon="14.944317458310868"><ele>68.0</ele><time>2026-04-26T16:20:13Z</time></trkpt><trkpt lat="40.27312268690819" lon="14.944325836108465"><ele>68.0</ele><time>2026-04-26T16:20:14Z</time></trkpt><trkpt lat="40.27326796003769" lon="14.944340811865093"><ele>68.0</ele><time>2026-04-26T16:20:15Z</time></trkpt><trkpt lat="40.27340809137372" lon="14.944352255357362"><ele>68.0</ele><time>2026-04-26T16:20:16Z</time></trkpt><trkpt lat="40.2735432851532" lon="14.944362262790595"><ele>68.0</ele><time>2026-04-26T16:20:17Z</time></trkpt><trkpt lat="40.27367956228319" lon="14.944381985465748"><ele>68.0</ele><time>2026-04-26T16:20:18Z</time></trkpt><trkpt lat="40.27381784954879" lon="14.94439711209262"><ele>68.0</ele><time>2026-04-26T16:20:19Z</time></trkpt><trkpt lat="40.27395997676583" lon="14.944415017295333"><ele>68.0</ele><time>2026-04-26T16:20:20Z</time></trkpt><trkpt lat="40.27409464668463" lon="14.944438992818817"><ele>65.5</ele><time>2026-04-26T16:20:21Z</time></trkpt><trkpt lat="40.27422429480408" lon="14.944471676053173"><ele>63.0</ele><time>2026-04-26T16:20:22Z</time></trkpt><trkpt lat="40.27434757782502" lon="14.94451710285842"><ele>60.5</ele><time>2026-04-26T16:20:23Z</time></trkpt><trkpt lat="40.27447117754382" lon="14.944587338252418"><ele>58.0</ele><time>2026-04-26T16:20:24Z</time></trkpt><trkpt lat="40.274590578883625" lon="14.944672907889435"><ele>58.0</ele><time>2026-04-26T16:20:25Z</time></trkpt><trkpt lat="40.27469724169696" lon="14.944774871718204"><ele>58.0</ele><time>2026-04-26T16:20:26Z</time></trkpt><trkpt lat="40.27477988122053" lon="14.944864863152194"><ele>58.0</ele><time>2026-04-26T16:20:27Z</time></trkpt><trkpt lat="40.27485867478234" lon="14.944963780566669"><ele>58.0</ele><time>2026-04-26T16:20:28Z</time></trkpt><trkpt lat="40.274936432798725" lon="14.945054525750455"><ele>56.4</ele><time>2026-04-26T16:20:29Z</time></trkpt><trkpt lat="40.275021668037105" lon="14.945139469560871"><ele>54.8</ele><time>2026-04-26T16:20:30Z</time></trkpt><trkpt lat="40.27510351570679" lon="14.945216595268219"><ele>53.2</ele><time>2026-04-26T16:20:31Z</time></trkpt><trkpt lat="40.2751872717819" lon="14.945300087034488"><ele>51.6</ele><time>2026-04-26T16:20:32Z</time></trkpt><trkpt lat="40.27527331869365" lon="14.945384696040485"><ele>50.0</ele><time>2026-04-26T16:20:33Z</time></trkpt><trkpt lat="40.27535865764723" lon="14.945473116452657"><ele>50.0</ele><time>2026-04-26T16:20:34Z</time></trkpt><trkpt lat="40.275444714036375" lon="14.945556373911343"><ele>50.0</ele><time>2026-04-26T16:20:35Z</time></trkpt><trkpt lat="40.27554213945743" lon="14.945656172793367"><ele>50.0</ele><time>2026-04-26T16:20:36Z</time></trkpt><trkpt lat="40.27565074077313" lon="14.945752469154339"><ele>50.0</ele><time>2026-04-26T16:20:37Z</time></trkpt><trkpt lat="40.27576754126426" lon="14.945834213971283"><ele>53.75</ele><time>2026-04-26T16:20:38Z</time></trkpt><trkpt lat="40.27589048043382" lon="14.945901090756967"><ele>57.5</ele><time>2026-04-26T16:20:39Z</time></trkpt><trkpt lat="40.27601793743557" lon="14.945960352391017"><ele>61.25</ele><time>2026-04-26T16:20:40Z</time></trkpt><trkpt lat="40.27615308255546" lon="14.946006687186005"><ele>65.0</ele><time>2026-04-26T16:20:41Z</time></trkpt><trkpt lat="40.276294689093596" lon="14.946034673882634"><ele>64.25</ele><time>2026-04-26T16:20:42Z</time></trkpt><trkpt lat="40.2764450145683" lon="14.946058663382262"><ele>63.5</ele><time>2026-04-26T16:20:43Z</time></trkpt><trkpt lat="40.276584521763326" lon="14.946058010928462"><ele>62.75</ele><time>2026-04-26T16:20:44Z</time></trkpt><trkpt lat="40.27671718801615" lon="14.946044863208817"><ele>62.0</ele><time>2026-04-26T16:20:45Z</time></trkpt><trkpt lat="40.276852016943664" lon="14.94602929379866"><ele>62.0</ele><time>2026-04-26T16:20:46Z</time></trkpt><trkpt lat="40.276982642759336" lon="14.94600397331777"><ele>62.0</ele><time>2026-04-26T16:20:47Z</time></trkpt><trkpt lat="40.27711042507989" lon="14.94595864770942"><ele>62.0</ele><time>2026-04-26T16:20:48Z</time></trkpt><trkpt lat="40.27723584384472" lon="14.945935106525848"><ele>62.0</ele><time>2026-04-26T16:20:49Z</time></trkpt><trkpt lat="40.277365586377975" lon="14.945924476439192"><ele>62.25</ele><time>2026-04-26T16:20:50Z</time></trkpt><trkpt lat="40.277494967637814" lon="14.945928333191809"><ele>62.5</ele><time>2026-04-26T16:20:51Z</time></trkpt><trkpt lat="40.27762988379162" lon="14.945924851570656"><ele>62.75</ele><time>2026-04-26T16:20:52Z</time></trkpt><trkpt lat="40.27776234478426" lon="14.945916454939193"><ele>63.0</ele><time>2026-04-26T16:20:53Z</time></trkpt><trkpt lat="40.27788426824013" lon="14.945916599225788"><ele>63.0</ele><time>2026-04-26T16:20:54Z</time></trkpt><trkpt lat="40.278004633176465" lon="14.94591298129304"><ele>63.0</ele><time>2026-04-26T16:20:55Z</time></trkpt><trkpt lat="40.278122681316866" lon="14.945908860290471"><ele>63.0</ele><time>2026-04-26T16:20:56Z</time></trkpt><trkpt lat="40.27824181161638" lon="14.945904740653306"><ele>63.0</ele><time>2026-04-26T16:20:57Z</time></trkpt><trkpt lat="40.278362057595764" lon="14.945907255652779"><ele>62.5</ele><time>2026-04-26T16:20:58Z</time></trkpt><trkpt lat="40.27848566719117" lon="14.945913161872046"><ele>62.0</ele><time>2026-04-26T16:20:59Z</time></trkpt><trkpt lat="40.278622171851055" lon="14.9459253909579"><ele>61.5</ele><time>2026-04-26T16:21:00Z</time></trkpt><trkpt lat="40.27877529748484" lon="14.945960175620558"><ele>61.0</ele><time>2026-04-26T16:21:01Z</time></trkpt><trkpt lat="40.27894105711125" lon="14.945990233541497"><ele>57.666666666666664</ele><time>2026-04-26T16:21:02Z</time></trkpt><trkpt lat="40.27910898490995" lon="14.946022626272132"><ele>54.33333333333333</ele><time>2026-04-26T16:21:03Z</time></trkpt><trkpt lat="40.27928026107397" lon="14.946057930655874"><ele>51.0</ele><time>2026-04-26T16:21:04Z</time></trkpt><trkpt lat="40.279442450315905" lon="14.946085108759773"><ele>51.0</ele><time>2026-04-26T16:21:05Z</time></trkpt><trkpt lat="40.27959623208672" lon="14.946116883141512"><ele>51.0</ele><time>2026-04-26T16:21:06Z</time></trkpt><trkpt lat="40.27974025694111" lon="14.946137852469102"><ele>51.0</ele><time>2026-04-26T16:21:07Z</time></trkpt><trkpt lat="40.2798740458804" lon="14.946163539111545"><ele>51.0</ele><time>2026-04-26T16:21:08Z</time></trkpt><trkpt lat="40.28000347643192" lon="14.946192924274781"><ele>51.0</ele><time>2026-04-26T16:21:09Z</time></trkpt><trkpt lat="40.28013436365417" lon="14.94622122677736"><ele>51.0</ele><time>2026-04-26T16:21:10Z</time></trkpt><trkpt lat="40.28026121502264" lon="14.946263519255888"><ele>51.0</ele><time>2026-04-26T16:21:11Z</time></trkpt><trkpt lat="40.28040177470343" lon="14.946324098828468"><ele>51.0</ele><time>2026-04-26T16:21:12Z</time></trkpt><trkpt lat="40.28055123388095" lon="14.946394946941666"><ele>48.666666666666664</ele><time>2026-04-26T16:21:13Z</time></trkpt><trkpt lat="40.28070556004184" lon="14.94647391042262"><ele>46.33333333333333</ele><time>2026-04-26T16:21:14Z</time></trkpt><trkpt lat="40.280863473228194" lon="14.946556947509732"><ele>44.0</ele><time>2026-04-26T16:21:15Z</time></trkpt><trkpt lat="40.281006608741336" lon="14.946626653519079"><ele>44.0</ele><time>2026-04-26T16:21:16Z</time></trkpt><trkpt lat="40.28113716659908" lon="14.946695504412238"><ele>44.0</ele><time>2026-04-26T16:21:17Z</time></trkpt><trkpt lat="40.28125811955295" lon="14.946762930499844"><ele>44.0</ele><time>2026-04-26T16:21:18Z</time></trkpt><trkpt lat="40.281375074055916" lon="14.946820697158202"><ele>44.0</ele><time>2026-04-26T16:21:19Z</time></trkpt><trkpt lat="40.28149061625922" lon="14.946894140228821"><ele>50.666666666666664</ele><time>2026-04-26T16:21:20Z</time></trkpt><trkpt lat="40.28161262085947" lon="14.946983548783951"><ele>57.33333333333333</ele><time>2026-04-26T16:21:21Z</time></trkpt><trkpt lat="40.28173557558164" lon="14.947106346251212"><ele>64.0</ele><time>2026-04-26T16:21:22Z</time></trkpt><trkpt lat="40.28185953406789" lon="14.947244639402825"><ele>64.0</ele><time>2026-04-26T16:21:23Z</time></trkpt><trkpt lat="40.28197662428542" lon="14.947389930197744"><ele>64.0</ele><time>2026-04-26T16:21:24Z</time></trkpt><trkpt lat="40.28208535200292" lon="14.947541949754061"><ele>64.0</ele><time>2026-04-26T16:21:25Z</time></trkpt><trkpt lat="40.282221350610286" lon="14.947662985038217"><ele>69.33333333333333</ele><time>2026-04-26T16:21:26Z</time></trkpt><trkpt lat="40.282357331247994" lon="14.947768486519077"><ele>74.66666666666667</ele><time>2026-04-26T16:21:27Z</time></trkpt><trkpt lat="40.28251045825919" lon="14.947855761768599"><ele>80.0</ele><time>2026-04-26T16:21:28Z</time></trkpt><trkpt lat="40.28266869827789" lon="14.947925697010373"><ele>80.0</ele><time>2026-04-26T16:21:29Z</time></trkpt><trkpt lat="40.28283118051645" lon="14.947980268585427"><ele>80.0</ele><time>2026-04-26T16:21:30Z</time></trkpt><trkpt lat="40.283004379337676" lon="14.948012949402479"><ele>80.0</ele><time>2026-04-26T16:21:31Z</time></trkpt><trkpt lat="40.28316826277614" lon="14.948027907527072"><ele>74.66666666666667</ele><time>2026-04-26T16:21:32Z</time></trkpt><trkpt lat="40.28332191127399" lon="14.948042583342867"><ele>69.33333333333333</ele><time>2026-04-26T16:21:33Z</time></trkpt><trkpt lat="40.28347326872193" lon="14.948069137972437"><ele>64.0</ele><time>2026-04-26T16:21:34Z</time></trkpt><trkpt lat="40.28361506786518" lon="14.948109707959075"><ele>64.0</ele><time>2026-04-26T16:21:35Z</time></trkpt><trkpt lat="40.2837414467917" lon="14.948158821380567"><ele>64.0</ele><time>2026-04-26T16:21:36Z</time></trkpt><trkpt lat="40.28386120111842" lon="14.948227056129795"><ele>64.0</ele><time>2026-04-26T16:21:37Z</time></trkpt><trkpt lat="40.28397502470821" lon="14.948319120626072"><ele>64.0</ele><time>2026-04-26T16:21:38Z</time></trkpt><trkpt lat="40.28408453603182" lon="14.948431360131623"><ele>64.5</ele><time>2026-04-26T16:21:39Z</time></trkpt><trkpt lat="40.28418392067657" lon="14.948557065675208"><ele>65.0</ele><time>2026-04-26T16:21:40Z</time></trkpt><trkpt lat="40.284280044637036" lon="14.94870279539986"><ele>65.5</ele><time>2026-04-26T16:21:41Z</time></trkpt><trkpt lat="40.28436863097353" lon="14.948880934674907"><ele>66.0</ele><time>2026-04-26T16:21:42Z</time></trkpt><trkpt lat="40.28446574554234" lon="14.949077198083117"><ele>63.33333333333333</ele><time>2026-04-26T16:21:43Z</time></trkpt><trkpt lat="40.28457724684022" lon="14.949278969853443"><ele>60.666666666666664</ele><time>2026-04-26T16:21:44Z</time></trkpt><trkpt lat="40.2846873807375" lon="14.949458330610472"><ele>58.0</ele><time>2026-04-26T16:21:45Z</time></trkpt><trkpt lat="40.28479393554347" lon="14.949619833727825"><ele>58.0</ele><time>2026-04-26T16:21:46Z</time></trkpt><trkpt lat="40.28490751989252" lon="14.949765803496375"><ele>58.0</ele><time>2026-04-26T16:21:47Z</time></trkpt><trkpt lat="40.28502427697054" lon="14.949900203674314"><ele>58.0</ele><time>2026-04-26T16:21:48Z</time></trkpt><trkpt lat="40.285153166619985" lon="14.950028109677657"><ele>57.0</ele><time>2026-04-26T16:21:49Z</time></trkpt><trkpt lat="40.28527579301295" lon="14.950144440958955"><ele>56.0</ele><time>2026-04-26T16:21:50Z</time></trkpt><trkpt lat="40.285388573504505" lon="14.95024335497636"><ele>55.0</ele><time>2026-04-26T16:21:51Z</time></trkpt><trkpt lat="40.28550230598478" lon="14.950332193583664"><ele>54.0</ele><time>2026-04-26T16:21:52Z</time></trkpt><trkpt lat="40.28561918867238" lon="14.950411703586377"><ele>54.0</ele><time>2026-04-26T16:21:53Z</time></trkpt><trkpt lat="40.28572218926023" lon="14.950474166443417"><ele>54.0</ele><time>2026-04-26T16:21:54Z</time></trkpt><trkpt lat="40.285822993943206" lon="14.950537230712648"><ele>54.0</ele><time>2026-04-26T16:21:55Z</time></trkpt><trkpt lat="40.28592550558589" lon="14.950591800884197"><ele>54.0</ele><time>2026-04-26T16:21:56Z</time></trkpt><trkpt lat="40.28603288600239" lon="14.950651682774668"><ele>54.0</ele><time>2026-04-26T16:21:57Z</time></trkpt><trkpt lat="40.286140015148895" lon="14.950707001037205"><ele>54.0</ele><time>2026-04-26T16:21:58Z</time></trkpt><trkpt lat="40.286244151578785" lon="14.950764341187767"><ele>54.0</ele><time>2026-04-26T16:21:59Z</time></trkpt><trkpt lat="40.286343324255064" lon="14.950822400275353"><ele>54.0</ele><time>2026-04-26T16:22:00Z</time></trkpt><trkpt lat="40.286446872061894" lon="14.950881953699229"><ele>54.2</ele><time>2026-04-26T16:22:01Z</time></trkpt><trkpt lat="40.286553125419765" lon="14.950934543866065"><ele>54.400000000000006</ele><time>2026-04-26T16:22:02Z</time></trkpt><trkpt lat="40.286644677068864" lon="14.950982715510321"><ele>54.6</ele><time>2026-04-26T16:22:03Z</time></trkpt><trkpt lat="40.28673474422785" lon="14.951029093100459"><ele>54.8</ele><time>2026-04-26T16:22:04Z</time></trkpt><trkpt lat="40.28682779314591" lon="14.951080247809411"><ele>55.0</ele><time>2026-04-26T16:22:05Z</time></trkpt><trkpt lat="40.286924187627015" lon="14.951132494734628"><ele>55.0</ele><time>2026-04-26T16:22:06Z</time></trkpt><trkpt lat="40.28702451069728" lon="14.95118856344846"><ele>55.0</ele><time>2026-04-26T16:22:07Z</time></trkpt><trkpt lat="40.28713093938234" lon="14.951240725584412"><ele>55.0</ele><time>2026-04-26T16:22:08Z</time></trkpt><trkpt lat="40.2872357086844" lon="14.951298935174282"><ele>55.0</ele><time>2026-04-26T16:22:09Z</time></trkpt><trkpt lat="40.28734645635806" lon="14.951357996188133"><ele>52.0</ele><time>2026-04-26T16:22:10Z</time></trkpt><trkpt lat="40.287461810206324" lon="14.951419276815466"><ele>49.0</ele><time>2026-04-26T16:22:11Z</time></trkpt><trkpt lat="40.28759165145447" lon="14.951489169575611"><ele>46.0</ele><time>2026-04-26T16:22:12Z</time></trkpt><trkpt lat="40.2877407656073" lon="14.95156862562973"><ele>43.0</ele><time>2026-04-26T16:22:13Z</time></trkpt><trkpt lat="40.28789114444135" lon="14.951649881329965"><ele>43.66666666666667</ele><time>2026-04-26T16:22:14Z</time></trkpt><trkpt lat="40.288053932025896" lon="14.951746075751714"><ele>44.333333333333336</ele><time>2026-04-26T16:22:15Z</time></trkpt><trkpt lat="40.288221137008854" lon="14.951874884902665"><ele>45.0</ele><time>2026-04-26T16:22:16Z</time></trkpt><trkpt lat="40.28839294775031" lon="14.952013990172928"><ele>45.0</ele><time>2026-04-26T16:22:17Z</time></trkpt><trkpt lat="40.288554424368485" lon="14.95216927361414"><ele>45.0</ele><time>2026-04-26T16:22:18Z</time></trkpt><trkpt lat="40.28869734114482" lon="14.95231475229792"><ele>45.0</ele><time>2026-04-26T16:22:19Z</time></trkpt><trkpt lat="40.288832253142125" lon="14.952454175882872"><ele>45.333333333333336</ele><time>2026-04-26T16:22:20Z</time></trkpt><trkpt lat="40.28895886124137" lon="14.952589452306679"><ele>45.66666666666667</ele><time>2026-04-26T16:22:21Z</time></trkpt><trkpt lat="40.28906387939979" lon="14.952732914125"><ele>46.0</ele><time>2026-04-26T16:22:22Z</time></trkpt><trkpt lat="40.28917086138403" lon="14.952850355128644"><ele>46.0</ele><time>2026-04-26T16:22:23Z</time></trkpt><trkpt lat="40.28928589299973" lon="14.952945238757579"><ele>46.0</ele><time>2026-04-26T16:22:24Z</time></trkpt><trkpt lat="40.289385133498584" lon="14.95305167364349"><ele>46.0</ele><time>2026-04-26T16:22:25Z</time></trkpt><trkpt lat="40.28947549503546" lon="14.95314865743896"><ele>46.0</ele><time>2026-04-26T16:22:26Z</time></trkpt><trkpt lat="40.28956150697422" lon="14.953247978545036"><ele>46.0</ele><time>2026-04-26T16:22:27Z</time></trkpt><trkpt lat="40.28962301930079" lon="14.953346903943052"><ele>46.0</ele><time>2026-04-26T16:22:28Z</time></trkpt><trkpt lat="40.28966416242183" lon="14.953448173159275"><ele>46.0</ele><time>2026-04-26T16:22:29Z</time></trkpt><trkpt lat="40.289707939920625" lon="14.953536123101962"><ele>46.0</ele><time>2026-04-26T16:22:30Z</time></trkpt><trkpt lat="40.289773278776416" lon="14.953585351894441"><ele>46.0</ele><time>2026-04-26T16:22:31Z</time></trkpt><trkpt lat="40.2898511025099" lon="14.953605047643705"><ele>46.0</ele><time>2026-04-26T16:22:32Z</time></trkpt><trkpt lat="40.289959121679914" lon="14.953625104814032"><ele>47.0</ele><time>2026-04-26T16:22:33Z</time></trkpt><trkpt lat="40.29007913832572" lon="14.953694561912291"><ele>48.0</ele><time>2026-04-26T16:22:34Z</time></trkpt><trkpt lat="40.290214762218824" lon="14.953788443238174"><ele>49.0</ele><time>2026-04-26T16:22:35Z</time></trkpt><trkpt lat="40.29034552380308" lon="14.953869310239302"><ele>50.0</ele><time>2026-04-26T16:22:36Z</time></trkpt><trkpt lat="40.29049184279553" lon="14.953940899722156"><ele>47.0</ele><time>2026-04-26T16:22:37Z</time></trkpt><trkpt lat="40.29064119566973" lon="14.9539997337501"><ele>44.0</ele><time>2026-04-26T16:22:38Z</time></trkpt><trkpt lat="40.29079394875266" lon="14.954043410478917"><ele>41.0</ele><time>2026-04-26T16:22:39Z</time></trkpt><trkpt lat="40.29093796946216" lon="14.954083448337318"><ele>41.0</ele><time>2026-04-26T16:22:40Z</time></trkpt><trkpt lat="40.291074997053705" lon="14.954118239591722"><ele>41.0</ele><time>2026-04-26T16:22:41Z</time></trkpt><trkpt lat="40.29120754405781" lon="14.954148026208843"><ele>41.0</ele><time>2026-04-26T16:22:42Z</time></trkpt><trkpt lat="40.29134275795682" lon="14.9541792819233"><ele>41.0</ele><time>2026-04-26T16:22:43Z</time></trkpt><trkpt lat="40.29148356109694" lon="14.954207087827314"><ele>41.25</ele><time>2026-04-26T16:22:44Z</time></trkpt><trkpt lat="40.29162756356072" lon="14.954233936348075"><ele>41.5</ele><time>2026-04-26T16:22:45Z</time></trkpt><trkpt lat="40.29177086867963" lon="14.95426096238633"><ele>41.75</ele><time>2026-04-26T16:22:46Z</time></trkpt><trkpt lat="40.29191490782255" lon="14.954290192222038"><ele>42.0</ele><time>2026-04-26T16:22:47Z</time></trkpt><trkpt lat="40.292061256837215" lon="14.954316487619712"><ele>42.0</ele><time>2026-04-26T16:22:48Z</time></trkpt><trkpt lat="40.292198149521866" lon="14.954343456483073"><ele>42.0</ele><time>2026-04-26T16:22:49Z</time></trkpt><trkpt lat="40.29232446827602" lon="14.954369963477829"><ele>42.0</ele><time>2026-04-26T16:22:50Z</time></trkpt><trkpt lat="40.29244658453624" lon="14.954392037675648"><ele>42.0</ele><time>2026-04-26T16:22:51Z</time></trkpt><trkpt lat="40.29256505500519" lon="14.954415839859411"><ele>40.75</ele><time>2026-04-26T16:22:52Z</time></trkpt><trkpt lat="40.29268508692662" lon="14.954443115162704"><ele>39.5</ele><time>2026-04-26T16:22:53Z</time></trkpt><trkpt lat="40.29280654562361" lon="14.954470099245286"><ele>38.25</ele><time>2026-04-26T16:22:54Z</time></trkpt><trkpt lat="40.29292929243843" lon="14.954495261272427"><ele>37.0</ele><time>2026-04-26T16:22:55Z</time></trkpt><trkpt lat="40.293055793246396" lon="14.954521025315014"><ele>36.5</ele><time>2026-04-26T16:22:56Z</time></trkpt><trkpt lat="40.29319160487052" lon="14.954549057417163"><ele>36.0</ele><time>2026-04-26T16:22:57Z</time></trkpt><trkpt lat="40.29333402592244" lon="14.954578626525876"><ele>35.5</ele><time>2026-04-26T16:22:58Z</time></trkpt><trkpt lat="40.29348348954456" lon="14.954611480295343"><ele>35.0</ele><time>2026-04-26T16:22:59Z</time></trkpt><trkpt lat="40.29363988918792" lon="14.954644978994615"><ele>35.0</ele><time>2026-04-26T16:23:00Z</time></trkpt><trkpt lat="40.29380363979791" lon="14.954680846907356"><ele>35.0</ele><time>2026-04-26T16:23:01Z</time></trkpt><trkpt lat="40.29396702965303" lon="14.95471323538953"><ele>35.0</ele><time>2026-04-26T16:23:02Z</time></trkpt><trkpt lat="40.294127653536336" lon="14.954748942227452"><ele>34.666666666666664</ele><time>2026-04-26T16:23:03Z</time></trkpt><trkpt lat="40.29428617815298" lon="14.954783749119896"><ele>34.333333333333336</ele><time>2026-04-26T16:23:04Z</time></trkpt><trkpt lat="40.29443973574569" lon="14.954827446899692"><ele>34.0</ele><time>2026-04-26T16:23:05Z</time></trkpt><trkpt lat="40.29459515476212" lon="14.954887762881793"><ele>33.333333333333336</ele><time>2026-04-26T16:23:06Z</time></trkpt><trkpt lat="40.29475744449503" lon="14.954969070400042"><ele>32.666666666666664</ele><time>2026-04-26T16:23:07Z</time></trkpt><trkpt lat="40.29492899246333" lon="14.955077393092521"><ele>32.0</ele><time>2026-04-26T16:23:08Z</time></trkpt><trkpt lat="40.29509955357185" lon="14.955213956053674"><ele>32.0</ele><time>2026-04-26T16:23:09Z</time></trkpt><trkpt lat="40.295254865060016" lon="14.955364003240874"><ele>32.0</ele><time>2026-04-26T16:23:10Z</time></trkpt><trkpt lat="40.29539530360425" lon="14.95552101008645"><ele>32.0</ele><time>2026-04-26T16:23:11Z</time></trkpt><trkpt lat="40.29551661388416" lon="14.95567614244398"><ele>31.5</ele><time>2026-04-26T16:23:12Z</time></trkpt><trkpt lat="40.29561056197252" lon="14.95582342320874"><ele>31.0</ele><time>2026-04-26T16:23:13Z</time></trkpt><trkpt lat="40.29567621944383" lon="14.955940316472407"><ele>30.5</ele><time>2026-04-26T16:23:14Z</time></trkpt><trkpt lat="40.29571831553178" lon="14.956024889031665"><ele>30.0</ele><time>2026-04-26T16:23:15Z</time></trkpt><trkpt lat="40.295779638381546" lon="14.956159483415679"><ele>31.0</ele><time>2026-04-26T16:23:17Z</time></trkpt><trkpt lat="40.2958160212162" lon="14.95627406311592"><ele>32.0</ele><time>2026-04-26T16:23:19Z</time></trkpt><trkpt lat="40.29584207002581" lon="14.956375104366709"><ele>33.0</ele><time>2026-04-26T16:23:21Z</time></trkpt><trkpt lat="40.29585400911214" lon="14.956495433326266"><ele>34.0</ele><time>2026-04-26T16:23:23Z</time></trkpt><trkpt lat="40.295905369093816" lon="14.956632590440385"><ele>35.0</ele><time>2026-04-26T16:23:25Z</time></trkpt><trkpt lat="40.29597937091455" lon="14.956689930450672"><ele>36.6</ele><time>2026-04-26T16:23:26Z</time></trkpt><trkpt lat="40.296052260548166" lon="14.95674596434321"><ele>38.2</ele><time>2026-04-26T16:23:27Z</time></trkpt><trkpt lat="40.29612774335518" lon="14.956831269547594"><ele>39.8</ele><time>2026-04-26T16:23:28Z</time></trkpt><trkpt lat="40.296202134523384" lon="14.956957541353168"><ele>41.4</ele><time>2026-04-26T16:23:29Z</time></trkpt><trkpt lat="40.296279347328905" lon="14.957103223118525"><ele>43.0</ele><time>2026-04-26T16:23:30Z</time></trkpt><trkpt lat="40.29636304626374" lon="14.957246171413237"><ele>42.25</ele><time>2026-04-26T16:23:31Z</time></trkpt><trkpt lat="40.29644955049705" lon="14.957381739473934"><ele>41.5</ele><time>2026-04-26T16:23:32Z</time></trkpt><trkpt lat="40.29654071204865" lon="14.957511630463754"><ele>40.75</ele><time>2026-04-26T16:23:33Z</time></trkpt><trkpt lat="40.29662506117727" lon="14.95762897304365"><ele>40.0</ele><time>2026-04-26T16:23:34Z</time></trkpt><trkpt lat="40.296697506057534" lon="14.957725911971485"><ele>42.0</ele><time>2026-04-26T16:23:35Z</time></trkpt><trkpt lat="40.29676303185205" lon="14.957815322579624"><ele>44.0</ele><time>2026-04-26T16:23:36Z</time></trkpt><trkpt lat="40.296830053837674" lon="14.95790088859249"><ele>46.0</ele><time>2026-04-26T16:23:37Z</time></trkpt><trkpt lat="40.29689282632894" lon="14.957979602662748"><ele>48.0</ele><time>2026-04-26T16:23:38Z</time></trkpt><trkpt lat="40.296958531624874" lon="14.958054799668322"><ele>50.0</ele><time>2026-04-26T16:23:39Z</time></trkpt><trkpt lat="40.29703326602128" lon="14.958144163453756"><ele>50.0</ele><time>2026-04-26T16:23:40Z</time></trkpt><trkpt lat="40.297120374021006" lon="14.958242602605209"><ele>50.0</ele><time>2026-04-26T16:23:41Z</time></trkpt><trkpt lat="40.297200695441305" lon="14.958349194029191"><ele>50.0</ele><time>2026-04-26T16:23:42Z</time></trkpt><trkpt lat="40.297285327220415" lon="14.958467497518411"><ele>50.0</ele><time>2026-04-26T16:23:43Z</time></trkpt><trkpt lat="40.29738448099448" lon="14.958593162346755"><ele>49.66666666666667</ele><time>2026-04-26T16:23:44Z</time></trkpt><trkpt lat="40.29749703589507" lon="14.958738408168676"><ele>49.33333333333333</ele><time>2026-04-26T16:23:45Z</time></trkpt><trkpt lat="40.29760854039957" lon="14.958892407694583"><ele>49.0</ele><time>2026-04-26T16:23:46Z</time></trkpt><trkpt lat="40.29771410281373" lon="14.95903700497493"><ele>49.0</ele><time>2026-04-26T16:23:47Z</time></trkpt><trkpt lat="40.297821599476634" lon="14.959187670995933"><ele>49.0</ele><time>2026-04-26T16:23:48Z</time></trkpt><trkpt lat="40.29793550010635" lon="14.959337102342305"><ele>49.0</ele><time>2026-04-26T16:23:49Z</time></trkpt><trkpt lat="40.298053954543214" lon="14.959490429778452"><ele>49.25</ele><time>2026-04-26T16:23:50Z</time></trkpt><trkpt lat="40.29815788935308" lon="14.959636606730639"><ele>49.5</ele><time>2026-04-26T16:23:51Z</time></trkpt><trkpt lat="40.298249498873645" lon="14.959774513171812"><ele>49.75</ele><time>2026-04-26T16:23:52Z</time></trkpt><trkpt lat="40.298339340432804" lon="14.9598998799506"><ele>50.0</ele><time>2026-04-26T16:23:53Z</time></trkpt><trkpt lat="40.29842005975261" lon="14.960010756753297"><ele>51.75</ele><time>2026-04-26T16:23:54Z</time></trkpt><trkpt lat="40.298498556986296" lon="14.960125266929625"><ele>53.5</ele><time>2026-04-26T16:23:55Z</time></trkpt><trkpt lat="40.29857175241957" lon="14.96024440653101"><ele>55.25</ele><time>2026-04-26T16:23:56Z</time></trkpt><trkpt lat="40.29863637666749" lon="14.960371775503782"><ele>57.0</ele><time>2026-04-26T16:23:57Z</time></trkpt><trkpt lat="40.29868212926619" lon="14.960493607286375"><ele>57.0</ele><time>2026-04-26T16:23:58Z</time></trkpt><trkpt lat="40.29871763220134" lon="14.96060511323396"><ele>57.0</ele><time>2026-04-26T16:23:59Z</time></trkpt><trkpt lat="40.29873287923252" lon="14.960724736268402"><ele>57.0</ele><time>2026-04-26T16:24:00Z</time></trkpt><trkpt lat="40.29873540461212" lon="14.960852469631677"><ele>57.0</ele><time>2026-04-26T16:24:01Z</time></trkpt><trkpt lat="40.298723497165376" lon="14.960994329689944"><ele>57.0</ele><time>2026-04-26T16:24:02Z</time></trkpt><trkpt lat="40.29869239003732" lon="14.961137832680315"><ele>57.25</ele><time>2026-04-26T16:24:03Z</time></trkpt><trkpt lat="40.298645593681854" lon="14.961274273723049"><ele>57.5</ele><time>2026-04-26T16:24:04Z</time></trkpt><trkpt lat="40.298582875903215" lon="14.9613999022351"><ele>57.75</ele><time>2026-04-26T16:24:05Z</time></trkpt><trkpt lat="40.298504948707624" lon="14.961513013938312"><ele>58.0</ele><time>2026-04-26T16:24:06Z</time></trkpt><trkpt lat="40.29841173340174" lon="14.961608641392388"><ele>58.0</ele><time>2026-04-26T16:24:07Z</time></trkpt><trkpt lat="40.29830986736732" lon="14.961692316224935"><ele>58.0</ele><time>2026-04-26T16:24:08Z</time></trkpt><trkpt lat="40.29820176130244" lon="14.961766457810818"><ele>58.0</ele><time>2026-04-26T16:24:09Z</time></trkpt><trkpt lat="40.29808331670074" lon="14.961812442101"><ele>58.0</ele><time>2026-04-26T16:24:10Z</time></trkpt><trkpt lat="40.297945782509196" lon="14.961842575686374"><ele>58.5</ele><time>2026-04-26T16:24:11Z</time></trkpt><trkpt lat="40.297818723303315" lon="14.961851356722768"><ele>59.0</ele><time>2026-04-26T16:24:12Z</time></trkpt><trkpt lat="40.29770138785798" lon="14.961848617865646"><ele>59.5</ele><time>2026-04-26T16:24:13Z</time></trkpt><trkpt lat="40.29758840093768" lon="14.96185573947934"><ele>60.0</ele><time>2026-04-26T16:24:14Z</time></trkpt><trkpt lat="40.297486039941695" lon="14.961880723283267"><ele>60.0</ele><time>2026-04-26T16:24:15Z</time></trkpt><trkpt lat="40.29739062899024" lon="14.961940885540924"><ele>60.0</ele><time>2026-04-26T16:24:16Z</time></trkpt><trkpt lat="40.29731209803588" lon="14.962030834228703"><ele>60.0</ele><time>2026-04-26T16:24:17Z</time></trkpt><trkpt lat="40.297249778861485" lon="14.962141536509154"><ele>60.0</ele><time>2026-04-26T16:24:18Z</time></trkpt><trkpt lat="40.29719679152173" lon="14.962265007272721"><ele>60.0</ele><time>2026-04-26T16:24:19Z</time></trkpt><trkpt lat="40.29715106525147" lon="14.962389097556144"><ele>61.4</ele><time>2026-04-26T16:24:20Z</time></trkpt><trkpt lat="40.297123738424744" lon="14.96251466245692"><ele>62.8</ele><time>2026-04-26T16:24:21Z</time></trkpt><trkpt lat="40.29713521408981" lon="14.962622267251"><ele>64.2</ele><time>2026-04-26T16:24:22Z</time></trkpt><trkpt lat="40.29718160114514" lon="14.962734360600562"><ele>65.6</ele><time>2026-04-26T16:24:23Z</time></trkpt><trkpt lat="40.29727161822577" lon="14.962844700619248"><ele>67.0</ele><time>2026-04-26T16:24:24Z</time></trkpt><trkpt lat="40.29738924411684" lon="14.962946549313344"><ele>67.0</ele><time>2026-04-26T16:24:25Z</time></trkpt><trkpt lat="40.29751164072421" lon="14.963054114080753"><ele>67.0</ele><time>2026-04-26T16:24:26Z</time></trkpt><trkpt lat="40.297622918210614" lon="14.963171734548348"><ele>67.0</ele><time>2026-04-26T16:24:27Z</time></trkpt><trkpt lat="40.29771960007109" lon="14.963305830332297"><ele>67.0</ele><time>2026-04-26T16:24:28Z</time></trkpt><trkpt lat="40.29780475270139" lon="14.963465335367877"><ele>72.0</ele><time>2026-04-26T16:24:29Z</time></trkpt><trkpt lat="40.29788693905611" lon="14.963637762858664"><ele>77.0</ele><time>2026-04-26T16:24:30Z</time></trkpt><trkpt lat="40.29797589454881" lon="14.96380641706708"><ele>82.0</ele><time>2026-04-26T16:24:31Z</time></trkpt><trkpt lat="40.29805862229134" lon="14.963982145460204"><ele>79.0</ele><time>2026-04-26T16:24:32Z</time></trkpt><trkpt lat="40.29813921750546" lon="14.964150068681068"><ele>76.0</ele><time>2026-04-26T16:24:33Z</time></trkpt><trkpt lat="40.298214031718835" lon="14.964314171113477"><ele>73.0</ele><time>2026-04-26T16:24:34Z</time></trkpt><trkpt lat="40.29828975750874" lon="14.964471902235404"><ele>70.0</ele><time>2026-04-26T16:24:35Z</time></trkpt><trkpt lat="40.29836574544532" lon="14.964636698141641"><ele>70.0</ele><time>2026-04-26T16:24:36Z</time></trkpt><trkpt lat="40.298448337698446" lon="14.964794674589596"><ele>70.0</ele><time>2026-04-26T16:24:37Z</time></trkpt><trkpt lat="40.29854646357474" lon="14.964941646075385"><ele>70.0</ele><time>2026-04-26T16:24:38Z</time></trkpt><trkpt lat="40.29866826646997" lon="14.965063048687698"><ele>70.0</ele><time>2026-04-26T16:24:39Z</time></trkpt><trkpt lat="40.29881321706074" lon="14.96514951114479"><ele>69.33333333333333</ele><time>2026-04-26T16:24:40Z</time></trkpt><trkpt lat="40.29898062644738" lon="14.965218412795666"><ele>68.66666666666667</ele><time>2026-04-26T16:24:41Z</time></trkpt><trkpt lat="40.29913412243527" lon="14.965299925670921"><ele>68.0</ele><time>2026-04-26T16:24:42Z</time></trkpt><trkpt lat="40.29926055175668" lon="14.965399530715699"><ele>68.0</ele><time>2026-04-26T16:24:43Z</time></trkpt><trkpt lat="40.29936224961939" lon="14.965519079180918"><ele>68.0</ele><time>2026-04-26T16:24:44Z</time></trkpt><trkpt lat="40.29943907013702" lon="14.965657497268014"><ele>68.0</ele><time>2026-04-26T16:24:45Z</time></trkpt><trkpt lat="40.29949092005952" lon="14.965811568819714"><ele>68.0</ele><time>2026-04-26T16:24:46Z</time></trkpt><trkpt lat="40.29953361569014" lon="14.965981550059443"><ele>70.75</ele><time>2026-04-26T16:24:47Z</time></trkpt><trkpt lat="40.299566970829645" lon="14.966164904858767"><ele>73.5</ele><time>2026-04-26T16:24:48Z</time></trkpt><trkpt lat="40.29961103150864" lon="14.966345312940721"><ele>76.25</ele><time>2026-04-26T16:24:49Z</time></trkpt><trkpt lat="40.299674463150005" lon="14.966513579844657"><ele>79.0</ele><time>2026-04-26T16:24:50Z</time></trkpt><trkpt lat="40.299740555506894" lon="14.966659605362736"><ele>76.75</ele><time>2026-04-26T16:24:51Z</time></trkpt><trkpt lat="40.29980390746517" lon="14.966796986069184"><ele>74.5</ele><time>2026-04-26T16:24:52Z</time></trkpt><trkpt lat="40.29987480159314" lon="14.96693201257919"><ele>72.25</ele><time>2026-04-26T16:24:53Z</time></trkpt><trkpt lat="40.299942682773995" lon="14.967056250344937"><ele>70.0</ele><time>2026-04-26T16:24:54Z</time></trkpt><trkpt lat="40.30001427189612" lon="14.967172793631903"><ele>70.0</ele><time>2026-04-26T16:24:55Z</time></trkpt><trkpt lat="40.30009330587669" lon="14.967276613900292"><ele>70.0</ele><time>2026-04-26T16:24:56Z</time></trkpt><trkpt lat="40.300183143135875" lon="14.967365963479226"><ele>70.0</ele><time>2026-04-26T16:24:57Z</time></trkpt><trkpt lat="40.30027466223411" lon="14.96745330366975"><ele>70.0</ele><time>2026-04-26T16:24:58Z</time></trkpt><trkpt lat="40.300361488544944" lon="14.967542080042433"><ele>70.0</ele><time>2026-04-26T16:24:59Z</time></trkpt><trkpt lat="40.30042610097412" lon="14.967640979415108"><ele>69.6</ele><time>2026-04-26T16:25:00Z</time></trkpt><trkpt lat="40.300474972488004" lon="14.967766401933234"><ele>69.2</ele><time>2026-04-26T16:25:01Z</time></trkpt><trkpt lat="40.30049297716402" lon="14.96791131069856"><ele>68.8</ele><time>2026-04-26T16:25:02Z</time></trkpt><trkpt lat="40.3004734369503" lon="14.968057208495457"><ele>68.4</ele><time>2026-04-26T16:25:03Z</time></trkpt><trkpt lat="40.30041417435312" lon="14.96818054576368"><ele>68.0</ele><time>2026-04-26T16:25:04Z</time></trkpt><trkpt lat="40.30035756533742" lon="14.968325398947988"><ele>66.25</ele><time>2026-04-26T16:25:05Z</time></trkpt><trkpt lat="40.3002640422094" lon="14.968442780000924"><ele>64.5</ele><time>2026-04-26T16:25:06Z</time></trkpt><trkpt lat="40.30018662571978" lon="14.968575155657179"><ele>62.75</ele><time>2026-04-26T16:25:07Z</time></trkpt><trkpt lat="40.30009445371032" lon="14.968662597970678"><ele>61.0</ele><time>2026-04-26T16:25:08Z</time></trkpt><trkpt lat="40.299999973852145" lon="14.968732417058877"><ele>60.99999999999999</ele><time>2026-04-26T16:25:09Z</time></trkpt><trkpt lat="40.29991489345306" lon="14.968796392777078"><ele>61.0</ele><time>2026-04-26T16:25:10Z</time></trkpt><trkpt lat="40.2998354076842" lon="14.968859480720127"><ele>61.0</ele><time>2026-04-26T16:25:11Z</time></trkpt><trkpt lat="40.29976892784608" lon="14.968926802254517"><ele>61.0</ele><time>2026-04-26T16:25:12Z</time></trkpt><trkpt lat="40.29971964018581" lon="14.969011033438665"><ele>60.99999999999999</ele><time>2026-04-26T16:25:13Z</time></trkpt><trkpt lat="40.29969283286634" lon="14.969110562329526"><ele>61.0</ele><time>2026-04-26T16:25:14Z</time></trkpt><trkpt lat="40.29968536409998" lon="14.96921333304475"><ele>61.0</ele><time>2026-04-26T16:25:15Z</time></trkpt><trkpt lat="40.29969317924888" lon="14.969327472851276"><ele>60.99999999999999</ele><time>2026-04-26T16:25:16Z</time></trkpt><trkpt lat="40.29973855055377" lon="14.969442984570438"><ele>60.99999999999999</ele><time>2026-04-26T16:25:17Z</time></trkpt><trkpt lat="40.299814335508515" lon="14.96955500373082"><ele>61.0</ele><time>2026-04-26T16:25:18Z</time></trkpt><trkpt lat="40.299903335862176" lon="14.969646095649203"><ele>61.0</ele><time>2026-04-26T16:25:19Z</time></trkpt><trkpt lat="40.29998978607319" lon="14.969724717345592"><ele>61.0</ele><time>2026-04-26T16:25:20Z</time></trkpt><trkpt lat="40.300065315943876" lon="14.969804159873023"><ele>60.99999999999999</ele><time>2026-04-26T16:25:21Z</time></trkpt><trkpt lat="40.30014533859829" lon="14.969930245593748"><ele>60.99999999999999</ele><time>2026-04-26T16:25:23Z</time></trkpt><trkpt lat="40.300151202682365" lon="14.97001860313696"><ele>61.0</ele><time>2026-04-26T16:25:24Z</time></trkpt><trkpt lat="40.30013593867101" lon="14.97012113916925"><ele>61.0</ele><time>2026-04-26T16:25:25Z</time></trkpt><trkpt lat="40.30009801753251" lon="14.970225433391544"><ele>62.5</ele><time>2026-04-26T16:25:26Z</time></trkpt><trkpt lat="40.300035590177785" lon="14.97032482496636"><ele>64.0</ele><time>2026-04-26T16:25:27Z</time></trkpt><trkpt lat="40.29994720783368" lon="14.970408281511686"><ele>65.5</ele><time>2026-04-26T16:25:28Z</time></trkpt><trkpt lat="40.29984583491681" lon="14.970488840930432"><ele>67.0</ele><time>2026-04-26T16:25:29Z</time></trkpt><trkpt lat="40.29973945892678" lon="14.970580424783396"><ele>67.0</ele><time>2026-04-26T16:25:30Z</time></trkpt><trkpt lat="40.299635287071105" lon="14.970679519121578"><ele>67.0</ele><time>2026-04-26T16:25:31Z</time></trkpt><trkpt lat="40.29954323436029" lon="14.9707661039144"><ele>67.0</ele><time>2026-04-26T16:25:32Z</time></trkpt><trkpt lat="40.29945486466642" lon="14.970837523648335"><ele>67.0</ele><time>2026-04-26T16:25:33Z</time></trkpt><trkpt lat="40.29936947536968" lon="14.970907237736494"><ele>67.0</ele><time>2026-04-26T16:25:34Z</time></trkpt><trkpt lat="40.29928676468486" lon="14.97097956289009"><ele>65.2</ele><time>2026-04-26T16:25:35Z</time></trkpt><trkpt lat="40.29920864675508" lon="14.971070824226473"><ele>63.400000000000006</ele><time>2026-04-26T16:25:36Z</time></trkpt><trkpt lat="40.299134247238456" lon="14.971175606043426"><ele>61.599999999999994</ele><time>2026-04-26T16:25:37Z</time></trkpt><trkpt lat="40.299073055590064" lon="14.971295050491198"><ele>59.8</ele><time>2026-04-26T16:25:38Z</time></trkpt><trkpt lat="40.299022353386086" lon="14.971445848630452"><ele>58.0</ele><time>2026-04-26T16:25:39Z</time></trkpt><trkpt lat="40.298978580796145" lon="14.971608869764722"><ele>57.8</ele><time>2026-04-26T16:25:40Z</time></trkpt><trkpt lat="40.298951689559715" lon="14.97175179099783"><ele>57.599999999999994</ele><time>2026-04-26T16:25:41Z</time></trkpt><trkpt lat="40.29893970215761" lon="14.971891319678617"><ele>57.400000000000006</ele><time>2026-04-26T16:25:42Z</time></trkpt><trkpt lat="40.29893888426778" lon="14.972026737631102"><ele>57.2</ele><time>2026-04-26T16:25:43Z</time></trkpt><trkpt lat="40.29895179875344" lon="14.972152172585295"><ele>57.0</ele><time>2026-04-26T16:25:44Z</time></trkpt><trkpt lat="40.298981952547585" lon="14.97227179436892"><ele>57.0</ele><time>2026-04-26T16:25:45Z</time></trkpt><trkpt lat="40.29903271788622" lon="14.972397077621876"><ele>57.0</ele><time>2026-04-26T16:25:46Z</time></trkpt><trkpt lat="40.29910027734016" lon="14.972526468878206"><ele>57.0</ele><time>2026-04-26T16:25:47Z</time></trkpt><trkpt lat="40.29919783033708" lon="14.972648843281652"><ele>57.0</ele><time>2026-04-26T16:25:48Z</time></trkpt><trkpt lat="40.299307289549496" lon="14.972758877094284"><ele>59.5</ele><time>2026-04-26T16:25:49Z</time></trkpt><trkpt lat="40.29941657362033" lon="14.972853163378335"><ele>62.0</ele><time>2026-04-26T16:25:50Z</time></trkpt><trkpt lat="40.299529689324665" lon="14.972942188709757"><ele>64.5</ele><time>2026-04-26T16:25:51Z</time></trkpt><trkpt lat="40.29963963045675" lon="14.973025764448053"><ele>67.0</ele><time>2026-04-26T16:25:52Z</time></trkpt><trkpt lat="40.29974590239371" lon="14.973116342195125"><ele>65.5</ele><time>2026-04-26T16:25:53Z</time></trkpt><trkpt lat="40.299839833580066" lon="14.973216371935996"><ele>64.0</ele><time>2026-04-26T16:25:54Z</time></trkpt><trkpt lat="40.2999115832862" lon="14.973341484964568"><ele>62.5</ele><time>2026-04-26T16:25:55Z</time></trkpt><trkpt lat="40.29995534504527" lon="14.973480913582952"><ele>61.0</ele><time>2026-04-26T16:25:56Z</time></trkpt><trkpt lat="40.29997933870252" lon="14.973634477046184"><ele>61.0</ele><time>2026-04-26T16:25:57Z</time></trkpt><trkpt lat="40.29995606292027" lon="14.973793866288835"><ele>60.99999999999999</ele><time>2026-04-26T16:25:58Z</time></trkpt><trkpt lat="40.29992460044399" lon="14.973933785973585"><ele>60.99999999999999</ele><time>2026-04-26T16:25:59Z</time></trkpt><trkpt lat="40.29987220770496" lon="14.974057379781893"><ele>61.0</ele><time>2026-04-26T16:26:00Z</time></trkpt><trkpt lat="40.299827857228024" lon="14.974178236511724"><ele>61.0</ele><time>2026-04-26T16:26:01Z</time></trkpt><trkpt lat="40.29976619974199" lon="14.974290401396651"><ele>64.0</ele><time>2026-04-26T16:26:02Z</time></trkpt><trkpt lat="40.29970919809781" lon="14.974403149990422"><ele>67.0</ele><time>2026-04-26T16:26:03Z</time></trkpt><trkpt lat="40.299654598343615" lon="14.974515638312848"><ele>70.0</ele><time>2026-04-26T16:26:04Z</time></trkpt><trkpt lat="40.29960797129434" lon="14.974603480918313"><ele>73.0</ele><time>2026-04-26T16:26:05Z</time></trkpt><trkpt lat="40.299560426936246" lon="14.974688056979593"><ele>76.0</ele><time>2026-04-26T16:26:06Z</time></trkpt><trkpt lat="40.2994981587341" lon="14.974771987448078"><ele>76.0</ele><time>2026-04-26T16:26:07Z</time></trkpt><trkpt lat="40.29943955136696" lon="14.974885292579465"><ele>76.0</ele><time>2026-04-26T16:26:08Z</time></trkpt><trkpt lat="40.299359601803744" lon="14.974984293861706"><ele>76.0</ele><time>2026-04-26T16:26:09Z</time></trkpt><trkpt lat="40.29926146534546" lon="14.975058437420836"><ele>76.0</ele><time>2026-04-26T16:26:10Z</time></trkpt><trkpt lat="40.29918872989167" lon="14.975160996157047"><ele>76.0</ele><time>2026-04-26T16:26:11Z</time></trkpt><trkpt lat="40.2991146826163" lon="14.97524579194829"><ele>75.2</ele><time>2026-04-26T16:26:12Z</time></trkpt><trkpt lat="40.29905025539758" lon="14.975341360644947"><ele>74.39999999999999</ele><time>2026-04-26T16:26:13Z</time></trkpt><trkpt lat="40.29899489758391" lon="14.975454126986218"><ele>73.6</ele><time>2026-04-26T16:26:14Z</time></trkpt><trkpt lat="40.29894645458115" lon="14.97558840517783"><ele>72.8</ele><time>2026-04-26T16:26:15Z</time></trkpt><trkpt lat="40.29890536313812" lon="14.975729827836508"><ele>72.0</ele><time>2026-04-26T16:26:16Z</time></trkpt><trkpt lat="40.29887942641179" lon="14.975883068655085"><ele>76.5</ele><time>2026-04-26T16:26:17Z</time></trkpt><trkpt lat="40.2988715705426" lon="14.976045660858471"><ele>81.0</ele><time>2026-04-26T16:26:18Z</time></trkpt><trkpt lat="40.29887757762725" lon="14.976209110512135"><ele>85.5</ele><time>2026-04-26T16:26:19Z</time></trkpt><trkpt lat="40.29889336788973" lon="14.97636136168851"><ele>90.0</ele><time>2026-04-26T16:26:20Z</time></trkpt><trkpt lat="40.29890997629009" lon="14.976490291783454"><ele>88.2</ele><time>2026-04-26T16:26:21Z</time></trkpt><trkpt lat="40.29892231801719" lon="14.976610039554494"><ele>86.4</ele><time>2026-04-26T16:26:22Z</time></trkpt><trkpt lat="40.29893352884075" lon="14.97673007623119"><ele>84.6</ele><time>2026-04-26T16:26:23Z</time></trkpt><trkpt lat="40.29894445742679" lon="14.976854976409124"><ele>82.8</ele><time>2026-04-26T16:26:24Z</time></trkpt><trkpt lat="40.298952093734165" lon="14.976987989647121"><ele>81.0</ele><time>2026-04-26T16:26:25Z</time></trkpt><trkpt lat="40.29894625574596" lon="14.977125478404968"><ele>81.0</ele><time>2026-04-26T16:26:26Z</time></trkpt><trkpt lat="40.29892299712634" lon="14.977264352788502"><ele>81.0</ele><time>2026-04-26T16:26:27Z</time></trkpt><trkpt lat="40.29888502314576" lon="14.977394680627873"><ele>81.0</ele><time>2026-04-26T16:26:28Z</time></trkpt><trkpt lat="40.29883352588766" lon="14.97751807989348"><ele>81.0</ele><time>2026-04-26T16:26:29Z</time></trkpt><trkpt lat="40.298774276768874" lon="14.977632304679213"><ele>81.0</ele><time>2026-04-26T16:26:30Z</time></trkpt><trkpt lat="40.29870846097377" lon="14.97774741057062"><ele>83.8</ele><time>2026-04-26T16:26:31Z</time></trkpt><trkpt lat="40.29864592510881" lon="14.977862555592768"><ele>86.6</ele><time>2026-04-26T16:26:32Z</time></trkpt><trkpt lat="40.29858806524738" lon="14.977975368141122"><ele>89.4</ele><time>2026-04-26T16:26:33Z</time></trkpt><trkpt lat="40.29854271205845" lon="14.978093959666287"><ele>92.2</ele><time>2026-04-26T16:26:34Z</time></trkpt><trkpt lat="40.29851224199118" lon="14.978224406332025"><ele>95.0</ele><time>2026-04-26T16:26:35Z</time></trkpt><trkpt lat="40.29849109611702" lon="14.978358481767808"><ele>96.0</ele><time>2026-04-26T16:26:36Z</time></trkpt><trkpt lat="40.2984752360964" lon="14.978491934804342"><ele>97.0</ele><time>2026-04-26T16:26:37Z</time></trkpt><trkpt lat="40.29846092279466" lon="14.978623953859223"><ele>98.0</ele><time>2026-04-26T16:26:38Z</time></trkpt><trkpt lat="40.298454249619134" lon="14.978754250522616"><ele>99.0</ele><time>2026-04-26T16:26:39Z</time></trkpt><trkpt lat="40.29845767470665" lon="14.97888188846792"><ele>100.0</ele><time>2026-04-26T16:26:40Z</time></trkpt><trkpt lat="40.298473048033145" lon="14.978997852410258"><ele>100.0</ele><time>2026-04-26T16:26:41Z</time></trkpt><trkpt lat="40.29851009734035" lon="14.97912170486273"><ele>100.0</ele><time>2026-04-26T16:26:42Z</time></trkpt><trkpt lat="40.29855964292327" lon="14.979242303152816"><ele>100.0</ele><time>2026-04-26T16:26:43Z</time></trkpt><trkpt lat="40.298614237767325" lon="14.97936633301472"><ele>100.0</ele><time>2026-04-26T16:26:44Z</time></trkpt><trkpt lat="40.29867451306235" lon="14.979496763898233"><ele>100.0</ele><time>2026-04-26T16:26:45Z</time></trkpt><trkpt lat="40.29873529643112" lon="14.979621699122845"><ele>101.0</ele><time>2026-04-26T16:26:46Z</time></trkpt><trkpt lat="40.29880276929695" lon="14.979737284412245"><ele>102.0</ele><time>2026-04-26T16:26:47Z</time></trkpt><trkpt lat="40.29889350240851" lon="14.979834272920979"><ele>103.0</ele><time>2026-04-26T16:26:48Z</time></trkpt><trkpt lat="40.29898851877025" lon="14.979917650856967"><ele>104.0</ele><time>2026-04-26T16:26:49Z</time></trkpt><trkpt lat="40.2990891296119" lon="14.97999934582616"><ele>106.6</ele><time>2026-04-26T16:26:50Z</time></trkpt><trkpt lat="40.29919473438665" lon="14.980068184031081"><ele>109.2</ele><time>2026-04-26T16:26:51Z</time></trkpt><trkpt lat="40.29930263792052" lon="14.980128182736312"><ele>111.79999999999998</ele><time>2026-04-26T16:26:52Z</time></trkpt><trkpt lat="40.29940504095322" lon="14.980195379732134"><ele>114.39999999999999</ele><time>2026-04-26T16:26:53Z</time></trkpt><trkpt lat="40.299493602929836" lon="14.980255066161142"><ele>117.0</ele><time>2026-04-26T16:26:54Z</time></trkpt><trkpt lat="40.29956445952856" lon="14.980302538844324"><ele>117.0</ele><time>2026-04-26T16:26:55Z</time></trkpt><trkpt lat="40.299627107544275" lon="14.98034737750898"><ele>116.99999999999999</ele><time>2026-04-26T16:26:56Z</time></trkpt><trkpt lat="40.299700004296525" lon="14.980407086633221"><ele>116.99999999999999</ele><time>2026-04-26T16:26:57Z</time></trkpt><trkpt lat="40.2997774632567" lon="14.980507372824512"><ele>117.0</ele><time>2026-04-26T16:26:58Z</time></trkpt><trkpt lat="40.299832161445515" lon="14.980621673564166"><ele>117.0</ele><time>2026-04-26T16:26:59Z</time></trkpt><trkpt lat="40.299860758264856" lon="14.980737675870628"><ele>117.0</ele><time>2026-04-26T16:27:00Z</time></trkpt><trkpt lat="40.299846239271496" lon="14.980852819061697"><ele>117.0</ele><time>2026-04-26T16:27:01Z</time></trkpt><trkpt lat="40.29986242842776" lon="14.98096399777683"><ele>117.0</ele><time>2026-04-26T16:27:02Z</time></trkpt><trkpt lat="40.29985721305027" lon="14.981076152166091"><ele>117.0</ele><time>2026-04-26T16:27:03Z</time></trkpt><trkpt lat="40.2998654350392" lon="14.981195130609457"><ele>117.0</ele><time>2026-04-26T16:27:04Z</time></trkpt><trkpt lat="40.29988445503333" lon="14.981309160416206"><ele>117.0</ele><time>2026-04-26T16:27:05Z</time></trkpt><trkpt lat="40.29991341899867" lon="14.981411749097207"><ele>117.0</ele><time>2026-04-26T16:27:06Z</time></trkpt><trkpt lat="40.29996296409166" lon="14.981492696506676"><ele>117.0</ele><time>2026-04-26T16:27:07Z</time></trkpt><trkpt lat="40.30002484395331" lon="14.9815595213285"><ele>117.0</ele><time>2026-04-26T16:27:08Z</time></trkpt><trkpt lat="40.30010373747314" lon="14.981618498174804"><ele>117.0</ele><time>2026-04-26T16:27:09Z</time></trkpt><trkpt lat="40.3001841881815" lon="14.981668206699242"><ele>117.0</ele><time>2026-04-26T16:27:10Z</time></trkpt><trkpt lat="40.30026312140269" lon="14.981722006732559"><ele>117.0</ele><time>2026-04-26T16:27:11Z</time></trkpt><trkpt lat="40.30034249654304" lon="14.981784375961864"><ele>117.0</ele><time>2026-04-26T16:27:12Z</time></trkpt><trkpt lat="40.30040963995188" lon="14.981849108360215"><ele>116.99999999999999</ele><time>2026-04-26T16:27:13Z</time></trkpt><trkpt lat="40.30046913623597" lon="14.981913434308177"><ele>116.99999999999999</ele><time>2026-04-26T16:27:14Z</time></trkpt><trkpt lat="40.300539686529774" lon="14.981997120319594"><ele>117.0</ele><time>2026-04-26T16:27:15Z</time></trkpt><trkpt lat="40.30061886205504" lon="14.98209661169455"><ele>117.0</ele><time>2026-04-26T16:27:16Z</time></trkpt><trkpt lat="40.30069730060879" lon="14.982198497008604"><ele>117.0</ele><time>2026-04-26T16:27:17Z</time></trkpt><trkpt lat="40.30077001331357" lon="14.982294180157695"><ele>116.99999999999999</ele><time>2026-04-26T16:27:18Z</time></trkpt><trkpt lat="40.3008433009242" lon="14.982388671089945"><ele>116.99999999999999</ele><time>2026-04-26T16:27:19Z</time></trkpt><trkpt lat="40.30091546338489" lon="14.982480616340851"><ele>117.0</ele><time>2026-04-26T16:27:20Z</time></trkpt><trkpt lat="40.30098057315364" lon="14.982567911151357"><ele>117.0</ele><time>2026-04-26T16:27:21Z</time></trkpt><trkpt lat="40.30104628228831" lon="14.982656022239029"><ele>118.39999999999999</ele><time>2026-04-26T16:27:22Z</time></trkpt><trkpt lat="40.30111867404132" lon="14.982749115581502"><ele>119.79999999999998</ele><time>2026-04-26T16:27:23Z</time></trkpt><trkpt lat="40.3011932972069" lon="14.982840718320192"><ele>121.2</ele><time>2026-04-26T16:27:24Z</time></trkpt><trkpt lat="40.30126661776586" lon="14.982938710809966"><ele>122.6</ele><time>2026-04-26T16:27:25Z</time></trkpt><trkpt lat="40.30134219131737" lon="14.983036687020203"><ele>124.0</ele><time>2026-04-26T16:27:26Z</time></trkpt><trkpt lat="40.30140939236835" lon="14.983126772208449"><ele>122.6</ele><time>2026-04-26T16:27:27Z</time></trkpt><trkpt lat="40.30147339686921" lon="14.983212907220437"><ele>121.2</ele><time>2026-04-26T16:27:28Z</time></trkpt><trkpt lat="40.30154331321086" lon="14.983304195091657"><ele>119.79999999999998</ele><time>2026-04-26T16:27:29Z</time></trkpt><trkpt lat="40.30161621978337" lon="14.983398034117512"><ele>118.39999999999999</ele><time>2026-04-26T16:27:30Z</time></trkpt><trkpt lat="40.30169064924058" lon="14.983497003359767"><ele>117.0</ele><time>2026-04-26T16:27:31Z</time></trkpt><trkpt lat="40.30176118502818" lon="14.983599259189711"><ele>117.0</ele><time>2026-04-26T16:27:32Z</time></trkpt><trkpt lat="40.30183396902633" lon="14.983705294885302"><ele>117.0</ele><time>2026-04-26T16:27:33Z</time></trkpt><trkpt lat="40.301898780922635" lon="14.983801066354447"><ele>117.0</ele><time>2026-04-26T16:27:34Z</time></trkpt><trkpt lat="40.301956624544566" lon="14.983887779821291"><ele>117.0</ele><time>2026-04-26T16:27:35Z</time></trkpt><trkpt lat="40.30201064809179" lon="14.983966325239185"><ele>117.0</ele><time>2026-04-26T16:27:36Z</time></trkpt><trkpt lat="40.30205189029855" lon="14.984030904890545"><ele>117.0</ele><time>2026-04-26T16:27:37Z</time></trkpt><trkpt lat="40.302104303229335" lon="14.984119909118636"><ele>116.8</ele><time>2026-04-26T16:27:39Z</time></trkpt><trkpt lat="40.30214846313206" lon="14.984204225534205"><ele>116.6</ele><time>2026-04-26T16:27:42Z</time></trkpt><trkpt lat="40.302227809961806" lon="14.984332279563922"><ele>116.39999999999999</ele><time>2026-04-26T16:27:44Z</time></trkpt><trkpt lat="40.3022804186402" lon="14.98442136266844"><ele>116.19999999999999</ele><time>2026-04-26T16:27:45Z</time></trkpt><trkpt lat="40.30232487735262" lon="14.984514178290677"><ele>116.0</ele><time>2026-04-26T16:27:46Z</time></trkpt><trkpt lat="40.302374490166486" lon="14.984626774655084"><ele>116.0</ele><time>2026-04-26T16:27:47Z</time></trkpt><trkpt lat="40.30243296620025" lon="14.984765340473652"><ele>116.0</ele><time>2026-04-26T16:27:48Z</time></trkpt><trkpt lat="40.302499731405106" lon="14.984918279373568"><ele>116.0</ele><time>2026-04-26T16:27:49Z</time></trkpt><trkpt lat="40.302567852723634" lon="14.985060560975931"><ele>116.0</ele><time>2026-04-26T16:27:50Z</time></trkpt><trkpt lat="40.302643280727274" lon="14.985202558523424"><ele>114.25</ele><time>2026-04-26T16:27:51Z</time></trkpt><trkpt lat="40.30272956373319" lon="14.98533709135406"><ele>112.5</ele><time>2026-04-26T16:27:52Z</time></trkpt><trkpt lat="40.3028171499545" lon="14.985464406334557"><ele>110.75</ele><time>2026-04-26T16:27:53Z</time></trkpt><trkpt lat="40.30289734703623" lon="14.985589477492107"><ele>109.0</ele><time>2026-04-26T16:27:54Z</time></trkpt><trkpt lat="40.30296589809628" lon="14.985709470871363"><ele>109.0</ele><time>2026-04-26T16:27:55Z</time></trkpt><trkpt lat="40.30301835870678" lon="14.98580989826844"><ele>109.0</ele><time>2026-04-26T16:27:56Z</time></trkpt><trkpt lat="40.30306512933491" lon="14.985909414222522"><ele>109.0</ele><time>2026-04-26T16:27:57Z</time></trkpt><trkpt lat="40.303092352249905" lon="14.986030485307964"><ele>109.0</ele><time>2026-04-26T16:27:58Z</time></trkpt><trkpt lat="40.303130671569974" lon="14.98613821574165"><ele>109.0</ele><time>2026-04-26T16:27:59Z</time></trkpt><trkpt lat="40.303164573362515" lon="14.986238948192735"><ele>109.83333333333334</ele><time>2026-04-26T16:28:00Z</time></trkpt><trkpt lat="40.30320628367012" lon="14.986338520724969"><ele>110.66666666666667</ele><time>2026-04-26T16:28:01Z</time></trkpt><trkpt lat="40.303237918695345" lon="14.986438038885076"><ele>111.5</ele><time>2026-04-26T16:28:02Z</time></trkpt><trkpt lat="40.30327531973936" lon="14.986537035279529"><ele>112.33333333333334</ele><time>2026-04-26T16:28:03Z</time></trkpt><trkpt lat="40.303313231118146" lon="14.986642736978416"><ele>113.16666666666667</ele><time>2026-04-26T16:28:04Z</time></trkpt><trkpt lat="40.30334879253419" lon="14.986753009381934"><ele>114.0</ele><time>2026-04-26T16:28:05Z</time></trkpt><trkpt lat="40.30339059655539" lon="14.986869452143615"><ele>112.0</ele><time>2026-04-26T16:28:06Z</time></trkpt><trkpt lat="40.30343177200579" lon="14.986981566759253"><ele>110.0</ele><time>2026-04-26T16:28:07Z</time></trkpt><trkpt lat="40.30347842818374" lon="14.987103510622779"><ele>108.0</ele><time>2026-04-26T16:28:08Z</time></trkpt><trkpt lat="40.303531373231245" lon="14.987230334801241"><ele>106.0</ele><time>2026-04-26T16:28:09Z</time></trkpt><trkpt lat="40.30357501974413" lon="14.987367161879831"><ele>104.0</ele><time>2026-04-26T16:28:10Z</time></trkpt><trkpt lat="40.30363978632307" lon="14.987497651352834"><ele>104.6</ele><time>2026-04-26T16:28:11Z</time></trkpt><trkpt lat="40.303723294640726" lon="14.98760241430541"><ele>105.2</ele><time>2026-04-26T16:28:12Z</time></trkpt><trkpt lat="40.303788788191895" lon="14.987709361675197"><ele>105.79999999999998</ele><time>2026-04-26T16:28:13Z</time></trkpt><trkpt lat="40.30385197527804" lon="14.98780372692816"><ele>106.39999999999999</ele><time>2026-04-26T16:28:14Z</time></trkpt><trkpt lat="40.30391524482287" lon="14.98789320758153"><ele>107.0</ele><time>2026-04-26T16:28:15Z</time></trkpt><trkpt lat="40.303982450955466" lon="14.987976542392927"><ele>106.99999999999999</ele><time>2026-04-26T16:28:16Z</time></trkpt><trkpt lat="40.30404268818352" lon="14.988047193085803"><ele>107.0</ele><time>2026-04-26T16:28:17Z</time></trkpt><trkpt lat="40.30409554805954" lon="14.988131968792787"><ele>107.0</ele><time>2026-04-26T16:28:18Z</time></trkpt><trkpt lat="40.304134323479836" lon="14.98821865336087"><ele>107.0</ele><time>2026-04-26T16:28:19Z</time></trkpt><trkpt lat="40.3041771185774" lon="14.988316819463584"><ele>106.99999999999999</ele><time>2026-04-26T16:28:20Z</time></trkpt><trkpt lat="40.30420431383666" lon="14.988419029069519"><ele>107.0</ele><time>2026-04-26T16:28:21Z</time></trkpt><trkpt lat="40.30421707260592" lon="14.988515657714633"><ele>106.49999999999999</ele><time>2026-04-26T16:28:22Z</time></trkpt><trkpt lat="40.304224595860966" lon="14.988607324942897"><ele>106.0</ele><time>2026-04-26T16:28:23Z</time></trkpt><trkpt lat="40.30421860716809" lon="14.988708633114365"><ele>105.5</ele><time>2026-04-26T16:28:24Z</time></trkpt><trkpt lat="40.30420271182893" lon="14.988823023835206"><ele>105.0</ele><time>2026-04-26T16:28:25Z</time></trkpt><trkpt lat="40.30418771033601" lon="14.988937554223472"><ele>104.49999999999999</ele><time>2026-04-26T16:28:26Z</time></trkpt><trkpt lat="40.3041685727555" lon="14.989047132716065"><ele>104.0</ele><time>2026-04-26T16:28:27Z</time></trkpt><trkpt lat="40.304149111131544" lon="14.989151795203131"><ele>102.49999999999999</ele><time>2026-04-26T16:28:28Z</time></trkpt><trkpt lat="40.30413219084193" lon="14.989259854218117"><ele>101.0</ele><time>2026-04-26T16:28:29Z</time></trkpt><trkpt lat="40.3041213889491" lon="14.98936129692677"><ele>99.5</ele><time>2026-04-26T16:28:30Z</time></trkpt><trkpt lat="40.30411536640797" lon="14.989462933618618"><ele>98.0</ele><time>2026-04-26T16:28:31Z</time></trkpt><trkpt lat="40.3041216140483" lon="14.989587634146137"><ele>96.5</ele><time>2026-04-26T16:28:32Z</time></trkpt><trkpt lat="40.30415462097058" lon="14.989723621379992"><ele>95.0</ele><time>2026-04-26T16:28:33Z</time></trkpt><trkpt lat="40.3041979446126" lon="14.989837741985461"><ele>95.0</ele><time>2026-04-26T16:28:34Z</time></trkpt><trkpt lat="40.30425158682486" lon="14.989942539574251"><ele>95.0</ele><time>2026-04-26T16:28:35Z</time></trkpt><trkpt lat="40.30431781668469" lon="14.990043206402175"><ele>95.0</ele><time>2026-04-26T16:28:36Z</time></trkpt><trkpt lat="40.30439172587615" lon="14.990134262336744"><ele>95.0</ele><time>2026-04-26T16:28:37Z</time></trkpt><trkpt lat="40.30447371542913" lon="14.990219705521492"><ele>95.0</ele><time>2026-04-26T16:28:38Z</time></trkpt><trkpt lat="40.30456991277972" lon="14.990284941898066"><ele>94.6</ele><time>2026-04-26T16:28:39Z</time></trkpt><trkpt lat="40.304662464421206" lon="14.990366280535962"><ele>94.2</ele><time>2026-04-26T16:28:40Z</time></trkpt><trkpt lat="40.304754486457966" lon="14.990437078409391"><ele>93.80000000000001</ele><time>2026-04-26T16:28:41Z</time></trkpt><trkpt lat="40.30484889945149" lon="14.990490976034343"><ele>93.4</ele><time>2026-04-26T16:28:42Z</time></trkpt><trkpt lat="40.30496570033395" lon="14.990549245380105"><ele>93.0</ele><time>2026-04-26T16:28:43Z</time></trkpt><trkpt lat="40.305104244541624" lon="14.9905794010031"><ele>93.0</ele><time>2026-04-26T16:28:44Z</time></trkpt><trkpt lat="40.30528201409987" lon="14.990602878804781"><ele>93.0</ele><time>2026-04-26T16:28:45Z</time></trkpt><trkpt lat="40.305453193202084" lon="14.990613489466098"><ele>93.0</ele><time>2026-04-26T16:28:46Z</time></trkpt><trkpt lat="40.30563699924879" lon="14.990622909399136"><ele>93.0</ele><time>2026-04-26T16:28:47Z</time></trkpt><trkpt lat="40.30579480315766" lon="14.990630996745747"><ele>93.0</ele><time>2026-04-26T16:28:48Z</time></trkpt><trkpt lat="40.305927135676185" lon="14.990637778689287"><ele>93.0</ele><time>2026-04-26T16:28:49Z</time></trkpt><trkpt lat="40.30604060974263" lon="14.990625699286014"><ele>93.0</ele><time>2026-04-26T16:28:50Z</time></trkpt><trkpt lat="40.306156776116104" lon="14.99064089530037"><ele>93.0</ele><time>2026-04-26T16:28:51Z</time></trkpt><trkpt lat="40.30626930286217" lon="14.990657303420564"><ele>93.0</ele><time>2026-04-26T16:28:52Z</time></trkpt><trkpt lat="40.306380966949575" lon="14.990690662192495"><ele>93.0</ele><time>2026-04-26T16:28:53Z</time></trkpt><trkpt lat="40.30647291747034" lon="14.99074794013669"><ele>93.0</ele><time>2026-04-26T16:28:54Z</time></trkpt><trkpt lat="40.306564179614846" lon="14.99081503497543"><ele>93.0</ele><time>2026-04-26T16:28:55Z</time></trkpt><trkpt lat="40.30665389711138" lon="14.990914449619051"><ele>92.0</ele><time>2026-04-26T16:28:56Z</time></trkpt><trkpt lat="40.30673574977858" lon="14.99100920035012"><ele>91.0</ele><time>2026-04-26T16:28:57Z</time></trkpt><trkpt lat="40.30680629163904" lon="14.99110701750485"><ele>90.0</ele><time>2026-04-26T16:28:58Z</time></trkpt><trkpt lat="40.30686285008869" lon="14.99120581788615"><ele>89.0</ele><time>2026-04-26T16:28:59Z</time></trkpt><trkpt lat="40.30691132559297" lon="14.991309943670313"><ele>88.0</ele><time>2026-04-26T16:29:00Z</time></trkpt><trkpt lat="40.30695002301142" lon="14.991419895702366"><ele>88.0</ele><time>2026-04-26T16:29:01Z</time></trkpt><trkpt lat="40.30698294818597" lon="14.991544382476079"><ele>88.0</ele><time>2026-04-26T16:29:02Z</time></trkpt><trkpt lat="40.30700387406985" lon="14.991660352417798"><ele>88.0</ele><time>2026-04-26T16:29:03Z</time></trkpt><trkpt lat="40.30701230008367" lon="14.991786353233948"><ele>88.0</ele><time>2026-04-26T16:29:04Z</time></trkpt><trkpt lat="40.307016638160995" lon="14.991912194890183"><ele>88.0</ele><time>2026-04-26T16:29:05Z</time></trkpt><trkpt lat="40.307012033781184" lon="14.992026851753192"><ele>88.25</ele><time>2026-04-26T16:29:06Z</time></trkpt><trkpt lat="40.30699090291654" lon="14.992148765368373"><ele>88.5</ele><time>2026-04-26T16:29:07Z</time></trkpt><trkpt lat="40.306951992313" lon="14.992277082839006"><ele>88.75</ele><time>2026-04-26T16:29:08Z</time></trkpt><trkpt lat="40.306900820750386" lon="14.992440199674403"><ele>89.0</ele><time>2026-04-26T16:29:09Z</time></trkpt><trkpt lat="40.3068347077028" lon="14.992632139415013"><ele>89.0</ele><time>2026-04-26T16:29:10Z</time></trkpt><trkpt lat="40.30677590548162" lon="14.992803371994366"><ele>89.0</ele><time>2026-04-26T16:29:11Z</time></trkpt><trkpt lat="40.306727253954655" lon="14.992952317685507"><ele>89.0</ele><time>2026-04-26T16:29:12Z</time></trkpt><trkpt lat="40.306685852680836" lon="14.993088743168501"><ele>89.0</ele><time>2026-04-26T16:29:13Z</time></trkpt><trkpt lat="40.30665034224093" lon="14.993219794734639"><ele>88.5</ele><time>2026-04-26T16:29:14Z</time></trkpt><trkpt lat="40.3066260683412" lon="14.993369933395732"><ele>88.0</ele><time>2026-04-26T16:29:15Z</time></trkpt><trkpt lat="40.30661173593185" lon="14.993552599232817"><ele>87.5</ele><time>2026-04-26T16:29:16Z</time></trkpt><trkpt lat="40.30660254512246" lon="14.993763599963735"><ele>87.0</ele><time>2026-04-26T16:29:17Z</time></trkpt><trkpt lat="40.306610248569505" lon="14.99399213989816"><ele>85.75</ele><time>2026-04-26T16:29:18Z</time></trkpt><trkpt lat="40.30659774999004" lon="14.994190402626478"><ele>84.5</ele><time>2026-04-26T16:29:19Z</time></trkpt><trkpt lat="40.30661428206084" lon="14.994378508175403"><ele>83.25</ele><time>2026-04-26T16:29:20Z</time></trkpt><trkpt lat="40.30665609220048" lon="14.994560104677321"><ele>82.0</ele><time>2026-04-26T16:29:21Z</time></trkpt><trkpt lat="40.306710889269446" lon="14.994718049692194"><ele>82.0</ele><time>2026-04-26T16:29:22Z</time></trkpt><trkpt lat="40.30675754750554" lon="14.99486330463384"><ele>82.0</ele><time>2026-04-26T16:29:23Z</time></trkpt><trkpt lat="40.30681306900221" lon="14.994993222806897"><ele>82.0</ele><time>2026-04-26T16:29:24Z</time></trkpt><trkpt lat="40.306885890684235" lon="14.995092416534783"><ele>82.0</ele><time>2026-04-26T16:29:25Z</time></trkpt><trkpt lat="40.3069626493609" lon="14.995170793966745"><ele>82.0</ele><time>2026-04-26T16:29:26Z</time></trkpt><trkpt lat="40.30705100312843" lon="14.995246797938062"><ele>80.6</ele><time>2026-04-26T16:29:27Z</time></trkpt><trkpt lat="40.3071495647254" lon="14.99532227006162"><ele>79.19999999999999</ele><time>2026-04-26T16:29:28Z</time></trkpt><trkpt lat="40.307240805424655" lon="14.995395325157986"><ele>77.8</ele><time>2026-04-26T16:29:29Z</time></trkpt><trkpt lat="40.307330871300174" lon="14.995465219973045"><ele>76.4</ele><time>2026-04-26T16:29:30Z</time></trkpt><trkpt lat="40.30742488871986" lon="14.995540047063189"><ele>75.0</ele><time>2026-04-26T16:29:31Z</time></trkpt><trkpt lat="40.30752086413743" lon="14.995618741558722"><ele>75.0</ele><time>2026-04-26T16:29:32Z</time></trkpt><trkpt lat="40.30761232790286" lon="14.99569223386055"><ele>75.0</ele><time>2026-04-26T16:29:33Z</time></trkpt><trkpt lat="40.307706045872045" lon="14.995772030880834"><ele>75.0</ele><time>2026-04-26T16:29:34Z</time></trkpt><trkpt lat="40.30780325630689" lon="14.995856390314362"><ele>75.0</ele><time>2026-04-26T16:29:35Z</time></trkpt><trkpt lat="40.30790538574105" lon="14.995943736340891"><ele>76.0</ele><time>2026-04-26T16:29:36Z</time></trkpt><trkpt lat="40.307997855539455" lon="14.996030156022645"><ele>77.0</ele><time>2026-04-26T16:29:37Z</time></trkpt><trkpt lat="40.30807861339295" lon="14.996137318190156"><ele>78.0</ele><time>2026-04-26T16:29:38Z</time></trkpt><trkpt lat="40.308145145775796" lon="14.99625703529419"><ele>79.0</ele><time>2026-04-26T16:29:39Z</time></trkpt><trkpt lat="40.30819865656944" lon="14.996385151819807"><ele>79.0</ele><time>2026-04-26T16:29:40Z</time></trkpt><trkpt lat="40.30823491774752" lon="14.996518855664718"><ele>79.0</ele><time>2026-04-26T16:29:41Z</time></trkpt><trkpt lat="40.30823785393248" lon="14.996658730532024"><ele>79.0</ele><time>2026-04-26T16:29:42Z</time></trkpt><trkpt lat="40.30824223144844" lon="14.996800912868029"><ele>79.0</ele><time>2026-04-26T16:29:43Z</time></trkpt><trkpt lat="40.30823154052461" lon="14.996936909892185"><ele>79.0</ele><time>2026-04-26T16:29:44Z</time></trkpt><trkpt lat="40.30824775603482" lon="14.997077175580362"><ele>79.2</ele><time>2026-04-26T16:29:45Z</time></trkpt><trkpt lat="40.30821889147619" lon="14.99720809554038"><ele>79.4</ele><time>2026-04-26T16:29:46Z</time></trkpt><trkpt lat="40.30819450542634" lon="14.997338618177787"><ele>79.6</ele><time>2026-04-26T16:29:47Z</time></trkpt><trkpt lat="40.308167445980345" lon="14.997462218297235"><ele>79.8</ele><time>2026-04-26T16:29:48Z</time></trkpt><trkpt lat="40.308138616033524" lon="14.997592826292156"><ele>80.0</ele><time>2026-04-26T16:29:49Z</time></trkpt><trkpt lat="40.308108874154975" lon="14.997729970158352"><ele>76.25</ele><time>2026-04-26T16:29:50Z</time></trkpt><trkpt lat="40.30804795821144" lon="14.997874981115432"><ele>72.5</ele><time>2026-04-26T16:29:51Z</time></trkpt><trkpt lat="40.30801603533229" lon="14.99802606758534"><ele>68.75</ele><time>2026-04-26T16:29:52Z</time></trkpt><trkpt lat="40.307984562089324" lon="14.99817502601463"><ele>65.0</ele><time>2026-04-26T16:29:53Z</time></trkpt><trkpt lat="40.3079547550846" lon="14.998307996055122"><ele>65.4</ele><time>2026-04-26T16:29:54Z</time></trkpt><trkpt lat="40.30792462843095" lon="14.998441397609499"><ele>65.8</ele><time>2026-04-26T16:29:55Z</time></trkpt><trkpt lat="40.3078937609496" lon="14.998574406797491"><ele>66.2</ele><time>2026-04-26T16:29:56Z</time></trkpt><trkpt lat="40.30786193919939" lon="14.998709167537308"><ele>66.6</ele><time>2026-04-26T16:29:57Z</time></trkpt><trkpt lat="40.30783218254121" lon="14.998831529572726"><ele>67.0</ele><time>2026-04-26T16:29:58Z</time></trkpt><trkpt lat="40.307806089437484" lon="14.9989388266431"><ele>67.0</ele><time>2026-04-26T16:29:59Z</time></trkpt><trkpt lat="40.30777981671279" lon="14.999046862488653"><ele>67.0</ele><time>2026-04-26T16:30:00Z</time></trkpt><trkpt lat="40.30777091480619" lon="14.999149209078055"><ele>67.0</ele><time>2026-04-26T16:30:01Z</time></trkpt><trkpt lat="40.3077429393241" lon="14.99923684656503"><ele>67.0</ele><time>2026-04-26T16:30:02Z</time></trkpt><trkpt lat="40.30773027042248" lon="14.99932047746755"><ele>67.0</ele><time>2026-04-26T16:30:03Z</time></trkpt><trkpt lat="40.307710879783784" lon="14.999468594216232"><ele>67.0</ele><time>2026-04-26T16:30:05Z</time></trkpt><trkpt lat="40.30771579058435" lon="14.999638559679074"><ele>66.33333333333333</ele><time>2026-04-26T16:30:07Z</time></trkpt><trkpt lat="40.3077438504294" lon="14.99975617837359"><ele>65.66666666666666</ele><time>2026-04-26T16:30:08Z</time></trkpt><trkpt lat="40.30779278039834" lon="14.999866544092653"><ele>65.0</ele><time>2026-04-26T16:30:09Z</time></trkpt><trkpt lat="40.30785023149244" lon="14.99995862108581"><ele>64.33333333333333</ele><time>2026-04-26T16:30:10Z</time></trkpt><trkpt lat="40.30791243785967" lon="15.00002958417346"><ele>63.666666666666664</ele><time>2026-04-26T16:30:11Z</time></trkpt><trkpt lat="40.30797816919762" lon="15.00009817194867"><ele>63.0</ele><time>2026-04-26T16:30:12Z</time></trkpt><trkpt lat="40.308055892284905" lon="15.000141269534582"><ele>65.4</ele><time>2026-04-26T16:30:13Z</time></trkpt><trkpt lat="40.30814259686252" lon="15.000172100527058"><ele>67.8</ele><time>2026-04-26T16:30:14Z</time></trkpt><trkpt lat="40.30823992319646" lon="15.00019950551319"><ele>70.2</ele><time>2026-04-26T16:30:15Z</time></trkpt><trkpt lat="40.30833306176931" lon="15.000225372509266"><ele>72.6</ele><time>2026-04-26T16:30:16Z</time></trkpt><trkpt lat="40.308424852355884" lon="15.000263857526242"><ele>75.0</ele><time>2026-04-26T16:30:17Z</time></trkpt><trkpt lat="40.30852042765745" lon="15.000315073572887"><ele>75.0</ele><time>2026-04-26T16:30:18Z</time></trkpt><trkpt lat="40.308624941027055" lon="15.000382783450261"><ele>75.0</ele><time>2026-04-26T16:30:19Z</time></trkpt><trkpt lat="40.30873134935255" lon="15.000456608302184"><ele>75.0</ele><time>2026-04-26T16:30:20Z</time></trkpt><trkpt lat="40.30882544052033" lon="15.000517386791659"><ele>75.0</ele><time>2026-04-26T16:30:21Z</time></trkpt><trkpt lat="40.30891303264558" lon="15.000571019829115"><ele>75.0</ele><time>2026-04-26T16:30:22Z</time></trkpt><trkpt lat="40.309000662113334" lon="15.000640031809844"><ele>74.2</ele><time>2026-04-26T16:30:23Z</time></trkpt><trkpt lat="40.30909598800644" lon="15.00068978160035"><ele>73.4</ele><time>2026-04-26T16:30:24Z</time></trkpt><trkpt lat="40.3091906745085" lon="15.000744696988821"><ele>72.6</ele><time>2026-04-26T16:30:25Z</time></trkpt><trkpt lat="40.30928315832475" lon="15.000812080697301"><ele>71.8</ele><time>2026-04-26T16:30:26Z</time></trkpt><trkpt lat="40.309367955997516" lon="15.000887006688815"><ele>71.0</ele><time>2026-04-26T16:30:27Z</time></trkpt><trkpt lat="40.309443199761226" lon="15.000970587076111"><ele>71.0</ele><time>2026-04-26T16:30:28Z</time></trkpt><trkpt lat="40.30951604773499" lon="15.001059924029006"><ele>71.0</ele><time>2026-04-26T16:30:29Z</time></trkpt><trkpt lat="40.30958681624969" lon="15.0011464961868"><ele>71.0</ele><time>2026-04-26T16:30:30Z</time></trkpt><trkpt lat="40.30965082305389" lon="15.001229079299238"><ele>71.0</ele><time>2026-04-26T16:30:31Z</time></trkpt><trkpt lat="40.30970881388644" lon="15.00131408878617"><ele>71.0</ele><time>2026-04-26T16:30:32Z</time></trkpt><trkpt lat="40.30975935748259" lon="15.001398250928931"><ele>71.16666666666667</ele><time>2026-04-26T16:30:33Z</time></trkpt><trkpt lat="40.30980269745395" lon="15.001483410041665"><ele>71.33333333333334</ele><time>2026-04-26T16:30:34Z</time></trkpt><trkpt lat="40.30984414962552" lon="15.0015756897364"><ele>71.5</ele><time>2026-04-26T16:30:35Z</time></trkpt><trkpt lat="40.30987969710867" lon="15.001658895509149"><ele>71.66666666666667</ele><time>2026-04-26T16:30:36Z</time></trkpt><trkpt lat="40.30991163464757" lon="15.00173470980901"><ele>71.83333333333333</ele><time>2026-04-26T16:30:37Z</time></trkpt><trkpt lat="40.30999764209677" lon="15.001874925120877"><ele>72.0</ele><time>2026-04-26T16:30:39Z</time></trkpt><trkpt lat="40.310081233697495" lon="15.001960615686057"><ele>72.0</ele><time>2026-04-26T16:30:40Z</time></trkpt><trkpt lat="40.31018807404766" lon="15.002042165874295"><ele>72.0</ele><time>2026-04-26T16:30:41Z</time></trkpt><trkpt lat="40.310304558408646" lon="15.002149317654462"><ele>72.0</ele><time>2026-04-26T16:30:42Z</time></trkpt><trkpt lat="40.3104035066359" lon="15.002223128085548"><ele>72.0</ele><time>2026-04-26T16:30:43Z</time></trkpt><trkpt lat="40.31049097152569" lon="15.00229791220607"><ele>72.0</ele><time>2026-04-26T16:30:44Z</time></trkpt><trkpt lat="40.31056895689806" lon="15.002368672923087"><ele>72.0</ele><time>2026-04-26T16:30:45Z</time></trkpt><trkpt lat="40.31064541899748" lon="15.002444522431514"><ele>72.0</ele><time>2026-04-26T16:30:46Z</time></trkpt><trkpt lat="40.31072738997029" lon="15.00252620689449"><ele>72.0</ele><time>2026-04-26T16:30:47Z</time></trkpt><trkpt lat="40.310823383910126" lon="15.00259597636838"><ele>72.0</ele><time>2026-04-26T16:30:48Z</time></trkpt><trkpt lat="40.31089863399481" lon="15.002671665137138"><ele>71.5</ele><time>2026-04-26T16:30:49Z</time></trkpt><trkpt lat="40.310991288977675" lon="15.002740447855787"><ele>71.0</ele><time>2026-04-26T16:30:50Z</time></trkpt><trkpt lat="40.31111711075912" lon="15.002816848237748"><ele>70.5</ele><time>2026-04-26T16:30:51Z</time></trkpt><trkpt lat="40.31127211337442" lon="15.0028636443682"><ele>70.0</ele><time>2026-04-26T16:30:52Z</time></trkpt><trkpt lat="40.3114359881503" lon="15.002911953303613"><ele>71.66666666666666</ele><time>2026-04-26T16:30:53Z</time></trkpt><trkpt lat="40.31161052327278" lon="15.002984534909404"><ele>73.33333333333333</ele><time>2026-04-26T16:30:54Z</time></trkpt><trkpt lat="40.31178201060964" lon="15.003060002681455"><ele>75.0</ele><time>2026-04-26T16:30:55Z</time></trkpt><trkpt lat="40.311918327998924" lon="15.00312098545232"><ele>75.0</ele><time>2026-04-26T16:30:56Z</time></trkpt><trkpt lat="40.312030992659615" lon="15.003172037015407"><ele>75.0</ele><time>2026-04-26T16:30:57Z</time></trkpt><trkpt lat="40.312124154039736" lon="15.003215641866596"><ele>75.0</ele><time>2026-04-26T16:30:58Z</time></trkpt><trkpt lat="40.31220736823131" lon="15.003241374911775"><ele>75.0</ele><time>2026-04-26T16:30:59Z</time></trkpt><trkpt lat="40.31227451694859" lon="15.003285609780983"><ele>75.0</ele><time>2026-04-26T16:31:00Z</time></trkpt><trkpt lat="40.312349972369184" lon="15.00333869265208"><ele>73.8</ele><time>2026-04-26T16:31:01Z</time></trkpt><trkpt lat="40.312443691386555" lon="15.003389430595025"><ele>72.6</ele><time>2026-04-26T16:31:02Z</time></trkpt><trkpt lat="40.31253580901725" lon="15.003441563504907"><ele>71.4</ele><time>2026-04-26T16:31:03Z</time></trkpt><trkpt lat="40.31262572465592" lon="15.00349398311597"><ele>70.2</ele><time>2026-04-26T16:31:04Z</time></trkpt><trkpt lat="40.312710491490904" lon="15.003544348581364"><ele>69.0</ele><time>2026-04-26T16:31:05Z</time></trkpt><trkpt lat="40.31279839424103" lon="15.003595889892349"><ele>69.0</ele><time>2026-04-26T16:31:06Z</time></trkpt><trkpt lat="40.31289195390967" lon="15.003640678475444"><ele>69.0</ele><time>2026-04-26T16:31:07Z</time></trkpt><trkpt lat="40.31298384157471" lon="15.003684486098457"><ele>69.0</ele><time>2026-04-26T16:31:08Z</time></trkpt><trkpt lat="40.31307264678361" lon="15.003726553613838"><ele>69.0</ele><time>2026-04-26T16:31:09Z</time></trkpt><trkpt lat="40.31316476755996" lon="15.003767506224264"><ele>69.0</ele><time>2026-04-26T16:31:10Z</time></trkpt><trkpt lat="40.313263673175335" lon="15.003807572081197"><ele>71.5</ele><time>2026-04-26T16:31:11Z</time></trkpt><trkpt lat="40.313374432947334" lon="15.003845321137536"><ele>74.0</ele><time>2026-04-26T16:31:12Z</time></trkpt><trkpt lat="40.31349029630409" lon="15.003882760520186"><ele>76.5</ele><time>2026-04-26T16:31:13Z</time></trkpt><trkpt lat="40.31361072222128" lon="15.003915466427163"><ele>79.0</ele><time>2026-04-26T16:31:14Z</time></trkpt><trkpt lat="40.313727911596764" lon="15.00395666195407"><ele>79.0</ele><time>2026-04-26T16:31:15Z</time></trkpt><trkpt lat="40.31385729369087" lon="15.003971428650686"><ele>79.0</ele><time>2026-04-26T16:31:16Z</time></trkpt><trkpt lat="40.31398072317056" lon="15.003968330137813"><ele>79.0</ele><time>2026-04-26T16:31:17Z</time></trkpt><trkpt lat="40.31407974835543" lon="15.003961628219287"><ele>79.0</ele><time>2026-04-26T16:31:18Z</time></trkpt><trkpt lat="40.31417786484395" lon="15.003956721538545"><ele>79.6</ele><time>2026-04-26T16:31:19Z</time></trkpt><trkpt lat="40.31427560214016" lon="15.003952459996224"><ele>80.2</ele><time>2026-04-26T16:31:20Z</time></trkpt><trkpt lat="40.31437504202652" lon="15.003950831600541"><ele>80.8</ele><time>2026-04-26T16:31:21Z</time></trkpt><trkpt lat="40.31446447086159" lon="15.003951067140372"><ele>81.39999999999999</ele><time>2026-04-26T16:31:22Z</time></trkpt><trkpt lat="40.3145505198986" lon="15.003947888258322"><ele>82.0</ele><time>2026-04-26T16:31:23Z</time></trkpt><trkpt lat="40.31462939290557" lon="15.003945700394494"><ele>82.0</ele><time>2026-04-26T16:31:24Z</time></trkpt><trkpt lat="40.31470369907083" lon="15.003942421936616"><ele>82.0</ele><time>2026-04-26T16:31:25Z</time></trkpt><trkpt lat="40.3147823379066" lon="15.003928137832956"><ele>82.0</ele><time>2026-04-26T16:31:26Z</time></trkpt><trkpt lat="40.314866421126204" lon="15.003889406489753"><ele>82.0</ele><time>2026-04-26T16:31:27Z</time></trkpt><trkpt lat="40.314956980107674" lon="15.003835630176352"><ele>82.0</ele><time>2026-04-26T16:31:28Z</time></trkpt><trkpt lat="40.3150416361394" lon="15.003765666680561"><ele>82.0</ele><time>2026-04-26T16:31:29Z</time></trkpt><trkpt lat="40.31512603985983" lon="15.003666747084523"><ele>81.25</ele><time>2026-04-26T16:31:30Z</time></trkpt><trkpt lat="40.31522041368143" lon="15.003562197193279"><ele>80.5</ele><time>2026-04-26T16:31:31Z</time></trkpt><trkpt lat="40.315330652757595" lon="15.00342581002952"><ele>79.75</ele><time>2026-04-26T16:31:32Z</time></trkpt><trkpt lat="40.31542821064838" lon="15.003279466631117"><ele>79.0</ele><time>2026-04-26T16:31:33Z</time></trkpt><trkpt lat="40.315524377535866" lon="15.003162969037977"><ele>75.0</ele><time>2026-04-26T16:31:34Z</time></trkpt><trkpt lat="40.315610585302615" lon="15.003059793595314"><ele>71.0</ele><time>2026-04-26T16:31:35Z</time></trkpt><trkpt lat="40.31568697329803" lon="15.002970742328568"><ele>67.0</ele><time>2026-04-26T16:31:36Z</time></trkpt><trkpt lat="40.31575430202733" lon="15.002882614042354"><ele>63.0</ele><time>2026-04-26T16:31:37Z</time></trkpt><trkpt lat="40.31581961307498" lon="15.002803174112"><ele>59.0</ele><time>2026-04-26T16:31:38Z</time></trkpt><trkpt lat="40.315878754610516" lon="15.002715721507853"><ele>59.00000000000001</ele><time>2026-04-26T16:31:39Z</time></trkpt><trkpt lat="40.31593681722677" lon="15.002626953767512"><ele>59.0</ele><time>2026-04-26T16:31:40Z</time></trkpt><trkpt lat="40.31598603317144" lon="15.002524051105285"><ele>59.0</ele><time>2026-04-26T16:31:41Z</time></trkpt><trkpt lat="40.31602886366631" lon="15.002417945993862"><ele>59.0</ele><time>2026-04-26T16:31:42Z</time></trkpt><trkpt lat="40.31607126082989" lon="15.002315334423699"><ele>59.00000000000001</ele><time>2026-04-26T16:31:43Z</time></trkpt><trkpt lat="40.31611124756615" lon="15.002219085222384"><ele>59.0</ele><time>2026-04-26T16:31:44Z</time></trkpt><trkpt lat="40.31615649156708" lon="15.002125109200994"><ele>59.400000000000006</ele><time>2026-04-26T16:31:45Z</time></trkpt><trkpt lat="40.31621888097485" lon="15.002036948015679"><ele>59.800000000000004</ele><time>2026-04-26T16:31:46Z</time></trkpt><trkpt lat="40.31629590831322" lon="15.001960205134806"><ele>60.199999999999996</ele><time>2026-04-26T16:31:47Z</time></trkpt><trkpt lat="40.31637419710563" lon="15.001896236946186"><ele>60.599999999999994</ele><time>2026-04-26T16:31:48Z</time></trkpt><trkpt lat="40.31645497537988" lon="15.001842844984099"><ele>61.0</ele><time>2026-04-26T16:31:49Z</time></trkpt><trkpt lat="40.31653524348847" lon="15.001794837805274"><ele>60.99999999999999</ele><time>2026-04-26T16:31:50Z</time></trkpt><trkpt lat="40.3166163610903" lon="15.001751321836032"><ele>61.0</ele><time>2026-04-26T16:31:51Z</time></trkpt><trkpt lat="40.316697680463335" lon="15.001703710196075"><ele>61.0</ele><time>2026-04-26T16:31:52Z</time></trkpt><trkpt lat="40.31678265179784" lon="15.001659866937473"><ele>61.0</ele><time>2026-04-26T16:31:53Z</time></trkpt><trkpt lat="40.316867721923025" lon="15.001636288163061"><ele>60.99999999999999</ele><time>2026-04-26T16:31:54Z</time></trkpt><trkpt lat="40.31694967968859" lon="15.001642826113093"><ele>61.0</ele><time>2026-04-26T16:31:55Z</time></trkpt><trkpt lat="40.31701004986935" lon="15.001696977587933"><ele>61.0</ele><time>2026-04-26T16:31:56Z</time></trkpt><trkpt lat="40.31709954510314" lon="15.001812329520162"><ele>60.99999999999999</ele><time>2026-04-26T16:31:58Z</time></trkpt><trkpt lat="40.31713895907606" lon="15.001909891919489"><ele>60.99999999999999</ele><time>2026-04-26T16:31:59Z</time></trkpt><trkpt lat="40.31716948627217" lon="15.002022611690112"><ele>61.0</ele><time>2026-04-26T16:32:00Z</time></trkpt><trkpt lat="40.31719415051862" lon="15.002144549397547"><ele>61.0</ele><time>2026-04-26T16:32:01Z</time></trkpt><trkpt lat="40.31723542396465" lon="15.002301700178409"><ele>61.666666666666664</ele><time>2026-04-26T16:32:02Z</time></trkpt><trkpt lat="40.31728387030546" lon="15.002486163232518"><ele>62.33333333333333</ele><time>2026-04-26T16:32:03Z</time></trkpt><trkpt lat="40.31734152548965" lon="15.0027070830377"><ele>63.0</ele><time>2026-04-26T16:32:04Z</time></trkpt><trkpt lat="40.31739570658004" lon="15.002921227261691"><ele>63.0</ele><time>2026-04-26T16:32:05Z</time></trkpt><trkpt lat="40.31744356526548" lon="15.003144929055653"><ele>63.0</ele><time>2026-04-26T16:32:06Z</time></trkpt><trkpt lat="40.31746103959718" lon="15.00334306039602"><ele>63.0</ele><time>2026-04-26T16:32:07Z</time></trkpt><trkpt lat="40.31742772670137" lon="15.003535682147524"><ele>62.66666666666667</ele><time>2026-04-26T16:32:08Z</time></trkpt><trkpt lat="40.31739202825288" lon="15.003759121601794"><ele>62.333333333333336</ele><time>2026-04-26T16:32:09Z</time></trkpt><trkpt lat="40.31731644552849" lon="15.003996425963136"><ele>62.0</ele><time>2026-04-26T16:32:10Z</time></trkpt><trkpt lat="40.317228368838585" lon="15.004214649341431"><ele>58.0</ele><time>2026-04-26T16:32:11Z</time></trkpt><trkpt lat="40.31715794628488" lon="15.004393642978679"><ele>54.0</ele><time>2026-04-26T16:32:12Z</time></trkpt><trkpt lat="40.31712136575466" lon="15.004589282146274"><ele>50.0</ele><time>2026-04-26T16:32:13Z</time></trkpt><trkpt lat="40.31712790761919" lon="15.004830217216359"><ele>49.66666666666667</ele><time>2026-04-26T16:32:14Z</time></trkpt><trkpt lat="40.31712565459118" lon="15.00508146161241"><ele>49.33333333333333</ele><time>2026-04-26T16:32:15Z</time></trkpt><trkpt lat="40.31710713959395" lon="15.005348413578062"><ele>49.0</ele><time>2026-04-26T16:32:16Z</time></trkpt><trkpt lat="40.31712431793771" lon="15.005622836552691"><ele>48.666666666666664</ele><time>2026-04-26T16:32:17Z</time></trkpt><trkpt lat="40.31714249614384" lon="15.005870750181069"><ele>48.33333333333333</ele><time>2026-04-26T16:32:18Z</time></trkpt><trkpt lat="40.3171882342165" lon="15.006103387935282"><ele>48.0</ele><time>2026-04-26T16:32:19Z</time></trkpt><trkpt lat="40.31725863769778" lon="15.006335427455511"><ele>51.33333333333333</ele><time>2026-04-26T16:32:20Z</time></trkpt><trkpt lat="40.31735313226356" lon="15.00656680586043"><ele>54.666666666666664</ele><time>2026-04-26T16:32:21Z</time></trkpt><trkpt lat="40.31745488975258" lon="15.006768655928933"><ele>58.0</ele><time>2026-04-26T16:32:22Z</time></trkpt><trkpt lat="40.31756284093123" lon="15.006929926796422"><ele>58.0</ele><time>2026-04-26T16:32:23Z</time></trkpt><trkpt lat="40.31769133866235" lon="15.007058510232374"><ele>58.0</ele><time>2026-04-26T16:32:24Z</time></trkpt><trkpt lat="40.31785334883899" lon="15.007162652142386"><ele>58.0</ele><time>2026-04-26T16:32:25Z</time></trkpt><trkpt lat="40.318036410824234" lon="15.007255102123336"><ele>58.0</ele><time>2026-04-26T16:32:26Z</time></trkpt><trkpt lat="40.3181926534981" lon="15.007362641114169"><ele>58.0</ele><time>2026-04-26T16:32:27Z</time></trkpt><trkpt lat="40.31831360632587" lon="15.00750157747493"><ele>58.0</ele><time>2026-04-26T16:32:28Z</time></trkpt><trkpt lat="40.31841569436801" lon="15.00768052930211"><ele>58.0</ele><time>2026-04-26T16:32:29Z</time></trkpt><trkpt lat="40.31852743062816" lon="15.007849019859568"><ele>58.0</ele><time>2026-04-26T16:32:30Z</time></trkpt><trkpt lat="40.318680672156205" lon="15.007997259986867"><ele>58.0</ele><time>2026-04-26T16:32:31Z</time></trkpt><trkpt lat="40.31885706320035" lon="15.008128946349512"><ele>58.0</ele><time>2026-04-26T16:32:32Z</time></trkpt><trkpt lat="40.31904751024698" lon="15.008254134785911"><ele>58.0</ele><time>2026-04-26T16:32:33Z</time></trkpt><trkpt lat="40.319245141849436" lon="15.008346548984168"><ele>58.0</ele><time>2026-04-26T16:32:34Z</time></trkpt><trkpt lat="40.31942761302455" lon="15.008421134854315"><ele>58.0</ele><time>2026-04-26T16:32:35Z</time></trkpt><trkpt lat="40.31957620060535" lon="15.008536934440336"><ele>58.0</ele><time>2026-04-26T16:32:36Z</time></trkpt><trkpt lat="40.319710295401094" lon="15.008680852086048"><ele>58.0</ele><time>2026-04-26T16:32:37Z</time></trkpt><trkpt lat="40.31984250929524" lon="15.008820582966614"><ele>61.33333333333333</ele><time>2026-04-26T16:32:38Z</time></trkpt><trkpt lat="40.31999170871511" lon="15.00892098237196"><ele>64.66666666666667</ele><time>2026-04-26T16:32:39Z</time></trkpt><trkpt lat="40.3201543907949" lon="15.008988573308669"><ele>68.0</ele><time>2026-04-26T16:32:40Z</time></trkpt><trkpt lat="40.32030763813559" lon="15.009055080683648"><ele>68.0</ele><time>2026-04-26T16:32:41Z</time></trkpt><trkpt lat="40.320439962634644" lon="15.009143485928229"><ele>68.0</ele><time>2026-04-26T16:32:42Z</time></trkpt><trkpt lat="40.3205665445642" lon="15.009256180916243"><ele>68.0</ele><time>2026-04-26T16:32:43Z</time></trkpt><trkpt lat="40.32068799452" lon="15.009404943746041"><ele>69.33333333333334</ele><time>2026-04-26T16:32:44Z</time></trkpt><trkpt lat="40.320794542896195" lon="15.009576712230189"><ele>70.66666666666667</ele><time>2026-04-26T16:32:45Z</time></trkpt><trkpt lat="40.32088724509899" lon="15.009754307783007"><ele>72.0</ele><time>2026-04-26T16:32:46Z</time></trkpt><trkpt lat="40.32097010198669" lon="15.009923552995799"><ele>67.66666666666667</ele><time>2026-04-26T16:32:47Z</time></trkpt><trkpt lat="40.32104057336688" lon="15.010099903926724"><ele>63.333333333333336</ele><time>2026-04-26T16:32:48Z</time></trkpt><trkpt lat="40.32109198445598" lon="15.010296712216109"><ele>59.0</ele><time>2026-04-26T16:32:49Z</time></trkpt><trkpt lat="40.321117095004006" lon="15.01052370993936"><ele>59.0</ele><time>2026-04-26T16:32:50Z</time></trkpt><trkpt lat="40.321115637166265" lon="15.0107548056003"><ele>59.0</ele><time>2026-04-26T16:32:51Z</time></trkpt><trkpt lat="40.321104477227564" lon="15.010986509762304"><ele>59.0</ele><time>2026-04-26T16:32:52Z</time></trkpt><trkpt lat="40.32110566129118" lon="15.011208319281032"><ele>57.0</ele><time>2026-04-26T16:32:53Z</time></trkpt><trkpt lat="40.32111347621878" lon="15.011414680578676"><ele>55.0</ele><time>2026-04-26T16:32:54Z</time></trkpt><trkpt lat="40.32112884792099" lon="15.01161447787798"><ele>53.0</ele><time>2026-04-26T16:32:55Z</time></trkpt><trkpt lat="40.32115655563675" lon="15.011803829049363"><ele>52.0</ele><time>2026-04-26T16:32:56Z</time></trkpt><trkpt lat="40.32120335021451" lon="15.011972749370221"><ele>51.0</ele><time>2026-04-26T16:32:57Z</time></trkpt><trkpt lat="40.32128014231858" lon="15.01211309143758"><ele>50.0</ele><time>2026-04-26T16:32:58Z</time></trkpt><trkpt lat="40.32136855186836" lon="15.012211709041285"><ele>49.0</ele><time>2026-04-26T16:32:59Z</time></trkpt><trkpt lat="40.321473071199776" lon="15.01226870290506"><ele>54.0</ele><time>2026-04-26T16:33:00Z</time></trkpt><trkpt lat="40.32158634972352" lon="15.012290305803457"><ele>59.0</ele><time>2026-04-26T16:33:01Z</time></trkpt><trkpt lat="40.32170755048421" lon="15.012279213034384"><ele>64.0</ele><time>2026-04-26T16:33:02Z</time></trkpt><trkpt lat="40.32182897396246" lon="15.01223053929935"><ele>69.0</ele><time>2026-04-26T16:33:03Z</time></trkpt><trkpt lat="40.32194298790897" lon="15.012137219668276"><ele>69.0</ele><time>2026-04-26T16:33:04Z</time></trkpt><trkpt lat="40.32204145340208" lon="15.012011797841891"><ele>69.0</ele><time>2026-04-26T16:33:05Z</time></trkpt><trkpt lat="40.32215670383441" lon="15.011883209674743"><ele>69.0</ele><time>2026-04-26T16:33:06Z</time></trkpt><trkpt lat="40.32227925477926" lon="15.011803576793229"><ele>69.0</ele><time>2026-04-26T16:33:07Z</time></trkpt><trkpt lat="40.32239864455742" lon="15.011757828211932"><ele>67.0</ele><time>2026-04-26T16:33:08Z</time></trkpt><trkpt lat="40.32252766680839" lon="15.011745812229787"><ele>65.0</ele><time>2026-04-26T16:33:09Z</time></trkpt><trkpt lat="40.32264795024184" lon="15.01180180681505"><ele>63.0</ele><time>2026-04-26T16:33:10Z</time></trkpt><trkpt lat="40.322756726120446" lon="15.011881699373676"><ele>61.0</ele><time>2026-04-26T16:33:11Z</time></trkpt><trkpt lat="40.32287007878448" lon="15.011944473324785"><ele>61.0</ele><time>2026-04-26T16:33:12Z</time></trkpt><trkpt lat="40.32299829370067" lon="15.011982960746003"><ele>61.0</ele><time>2026-04-26T16:33:13Z</time></trkpt><trkpt lat="40.32314209165997" lon="15.011990852148298"><ele>61.0</ele><time>2026-04-26T16:33:14Z</time></trkpt><trkpt lat="40.32329286785238" lon="15.01198264655838"><ele>61.0</ele><time>2026-04-26T16:33:15Z</time></trkpt><trkpt lat="40.32342602586794" lon="15.011972946896487"><ele>61.25</ele><time>2026-04-26T16:33:16Z</time></trkpt><trkpt lat="40.32354915169361" lon="15.011967244787707"><ele>61.5</ele><time>2026-04-26T16:33:17Z</time></trkpt><trkpt lat="40.32366854573359" lon="15.01196117677935"><ele>61.75</ele><time>2026-04-26T16:33:18Z</time></trkpt><trkpt lat="40.32378360782924" lon="15.011953550961135"><ele>62.0</ele><time>2026-04-26T16:33:19Z</time></trkpt><trkpt lat="40.32389911354451" lon="15.011949499669562"><ele>62.0</ele><time>2026-04-26T16:33:20Z</time></trkpt><trkpt lat="40.3240056494976" lon="15.011944718799286"><ele>62.0</ele><time>2026-04-26T16:33:21Z</time></trkpt><trkpt lat="40.32410710521446" lon="15.011945489957752"><ele>62.0</ele><time>2026-04-26T16:33:22Z</time></trkpt><trkpt lat="40.32420669668033" lon="15.01196956290786"><ele>62.0</ele><time>2026-04-26T16:33:23Z</time></trkpt><trkpt lat="40.32430426051239" lon="15.01202272471434"><ele>62.0</ele><time>2026-04-26T16:33:24Z</time></trkpt><trkpt lat="40.324396839844624" lon="15.012108045787068"><ele>62.0</ele><time>2026-04-26T16:33:25Z</time></trkpt><trkpt lat="40.32447741673885" lon="15.012221691835869"><ele>62.0</ele><time>2026-04-26T16:33:26Z</time></trkpt><trkpt lat="40.32453850763609" lon="15.012355730117342"><ele>62.0</ele><time>2026-04-26T16:33:27Z</time></trkpt><trkpt lat="40.324551854787515" lon="15.01249714269381"><ele>62.0</ele><time>2026-04-26T16:33:28Z</time></trkpt><trkpt lat="40.32458497533651" lon="15.012621764216783"><ele>62.0</ele><time>2026-04-26T16:33:29Z</time></trkpt><trkpt lat="40.32462483113917" lon="15.012730468459202"><ele>58.6</ele><time>2026-04-26T16:33:30Z</time></trkpt><trkpt lat="40.32468893977949" lon="15.012799827011769"><ele>55.2</ele><time>2026-04-26T16:33:31Z</time></trkpt><trkpt lat="40.324765928127086" lon="15.012851241831545"><ele>51.8</ele><time>2026-04-26T16:33:32Z</time></trkpt><trkpt lat="40.3248579158985" lon="15.012865548977945"><ele>48.4</ele><time>2026-04-26T16:33:33Z</time></trkpt><trkpt lat="40.324949448655204" lon="15.012831310026291"><ele>45.0</ele><time>2026-04-26T16:33:34Z</time></trkpt><trkpt lat="40.325026788807016" lon="15.012755472614165"><ele>45.0</ele><time>2026-04-26T16:33:35Z</time></trkpt><trkpt lat="40.32508973412893" lon="15.012659545596453"><ele>45.0</ele><time>2026-04-26T16:33:36Z</time></trkpt><trkpt lat="40.325146636392965" lon="15.01254988860341"><ele>45.0</ele><time>2026-04-26T16:33:37Z</time></trkpt><trkpt lat="40.32521600827533" lon="15.0124269795685"><ele>45.0</ele><time>2026-04-26T16:33:38Z</time></trkpt><trkpt lat="40.32529755321589" lon="15.01230245402373"><ele>45.0</ele><time>2026-04-26T16:33:39Z</time></trkpt><trkpt lat="40.325374893509256" lon="15.012197478785266"><ele>44.5</ele><time>2026-04-26T16:33:40Z</time></trkpt><trkpt lat="40.32545474722282" lon="15.01209575609239"><ele>44.0</ele><time>2026-04-26T16:33:41Z</time></trkpt><trkpt lat="40.325546761730884" lon="15.011995136704787"><ele>43.5</ele><time>2026-04-26T16:33:42Z</time></trkpt><trkpt lat="40.32564918442386" lon="15.011918113797488"><ele>43.0</ele><time>2026-04-26T16:33:43Z</time></trkpt><trkpt lat="40.325758555560064" lon="15.011877789104824"><ele>43.0</ele><time>2026-04-26T16:33:44Z</time></trkpt><trkpt lat="40.32588192711177" lon="15.011866820377788"><ele>43.0</ele><time>2026-04-26T16:33:45Z</time></trkpt><trkpt lat="40.32600502841374" lon="15.01187769228005"><ele>43.0</ele><time>2026-04-26T16:33:46Z</time></trkpt><trkpt lat="40.326118440408294" lon="15.011898393431322"><ele>43.0</ele><time>2026-04-26T16:33:47Z</time></trkpt><trkpt lat="40.32622354720246" lon="15.011921891725493"><ele>43.0</ele><time>2026-04-26T16:33:48Z</time></trkpt><trkpt lat="40.32633222828533" lon="15.011933643813634"><ele>43.0</ele><time>2026-04-26T16:33:49Z</time></trkpt><trkpt lat="40.326446092160225" lon="15.011945058109282"><ele>43.0</ele><time>2026-04-26T16:33:50Z</time></trkpt><trkpt lat="40.32656437810481" lon="15.011963294501303"><ele>43.0</ele><time>2026-04-26T16:33:51Z</time></trkpt><trkpt lat="40.326688980293845" lon="15.011968538580458"><ele>42.4</ele><time>2026-04-26T16:33:52Z</time></trkpt><trkpt lat="40.326805145200936" lon="15.011946356432205"><ele>41.8</ele><time>2026-04-26T16:33:53Z</time></trkpt><trkpt lat="40.32690624204334" lon="15.011892621988563"><ele>41.2</ele><time>2026-04-26T16:33:54Z</time></trkpt><trkpt lat="40.326982502351015" lon="15.011813524206676"><ele>40.6</ele><time>2026-04-26T16:33:55Z</time></trkpt><trkpt lat="40.3270454035157" lon="15.011731983904545"><ele>40.0</ele><time>2026-04-26T16:33:56Z</time></trkpt><trkpt lat="40.32710496139487" lon="15.011652615837388"><ele>42.0</ele><time>2026-04-26T16:33:57Z</time></trkpt><trkpt lat="40.32716985345992" lon="15.01158623045984"><ele>44.0</ele><time>2026-04-26T16:33:58Z</time></trkpt><trkpt lat="40.327249740077335" lon="15.011531907984908"><ele>46.0</ele><time>2026-04-26T16:33:59Z</time></trkpt><trkpt lat="40.32734699324399" lon="15.011475548069262"><ele>48.0</ele><time>2026-04-26T16:34:00Z</time></trkpt><trkpt lat="40.327476952105435" lon="15.01142901386608"><ele>50.0</ele><time>2026-04-26T16:34:01Z</time></trkpt><trkpt lat="40.327628221916875" lon="15.011424678046543"><ele>50.0</ele><time>2026-04-26T16:34:02Z</time></trkpt><trkpt lat="40.32779838014631" lon="15.01142194772165"><ele>50.0</ele><time>2026-04-26T16:34:03Z</time></trkpt><trkpt lat="40.32797249742624" lon="15.011424455023496"><ele>50.0</ele><time>2026-04-26T16:34:04Z</time></trkpt><trkpt lat="40.328153852391" lon="15.011406508312895"><ele>51.0</ele><time>2026-04-26T16:34:05Z</time></trkpt><trkpt lat="40.32827431250931" lon="15.011355365142105"><ele>52.0</ele><time>2026-04-26T16:34:06Z</time></trkpt><trkpt lat="40.32837395320888" lon="15.011331957951255"><ele>53.0</ele><time>2026-04-26T16:34:07Z</time></trkpt><trkpt lat="40.32847659457687" lon="15.011308309633344"><ele>54.0</ele><time>2026-04-26T16:34:08Z</time></trkpt><trkpt lat="40.32858152500428" lon="15.011298460970325"><ele>55.0</ele><time>2026-04-26T16:34:09Z</time></trkpt><trkpt lat="40.32869236848767" lon="15.0113003847127"><ele>54.99999999999999</ele><time>2026-04-26T16:34:10Z</time></trkpt><trkpt lat="40.328791294131" lon="15.01130768451736"><ele>55.0</ele><time>2026-04-26T16:34:11Z</time></trkpt><trkpt lat="40.328889568191975" lon="15.011322413002741"><ele>55.0</ele><time>2026-04-26T16:34:12Z</time></trkpt><trkpt lat="40.32897891909955" lon="15.01134822099751"><ele>55.0</ele><time>2026-04-26T16:34:13Z</time></trkpt><trkpt lat="40.32904261300682" lon="15.011371871052019"><ele>54.99999999999999</ele><time>2026-04-26T16:34:14Z</time></trkpt><trkpt lat="40.329108138588275" lon="15.011391582141007"><ele>55.0</ele><time>2026-04-26T16:34:15Z</time></trkpt><trkpt lat="40.329183432715645" lon="15.011397113825208"><ele>53.33333333333333</ele><time>2026-04-26T16:34:16Z</time></trkpt><trkpt lat="40.32925870427825" lon="15.01138566009141"><ele>51.666666666666664</ele><time>2026-04-26T16:34:17Z</time></trkpt><trkpt lat="40.32933124357455" lon="15.011351775064218"><ele>50.0</ele><time>2026-04-26T16:34:18Z</time></trkpt><trkpt lat="40.32939959998924" lon="15.011299517167346"><ele>48.33333333333333</ele><time>2026-04-26T16:34:19Z</time></trkpt><trkpt lat="40.32945673654291" lon="15.01123444201256"><ele>46.666666666666664</ele><time>2026-04-26T16:34:20Z</time></trkpt><trkpt lat="40.32949781143075" lon="15.011155697785716"><ele>45.0</ele><time>2026-04-26T16:34:21Z</time></trkpt><trkpt lat="40.32952714777765" lon="15.011065206468526"><ele>45.0</ele><time>2026-04-26T16:34:22Z</time></trkpt><trkpt lat="40.329542916459964" lon="15.010970834854703"><ele>45.0</ele><time>2026-04-26T16:34:23Z</time></trkpt><trkpt lat="40.329553205816" lon="15.010865595746033"><ele>45.0</ele><time>2026-04-26T16:34:24Z</time></trkpt><trkpt lat="40.3295686568024" lon="15.010758013773273"><ele>45.0</ele><time>2026-04-26T16:34:25Z</time></trkpt><trkpt lat="40.32959174926564" lon="15.010651349183396"><ele>45.0</ele><time>2026-04-26T16:34:26Z</time></trkpt><trkpt lat="40.329629457754955" lon="15.010531021101812"><ele>45.0</ele><time>2026-04-26T16:34:27Z</time></trkpt><trkpt lat="40.32967948778563" lon="15.010417898103597"><ele>47.0</ele><time>2026-04-26T16:34:28Z</time></trkpt><trkpt lat="40.32974277827738" lon="15.010302256503806"><ele>49.0</ele><time>2026-04-26T16:34:29Z</time></trkpt><trkpt lat="40.329812387777494" lon="15.010185063885743"><ele>51.0</ele><time>2026-04-26T16:34:30Z</time></trkpt><trkpt lat="40.32989203285275" lon="15.0100616840598"><ele>53.0</ele><time>2026-04-26T16:34:31Z</time></trkpt><trkpt lat="40.32997950569145" lon="15.009936802723518"><ele>53.0</ele><time>2026-04-26T16:34:32Z</time></trkpt><trkpt lat="40.330072306701396" lon="15.009827598846973"><ele>53.0</ele><time>2026-04-26T16:34:33Z</time></trkpt><trkpt lat="40.33016888697172" lon="15.009739886381475"><ele>53.0</ele><time>2026-04-26T16:34:34Z</time></trkpt><trkpt lat="40.33026685507004" lon="15.009660079018285"><ele>53.0</ele><time>2026-04-26T16:34:35Z</time></trkpt><trkpt lat="40.33039131407821" lon="15.009573722508463"><ele>53.0</ele><time>2026-04-26T16:34:36Z</time></trkpt><trkpt lat="40.330512075727476" lon="15.009499537019714"><ele>53.0</ele><time>2026-04-26T16:34:37Z</time></trkpt><trkpt lat="40.330626633389784" lon="15.00943279616014"><ele>53.0</ele><time>2026-04-26T16:34:38Z</time></trkpt><trkpt lat="40.330738078007826" lon="15.009360090649666"><ele>53.0</ele><time>2026-04-26T16:34:39Z</time></trkpt><trkpt lat="40.33085398141021" lon="15.009279665877141"><ele>54.75</ele><time>2026-04-26T16:34:40Z</time></trkpt><trkpt lat="40.33097218054843" lon="15.009193853306481"><ele>56.5</ele><time>2026-04-26T16:34:41Z</time></trkpt><trkpt lat="40.331087245460715" lon="15.00909850505488"><ele>58.25</ele><time>2026-04-26T16:34:42Z</time></trkpt><trkpt lat="40.33119423644672" lon="15.008998933368394"><ele>60.0</ele><time>2026-04-26T16:34:43Z</time></trkpt><trkpt lat="40.33128918926139" lon="15.008882796458932"><ele>54.5</ele><time>2026-04-26T16:34:44Z</time></trkpt><trkpt lat="40.331392829007974" lon="15.008791316830397"><ele>49.0</ele><time>2026-04-26T16:34:45Z</time></trkpt><trkpt lat="40.33148855235684" lon="15.008699026059547"><ele>43.5</ele><time>2026-04-26T16:34:46Z</time></trkpt><trkpt lat="40.331589316735645" lon="15.008627521682117"><ele>38.0</ele><time>2026-04-26T16:34:47Z</time></trkpt><trkpt lat="40.331702365976696" lon="15.008562602636708"><ele>38.0</ele><time>2026-04-26T16:34:48Z</time></trkpt><trkpt lat="40.33180677549975" lon="15.00849788178654"><ele>38.0</ele><time>2026-04-26T16:34:49Z</time></trkpt><trkpt lat="40.331910440780305" lon="15.008466934135779"><ele>38.0</ele><time>2026-04-26T16:34:50Z</time></trkpt><trkpt lat="40.332011505963386" lon="15.008433472207043"><ele>38.0</ele><time>2026-04-26T16:34:51Z</time></trkpt><trkpt lat="40.33211725234766" lon="15.008391436792156"><ele>38.0</ele><time>2026-04-26T16:34:52Z</time></trkpt><trkpt lat="40.33221364760898" lon="15.008334373707216"><ele>38.8</ele><time>2026-04-26T16:34:53Z</time></trkpt><trkpt lat="40.332296222392266" lon="15.008252911412264"><ele>39.599999999999994</ele><time>2026-04-26T16:34:54Z</time></trkpt><trkpt lat="40.3323537975993" lon="15.008141126902771"><ele>40.400000000000006</ele><time>2026-04-26T16:34:55Z</time></trkpt><trkpt lat="40.33241059408362" lon="15.008025315165872"><ele>41.2</ele><time>2026-04-26T16:34:56Z</time></trkpt><trkpt lat="40.332473359265606" lon="15.007885076386062"><ele>42.0</ele><time>2026-04-26T16:34:57Z</time></trkpt><trkpt lat="40.33253783261661" lon="15.007748095828171"><ele>42.0</ele><time>2026-04-26T16:34:58Z</time></trkpt><trkpt lat="40.332601509893294" lon="15.007613864848217"><ele>42.0</ele><time>2026-04-26T16:34:59Z</time></trkpt><trkpt lat="40.332680689977074" lon="15.007494045478053"><ele>42.0</ele><time>2026-04-26T16:35:00Z</time></trkpt><trkpt lat="40.33277005579012" lon="15.00737431421884"><ele>42.0</ele><time>2026-04-26T16:35:01Z</time></trkpt><trkpt lat="40.33285480567681" lon="15.007265762731546"><ele>39.25</ele><time>2026-04-26T16:35:02Z</time></trkpt><trkpt lat="40.33293562696201" lon="15.007145041204035"><ele>36.5</ele><time>2026-04-26T16:35:03Z</time></trkpt><trkpt lat="40.33303574393757" lon="15.007026376992837"><ele>33.75</ele><time>2026-04-26T16:35:04Z</time></trkpt><trkpt lat="40.33314025599621" lon="15.006903643761046"><ele>31.0</ele><time>2026-04-26T16:35:05Z</time></trkpt><trkpt lat="40.33323805355833" lon="15.006781178200743"><ele>34.0</ele><time>2026-04-26T16:35:06Z</time></trkpt><trkpt lat="40.333331932908976" lon="15.006657941364075"><ele>37.0</ele><time>2026-04-26T16:35:07Z</time></trkpt><trkpt lat="40.33342706190799" lon="15.00652584437028"><ele>40.0</ele><time>2026-04-26T16:35:08Z</time></trkpt><trkpt lat="40.333521563398506" lon="15.006390868661997"><ele>43.0</ele><time>2026-04-26T16:35:09Z</time></trkpt><trkpt lat="40.33361014329149" lon="15.006253534723486"><ele>43.0</ele><time>2026-04-26T16:35:10Z</time></trkpt><trkpt lat="40.333685636459435" lon="15.006122386173441"><ele>43.0</ele><time>2026-04-26T16:35:11Z</time></trkpt><trkpt lat="40.33375879159387" lon="15.00598804964108"><ele>43.0</ele><time>2026-04-26T16:35:12Z</time></trkpt><trkpt lat="40.33383041391911" lon="15.005846579392866"><ele>43.0</ele><time>2026-04-26T16:35:13Z</time></trkpt><trkpt lat="40.33390123134737" lon="15.005700649091505"><ele>39.5</ele><time>2026-04-26T16:35:14Z</time></trkpt><trkpt lat="40.33396995897606" lon="15.00554907033311"><ele>36.0</ele><time>2026-04-26T16:35:15Z</time></trkpt><trkpt lat="40.33403663204762" lon="15.005406309493264"><ele>32.5</ele><time>2026-04-26T16:35:16Z</time></trkpt><trkpt lat="40.33409341166049" lon="15.005267194865564"><ele>29.0</ele><time>2026-04-26T16:35:17Z</time></trkpt><trkpt lat="40.33414232925125" lon="15.005131389417038"><ele>29.0</ele><time>2026-04-26T16:35:18Z</time></trkpt><trkpt lat="40.33417943228083" lon="15.005000060653037"><ele>29.0</ele><time>2026-04-26T16:35:19Z</time></trkpt><trkpt lat="40.33422317278769" lon="15.004873698840795"><ele>29.0</ele><time>2026-04-26T16:35:20Z</time></trkpt><trkpt lat="40.33428231787955" lon="15.004759479521155"><ele>29.0</ele><time>2026-04-26T16:35:21Z</time></trkpt><trkpt lat="40.33435346969251" lon="15.004651862152814"><ele>29.0</ele><time>2026-04-26T16:35:22Z</time></trkpt><trkpt lat="40.33443559444696" lon="15.004547694966936"><ele>29.0</ele><time>2026-04-26T16:35:23Z</time></trkpt><trkpt lat="40.33452854999299" lon="15.004449628677555"><ele>29.0</ele><time>2026-04-26T16:35:24Z</time></trkpt><trkpt lat="40.33462485559623" lon="15.004363654436121"><ele>29.0</ele><time>2026-04-26T16:35:25Z</time></trkpt><trkpt lat="40.334738141224236" lon="15.00427795464544"><ele>29.0</ele><time>2026-04-26T16:35:26Z</time></trkpt><trkpt lat="40.334860022192316" lon="15.004188412993788"><ele>32.25</ele><time>2026-04-26T16:35:27Z</time></trkpt><trkpt lat="40.33498585339434" lon="15.004106594915969"><ele>35.5</ele><time>2026-04-26T16:35:28Z</time></trkpt><trkpt lat="40.3351189844056" lon="15.004026393486946"><ele>38.75</ele><time>2026-04-26T16:35:29Z</time></trkpt><trkpt lat="40.33524720809417" lon="15.003958151034364"><ele>42.0</ele><time>2026-04-26T16:35:30Z</time></trkpt><trkpt lat="40.33537492464295" lon="15.003889924577086"><ele>42.0</ele><time>2026-04-26T16:35:31Z</time></trkpt><trkpt lat="40.335514782293636" lon="15.00381465587864"><ele>42.0</ele><time>2026-04-26T16:35:32Z</time></trkpt><trkpt lat="40.33564751781984" lon="15.003738033880825"><ele>42.0</ele><time>2026-04-26T16:35:33Z</time></trkpt><trkpt lat="40.33577411646286" lon="15.003665243804363"><ele>42.0</ele><time>2026-04-26T16:35:34Z</time></trkpt><trkpt lat="40.33589250436007" lon="15.003590112202243"><ele>41.25</ele><time>2026-04-26T16:35:35Z</time></trkpt><trkpt lat="40.33600356193497" lon="15.00351969219004"><ele>40.5</ele><time>2026-04-26T16:35:36Z</time></trkpt><trkpt lat="40.33610688091302" lon="15.003443105764362"><ele>39.75</ele><time>2026-04-26T16:35:37Z</time></trkpt><trkpt lat="40.33620037842217" lon="15.003366033464394"><ele>39.0</ele><time>2026-04-26T16:35:38Z</time></trkpt><trkpt lat="40.33628074624448" lon="15.003290454124361"><ele>39.0</ele><time>2026-04-26T16:35:39Z</time></trkpt><trkpt lat="40.336354644747225" lon="15.003217553150652"><ele>39.0</ele><time>2026-04-26T16:35:40Z</time></trkpt><trkpt lat="40.336412253529694" lon="15.00315857042303"><ele>39.0</ele><time>2026-04-26T16:35:41Z</time></trkpt><trkpt lat="40.33646321267427" lon="15.0031021083963"><ele>39.0</ele><time>2026-04-26T16:35:42Z</time></trkpt><trkpt lat="40.33650892092326" lon="15.003044567140222"><ele>39.0</ele><time>2026-04-26T16:35:43Z</time></trkpt><trkpt lat="40.33655589674527" lon="15.00297983907844"><ele>39.0</ele><time>2026-04-26T16:35:44Z</time></trkpt><trkpt lat="40.33663999878881" lon="15.002877789966536"><ele>36.4</ele><time>2026-04-26T16:35:46Z</time></trkpt><trkpt lat="40.33671963815064" lon="15.002796561119228"><ele>33.8</ele><time>2026-04-26T16:35:48Z</time></trkpt><trkpt lat="40.336777886226486" lon="15.002756473393664"><ele>31.200000000000003</ele><time>2026-04-26T16:35:49Z</time></trkpt><trkpt lat="40.33688452690819" lon="15.002720781138528"><ele>28.6</ele><time>2026-04-26T16:35:51Z</time></trkpt><trkpt lat="40.33695494396114" lon="15.002732404278662"><ele>26.0</ele><time>2026-04-26T16:35:53Z</time></trkpt><trkpt lat="40.33705055958892" lon="15.00279051797334"><ele>26.0</ele><time>2026-04-26T16:35:55Z</time></trkpt><trkpt lat="40.33709993564879" lon="15.002859709499907"><ele>26.0</ele><time>2026-04-26T16:35:56Z</time></trkpt><trkpt lat="40.3371433154138" lon="15.002955237413621"><ele>26.0</ele><time>2026-04-26T16:35:57Z</time></trkpt><trkpt lat="40.33718319013271" lon="15.003075574503551"><ele>26.0</ele><time>2026-04-26T16:35:58Z</time></trkpt><trkpt lat="40.33723257258125" lon="15.003223222595157"><ele>26.0</ele><time>2026-04-26T16:35:59Z</time></trkpt><trkpt lat="40.337264676399116" lon="15.003389628411918"><ele>22.333333333333332</ele><time>2026-04-26T16:36:00Z</time></trkpt><trkpt lat="40.33731538696671" lon="15.0035824969824"><ele>18.666666666666664</ele><time>2026-04-26T16:36:01Z</time></trkpt><trkpt lat="40.337368526741244" lon="15.003782685179841"><ele>15.0</ele><time>2026-04-26T16:36:02Z</time></trkpt><trkpt lat="40.337437047567825" lon="15.00400181134787"><ele>15.0</ele><time>2026-04-26T16:36:03Z</time></trkpt><trkpt lat="40.337495239054086" lon="15.004237386411422"><ele>15.0</ele><time>2026-04-26T16:36:04Z</time></trkpt><trkpt lat="40.337547990648545" lon="15.004450580480105"><ele>15.0</ele><time>2026-04-26T16:36:05Z</time></trkpt><trkpt lat="40.33760140014079" lon="15.004657682562133"><ele>15.0</ele><time>2026-04-26T16:36:06Z</time></trkpt><trkpt lat="40.337651552116945" lon="15.004865105254872"><ele>15.0</ele><time>2026-04-26T16:36:07Z</time></trkpt><trkpt lat="40.3376876821158" lon="15.005083635408036"><ele>15.0</ele><time>2026-04-26T16:36:08Z</time></trkpt><trkpt lat="40.337742844499004" lon="15.005297972223895"><ele>15.0</ele><time>2026-04-26T16:36:09Z</time></trkpt><trkpt lat="40.337796575855755" lon="15.005502298808011"><ele>15.0</ele><time>2026-04-26T16:36:10Z</time></trkpt><trkpt lat="40.33786229917262" lon="15.00569317063121"><ele>15.0</ele><time>2026-04-26T16:36:11Z</time></trkpt><trkpt lat="40.337902107878485" lon="15.005894800948937"><ele>15.0</ele><time>2026-04-26T16:36:12Z</time></trkpt><trkpt lat="40.33793883150659" lon="15.006082985076732"><ele>15.0</ele><time>2026-04-26T16:36:13Z</time></trkpt><trkpt lat="40.33798407544622" lon="15.006251280881239"><ele>15.0</ele><time>2026-04-26T16:36:14Z</time></trkpt><trkpt lat="40.338030493517145" lon="15.006414317896766"><ele>15.0</ele><time>2026-04-26T16:36:15Z</time></trkpt><trkpt lat="40.33806249957468" lon="15.006556617769107"><ele>14.833333333333334</ele><time>2026-04-26T16:36:16Z</time></trkpt><trkpt lat="40.33809478780917" lon="15.00668678297634"><ele>14.666666666666668</ele><time>2026-04-26T16:36:17Z</time></trkpt><trkpt lat="40.33812478664219" lon="15.006805721129874"><ele>14.5</ele><time>2026-04-26T16:36:18Z</time></trkpt><trkpt lat="40.33815301383297" lon="15.006918659651646"><ele>14.333333333333334</ele><time>2026-04-26T16:36:19Z</time></trkpt><trkpt lat="40.338178135859714" lon="15.007022301923564"><ele>14.166666666666668</ele><time>2026-04-26T16:36:20Z</time></trkpt><trkpt lat="40.33818952046098" lon="15.007116674062294"><ele>14.0</ele><time>2026-04-26T16:36:21Z</time></trkpt><trkpt lat="40.33818200841426" lon="15.007206002358625"><ele>14.000000000000002</ele><time>2026-04-26T16:36:22Z</time></trkpt><trkpt lat="40.33811091320851" lon="15.007369740340424"><ele>14.0</ele><time>2026-04-26T16:36:24Z</time></trkpt><trkpt lat="40.3380497147007" lon="15.00740941605472"><ele>14.0</ele><time>2026-04-26T16:36:25Z</time></trkpt><trkpt lat="40.33798161913352" lon="15.007418812212386"><ele>14.0</ele><time>2026-04-26T16:36:26Z</time></trkpt><trkpt lat="40.3379160815618" lon="15.007396426370661"><ele>14.000000000000002</ele><time>2026-04-26T16:36:27Z</time></trkpt><trkpt lat="40.33784507306152" lon="15.007351781223232"><ele>14.0</ele><time>2026-04-26T16:36:28Z</time></trkpt><trkpt lat="40.33777753453032" lon="15.007264402655224"><ele>14.2</ele><time>2026-04-26T16:36:29Z</time></trkpt><trkpt lat="40.33771140445941" lon="15.007167223082751"><ele>14.399999999999999</ele><time>2026-04-26T16:36:30Z</time></trkpt><trkpt lat="40.337651774227716" lon="15.00705910899497"><ele>14.6</ele><time>2026-04-26T16:36:31Z</time></trkpt><trkpt lat="40.33761875736892" lon="15.006929757985901"><ele>14.8</ele><time>2026-04-26T16:36:32Z</time></trkpt><trkpt lat="40.33760109004904" lon="15.006787267195595"><ele>15.0</ele><time>2026-04-26T16:36:33Z</time></trkpt><trkpt lat="40.33760535959925" lon="15.006639599408"><ele>15.0</ele><time>2026-04-26T16:36:34Z</time></trkpt><trkpt lat="40.337628006804266" lon="15.006510215178379"><ele>15.0</ele><time>2026-04-26T16:36:35Z</time></trkpt><trkpt lat="40.33767483358081" lon="15.00639502306952"><ele>15.0</ele><time>2026-04-26T16:36:36Z</time></trkpt><trkpt lat="40.33774881713372" lon="15.006278816215533"><ele>15.0</ele><time>2026-04-26T16:36:37Z</time></trkpt><trkpt lat="40.33782036569827" lon="15.006163239369295"><ele>15.0</ele><time>2026-04-26T16:36:38Z</time></trkpt><trkpt lat="40.337947795055165" lon="15.006085293166661"><ele>15.666666666666668</ele><time>2026-04-26T16:36:39Z</time></trkpt><trkpt lat="40.33806602239136" lon="15.005969745328672"><ele>16.333333333333336</ele><time>2026-04-26T16:36:40Z</time></trkpt><trkpt lat="40.33820246958853" lon="15.005837732883817"><ele>17.0</ele><time>2026-04-26T16:36:41Z</time></trkpt><trkpt lat="40.33834165179397" lon="15.005702410646988"><ele>17.0</ele><time>2026-04-26T16:36:42Z</time></trkpt><trkpt lat="40.33848736613134" lon="15.005550319310606"><ele>17.0</ele><time>2026-04-26T16:36:43Z</time></trkpt><trkpt lat="40.33863619450643" lon="15.0053936694573"><ele>17.0</ele><time>2026-04-26T16:36:44Z</time></trkpt><trkpt lat="40.3387808266117" lon="15.005258432659295"><ele>16.0</ele><time>2026-04-26T16:36:45Z</time></trkpt><trkpt lat="40.338920173580064" lon="15.005132574723278"><ele>15.0</ele><time>2026-04-26T16:36:46Z</time></trkpt><trkpt lat="40.339058175871266" lon="15.005004183250623"><ele>14.0</ele><time>2026-04-26T16:36:47Z</time></trkpt><trkpt lat="40.33919543048993" lon="15.004873351042257"><ele>14.0</ele><time>2026-04-26T16:36:48Z</time></trkpt><trkpt lat="40.33933376669001" lon="15.004739911213354"><ele>14.0</ele><time>2026-04-26T16:36:49Z</time></trkpt><trkpt lat="40.33947313264067" lon="15.004607292654976"><ele>14.0</ele><time>2026-04-26T16:36:50Z</time></trkpt><trkpt lat="40.339615437696594" lon="15.00447290685991"><ele>13.666666666666668</ele><time>2026-04-26T16:36:51Z</time></trkpt><trkpt lat="40.33977181288671" lon="15.004330706124529"><ele>13.333333333333332</ele><time>2026-04-26T16:36:52Z</time></trkpt><trkpt lat="40.33992836853044" lon="15.004190751982266"><ele>13.0</ele><time>2026-04-26T16:36:53Z</time></trkpt><trkpt lat="40.340081822138636" lon="15.004048513237366"><ele>12.666666666666666</ele><time>2026-04-26T16:36:54Z</time></trkpt><trkpt lat="40.34023656494592" lon="15.003896810400683"><ele>12.333333333333332</ele><time>2026-04-26T16:36:55Z</time></trkpt><trkpt lat="40.340401705755404" lon="15.003739261643757"><ele>12.0</ele><time>2026-04-26T16:36:56Z</time></trkpt><trkpt lat="40.34055855722751" lon="15.00359325488889"><ele>11.666666666666666</ele><time>2026-04-26T16:36:57Z</time></trkpt><trkpt lat="40.34070552327288" lon="15.003462254761255"><ele>11.333333333333332</ele><time>2026-04-26T16:36:58Z</time></trkpt><trkpt lat="40.340848527051705" lon="15.003337050521985"><ele>11.0</ele><time>2026-04-26T16:36:59Z</time></trkpt><trkpt lat="40.34098069870294" lon="15.003217351704837"><ele>10.666666666666666</ele><time>2026-04-26T16:37:00Z</time></trkpt><trkpt lat="40.34111241920911" lon="15.003097305664287"><ele>10.333333333333334</ele><time>2026-04-26T16:37:01Z</time></trkpt><trkpt lat="40.34124425833922" lon="15.002977509303447"><ele>10.0</ele><time>2026-04-26T16:37:02Z</time></trkpt><trkpt lat="40.341373346905655" lon="15.002869799172245"><ele>11.0</ele><time>2026-04-26T16:37:03Z</time></trkpt><trkpt lat="40.34150437172818" lon="15.002763363993838"><ele>12.0</ele><time>2026-04-26T16:37:04Z</time></trkpt><trkpt lat="40.34163549684817" lon="15.00266332565819"><ele>13.0</ele><time>2026-04-26T16:37:05Z</time></trkpt><trkpt lat="40.34176211893568" lon="15.002573575843071"><ele>12.75</ele><time>2026-04-26T16:37:06Z</time></trkpt><trkpt lat="40.341886082315355" lon="15.002483715483862"><ele>12.5</ele><time>2026-04-26T16:37:07Z</time></trkpt><trkpt lat="40.34201320237618" lon="15.002396090835669"><ele>12.25</ele><time>2026-04-26T16:37:08Z</time></trkpt><trkpt lat="40.34213892491511" lon="15.002314917056546"><ele>12.0</ele><time>2026-04-26T16:37:09Z</time></trkpt><trkpt lat="40.34226857052589" lon="15.002233789113678"><ele>11.0</ele><time>2026-04-26T16:37:10Z</time></trkpt><trkpt lat="40.34240384874037" lon="15.002159110433466"><ele>10.0</ele><time>2026-04-26T16:37:11Z</time></trkpt><trkpt lat="40.34254616879859" lon="15.002089546683889"><ele>9.0</ele><time>2026-04-26T16:37:12Z</time></trkpt><trkpt lat="40.34269706633149" lon="15.00202426878095"><ele>9.0</ele><time>2026-04-26T16:37:13Z</time></trkpt><trkpt lat="40.34285733644418" lon="15.00195548244576"><ele>9.0</ele><time>2026-04-26T16:37:14Z</time></trkpt><trkpt lat="40.343029980078406" lon="15.001888810874672"><ele>9.0</ele><time>2026-04-26T16:37:15Z</time></trkpt><trkpt lat="40.3432170812093" lon="15.0018268717241"><ele>9.333333333333334</ele><time>2026-04-26T16:37:16Z</time></trkpt><trkpt lat="40.343417546285" lon="15.001772108354999"><ele>9.666666666666668</ele><time>2026-04-26T16:37:17Z</time></trkpt><trkpt lat="40.34363189735365" lon="15.001723067631383"><ele>10.0</ele><time>2026-04-26T16:37:18Z</time></trkpt><trkpt lat="40.34385401121194" lon="15.001683851644609"><ele>9.5</ele><time>2026-04-26T16:37:19Z</time></trkpt><trkpt lat="40.34408072589484" lon="15.001658019505715"><ele>9.0</ele><time>2026-04-26T16:37:20Z</time></trkpt><trkpt lat="40.344312434785266" lon="15.001646168099509"><ele>9.0</ele><time>2026-04-26T16:37:21Z</time></trkpt><trkpt lat="40.344548822651404" lon="15.001637500631997"><ele>9.0</ele><time>2026-04-26T16:37:22Z</time></trkpt><trkpt lat="40.34479018747844" lon="15.001635341902904"><ele>9.5</ele><time>2026-04-26T16:37:23Z</time></trkpt><trkpt lat="40.34503151504878" lon="15.00165814025819"><ele>10.0</ele><time>2026-04-26T16:37:24Z</time></trkpt><trkpt lat="40.345277179658524" lon="15.001692165308802"><ele>10.5</ele><time>2026-04-26T16:37:25Z</time></trkpt><trkpt lat="40.345527071022275" lon="15.001730298834755"><ele>11.0</ele><time>2026-04-26T16:37:26Z</time></trkpt><trkpt lat="40.34578099882574" lon="15.00176419674351"><ele>14.0</ele><time>2026-04-26T16:37:27Z</time></trkpt><trkpt lat="40.34603595773068" lon="15.001804778359629"><ele>17.0</ele><time>2026-04-26T16:37:28Z</time></trkpt><trkpt lat="40.346297660376884" lon="15.001846496866031"><ele>18.0</ele><time>2026-04-26T16:37:29Z</time></trkpt><trkpt lat="40.346564572591944" lon="15.001883400962814"><ele>19.0</ele><time>2026-04-26T16:37:30Z</time></trkpt><trkpt lat="40.34683289431682" lon="15.001921916159672"><ele>19.0</ele><time>2026-04-26T16:37:31Z</time></trkpt><trkpt lat="40.3471047777018" lon="15.001959838293432"><ele>19.0</ele><time>2026-04-26T16:37:32Z</time></trkpt><trkpt lat="40.347377895870615" lon="15.001994810120717"><ele>19.0</ele><time>2026-04-26T16:37:33Z</time></trkpt><trkpt lat="40.34763440756477" lon="15.002031524879746"><ele>19.0</ele><time>2026-04-26T16:37:34Z</time></trkpt><trkpt lat="40.34787649012255" lon="15.002062394844783"><ele>18.5</ele><time>2026-04-26T16:37:35Z</time></trkpt><trkpt lat="40.348123204204306" lon="15.002103148394307"><ele>18.0</ele><time>2026-04-26T16:37:36Z</time></trkpt><trkpt lat="40.348378684440206" lon="15.002150515015122"><ele>18.0</ele><time>2026-04-26T16:37:37Z</time></trkpt><trkpt lat="40.348637529007895" lon="15.00220680659255"><ele>18.0</ele><time>2026-04-26T16:37:38Z</time></trkpt><trkpt lat="40.348898574791356" lon="15.002265652652248"><ele>15.5</ele><time>2026-04-26T16:37:39Z</time></trkpt><trkpt lat="40.34916067549821" lon="15.002334296133958"><ele>13.0</ele><time>2026-04-26T16:37:40Z</time></trkpt><trkpt lat="40.349425023159746" lon="15.002415821524645"><ele>15.5</ele><time>2026-04-26T16:37:41Z</time></trkpt><trkpt lat="40.349666402968516" lon="15.0024999600953"><ele>18.0</ele><time>2026-04-26T16:37:42Z</time></trkpt><trkpt lat="40.34989771227731" lon="15.002596576503171"><ele>18.0</ele><time>2026-04-26T16:37:43Z</time></trkpt><trkpt lat="40.35012797723636" lon="15.002703567647023"><ele>18.0</ele><time>2026-04-26T16:37:44Z</time></trkpt><trkpt lat="40.35037343770895" lon="15.002806113740675"><ele>15.5</ele><time>2026-04-26T16:37:45Z</time></trkpt><trkpt lat="40.350619601523626" lon="15.002917177325509"><ele>13.0</ele><time>2026-04-26T16:37:46Z</time></trkpt><trkpt lat="40.350868710564626" lon="15.003034038509966"><ele>13.0</ele><time>2026-04-26T16:37:47Z</time></trkpt><trkpt lat="40.35112796071574" lon="15.003141125243422"><ele>13.0</ele><time>2026-04-26T16:37:48Z</time></trkpt><trkpt lat="40.35139188204618" lon="15.003250609347885"><ele>15.0</ele><time>2026-04-26T16:37:49Z</time></trkpt><trkpt lat="40.351659648979656" lon="15.00335378635726"><ele>17.0</ele><time>2026-04-26T16:37:50Z</time></trkpt><trkpt lat="40.3519147063011" lon="15.003447528003809"><ele>17.0</ele><time>2026-04-26T16:37:51Z</time></trkpt><trkpt lat="40.35217083923251" lon="15.003531647454643"><ele>17.0</ele><time>2026-04-26T16:37:52Z</time></trkpt><trkpt lat="40.35242845198581" lon="15.003606293733924"><ele>17.0</ele><time>2026-04-26T16:37:53Z</time></trkpt><trkpt lat="40.35269303008368" lon="15.003671282996173"><ele>17.0</ele><time>2026-04-26T16:37:54Z</time></trkpt><trkpt lat="40.35295241820533" lon="15.003723282787757"><ele>16.0</ele><time>2026-04-26T16:37:55Z</time></trkpt><trkpt lat="40.3531986950453" lon="15.003770754013642"><ele>15.0</ele><time>2026-04-26T16:37:56Z</time></trkpt><trkpt lat="40.35342967441849" lon="15.003815774861485"><ele>15.0</ele><time>2026-04-26T16:37:57Z</time></trkpt><trkpt lat="40.35364305574018" lon="15.003844500373473"><ele>15.0</ele><time>2026-04-26T16:37:58Z</time></trkpt><trkpt lat="40.35385172481776" lon="15.003862909440954"><ele>15.0</ele><time>2026-04-26T16:37:59Z</time></trkpt><trkpt lat="40.35405812592281" lon="15.003877896153519"><ele>14.5</ele><time>2026-04-26T16:38:00Z</time></trkpt><trkpt lat="40.35427927768325" lon="15.003876948891248"><ele>14.0</ele><time>2026-04-26T16:38:01Z</time></trkpt><trkpt lat="40.35451271153662" lon="15.003899917420734"><ele>15.5</ele><time>2026-04-26T16:38:02Z</time></trkpt><trkpt lat="40.354749470120005" lon="15.003901577281303"><ele>17.0</ele><time>2026-04-26T16:38:03Z</time></trkpt><trkpt lat="40.35499093714551" lon="15.003876506725346"><ele>17.0</ele><time>2026-04-26T16:38:04Z</time></trkpt><trkpt lat="40.355236856114175" lon="15.003881308197567"><ele>17.0</ele><time>2026-04-26T16:38:05Z</time></trkpt><trkpt lat="40.35549008471605" lon="15.003868791410547"><ele>18.0</ele><time>2026-04-26T16:38:06Z</time></trkpt><trkpt lat="40.355745675849334" lon="15.003882809598787"><ele>19.0</ele><time>2026-04-26T16:38:07Z</time></trkpt><trkpt lat="40.356004337556755" lon="15.003812204197327"><ele>19.0</ele><time>2026-04-26T16:38:08Z</time></trkpt><trkpt lat="40.35626980006327" lon="15.003770131724277"><ele>19.0</ele><time>2026-04-26T16:38:09Z</time></trkpt><trkpt lat="40.35651941175064" lon="15.003716183600671"><ele>19.5</ele><time>2026-04-26T16:38:10Z</time></trkpt><trkpt lat="40.35675036983756" lon="15.003653046249944"><ele>20.0</ele><time>2026-04-26T16:38:11Z</time></trkpt><trkpt lat="40.35696511812887" lon="15.003592110722803"><ele>20.0</ele><time>2026-04-26T16:38:12Z</time></trkpt><trkpt lat="40.357161066873495" lon="15.00353764051185"><ele>20.0</ele><time>2026-04-26T16:38:13Z</time></trkpt><trkpt lat="40.3573489773952" lon="15.003482878879916"><ele>20.0</ele><time>2026-04-26T16:38:14Z</time></trkpt><trkpt lat="40.357540940743775" lon="15.003428860751937"><ele>20.0</ele><time>2026-04-26T16:38:15Z</time></trkpt><trkpt lat="40.35774650987969" lon="15.003368770776762"><ele>20.0</ele><time>2026-04-26T16:38:16Z</time></trkpt><trkpt lat="40.35796028172891" lon="15.003305008155131"><ele>20.0</ele><time>2026-04-26T16:38:17Z</time></trkpt><trkpt lat="40.358179388104965" lon="15.003242247979312"><ele>17.666666666666668</ele><time>2026-04-26T16:38:18Z</time></trkpt><trkpt lat="40.35838936093828" lon="15.00317931022297"><ele>15.333333333333332</ele><time>2026-04-26T16:38:19Z</time></trkpt><trkpt lat="40.358594932239214" lon="15.003119561238993"><ele>13.0</ele><time>2026-04-26T16:38:20Z</time></trkpt><trkpt lat="40.35879806345143" lon="15.003061591734266"><ele>13.0</ele><time>2026-04-26T16:38:21Z</time></trkpt><trkpt lat="40.35899376827219" lon="15.003002705967143"><ele>13.0</ele><time>2026-04-26T16:38:22Z</time></trkpt><trkpt lat="40.35917679043442" lon="15.00294941964446"><ele>13.0</ele><time>2026-04-26T16:38:23Z</time></trkpt><trkpt lat="40.35935191911911" lon="15.00290222574159"><ele>13.0</ele><time>2026-04-26T16:38:24Z</time></trkpt><trkpt lat="40.35951916329687" lon="15.002859340462422"><ele>13.0</ele><time>2026-04-26T16:38:25Z</time></trkpt><trkpt lat="40.35968835150026" lon="15.002816276947366"><ele>13.0</ele><time>2026-04-26T16:38:26Z</time></trkpt><trkpt lat="40.35985272047668" lon="15.002772090196366"><ele>12.666666666666666</ele><time>2026-04-26T16:38:27Z</time></trkpt><trkpt lat="40.360011117920884" lon="15.002729128437274"><ele>12.333333333333332</ele><time>2026-04-26T16:38:28Z</time></trkpt><trkpt lat="40.36015897040524" lon="15.002685365932871"><ele>12.0</ele><time>2026-04-26T16:38:29Z</time></trkpt><trkpt lat="40.360309647416415" lon="15.002642950131941"><ele>12.0</ele><time>2026-04-26T16:38:30Z</time></trkpt><trkpt lat="40.36045643812095" lon="15.002605946525554"><ele>12.0</ele><time>2026-04-26T16:38:31Z</time></trkpt><trkpt lat="40.36059213847012" lon="15.002569356771534"><ele>12.0</ele><time>2026-04-26T16:38:32Z</time></trkpt><trkpt lat="40.36073385435975" lon="15.002527134496031"><ele>12.0</ele><time>2026-04-26T16:38:33Z</time></trkpt><trkpt lat="40.360882430014314" lon="15.002483187735594"><ele>11.25</ele><time>2026-04-26T16:38:34Z</time></trkpt><trkpt lat="40.36102512040839" lon="15.00244304377328"><ele>10.5</ele><time>2026-04-26T16:38:35Z</time></trkpt><trkpt lat="40.3611685313206" lon="15.002405443786419"><ele>9.75</ele><time>2026-04-26T16:38:36Z</time></trkpt><trkpt lat="40.361316957439556" lon="15.002361052985203"><ele>9.0</ele><time>2026-04-26T16:38:37Z</time></trkpt><trkpt lat="40.361476456530276" lon="15.002314994036876"><ele>9.0</ele><time>2026-04-26T16:38:38Z</time></trkpt><trkpt lat="40.361643665950986" lon="15.002259365650975"><ele>9.0</ele><time>2026-04-26T16:38:39Z</time></trkpt><trkpt lat="40.361821003667316" lon="15.002209041067248"><ele>9.0</ele><time>2026-04-26T16:38:40Z</time></trkpt><trkpt lat="40.362005232936404" lon="15.002157080803757"><ele>9.333333333333334</ele><time>2026-04-26T16:38:41Z</time></trkpt><trkpt lat="40.362206686643354" lon="15.002104164477174"><ele>9.666666666666668</ele><time>2026-04-26T16:38:42Z</time></trkpt><trkpt lat="40.362422016074895" lon="15.00204733284368"><ele>10.0</ele><time>2026-04-26T16:38:43Z</time></trkpt><trkpt lat="40.362645991733345" lon="15.001985602631994"><ele>10.0</ele><time>2026-04-26T16:38:44Z</time></trkpt><trkpt lat="40.362881055299795" lon="15.001922041304194"><ele>10.0</ele><time>2026-04-26T16:38:45Z</time></trkpt><trkpt lat="40.363122356991305" lon="15.001867276996208"><ele>9.5</ele><time>2026-04-26T16:38:46Z</time></trkpt><trkpt lat="40.363370639240394" lon="15.001816773831118"><ele>9.0</ele><time>2026-04-26T16:38:47Z</time></trkpt><trkpt lat="40.36362742775662" lon="15.001781324645135"><ele>9.5</ele><time>2026-04-26T16:38:48Z</time></trkpt><trkpt lat="40.36388637382469" lon="15.001757945169922"><ele>10.0</ele><time>2026-04-26T16:38:49Z</time></trkpt><trkpt lat="40.36414981522283" lon="15.001738073635853"><ele>10.0</ele><time>2026-04-26T16:38:50Z</time></trkpt><trkpt lat="40.364417708956935" lon="15.001719905311932"><ele>10.0</ele><time>2026-04-26T16:38:51Z</time></trkpt><trkpt lat="40.36469018442289" lon="15.001706851755735"><ele>11.0</ele><time>2026-04-26T16:38:52Z</time></trkpt><trkpt lat="40.364967563977594" lon="15.00169290289454"><ele>12.0</ele><time>2026-04-26T16:38:53Z</time></trkpt><trkpt lat="40.365249573916365" lon="15.001681478556405"><ele>11.5</ele><time>2026-04-26T16:38:54Z</time></trkpt><trkpt lat="40.36553251129723" lon="15.001671263835217"><ele>11.0</ele><time>2026-04-26T16:38:55Z</time></trkpt><trkpt lat="40.36581519696023" lon="15.00165830683022"><ele>9.0</ele><time>2026-04-26T16:38:56Z</time></trkpt><trkpt lat="40.366073679505824" lon="15.00164214255063"><ele>7.0</ele><time>2026-04-26T16:38:57Z</time></trkpt><trkpt lat="40.36631470373392" lon="15.001631580048528"><ele>6.666666666666667</ele><time>2026-04-26T16:38:58Z</time></trkpt><trkpt lat="40.366544474157976" lon="15.0016232882052"><ele>6.333333333333334</ele><time>2026-04-26T16:38:59Z</time></trkpt><trkpt lat="40.366761140445696" lon="15.001619115004695"><ele>6.0</ele><time>2026-04-26T16:39:00Z</time></trkpt><trkpt lat="40.366962924962245" lon="15.001615198292567"><ele>6.0</ele><time>2026-04-26T16:39:01Z</time></trkpt><trkpt lat="40.3671533815599" lon="15.001606383884472"><ele>6.0</ele><time>2026-04-26T16:39:02Z</time></trkpt><trkpt lat="40.3673349085541" lon="15.001598446738345"><ele>6.0</ele><time>2026-04-26T16:39:03Z</time></trkpt><trkpt lat="40.36750594260254" lon="15.001593246169799"><ele>6.666666666666666</ele><time>2026-04-26T16:39:04Z</time></trkpt><trkpt lat="40.367687271606016" lon="15.001586806682958"><ele>7.333333333333333</ele><time>2026-04-26T16:39:05Z</time></trkpt><trkpt lat="40.36788444600031" lon="15.00157836892396"><ele>8.0</ele><time>2026-04-26T16:39:06Z</time></trkpt><trkpt lat="40.368094496109926" lon="15.001566747287749"><ele>9.0</ele><time>2026-04-26T16:39:07Z</time></trkpt><trkpt lat="40.36831424417012" lon="15.001555950974126"><ele>10.0</ele><time>2026-04-26T16:39:08Z</time></trkpt><trkpt lat="40.36852957827913" lon="15.001544508661562"><ele>11.0</ele><time>2026-04-26T16:39:09Z</time></trkpt><trkpt lat="40.368731188184896" lon="15.001532922540031"><ele>12.0</ele><time>2026-04-26T16:39:10Z</time></trkpt><trkpt lat="40.36892938968704" lon="15.0015282793746"><ele>13.0</ele><time>2026-04-26T16:39:11Z</time></trkpt><trkpt lat="40.36913926053374" lon="15.001523832158517"><ele>14.0</ele><time>2026-04-26T16:39:12Z</time></trkpt><trkpt lat="40.36935552553083" lon="15.00152428607129"><ele>14.0</ele><time>2026-04-26T16:39:13Z</time></trkpt><trkpt lat="40.36956620287417" lon="15.001528842006415"><ele>14.0</ele><time>2026-04-26T16:39:14Z</time></trkpt><trkpt lat="40.369761603239496" lon="15.001539618509254"><ele>14.0</ele><time>2026-04-26T16:39:15Z</time></trkpt><trkpt lat="40.369957521075655" lon="15.001553537421563"><ele>14.333333333333334</ele><time>2026-04-26T16:39:16Z</time></trkpt><trkpt lat="40.37015316623575" lon="15.001571593187016"><ele>14.666666666666668</ele><time>2026-04-26T16:39:17Z</time></trkpt><trkpt lat="40.370347473577525" lon="15.001598527929373"><ele>15.0</ele><time>2026-04-26T16:39:18Z</time></trkpt><trkpt lat="40.37054040190209" lon="15.001636615952512"><ele>17.0</ele><time>2026-04-26T16:39:19Z</time></trkpt><trkpt lat="40.37073624966204" lon="15.001674783157082"><ele>19.0</ele><time>2026-04-26T16:39:20Z</time></trkpt><trkpt lat="40.37093280572922" lon="15.001714719261948"><ele>21.0</ele><time>2026-04-26T16:39:21Z</time></trkpt><trkpt lat="40.371127949637625" lon="15.00175234388043"><ele>21.0</ele><time>2026-04-26T16:39:22Z</time></trkpt><trkpt lat="40.37133332846714" lon="15.001784423117455"><ele>21.0</ele><time>2026-04-26T16:39:23Z</time></trkpt><trkpt lat="40.37154898362729" lon="15.001818966511483"><ele>21.0</ele><time>2026-04-26T16:39:24Z</time></trkpt><trkpt lat="40.37177254175668" lon="15.001852131192175"><ele>21.0</ele><time>2026-04-26T16:39:25Z</time></trkpt><trkpt lat="40.371996801196225" lon="15.001882690567319"><ele>21.0</ele><time>2026-04-26T16:39:26Z</time></trkpt><trkpt lat="40.37220610048775" lon="15.001912647500667"><ele>21.0</ele><time>2026-04-26T16:39:27Z</time></trkpt><trkpt lat="40.37241028913546" lon="15.00194312966133"><ele>20.666666666666668</ele><time>2026-04-26T16:39:28Z</time></trkpt><trkpt lat="40.372608490555066" lon="15.001976326256408"><ele>20.333333333333336</ele><time>2026-04-26T16:39:29Z</time></trkpt><trkpt lat="40.37280309883199" lon="15.002009022421607"><ele>20.0</ele><time>2026-04-26T16:39:30Z</time></trkpt><trkpt lat="40.372992788018394" lon="15.00204035368561"><ele>20.0</ele><time>2026-04-26T16:39:31Z</time></trkpt><trkpt lat="40.37317833155663" lon="15.002069966931185"><ele>20.0</ele><time>2026-04-26T16:39:32Z</time></trkpt><trkpt lat="40.373361132950905" lon="15.002099407026298"><ele>20.0</ele><time>2026-04-26T16:39:33Z</time></trkpt><trkpt lat="40.37354276199496" lon="15.002132190998704"><ele>20.0</ele><time>2026-04-26T16:39:34Z</time></trkpt><trkpt lat="40.37372818535469" lon="15.00216713485884"><ele>20.0</ele><time>2026-04-26T16:39:35Z</time></trkpt><trkpt lat="40.373914331786416" lon="15.00220319729688"><ele>20.0</ele><time>2026-04-26T16:39:36Z</time></trkpt><trkpt lat="40.37410184901354" lon="15.002243081206602"><ele>18.666666666666668</ele><time>2026-04-26T16:39:37Z</time></trkpt><trkpt lat="40.37428985891639" lon="15.002286947201911"><ele>17.333333333333332</ele><time>2026-04-26T16:39:38Z</time></trkpt><trkpt lat="40.374478760852725" lon="15.002338189625418"><ele>16.0</ele><time>2026-04-26T16:39:39Z</time></trkpt><trkpt lat="40.37466882602468" lon="15.002394384661603"><ele>15.333333333333332</ele><time>2026-04-26T16:39:40Z</time></trkpt><trkpt lat="40.37485058568721" lon="15.00246021088899"><ele>14.666666666666668</ele><time>2026-04-26T16:39:41Z</time></trkpt><trkpt lat="40.375024570689035" lon="15.002565510667422"><ele>14.0</ele><time>2026-04-26T16:39:42Z</time></trkpt><trkpt lat="40.375206450273396" lon="15.002641357976"><ele>16.0</ele><time>2026-04-26T16:39:43Z</time></trkpt><trkpt lat="40.375380104177005" lon="15.002757441091664"><ele>18.0</ele><time>2026-04-26T16:39:44Z</time></trkpt><trkpt lat="40.37555184048306" lon="15.002881308078244"><ele>20.0</ele><time>2026-04-26T16:39:45Z</time></trkpt><trkpt lat="40.375725494457804" lon="15.00300652928567"><ele>20.0</ele><time>2026-04-26T16:39:46Z</time></trkpt><trkpt lat="40.375896832803676" lon="15.003140945336998"><ele>20.0</ele><time>2026-04-26T16:39:47Z</time></trkpt><trkpt lat="40.37606766042807" lon="15.00328101318668"><ele>20.0</ele><time>2026-04-26T16:39:48Z</time></trkpt><trkpt lat="40.37623751989286" lon="15.003430790325705"><ele>19.333333333333336</ele><time>2026-04-26T16:39:49Z</time></trkpt><trkpt lat="40.37641167797221" lon="15.003592361212489"><ele>18.666666666666668</ele><time>2026-04-26T16:39:50Z</time></trkpt><trkpt lat="40.37658885324092" lon="15.003766325990899"><ele>18.0</ele><time>2026-04-26T16:39:51Z</time></trkpt><trkpt lat="40.376760069416875" lon="15.003968123905384"><ele>23.5</ele><time>2026-04-26T16:39:52Z</time></trkpt><trkpt lat="40.37694257788341" lon="15.004167668528986"><ele>29.0</ele><time>2026-04-26T16:39:53Z</time></trkpt><trkpt lat="40.377114859210764" lon="15.004356790373976"><ele>25.333333333333332</ele><time>2026-04-26T16:39:54Z</time></trkpt><trkpt lat="40.37727593517878" lon="15.004533795106628"><ele>21.666666666666664</ele><time>2026-04-26T16:39:55Z</time></trkpt><trkpt lat="40.37744625926698" lon="15.004692732616181"><ele>18.0</ele><time>2026-04-26T16:39:56Z</time></trkpt><trkpt lat="40.37760442247916" lon="15.004895539848963"><ele>18.0</ele><time>2026-04-26T16:39:57Z</time></trkpt><trkpt lat="40.3777769412249" lon="15.00508529688775"><ele>18.0</ele><time>2026-04-26T16:39:58Z</time></trkpt><trkpt lat="40.377938664377304" lon="15.005260935234448"><ele>18.0</ele><time>2026-04-26T16:39:59Z</time></trkpt><trkpt lat="40.37809201980564" lon="15.005426689257323"><ele>18.0</ele><time>2026-04-26T16:40:00Z</time></trkpt><trkpt lat="40.37824316703155" lon="15.005591407612574"><ele>18.0</ele><time>2026-04-26T16:40:01Z</time></trkpt><trkpt lat="40.378400211991675" lon="15.0057356318792"><ele>18.0</ele><time>2026-04-26T16:40:02Z</time></trkpt><trkpt lat="40.37854024310522" lon="15.00589115295141"><ele>19.0</ele><time>2026-04-26T16:40:03Z</time></trkpt><trkpt lat="40.378681995242786" lon="15.006054239616443"><ele>20.0</ele><time>2026-04-26T16:40:04Z</time></trkpt><trkpt lat="40.3788172128367" lon="15.006206577052565"><ele>21.0</ele><time>2026-04-26T16:40:05Z</time></trkpt><trkpt lat="40.37893781533602" lon="15.006346116641085"><ele>21.0</ele><time>2026-04-26T16:40:06Z</time></trkpt><trkpt lat="40.37904673033769" lon="15.006475243527932"><ele>21.0</ele><time>2026-04-26T16:40:07Z</time></trkpt><trkpt lat="40.37914484523885" lon="15.00659510952856"><ele>21.0</ele><time>2026-04-26T16:40:08Z</time></trkpt><trkpt lat="40.37923228390352" lon="15.006711866955886"><ele>21.0</ele><time>2026-04-26T16:40:09Z</time></trkpt><trkpt lat="40.37931696099277" lon="15.006823491157496"><ele>23.25</ele><time>2026-04-26T16:40:10Z</time></trkpt><trkpt lat="40.379398119090936" lon="15.006932124482459"><ele>25.5</ele><time>2026-04-26T16:40:11Z</time></trkpt><trkpt lat="40.37947351259067" lon="15.007032117026288"><ele>27.75</ele><time>2026-04-26T16:40:12Z</time></trkpt><trkpt lat="40.379553534111665" lon="15.007141853305434"><ele>30.0</ele><time>2026-04-26T16:40:13Z</time></trkpt><trkpt lat="40.37963688780513" lon="15.007269470041777"><ele>28.5</ele><time>2026-04-26T16:40:14Z</time></trkpt><trkpt lat="40.37971346579985" lon="15.007405381983073"><ele>27.0</ele><time>2026-04-26T16:40:15Z</time></trkpt><trkpt lat="40.37978904853985" lon="15.007524798456124"><ele>25.5</ele><time>2026-04-26T16:40:16Z</time></trkpt><trkpt lat="40.37985765668693" lon="15.007633303738556"><ele>24.0</ele><time>2026-04-26T16:40:17Z</time></trkpt><trkpt lat="40.37991733859453" lon="15.00773367596982"><ele>24.0</ele><time>2026-04-26T16:40:18Z</time></trkpt><trkpt lat="40.379972484287855" lon="15.007827467406127"><ele>24.0</ele><time>2026-04-26T16:40:19Z</time></trkpt><trkpt lat="40.38002322463694" lon="15.007920455422015"><ele>24.0</ele><time>2026-04-26T16:40:20Z</time></trkpt><trkpt lat="40.380070087938854" lon="15.008008072105579"><ele>24.0</ele><time>2026-04-26T16:40:21Z</time></trkpt><trkpt lat="40.38011409330311" lon="15.008093740439309"><ele>24.0</ele><time>2026-04-26T16:40:22Z</time></trkpt><trkpt lat="40.38015513836999" lon="15.008172051174473"><ele>24.0</ele><time>2026-04-26T16:40:23Z</time></trkpt><trkpt lat="40.380193015360305" lon="15.00824363156775"><ele>24.0</ele><time>2026-04-26T16:40:24Z</time></trkpt><trkpt lat="40.380228870806924" lon="15.008311622924571"><ele>24.0</ele><time>2026-04-26T16:40:25Z</time></trkpt><trkpt lat="40.38026863954813" lon="15.008392410991958"><ele>24.0</ele><time>2026-04-26T16:40:26Z</time></trkpt><trkpt lat="40.38031842602391" lon="15.008487371722158"><ele>24.0</ele><time>2026-04-26T16:40:27Z</time></trkpt><trkpt lat="40.38036680278315" lon="15.008582290362893"><ele>24.0</ele><time>2026-04-26T16:40:28Z</time></trkpt><trkpt lat="40.38042007996143" lon="15.008684255843606"><ele>24.0</ele><time>2026-04-26T16:40:29Z</time></trkpt><trkpt lat="40.38045795776785" lon="15.008778941050084"><ele>24.166666666666668</ele><time>2026-04-26T16:40:30Z</time></trkpt><trkpt lat="40.38049855223815" lon="15.008876964581162"><ele>24.333333333333336</ele><time>2026-04-26T16:40:31Z</time></trkpt><trkpt lat="40.380543426135254" lon="15.00897559912545"><ele>24.5</ele><time>2026-04-26T16:40:32Z</time></trkpt><trkpt lat="40.380590268906225" lon="15.009079577935072"><ele>24.666666666666668</ele><time>2026-04-26T16:40:33Z</time></trkpt><trkpt lat="40.380632948946435" lon="15.009184031727045"><ele>24.833333333333336</ele><time>2026-04-26T16:40:34Z</time></trkpt><trkpt lat="40.38067534611103" lon="15.00929366544604"><ele>25.0</ele><time>2026-04-26T16:40:35Z</time></trkpt><trkpt lat="40.380716344271455" lon="15.00940612209157"><ele>25.0</ele><time>2026-04-26T16:40:36Z</time></trkpt><trkpt lat="40.38076130870745" lon="15.009526204852111"><ele>25.0</ele><time>2026-04-26T16:40:37Z</time></trkpt><trkpt lat="40.38080346042673" lon="15.009647009600872"><ele>25.0</ele><time>2026-04-26T16:40:38Z</time></trkpt><trkpt lat="40.38084187763036" lon="15.00977650677872"><ele>25.0</ele><time>2026-04-26T16:40:39Z</time></trkpt><trkpt lat="40.380877398845506" lon="15.00990945654528"><ele>25.0</ele><time>2026-04-26T16:40:40Z</time></trkpt><trkpt lat="40.3809212149687" lon="15.01004412371782"><ele>25.8</ele><time>2026-04-26T16:40:41Z</time></trkpt><trkpt lat="40.380959652111144" lon="15.010181344648606"><ele>26.6</ele><time>2026-04-26T16:40:42Z</time></trkpt><trkpt lat="40.38099703806216" lon="15.010316531358278"><ele>27.4</ele><time>2026-04-26T16:40:43Z</time></trkpt><trkpt lat="40.38103811202287" lon="15.01045624070884"><ele>28.2</ele><time>2026-04-26T16:40:44Z</time></trkpt><trkpt lat="40.381080003962985" lon="15.010596000655717"><ele>29.0</ele><time>2026-04-26T16:40:45Z</time></trkpt><trkpt lat="40.38112182031024" lon="15.010739545031116"><ele>29.25</ele><time>2026-04-26T16:40:46Z</time></trkpt><trkpt lat="40.381164852709276" lon="15.010885369230023"><ele>29.5</ele><time>2026-04-26T16:40:47Z</time></trkpt><trkpt lat="40.38120381967534" lon="15.011034662276215"><ele>29.75</ele><time>2026-04-26T16:40:48Z</time></trkpt><trkpt lat="40.381246664947874" lon="15.011182388093594"><ele>30.0</ele><time>2026-04-26T16:40:49Z</time></trkpt><trkpt lat="40.38129745866455" lon="15.011333760749634"><ele>30.0</ele><time>2026-04-26T16:40:50Z</time></trkpt><trkpt lat="40.38134141273542" lon="15.011501220712121"><ele>30.0</ele><time>2026-04-26T16:40:51Z</time></trkpt><trkpt lat="40.38138875952169" lon="15.011683783312709"><ele>30.0</ele><time>2026-04-26T16:40:52Z</time></trkpt><trkpt lat="40.38144088321535" lon="15.01186771103694"><ele>30.0</ele><time>2026-04-26T16:40:53Z</time></trkpt><trkpt lat="40.38149142719813" lon="15.01205730547439"><ele>28.5</ele><time>2026-04-26T16:40:54Z</time></trkpt><trkpt lat="40.381543305395695" lon="15.012232798225819"><ele>27.0</ele><time>2026-04-26T16:40:55Z</time></trkpt><trkpt lat="40.38159265870326" lon="15.012397228321475"><ele>25.5</ele><time>2026-04-26T16:40:56Z</time></trkpt><trkpt lat="40.38163780495766" lon="15.012567565110182"><ele>24.0</ele><time>2026-04-26T16:40:57Z</time></trkpt><trkpt lat="40.38168832350939" lon="15.012740069552017"><ele>24.0</ele><time>2026-04-26T16:40:58Z</time></trkpt><trkpt lat="40.381733029939035" lon="15.01291509212297"><ele>24.0</ele><time>2026-04-26T16:40:59Z</time></trkpt><trkpt lat="40.38178402204725" lon="15.013090760438224"><ele>24.0</ele><time>2026-04-26T16:41:00Z</time></trkpt><trkpt lat="40.3818375619213" lon="15.013259267405202"><ele>24.0</ele><time>2026-04-26T16:41:01Z</time></trkpt><trkpt lat="40.3818841597534" lon="15.013417706625956"><ele>25.25</ele><time>2026-04-26T16:41:02Z</time></trkpt><trkpt lat="40.38192310068354" lon="15.013578176758635"><ele>26.5</ele><time>2026-04-26T16:41:03Z</time></trkpt><trkpt lat="40.38195934586066" lon="15.01371873617481"><ele>27.75</ele><time>2026-04-26T16:41:04Z</time></trkpt><trkpt lat="40.38201212650483" lon="15.01386964382067"><ele>29.0</ele><time>2026-04-26T16:41:05Z</time></trkpt><trkpt lat="40.38205974174848" lon="15.014020805251645"><ele>30.25</ele><time>2026-04-26T16:41:06Z</time></trkpt><trkpt lat="40.382104131997856" lon="15.014175871231377"><ele>31.5</ele><time>2026-04-26T16:41:07Z</time></trkpt><trkpt lat="40.38215186209944" lon="15.014332141646932"><ele>32.75</ele><time>2026-04-26T16:41:08Z</time></trkpt><trkpt lat="40.382208592828285" lon="15.01448543188941"><ele>34.0</ele><time>2026-04-26T16:41:09Z</time></trkpt><trkpt lat="40.382266600040246" lon="15.014628964087702"><ele>30.75</ele><time>2026-04-26T16:41:10Z</time></trkpt><trkpt lat="40.382328854855345" lon="15.014771909021533"><ele>27.5</ele><time>2026-04-26T16:41:11Z</time></trkpt><trkpt lat="40.38238888103106" lon="15.014903558277451"><ele>24.25</ele><time>2026-04-26T16:41:12Z</time></trkpt><trkpt lat="40.38244524370805" lon="15.015029398152462"><ele>21.0</ele><time>2026-04-26T16:41:13Z</time></trkpt><trkpt lat="40.38249963242071" lon="15.015150360239076"><ele>21.0</ele><time>2026-04-26T16:41:14Z</time></trkpt><trkpt lat="40.38256665731575" lon="15.01526697890687"><ele>21.0</ele><time>2026-04-26T16:41:15Z</time></trkpt><trkpt lat="40.382635110934295" lon="15.015388259619883"><ele>21.0</ele><time>2026-04-26T16:41:16Z</time></trkpt><trkpt lat="40.38270492999608" lon="15.015512374032495"><ele>21.0</ele><time>2026-04-26T16:41:17Z</time></trkpt><trkpt lat="40.38278079814108" lon="15.015636246188707"><ele>21.0</ele><time>2026-04-26T16:41:18Z</time></trkpt><trkpt lat="40.38286198428625" lon="15.015762012497063"><ele>21.0</ele><time>2026-04-26T16:41:19Z</time></trkpt><trkpt lat="40.38294813830808" lon="15.015888504650505"><ele>21.0</ele><time>2026-04-26T16:41:20Z</time></trkpt><trkpt lat="40.38303634895655" lon="15.01601659422488"><ele>21.0</ele><time>2026-04-26T16:41:21Z</time></trkpt><trkpt lat="40.383131000783" lon="15.016141819956143"><ele>19.5</ele><time>2026-04-26T16:41:22Z</time></trkpt><trkpt lat="40.38322997863791" lon="15.016264871742765"><ele>18.0</ele><time>2026-04-26T16:41:23Z</time></trkpt><trkpt lat="40.383331515128" lon="15.016388163982954"><ele>16.5</ele><time>2026-04-26T16:41:24Z</time></trkpt><trkpt lat="40.38344256441608" lon="15.016505444302336"><ele>15.0</ele><time>2026-04-26T16:41:25Z</time></trkpt><trkpt lat="40.38355724375182" lon="15.016618847593943"><ele>14.75</ele><time>2026-04-26T16:41:26Z</time></trkpt><trkpt lat="40.38367206077672" lon="15.016727884197902"><ele>14.5</ele><time>2026-04-26T16:41:27Z</time></trkpt><trkpt lat="40.38378280595071" lon="15.01682815776749"><ele>14.25</ele><time>2026-04-26T16:41:28Z</time></trkpt><trkpt lat="40.38389391428517" lon="15.01693661656349"><ele>14.0</ele><time>2026-04-26T16:41:29Z</time></trkpt><trkpt lat="40.38400711799195" lon="15.01702379786523"><ele>13.25</ele><time>2026-04-26T16:41:30Z</time></trkpt><trkpt lat="40.38412301364524" lon="15.017107157826485"><ele>12.5</ele><time>2026-04-26T16:41:31Z</time></trkpt><trkpt lat="40.38423931053529" lon="15.017185988801241"><ele>11.75</ele><time>2026-04-26T16:41:32Z</time></trkpt><trkpt lat="40.384351200459676" lon="15.017265696112348"><ele>11.0</ele><time>2026-04-26T16:41:33Z</time></trkpt><trkpt lat="40.384467709637654" lon="15.017344164683973"><ele>11.0</ele><time>2026-04-26T16:41:34Z</time></trkpt><trkpt lat="40.3845877356925" lon="15.017418086580411"><ele>11.0</ele><time>2026-04-26T16:41:35Z</time></trkpt><trkpt lat="40.38471168215291" lon="15.017478607086725"><ele>11.0</ele><time>2026-04-26T16:41:36Z</time></trkpt><trkpt lat="40.38483248465536" lon="15.017532615955355"><ele>11.0</ele><time>2026-04-26T16:41:37Z</time></trkpt><trkpt lat="40.38495736472614" lon="15.017586430346972"><ele>11.5</ele><time>2026-04-26T16:41:38Z</time></trkpt><trkpt lat="40.38508628262371" lon="15.01763524134996"><ele>12.0</ele><time>2026-04-26T16:41:39Z</time></trkpt><trkpt lat="40.38521636857062" lon="15.01767515137842"><ele>12.5</ele><time>2026-04-26T16:41:40Z</time></trkpt><trkpt lat="40.385348911460824" lon="15.017713639849275"><ele>13.0</ele><time>2026-04-26T16:41:41Z</time></trkpt><trkpt lat="40.385481542825765" lon="15.017746843286973"><ele>11.75</ele><time>2026-04-26T16:41:42Z</time></trkpt><trkpt lat="40.38561615013414" lon="15.01777833325088"><ele>10.5</ele><time>2026-04-26T16:41:43Z</time></trkpt><trkpt lat="40.38574743503802" lon="15.017806807441602"><ele>9.25</ele><time>2026-04-26T16:41:44Z</time></trkpt><trkpt lat="40.385878877256125" lon="15.01783095873019"><ele>8.0</ele><time>2026-04-26T16:41:45Z</time></trkpt><trkpt lat="40.38601108722713" lon="15.017855045076464"><ele>8.0</ele><time>2026-04-26T16:41:46Z</time></trkpt><trkpt lat="40.38614484217488" lon="15.017875960451041"><ele>8.0</ele><time>2026-04-26T16:41:47Z</time></trkpt><trkpt lat="40.386275835732306" lon="15.017893256950472"><ele>8.0</ele><time>2026-04-26T16:41:48Z</time></trkpt><trkpt lat="40.38640848782215" lon="15.01791114505786"><ele>8.0</ele><time>2026-04-26T16:41:49Z</time></trkpt><trkpt lat="40.38654308149429" lon="15.01793095923093"><ele>7.75</ele><time>2026-04-26T16:41:50Z</time></trkpt><trkpt lat="40.38667702500466" lon="15.017942101476557"><ele>7.5</ele><time>2026-04-26T16:41:51Z</time></trkpt><trkpt lat="40.386812470933904" lon="15.017956889330913"><ele>7.25</ele><time>2026-04-26T16:41:52Z</time></trkpt><trkpt lat="40.38693964128155" lon="15.017976088328949"><ele>7.0</ele><time>2026-04-26T16:41:53Z</time></trkpt><trkpt lat="40.38706718718979" lon="15.017995791589698"><ele>7.25</ele><time>2026-04-26T16:41:54Z</time></trkpt><trkpt lat="40.38719431152726" lon="15.018013782413176"><ele>7.5</ele><time>2026-04-26T16:41:55Z</time></trkpt><trkpt lat="40.38732483285154" lon="15.018027202957073"><ele>7.75</ele><time>2026-04-26T16:41:56Z</time></trkpt><trkpt lat="40.38745569650208" lon="15.018038248375769"><ele>8.0</ele><time>2026-04-26T16:41:57Z</time></trkpt><trkpt lat="40.38758732051823" lon="15.01805512240272"><ele>8.0</ele><time>2026-04-26T16:41:58Z</time></trkpt><trkpt lat="40.387722334399086" lon="15.018071558872794"><ele>8.0</ele><time>2026-04-26T16:41:59Z</time></trkpt><trkpt lat="40.3878551820543" lon="15.018090078474378"><ele>8.0</ele><time>2026-04-26T16:42:00Z</time></trkpt><trkpt lat="40.38799011840811" lon="15.018108241694508"><ele>8.0</ele><time>2026-04-26T16:42:01Z</time></trkpt><trkpt lat="40.38812358740167" lon="15.018128875806239"><ele>8.25</ele><time>2026-04-26T16:42:02Z</time></trkpt><trkpt lat="40.38825877350679" lon="15.018144874482855"><ele>8.5</ele><time>2026-04-26T16:42:03Z</time></trkpt><trkpt lat="40.388392535707" lon="15.018160531962101"><ele>8.75</ele><time>2026-04-26T16:42:04Z</time></trkpt><trkpt lat="40.38852749865994" lon="15.018176071543959"><ele>9.0</ele><time>2026-04-26T16:42:05Z</time></trkpt><trkpt lat="40.388662515461654" lon="15.01819215089502"><ele>9.0</ele><time>2026-04-26T16:42:06Z</time></trkpt><trkpt lat="40.388796518310755" lon="15.018210051647682"><ele>9.0</ele><time>2026-04-26T16:42:07Z</time></trkpt><trkpt lat="40.38893042201596" lon="15.018229911965127"><ele>9.0</ele><time>2026-04-26T16:42:08Z</time></trkpt><trkpt lat="40.38906481450941" lon="15.018246838105435"><ele>9.0</ele><time>2026-04-26T16:42:09Z</time></trkpt><trkpt lat="40.38919846769773" lon="15.018262775309736"><ele>9.0</ele><time>2026-04-26T16:42:10Z</time></trkpt><trkpt lat="40.38933252299086" lon="15.018280745540105"><ele>9.0</ele><time>2026-04-26T16:42:11Z</time></trkpt><trkpt lat="40.38946835862471" lon="15.018298558953767"><ele>9.0</ele><time>2026-04-26T16:42:12Z</time></trkpt><trkpt lat="40.38960403315101" lon="15.018313462095184"><ele>9.0</ele><time>2026-04-26T16:42:13Z</time></trkpt><trkpt lat="40.38973939107269" lon="15.01832852170162"><ele>9.0</ele><time>2026-04-26T16:42:14Z</time></trkpt><trkpt lat="40.389871851990485" lon="15.01834675515823"><ele>9.0</ele><time>2026-04-26T16:42:15Z</time></trkpt><trkpt lat="40.3900030815738" lon="15.01836399763591"><ele>9.0</ele><time>2026-04-26T16:42:16Z</time></trkpt><trkpt lat="40.390133599707866" lon="15.018380114344689"><ele>9.0</ele><time>2026-04-26T16:42:17Z</time></trkpt><trkpt lat="40.390263825727146" lon="15.018392078559424"><ele>9.0</ele><time>2026-04-26T16:42:18Z</time></trkpt><trkpt lat="40.390392884109346" lon="15.018404864596482"><ele>9.0</ele><time>2026-04-26T16:42:19Z</time></trkpt><trkpt lat="40.390513887005746" lon="15.018416312828984"><ele>9.0</ele><time>2026-04-26T16:42:20Z</time></trkpt><trkpt lat="40.390633287065135" lon="15.018427126432185"><ele>9.0</ele><time>2026-04-26T16:42:21Z</time></trkpt><trkpt lat="40.39075013576714" lon="15.018442261202068"><ele>9.0</ele><time>2026-04-26T16:42:22Z</time></trkpt><trkpt lat="40.390870248644916" lon="15.01845912063297"><ele>9.0</ele><time>2026-04-26T16:42:23Z</time></trkpt><trkpt lat="40.390989311959004" lon="15.018478150850262"><ele>9.0</ele><time>2026-04-26T16:42:24Z</time></trkpt><trkpt lat="40.39110716596199" lon="15.018491875962756"><ele>9.0</ele><time>2026-04-26T16:42:25Z</time></trkpt><trkpt lat="40.39122582649988" lon="15.018500137707443"><ele>9.5</ele><time>2026-04-26T16:42:26Z</time></trkpt><trkpt lat="40.391343212854096" lon="15.018514688215546"><ele>10.0</ele><time>2026-04-26T16:42:27Z</time></trkpt><trkpt lat="40.39146045330153" lon="15.01852945208332"><ele>10.5</ele><time>2026-04-26T16:42:28Z</time></trkpt><trkpt lat="40.39157529781012" lon="15.018548785458341"><ele>11.0</ele><time>2026-04-26T16:42:29Z</time></trkpt><trkpt lat="40.39169260159661" lon="15.01855480153396"><ele>11.0</ele><time>2026-04-26T16:42:30Z</time></trkpt><trkpt lat="40.39180883206103" lon="15.018565656186528"><ele>11.0</ele><time>2026-04-26T16:42:31Z</time></trkpt><trkpt lat="40.3919278573099" lon="15.018580744836353"><ele>11.0</ele><time>2026-04-26T16:42:32Z</time></trkpt><trkpt lat="40.39204462273515" lon="15.018595760279016"><ele>11.0</ele><time>2026-04-26T16:42:33Z</time></trkpt><trkpt lat="40.392163459532526" lon="15.01861112093901"><ele>10.75</ele><time>2026-04-26T16:42:34Z</time></trkpt><trkpt lat="40.39228294194215" lon="15.018630014290844"><ele>10.5</ele><time>2026-04-26T16:42:35Z</time></trkpt><trkpt lat="40.392406106908076" lon="15.018647197727946"><ele>10.25</ele><time>2026-04-26T16:42:36Z</time></trkpt><trkpt lat="40.39253182727726" lon="15.018663473757853"><ele>10.0</ele><time>2026-04-26T16:42:37Z</time></trkpt><trkpt lat="40.392653862472116" lon="15.018675883722874"><ele>10.0</ele><time>2026-04-26T16:42:38Z</time></trkpt><trkpt lat="40.392776094537844" lon="15.018685026319464"><ele>10.0</ele><time>2026-04-26T16:42:39Z</time></trkpt><trkpt lat="40.392902085513114" lon="15.01869921611643"><ele>10.0</ele><time>2026-04-26T16:42:40Z</time></trkpt><trkpt lat="40.39302600786029" lon="15.01871695542793"><ele>10.0</ele><time>2026-04-26T16:42:41Z</time></trkpt><trkpt lat="40.393154985150886" lon="15.018722881422912"><ele>10.0</ele><time>2026-04-26T16:42:42Z</time></trkpt><trkpt lat="40.39328168455469" lon="15.018733406519312"><ele>10.0</ele><time>2026-04-26T16:42:43Z</time></trkpt><trkpt lat="40.39341052440239" lon="15.018741228430017"><ele>10.0</ele><time>2026-04-26T16:42:44Z</time></trkpt><trkpt lat="40.393538307640895" lon="15.018751371519704"><ele>10.0</ele><time>2026-04-26T16:42:45Z</time></trkpt><trkpt lat="40.39366581428278" lon="15.01876185310035"><ele>10.0</ele><time>2026-04-26T16:42:46Z</time></trkpt><trkpt lat="40.39379216047718" lon="15.018770488919762"><ele>10.0</ele><time>2026-04-26T16:42:47Z</time></trkpt><trkpt lat="40.39392114005552" lon="15.018775395970762"><ele>10.0</ele><time>2026-04-26T16:42:48Z</time></trkpt><trkpt lat="40.39404989945855" lon="15.018781114491489"><ele>10.0</ele><time>2026-04-26T16:42:49Z</time></trkpt><trkpt lat="40.39417755861759" lon="15.018788355054914"><ele>9.75</ele><time>2026-04-26T16:42:50Z</time></trkpt><trkpt lat="40.394307027075875" lon="15.018795980978076"><ele>9.5</ele><time>2026-04-26T16:42:51Z</time></trkpt><trkpt lat="40.39443564386411" lon="15.01880048458327"><ele>9.25</ele><time>2026-04-26T16:42:52Z</time></trkpt><trkpt lat="40.39456388594649" lon="15.018799740409296"><ele>9.0</ele><time>2026-04-26T16:42:53Z</time></trkpt><trkpt lat="40.394692910061174" lon="15.018803779080711"><ele>8.75</ele><time>2026-04-26T16:42:54Z</time></trkpt><trkpt lat="40.39481722630913" lon="15.018807159613797"><ele>8.5</ele><time>2026-04-26T16:42:55Z</time></trkpt><trkpt lat="40.394936860508295" lon="15.01881179895038"><ele>8.25</ele><time>2026-04-26T16:42:56Z</time></trkpt><trkpt lat="40.39505993292835" lon="15.01881271851994"><ele>8.0</ele><time>2026-04-26T16:42:57Z</time></trkpt><trkpt lat="40.3951842293509" lon="15.018812600359382"><ele>8.0</ele><time>2026-04-26T16:42:58Z</time></trkpt><trkpt lat="40.39531027727739" lon="15.018811572679786"><ele>8.0</ele><time>2026-04-26T16:42:59Z</time></trkpt><trkpt lat="40.39544062168549" lon="15.018815185651194"><ele>8.0</ele><time>2026-04-26T16:43:00Z</time></trkpt><trkpt lat="40.39556819602508" lon="15.018814683433083"><ele>8.0</ele><time>2026-04-26T16:43:01Z</time></trkpt><trkpt lat="40.395694096486444" lon="15.018814665808799"><ele>7.75</ele><time>2026-04-26T16:43:02Z</time></trkpt><trkpt lat="40.39582249419813" lon="15.018812466338645"><ele>7.5</ele><time>2026-04-26T16:43:03Z</time></trkpt><trkpt lat="40.395952341332666" lon="15.018809823749782"><ele>7.25</ele><time>2026-04-26T16:43:04Z</time></trkpt><trkpt lat="40.39608291652076" lon="15.018808595374345"><ele>7.0</ele><time>2026-04-26T16:43:05Z</time></trkpt><trkpt lat="40.39621164616458" lon="15.018805840114922"><ele>6.75</ele><time>2026-04-26T16:43:06Z</time></trkpt><trkpt lat="40.39634208673758" lon="15.01880012962143"><ele>6.5</ele><time>2026-04-26T16:43:07Z</time></trkpt><trkpt lat="40.39647313373371" lon="15.018792799195475"><ele>6.25</ele><time>2026-04-26T16:43:08Z</time></trkpt><trkpt lat="40.39660316251079" lon="15.018786754855244"><ele>6.0</ele><time>2026-04-26T16:43:09Z</time></trkpt><trkpt lat="40.396732459859244" lon="15.0187807763943"><ele>6.0</ele><time>2026-04-26T16:43:10Z</time></trkpt><trkpt lat="40.39686064134825" lon="15.018775532858518"><ele>6.0</ele><time>2026-04-26T16:43:11Z</time></trkpt><trkpt lat="40.396988552141224" lon="15.018769943158095"><ele>6.0</ele><time>2026-04-26T16:43:12Z</time></trkpt><trkpt lat="40.39711468163679" lon="15.018766506171449"><ele>6.0</ele><time>2026-04-26T16:43:13Z</time></trkpt><trkpt lat="40.39723862923153" lon="15.018760008695772"><ele>6.0</ele><time>2026-04-26T16:43:14Z</time></trkpt><trkpt lat="40.39736147013195" lon="15.0187524463633"><ele>6.0</ele><time>2026-04-26T16:43:15Z</time></trkpt><trkpt lat="40.397477220934306" lon="15.018746252985133"><ele>6.0</ele><time>2026-04-26T16:43:16Z</time></trkpt><trkpt lat="40.3975897473322" lon="15.018744571379562"><ele>6.0</ele><time>2026-04-26T16:43:17Z</time></trkpt><trkpt lat="40.39769894398374" lon="15.018742649550088"><ele>6.0</ele><time>2026-04-26T16:43:18Z</time></trkpt><trkpt lat="40.39779995585149" lon="15.01874088513535"><ele>6.0</ele><time>2026-04-26T16:43:19Z</time></trkpt><trkpt lat="40.39789957186005" lon="15.018739861987612"><ele>6.0</ele><time>2026-04-26T16:43:20Z</time></trkpt><trkpt lat="40.39799473462421" lon="15.018738707576745"><ele>6.0</ele><time>2026-04-26T16:43:21Z</time></trkpt><trkpt lat="40.398085407156884" lon="15.018735904095891"><ele>6.0</ele><time>2026-04-26T16:43:22Z</time></trkpt><trkpt lat="40.398169242111265" lon="15.01873295897631"><ele>6.166666666666667</ele><time>2026-04-26T16:43:23Z</time></trkpt><trkpt lat="40.39824794401692" lon="15.018730199880956"><ele>6.333333333333334</ele><time>2026-04-26T16:43:24Z</time></trkpt><trkpt lat="40.39832250607384" lon="15.018721381071378"><ele>6.5</ele><time>2026-04-26T16:43:25Z</time></trkpt><trkpt lat="40.398391975607495" lon="15.018714455733479"><ele>6.666666666666667</ele><time>2026-04-26T16:43:26Z</time></trkpt><trkpt lat="40.398459466309646" lon="15.018710326335922"><ele>6.833333333333334</ele><time>2026-04-26T16:43:27Z</time></trkpt><trkpt lat="40.39852335347806" lon="15.018708213894993"><ele>7.0</ele><time>2026-04-26T16:43:28Z</time></trkpt><trkpt lat="40.39864270782256" lon="15.018701934010918"><ele>7.0</ele><time>2026-04-26T16:43:30Z</time></trkpt><trkpt lat="40.39875416731688" lon="15.018690729210865"><ele>6.999999999999999</ele><time>2026-04-26T16:43:32Z</time></trkpt><trkpt lat="40.39886387905675" lon="15.01869139334608"><ele>6.999999999999999</ele><time>2026-04-26T16:43:34Z</time></trkpt><trkpt lat="40.398938977095995" lon="15.0186850878063"><ele>7.0</ele><time>2026-04-26T16:43:35Z</time></trkpt><trkpt lat="40.39903811285792" lon="15.018677182904032"><ele>7.0</ele><time>2026-04-26T16:43:36Z</time></trkpt><trkpt lat="40.39910819985925" lon="15.018675692635696"><ele>7.3999999999999995</ele><time>2026-04-26T16:43:37Z</time></trkpt><trkpt lat="40.39917288224302" lon="15.018670775374853"><ele>7.799999999999999</ele><time>2026-04-26T16:43:38Z</time></trkpt><trkpt lat="40.39929688993104" lon="15.018661058532993"><ele>8.2</ele><time>2026-04-26T16:43:40Z</time></trkpt><trkpt lat="40.39940379184968" lon="15.018651679150569"><ele>8.6</ele><time>2026-04-26T16:43:42Z</time></trkpt><trkpt lat="40.39948788538336" lon="15.018650951993367"><ele>9.0</ele><time>2026-04-26T16:43:45Z</time></trkpt><trkpt lat="40.39958168338239" lon="15.01865189744294"><ele>9.0</ele><time>2026-04-26T16:44:17Z</time></trkpt><trkpt lat="40.39964922967232" lon="15.018646565102216"><ele>9.0</ele><time>2026-04-26T16:44:18Z</time></trkpt><trkpt lat="40.399722679060496" lon="15.018636957073323"><ele>9.0</ele><time>2026-04-26T16:44:19Z</time></trkpt><trkpt lat="40.39980232566891" lon="15.018630896180689"><ele>9.0</ele><time>2026-04-26T16:44:20Z</time></trkpt><trkpt lat="40.39988819877145" lon="15.018626843945245"><ele>9.0</ele><time>2026-04-26T16:44:21Z</time></trkpt><trkpt lat="40.399971636133266" lon="15.01862368535912"><ele>9.0</ele><time>2026-04-26T16:44:22Z</time></trkpt><trkpt lat="40.40005306690212" lon="15.018619268668955"><ele>9.5</ele><time>2026-04-26T16:44:23Z</time></trkpt><trkpt lat="40.400140026564394" lon="15.018618645739023"><ele>10.0</ele><time>2026-04-26T16:44:24Z</time></trkpt><trkpt lat="40.40022298439794" lon="15.018614099809582"><ele>10.5</ele><time>2026-04-26T16:44:25Z</time></trkpt><trkpt lat="40.40030507466973" lon="15.018607961996722"><ele>11.0</ele><time>2026-04-26T16:44:26Z</time></trkpt><trkpt lat="40.4003835103323" lon="15.018605613929958"><ele>11.5</ele><time>2026-04-26T16:44:27Z</time></trkpt><trkpt lat="40.40045036141664" lon="15.018602789606176"><ele>12.0</ele><time>2026-04-26T16:44:28Z</time></trkpt><trkpt lat="40.4005690122704" lon="15.018584852525473"><ele>12.399999999999999</ele><time>2026-04-26T16:44:30Z</time></trkpt><trkpt lat="40.40063801914365" lon="15.018574795106714"><ele>12.799999999999999</ele><time>2026-04-26T16:44:31Z</time></trkpt><trkpt lat="40.400713549653624" lon="15.018575781073668"><ele>13.2</ele><time>2026-04-26T16:44:32Z</time></trkpt><trkpt lat="40.400816109560935" lon="15.018582401191937"><ele>13.6</ele><time>2026-04-26T16:44:33Z</time></trkpt><trkpt lat="40.40094977803666" lon="15.01857899572673"><ele>14.0</ele><time>2026-04-26T16:44:34Z</time></trkpt><trkpt lat="40.401094008274164" lon="15.018571019244748"><ele>14.0</ele><time>2026-04-26T16:44:35Z</time></trkpt><trkpt lat="40.401218868788455" lon="15.01856270164176"><ele>14.0</ele><time>2026-04-26T16:44:36Z</time></trkpt><trkpt lat="40.401340170937004" lon="15.01855598218161"><ele>14.0</ele><time>2026-04-26T16:44:37Z</time></trkpt><trkpt lat="40.401451581955435" lon="15.018549125909415"><ele>14.0</ele><time>2026-04-26T16:44:38Z</time></trkpt><trkpt lat="40.40156015893602" lon="15.018545599178525"><ele>14.0</ele><time>2026-04-26T16:44:39Z</time></trkpt><trkpt lat="40.401663321411064" lon="15.018536622917749"><ele>13.999999999999998</ele><time>2026-04-26T16:44:40Z</time></trkpt><trkpt lat="40.40176720782223" lon="15.018530176233252"><ele>13.999999999999998</ele><time>2026-04-26T16:44:41Z</time></trkpt><trkpt lat="40.401879411339344" lon="15.018517547492864"><ele>14.0</ele><time>2026-04-26T16:44:42Z</time></trkpt><trkpt lat="40.4019906118969" lon="15.018505355571493"><ele>14.0</ele><time>2026-04-26T16:44:43Z</time></trkpt><trkpt lat="40.40209977814765" lon="15.018500060427163"><ele>14.0</ele><time>2026-04-26T16:44:44Z</time></trkpt><trkpt lat="40.40220926379061" lon="15.018495494495863"><ele>13.999999999999998</ele><time>2026-04-26T16:44:45Z</time></trkpt><trkpt lat="40.40231577717569" lon="15.018489518083904"><ele>13.999999999999998</ele><time>2026-04-26T16:44:46Z</time></trkpt><trkpt lat="40.40242428833351" lon="15.018483842189358"><ele>14.0</ele><time>2026-04-26T16:44:47Z</time></trkpt><trkpt lat="40.402541057560576" lon="15.018478688192014"><ele>14.0</ele><time>2026-04-26T16:44:48Z</time></trkpt><trkpt lat="40.40267722448297" lon="15.01847419387028"><ele>14.0</ele><time>2026-04-26T16:44:49Z</time></trkpt><trkpt lat="40.40280430328172" lon="15.01846776007071"><ele>14.0</ele><time>2026-04-26T16:44:50Z</time></trkpt><trkpt lat="40.40292239135608" lon="15.018460912099417"><ele>14.0</ele><time>2026-04-26T16:44:51Z</time></trkpt><trkpt lat="40.40303782754526" lon="15.018459256514282"><ele>14.0</ele><time>2026-04-26T16:44:52Z</time></trkpt><trkpt lat="40.40315490778115" lon="15.01845569532661"><ele>14.0</ele><time>2026-04-26T16:44:53Z</time></trkpt><trkpt lat="40.4032717666425" lon="15.018446036342867"><ele>14.0</ele><time>2026-04-26T16:44:54Z</time></trkpt><trkpt lat="40.40338780935963" lon="15.018438248104074"><ele>14.0</ele><time>2026-04-26T16:44:55Z</time></trkpt><trkpt lat="40.40350724986549" lon="15.018430642814803"><ele>14.0</ele><time>2026-04-26T16:44:56Z</time></trkpt><trkpt lat="40.403645382097395" lon="15.018414791705439"><ele>14.0</ele><time>2026-04-26T16:44:57Z</time></trkpt><trkpt lat="40.403785014604765" lon="15.01839708594127"><ele>14.0</ele><time>2026-04-26T16:44:58Z</time></trkpt><trkpt lat="40.403922807639155" lon="15.018386557749027"><ele>14.0</ele><time>2026-04-26T16:44:59Z</time></trkpt><trkpt lat="40.40405923736135" lon="15.018376850281646"><ele>14.0</ele><time>2026-04-26T16:45:00Z</time></trkpt><trkpt lat="40.404189721192466" lon="15.018368868716182"><ele>14.5</ele><time>2026-04-26T16:45:01Z</time></trkpt><trkpt lat="40.404316545472604" lon="15.01836175269652"><ele>15.0</ele><time>2026-04-26T16:45:02Z</time></trkpt><trkpt lat="40.40443986121783" lon="15.018356884034135"><ele>15.5</ele><time>2026-04-26T16:45:03Z</time></trkpt><trkpt lat="40.404554542895724" lon="15.018352457745886"><ele>16.0</ele><time>2026-04-26T16:45:04Z</time></trkpt><trkpt lat="40.40466566508777" lon="15.018346873550195"><ele>16.0</ele><time>2026-04-26T16:45:05Z</time></trkpt><trkpt lat="40.40477000663976" lon="15.018342398829322"><ele>16.0</ele><time>2026-04-26T16:45:06Z</time></trkpt><trkpt lat="40.40487161651413" lon="15.018338827979527"><ele>16.0</ele><time>2026-04-26T16:45:07Z</time></trkpt><trkpt lat="40.40496914484575" lon="15.01833672484015"><ele>16.0</ele><time>2026-04-26T16:45:08Z</time></trkpt><trkpt lat="40.40508030908707" lon="15.018335777683486"><ele>16.0</ele><time>2026-04-26T16:45:09Z</time></trkpt><trkpt lat="40.40520900314535" lon="15.018332297290545"><ele>16.0</ele><time>2026-04-26T16:45:10Z</time></trkpt><trkpt lat="40.40535342616483" lon="15.018319249710999"><ele>16.0</ele><time>2026-04-26T16:45:11Z</time></trkpt><trkpt lat="40.40550334191621" lon="15.018302494375698"><ele>16.0</ele><time>2026-04-26T16:45:12Z</time></trkpt><trkpt lat="40.405637129310286" lon="15.018292895508742"><ele>16.0</ele><time>2026-04-26T16:45:13Z</time></trkpt><trkpt lat="40.4057656775038" lon="15.018287647019363"><ele>16.25</ele><time>2026-04-26T16:45:14Z</time></trkpt><trkpt lat="40.40589033014838" lon="15.018283429771305"><ele>16.5</ele><time>2026-04-26T16:45:15Z</time></trkpt><trkpt lat="40.40601494961736" lon="15.01827967578199"><ele>16.75</ele><time>2026-04-26T16:45:16Z</time></trkpt><trkpt lat="40.40613437360577" lon="15.018279198949267"><ele>17.0</ele><time>2026-04-26T16:45:17Z</time></trkpt><trkpt lat="40.40625143526242" lon="15.01828032801635"><ele>17.25</ele><time>2026-04-26T16:45:18Z</time></trkpt><trkpt lat="40.40636687249668" lon="15.018273829994786"><ele>17.5</ele><time>2026-04-26T16:45:19Z</time></trkpt><trkpt lat="40.40648232694963" lon="15.01826895936038"><ele>17.75</ele><time>2026-04-26T16:45:20Z</time></trkpt><trkpt lat="40.406602450014134" lon="15.018261729748621"><ele>18.0</ele><time>2026-04-26T16:45:21Z</time></trkpt><trkpt lat="40.406719855449" lon="15.018258511093235"><ele>18.0</ele><time>2026-04-26T16:45:22Z</time></trkpt><trkpt lat="40.406832257415125" lon="15.018250291877584"><ele>18.0</ele><time>2026-04-26T16:45:23Z</time></trkpt><trkpt lat="40.40694050327423" lon="15.018237365576475"><ele>18.0</ele><time>2026-04-26T16:45:24Z</time></trkpt><trkpt lat="40.40704469350158" lon="15.018223322063543"><ele>18.0</ele><time>2026-04-26T16:45:25Z</time></trkpt><trkpt lat="40.407148108897395" lon="15.018213747490137"><ele>18.0</ele><time>2026-04-26T16:45:26Z</time></trkpt><trkpt lat="40.40724060423442" lon="15.018204994949127"><ele>17.833333333333332</ele><time>2026-04-26T16:45:27Z</time></trkpt><trkpt lat="40.40732129950774" lon="15.018197593717446"><ele>17.666666666666668</ele><time>2026-04-26T16:45:28Z</time></trkpt><trkpt lat="40.40739190481494" lon="15.018195199574652"><ele>17.5</ele><time>2026-04-26T16:45:29Z</time></trkpt><trkpt lat="40.40745890006452" lon="15.018192594576416"><ele>17.333333333333336</ele><time>2026-04-26T16:45:30Z</time></trkpt><trkpt lat="40.407533682260045" lon="15.018191484415613"><ele>17.166666666666668</ele><time>2026-04-26T16:45:31Z</time></trkpt><trkpt lat="40.40761552195675" lon="15.018185116912944"><ele>17.0</ele><time>2026-04-26T16:45:32Z</time></trkpt><trkpt lat="40.40769858471002" lon="15.018179222570922"><ele>17.0</ele><time>2026-04-26T16:45:33Z</time></trkpt><trkpt lat="40.4077830314246" lon="15.018175071327066"><ele>17.0</ele><time>2026-04-26T16:45:34Z</time></trkpt><trkpt lat="40.407868456802674" lon="15.01817219784814"><ele>17.0</ele><time>2026-04-26T16:45:35Z</time></trkpt><trkpt lat="40.40795167307802" lon="15.018171084305612"><ele>17.0</ele><time>2026-04-26T16:45:36Z</time></trkpt><trkpt lat="40.40804011116669" lon="15.018167762279456"><ele>17.0</ele><time>2026-04-26T16:45:37Z</time></trkpt><trkpt lat="40.40812616735538" lon="15.018158122070883"><ele>17.0</ele><time>2026-04-26T16:45:38Z</time></trkpt><trkpt lat="40.408209988823565" lon="15.018150843567254"><ele>16.833333333333336</ele><time>2026-04-26T16:45:39Z</time></trkpt><trkpt lat="40.40828808544999" lon="15.018146363317777"><ele>16.666666666666668</ele><time>2026-04-26T16:45:40Z</time></trkpt><trkpt lat="40.40835103200874" lon="15.018143069191535"><ele>16.5</ele><time>2026-04-26T16:45:41Z</time></trkpt><trkpt lat="40.40845854477582" lon="15.018146676642349"><ele>16.333333333333332</ele><time>2026-04-26T16:45:43Z</time></trkpt><trkpt lat="40.40853530056138" lon="15.018152863020543"><ele>16.166666666666664</ele><time>2026-04-26T16:45:45Z</time></trkpt><trkpt lat="40.40863872581355" lon="15.018153606116583"><ele>16.0</ele><time>2026-04-26T16:45:47Z</time></trkpt><trkpt lat="40.40874262403921" lon="15.018148029140553"><ele>15.999999999999998</ele><time>2026-04-26T16:45:49Z</time></trkpt><trkpt lat="40.40881699518098" lon="15.018157655456237"><ele>16.0</ele><time>2026-04-26T16:45:51Z</time></trkpt><trkpt lat="40.40892408600065" lon="15.0181453723014"><ele>16.0</ele><time>2026-04-26T16:45:53Z</time></trkpt><trkpt lat="40.40902472135115" lon="15.018153375564747"><ele>16.0</ele><time>2026-04-26T16:45:55Z</time></trkpt><trkpt lat="40.40910177100636" lon="15.018171208915495"><ele>15.999999999999998</ele><time>2026-04-26T16:45:57Z</time></trkpt><trkpt lat="40.40917381851705" lon="15.018188862900345"><ele>16.0</ele><time>2026-04-26T16:45:59Z</time></trkpt><trkpt lat="40.40926364746038" lon="15.018209243818022"><ele>16.0</ele><time>2026-04-26T16:46:02Z</time></trkpt><trkpt lat="40.40933131785064" lon="15.018182474965748"><ele>16.0</ele><time>2026-04-26T16:46:06Z</time></trkpt></trkseg></trk></gpx>